<?xml version="1.0" encoding="UTF-8"?>
<gpx xmlns="http://www.topografix.com/GPX/1/1" xmlns:xsi="http://www.w3.org/2001/XMLSchema-instance" version="1.1" xsi:schemaLocation="http://www.topografix.com/GPX/1/1 http://www.topografix.com/GPX/1/1/gpx.xsd">
  <metadata>
    <name>Epic Triathlon Full Aquabike</name>
  </metadata>
  <trk>
    <name>Epic Triathlon Full Aquabike</name>
    <trkseg>
      <trkpt lat="40.111535" lon="0.153662">
        <ele>3.9368</ele>
        <time>2024-05-25T09:16:00.000Z</time>
      </trkpt>
      <trkpt lat="40.111901" lon="0.152558">
        <ele>3.94628</ele>
        <time>2024-05-25T09:16:10.000Z</time>
      </trkpt>
      <trkpt lat="40.111934" lon="0.152403">
        <ele>3.993599</ele>
        <time>2024-05-25T09:16:11.000Z</time>
      </trkpt>
      <trkpt lat="40.111981" lon="0.152264">
        <ele>4.040383</ele>
        <time>2024-05-25T09:16:12.000Z</time>
      </trkpt>
      <trkpt lat="40.11223" lon="0.151549">
        <ele>4.271459</ele>
        <time>2024-05-25T09:16:19.000Z</time>
      </trkpt>
      <trkpt lat="40.11358" lon="0.152159">
        <ele>4.293277</ele>
        <time>2024-05-25T09:16:35.000Z</time>
      </trkpt>
      <trkpt lat="40.113663" lon="0.152202">
        <ele>4.226696</ele>
        <time>2024-05-25T09:16:36.000Z</time>
      </trkpt>
      <trkpt lat="40.113937" lon="0.152309">
        <ele>4.037999</ele>
        <time>2024-05-25T09:16:39.000Z</time>
      </trkpt>
      <trkpt lat="40.114045" lon="0.152361">
        <ele>3.952942</ele>
        <time>2024-05-25T09:16:40.000Z</time>
      </trkpt>
      <trkpt lat="40.11516" lon="0.152878">
        <ele>3.152268</ele>
        <time>2024-05-25T09:16:53.000Z</time>
      </trkpt>
      <trkpt lat="40.11578" lon="0.153157">
        <ele>2.696131</ele>
        <time>2024-05-25T09:17:00.000Z</time>
      </trkpt>
      <trkpt lat="40.115884" lon="0.153265">
        <ele>2.597736</ele>
        <time>2024-05-25T09:17:01.000Z</time>
      </trkpt>
      <trkpt lat="40.115907" lon="0.153382">
        <ele>2.537373</ele>
        <time>2024-05-25T09:17:02.000Z</time>
      </trkpt>
      <trkpt lat="40.115958" lon="0.153473">
        <ele>2.476139</ele>
        <time>2024-05-25T09:17:03.000Z</time>
      </trkpt>
      <trkpt lat="40.116063" lon="0.153503">
        <ele>2.408802</ele>
        <time>2024-05-25T09:17:04.000Z</time>
      </trkpt>
      <trkpt lat="40.116152" lon="0.153489">
        <ele>2.343744</ele>
        <time>2024-05-25T09:17:05.000Z</time>
      </trkpt>
      <trkpt lat="40.116194" lon="0.153444">
        <ele>2.299249</ele>
        <time>2024-05-25T09:17:06.000Z</time>
      </trkpt>
      <trkpt lat="40.116436" lon="0.153526">
        <ele>2.147074</ele>
        <time>2024-05-25T09:17:09.000Z</time>
      </trkpt>
      <trkpt lat="40.116829" lon="0.153778">
        <ele>2.036967</ele>
        <time>2024-05-25T09:17:14.000Z</time>
      </trkpt>
      <trkpt lat="40.11695" lon="0.153853">
        <ele>2.005175</ele>
        <time>2024-05-25T09:17:15.000Z</time>
      </trkpt>
      <trkpt lat="40.116985" lon="0.153863">
        <ele>1.997858</ele>
        <time>2024-05-25T09:17:15.000Z</time>
      </trkpt>
      <trkpt lat="40.116988" lon="0.153885">
        <ele>1.992153</ele>
        <time>2024-05-25T09:17:15.000Z</time>
      </trkpt>
      <trkpt lat="40.117569" lon="0.1542">
        <ele>1.83545</ele>
        <time>2024-05-25T09:17:22.000Z</time>
      </trkpt>
      <trkpt lat="40.117781" lon="0.1543">
        <ele>1.783341</ele>
        <time>2024-05-25T09:17:25.000Z</time>
      </trkpt>
      <trkpt lat="40.11812" lon="0.154482">
        <ele>1.733517</ele>
        <time>2024-05-25T09:17:29.000Z</time>
      </trkpt>
      <trkpt lat="40.118756" lon="0.154807">
        <ele>1.930675</ele>
        <time>2024-05-25T09:17:37.000Z</time>
      </trkpt>
      <trkpt lat="40.118874" lon="0.154883">
        <ele>1.972012</ele>
        <time>2024-05-25T09:17:38.000Z</time>
      </trkpt>
      <trkpt lat="40.118921" lon="0.154908">
        <ele>1.983123</ele>
        <time>2024-05-25T09:17:39.000Z</time>
      </trkpt>
      <trkpt lat="40.119674" lon="0.15531">
        <ele>2.221071</ele>
        <time>2024-05-25T09:17:48.000Z</time>
      </trkpt>
      <trkpt lat="40.119785" lon="0.155376">
        <ele>2.259746</ele>
        <time>2024-05-25T09:17:49.000Z</time>
      </trkpt>
      <trkpt lat="40.120675" lon="0.155836">
        <ele>2.542731</ele>
        <time>2024-05-25T09:18:00.000Z</time>
      </trkpt>
      <trkpt lat="40.12075" lon="0.155873">
        <ele>2.569554</ele>
        <time>2024-05-25T09:18:01.000Z</time>
      </trkpt>
      <trkpt lat="40.121367" lon="0.156216">
        <ele>2.767445</ele>
        <time>2024-05-25T09:18:08.000Z</time>
      </trkpt>
      <trkpt lat="40.121471" lon="0.156353">
        <ele>2.790944</ele>
        <time>2024-05-25T09:18:10.000Z</time>
      </trkpt>
      <trkpt lat="40.121502" lon="0.156484">
        <ele>2.806326</ele>
        <time>2024-05-25T09:18:11.000Z</time>
      </trkpt>
      <trkpt lat="40.121573" lon="0.156559">
        <ele>2.82179</ele>
        <time>2024-05-25T09:18:12.000Z</time>
      </trkpt>
      <trkpt lat="40.121692" lon="0.156585">
        <ele>2.838347</ele>
        <time>2024-05-25T09:18:13.000Z</time>
      </trkpt>
      <trkpt lat="40.121794" lon="0.156507">
        <ele>2.854867</ele>
        <time>2024-05-25T09:18:14.000Z</time>
      </trkpt>
      <trkpt lat="40.122011" lon="0.156514">
        <ele>2.887079</ele>
        <time>2024-05-25T09:18:16.000Z</time>
      </trkpt>
      <trkpt lat="40.122858" lon="0.156873">
        <ele>3.017994</ele>
        <time>2024-05-25T09:18:26.000Z</time>
      </trkpt>
      <trkpt lat="40.123925" lon="0.157301">
        <ele>2.990494</ele>
        <time>2024-05-25T09:18:38.000Z</time>
      </trkpt>
      <trkpt lat="40.124329" lon="0.157375">
        <ele>2.971885</ele>
        <time>2024-05-25T09:18:43.000Z</time>
      </trkpt>
      <trkpt lat="40.124481" lon="0.157476">
        <ele>2.963647</ele>
        <time>2024-05-25T09:18:45.000Z</time>
      </trkpt>
      <trkpt lat="40.124549" lon="0.157567">
        <ele>2.959212</ele>
        <time>2024-05-25T09:18:46.000Z</time>
      </trkpt>
      <trkpt lat="40.124618" lon="0.157639">
        <ele>2.954715</ele>
        <time>2024-05-25T09:18:47.000Z</time>
      </trkpt>
      <trkpt lat="40.124728" lon="0.157637">
        <ele>2.978533</ele>
        <time>2024-05-25T09:18:48.000Z</time>
      </trkpt>
      <trkpt lat="40.124806" lon="0.157589">
        <ele>3.016671</ele>
        <time>2024-05-25T09:18:49.000Z</time>
      </trkpt>
      <trkpt lat="40.124879" lon="0.157425">
        <ele>3.07123</ele>
        <time>2024-05-25T09:18:51.000Z</time>
      </trkpt>
      <trkpt lat="40.124864" lon="0.157366">
        <ele>3.091132</ele>
        <time>2024-05-25T09:18:52.000Z</time>
      </trkpt>
      <trkpt lat="40.124836" lon="0.157249">
        <ele>3.129579</ele>
        <time>2024-05-25T09:18:53.000Z</time>
      </trkpt>
      <trkpt lat="40.124884" lon="0.157">
        <ele>3.208914</ele>
        <time>2024-05-25T09:18:55.000Z</time>
      </trkpt>
      <trkpt lat="40.124934" lon="0.156839">
        <ele>3.260563</ele>
        <time>2024-05-25T09:18:56.000Z</time>
      </trkpt>
      <trkpt lat="40.125068" lon="0.156577">
        <ele>3.358559</ele>
        <time>2024-05-25T09:18:59.000Z</time>
      </trkpt>
      <trkpt lat="40.125114" lon="0.156446">
        <ele>3.402479</ele>
        <time>2024-05-25T09:19:00.000Z</time>
      </trkpt>
      <trkpt lat="40.125186" lon="0.156115">
        <ele>3.51017</ele>
        <time>2024-05-25T09:19:03.000Z</time>
      </trkpt>
      <trkpt lat="40.125205" lon="0.156021">
        <ele>3.541473</ele>
        <time>2024-05-25T09:19:04.000Z</time>
      </trkpt>
      <trkpt lat="40.12521" lon="0.156029">
        <ele>3.542477</ele>
        <time>2024-05-25T09:19:04.000Z</time>
      </trkpt>
      <trkpt lat="40.125602" lon="0.1543">
        <ele>4.832209</ele>
        <time>2024-05-25T09:19:19.000Z</time>
      </trkpt>
      <trkpt lat="40.125628" lon="0.154163">
        <ele>4.944341</ele>
        <time>2024-05-25T09:19:20.000Z</time>
      </trkpt>
      <trkpt lat="40.125687" lon="0.154143">
        <ele>5.029621</ele>
        <time>2024-05-25T09:19:21.000Z</time>
      </trkpt>
      <trkpt lat="40.125754" lon="0.154085">
        <ele>5.114911</ele>
        <time>2024-05-25T09:19:22.000Z</time>
      </trkpt>
      <trkpt lat="40.125801" lon="0.153977">
        <ele>5.20412</ele>
        <time>2024-05-25T09:19:23.000Z</time>
      </trkpt>
      <trkpt lat="40.125799" lon="0.153896">
        <ele>5.279469</ele>
        <time>2024-05-25T09:19:24.000Z</time>
      </trkpt>
      <trkpt lat="40.125771" lon="0.153775">
        <ele>5.387075</ele>
        <time>2024-05-25T09:19:25.000Z</time>
      </trkpt>
      <trkpt lat="40.125702" lon="0.153695">
        <ele>5.494436</ele>
        <time>2024-05-25T09:19:26.000Z</time>
      </trkpt>
      <trkpt lat="40.125698" lon="0.153517">
        <ele>5.654804</ele>
        <time>2024-05-25T09:19:28.000Z</time>
      </trkpt>
      <trkpt lat="40.125985" lon="0.152127">
        <ele>6.996748</ele>
        <time>2024-05-25T09:19:40.000Z</time>
      </trkpt>
      <trkpt lat="40.126048" lon="0.151727">
        <ele>7.387214</ele>
        <time>2024-05-25T09:19:43.000Z</time>
      </trkpt>
      <trkpt lat="40.126235" lon="0.150454">
        <ele>8.512545</ele>
        <time>2024-05-25T09:19:54.000Z</time>
      </trkpt>
      <trkpt lat="40.126488" lon="0.149064">
        <ele>9.689445</ele>
        <time>2024-05-25T09:20:06.000Z</time>
      </trkpt>
      <trkpt lat="40.126526" lon="0.148934">
        <ele>9.812074</ele>
        <time>2024-05-25T09:20:07.000Z</time>
      </trkpt>
      <trkpt lat="40.126608" lon="0.148724">
        <ele>10.057271</ele>
        <time>2024-05-25T09:20:09.000Z</time>
      </trkpt>
      <trkpt lat="40.126732" lon="0.148679">
        <ele>10.214771</ele>
        <time>2024-05-25T09:20:10.000Z</time>
      </trkpt>
      <trkpt lat="40.126778" lon="0.148641">
        <ele>10.293517</ele>
        <time>2024-05-25T09:20:11.000Z</time>
      </trkpt>
      <trkpt lat="40.12683" lon="0.148514">
        <ele>10.453611</ele>
        <time>2024-05-25T09:20:12.000Z</time>
      </trkpt>
      <trkpt lat="40.126837" lon="0.148327">
        <ele>10.644926</ele>
        <time>2024-05-25T09:20:14.000Z</time>
      </trkpt>
      <trkpt lat="40.126805" lon="0.148258">
        <ele>10.741361</ele>
        <time>2024-05-25T09:20:15.000Z</time>
      </trkpt>
      <trkpt lat="40.126759" lon="0.14819">
        <ele>10.838076</ele>
        <time>2024-05-25T09:20:16.000Z</time>
      </trkpt>
      <trkpt lat="40.126674" lon="0.148123">
        <ele>10.968616</ele>
        <time>2024-05-25T09:20:17.000Z</time>
      </trkpt>
      <trkpt lat="40.126628" lon="0.147946">
        <ele>11.174887</ele>
        <time>2024-05-25T09:20:19.000Z</time>
      </trkpt>
      <trkpt lat="40.126616" lon="0.147686">
        <ele>11.442448</ele>
        <time>2024-05-25T09:20:21.000Z</time>
      </trkpt>
      <trkpt lat="40.126642" lon="0.147247">
        <ele>11.904461</ele>
        <time>2024-05-25T09:20:25.000Z</time>
      </trkpt>
      <trkpt lat="40.126782" lon="0.146116">
        <ele>13.280367</ele>
        <time>2024-05-25T09:20:35.000Z</time>
      </trkpt>
      <trkpt lat="40.126937" lon="0.145041">
        <ele>14.671009</ele>
        <time>2024-05-25T09:20:44.000Z</time>
      </trkpt>
      <trkpt lat="40.127072" lon="0.143991">
        <ele>15.40998</ele>
        <time>2024-05-25T09:20:53.000Z</time>
      </trkpt>
      <trkpt lat="40.127136" lon="0.143775">
        <ele>15.45021</ele>
        <time>2024-05-25T09:20:55.000Z</time>
      </trkpt>
      <trkpt lat="40.12726" lon="0.143513">
        <ele>15.508371</ele>
        <time>2024-05-25T09:20:58.000Z</time>
      </trkpt>
      <trkpt lat="40.127372" lon="0.143437">
        <ele>15.538938</ele>
        <time>2024-05-25T09:20:59.000Z</time>
      </trkpt>
      <trkpt lat="40.127437" lon="0.14329">
        <ele>15.569509</ele>
        <time>2024-05-25T09:21:00.000Z</time>
      </trkpt>
      <trkpt lat="40.127422" lon="0.143124">
        <ele>15.599094</ele>
        <time>2024-05-25T09:21:01.000Z</time>
      </trkpt>
      <trkpt lat="40.127361" lon="0.142993">
        <ele>15.628722</ele>
        <time>2024-05-25T09:21:02.000Z</time>
      </trkpt>
      <trkpt lat="40.127225" lon="0.14291">
        <ele>15.661285</ele>
        <time>2024-05-25T09:21:04.000Z</time>
      </trkpt>
      <trkpt lat="40.12717" lon="0.14292">
        <ele>15.677601</ele>
        <time>2024-05-25T09:21:05.000Z</time>
      </trkpt>
      <trkpt lat="40.127092" lon="0.142953">
        <ele>15.6962</ele>
        <time>2024-05-25T09:21:06.000Z</time>
      </trkpt>
      <trkpt lat="40.126994" lon="0.143083">
        <ele>15.72751</ele>
        <time>2024-05-25T09:21:08.000Z</time>
      </trkpt>
      <trkpt lat="40.126764" lon="0.143239">
        <ele>15.574682</ele>
        <time>2024-05-25T09:21:11.000Z</time>
      </trkpt>
      <trkpt lat="40.126597" lon="0.143374">
        <ele>15.442284</ele>
        <time>2024-05-25T09:21:13.000Z</time>
      </trkpt>
      <trkpt lat="40.126503" lon="0.143523">
        <ele>15.332891</ele>
        <time>2024-05-25T09:21:15.000Z</time>
      </trkpt>
      <trkpt lat="40.126446" lon="0.143661">
        <ele>15.242518</ele>
        <time>2024-05-25T09:21:16.000Z</time>
      </trkpt>
      <trkpt lat="40.12637" lon="0.144047">
        <ele>15.021397</ele>
        <time>2024-05-25T09:21:19.000Z</time>
      </trkpt>
      <trkpt lat="40.126314" lon="0.144215">
        <ele>14.917727</ele>
        <time>2024-05-25T09:21:21.000Z</time>
      </trkpt>
      <trkpt lat="40.126156" lon="0.144455">
        <ele>14.746387</ele>
        <time>2024-05-25T09:21:24.000Z</time>
      </trkpt>
      <trkpt lat="40.126016" lon="0.14459">
        <ele>14.61909</ele>
        <time>2024-05-25T09:21:26.000Z</time>
      </trkpt>
      <trkpt lat="40.125915" lon="0.144634">
        <ele>14.535692</ele>
        <time>2024-05-25T09:21:27.000Z</time>
      </trkpt>
      <trkpt lat="40.125804" lon="0.144656">
        <ele>14.448645</ele>
        <time>2024-05-25T09:21:28.000Z</time>
      </trkpt>
      <trkpt lat="40.125666" lon="0.144657">
        <ele>14.468746</ele>
        <time>2024-05-25T09:21:30.000Z</time>
      </trkpt>
      <trkpt lat="40.124982" lon="0.144403">
        <ele>14.757869</ele>
        <time>2024-05-25T09:21:38.000Z</time>
      </trkpt>
      <trkpt lat="40.123878" lon="0.143883">
        <ele>15.367232</ele>
        <time>2024-05-25T09:21:51.000Z</time>
      </trkpt>
      <trkpt lat="40.123516" lon="0.14366">
        <ele>15.809867</ele>
        <time>2024-05-25T09:21:55.000Z</time>
      </trkpt>
      <trkpt lat="40.123371" lon="0.14347">
        <ele>16.031629</ele>
        <time>2024-05-25T09:21:57.000Z</time>
      </trkpt>
      <trkpt lat="40.123247" lon="0.143231">
        <ele>16.28482</ele>
        <time>2024-05-25T09:21:59.000Z</time>
      </trkpt>
      <trkpt lat="40.123169" lon="0.142954">
        <ele>16.523389</ele>
        <time>2024-05-25T09:22:02.000Z</time>
      </trkpt>
      <trkpt lat="40.123148" lon="0.142658">
        <ele>16.772266</ele>
        <time>2024-05-25T09:22:05.000Z</time>
      </trkpt>
      <trkpt lat="40.123194" lon="0.142296">
        <ele>17.084168</ele>
        <time>2024-05-25T09:22:08.000Z</time>
      </trkpt>
      <trkpt lat="40.124302" lon="0.13805">
        <ele>20.818893</ele>
        <time>2024-05-25T09:22:46.000Z</time>
      </trkpt>
      <trkpt lat="40.124476" lon="0.137507">
        <ele>21.400495</ele>
        <time>2024-05-25T09:22:51.000Z</time>
      </trkpt>
      <trkpt lat="40.124506" lon="0.137382">
        <ele>21.55915</ele>
        <time>2024-05-25T09:22:52.000Z</time>
      </trkpt>
      <trkpt lat="40.124576" lon="0.137139">
        <ele>21.85078</ele>
        <time>2024-05-25T09:22:54.000Z</time>
      </trkpt>
      <trkpt lat="40.124625" lon="0.136994">
        <ele>22.029715</ele>
        <time>2024-05-25T09:22:55.000Z</time>
      </trkpt>
      <trkpt lat="40.124628" lon="0.136965">
        <ele>22.065513</ele>
        <time>2024-05-25T09:22:55.000Z</time>
      </trkpt>
      <trkpt lat="40.124993" lon="0.135722">
        <ele>23.585097</ele>
        <time>2024-05-25T09:23:06.000Z</time>
      </trkpt>
      <trkpt lat="40.125259" lon="0.134824">
        <ele>24.944613</ele>
        <time>2024-05-25T09:23:14.000Z</time>
      </trkpt>
      <trkpt lat="40.125882" lon="0.132795">
        <ele>28.167155</ele>
        <time>2024-05-25T09:23:33.000Z</time>
      </trkpt>
      <trkpt lat="40.12604" lon="0.132177">
        <ele>29.155281</ele>
        <time>2024-05-25T09:23:39.000Z</time>
      </trkpt>
      <trkpt lat="40.126159" lon="0.131609">
        <ele>30.034715</ele>
        <time>2024-05-25T09:23:44.000Z</time>
      </trkpt>
      <trkpt lat="40.12626" lon="0.130895">
        <ele>31.040638</ele>
        <time>2024-05-25T09:23:50.000Z</time>
      </trkpt>
      <trkpt lat="40.126835" lon="0.12499">
        <ele>38.149377</ele>
        <time>2024-05-25T09:24:41.000Z</time>
      </trkpt>
      <trkpt lat="40.126916" lon="0.12418">
        <ele>39.144843</ele>
        <time>2024-05-25T09:24:48.000Z</time>
      </trkpt>
      <trkpt lat="40.127011" lon="0.123253">
        <ele>40.539086</ele>
        <time>2024-05-25T09:24:56.000Z</time>
      </trkpt>
      <trkpt lat="40.127557" lon="0.117486">
        <ele>48.993263</ele>
        <time>2024-05-25T09:25:45.000Z</time>
      </trkpt>
      <trkpt lat="40.12759" lon="0.11674">
        <ele>49.786847</ele>
        <time>2024-05-25T09:25:51.000Z</time>
      </trkpt>
      <trkpt lat="40.127527" lon="0.115595">
        <ele>50.709999</ele>
        <time>2024-05-25T09:26:01.000Z</time>
      </trkpt>
      <trkpt lat="40.127376" lon="0.11458">
        <ele>51.542639</ele>
        <time>2024-05-25T09:26:10.000Z</time>
      </trkpt>
      <trkpt lat="40.127168" lon="0.113637">
        <ele>52.37465</ele>
        <time>2024-05-25T09:26:18.000Z</time>
      </trkpt>
      <trkpt lat="40.127022" lon="0.113122">
        <ele>52.832523</ele>
        <time>2024-05-25T09:26:23.000Z</time>
      </trkpt>
      <trkpt lat="40.126785" lon="0.112482">
        <ele>53.56586</ele>
        <time>2024-05-25T09:26:29.000Z</time>
      </trkpt>
      <trkpt lat="40.126576" lon="0.111976">
        <ele>54.504131</ele>
        <time>2024-05-25T09:26:34.000Z</time>
      </trkpt>
      <trkpt lat="40.126257" lon="0.111367">
        <ele>55.717315</ele>
        <time>2024-05-25T09:26:40.000Z</time>
      </trkpt>
      <trkpt lat="40.125985" lon="0.110898">
        <ele>56.679313</ele>
        <time>2024-05-25T09:26:45.000Z</time>
      </trkpt>
      <trkpt lat="40.125648" lon="0.110384">
        <ele>57.86084</ele>
        <time>2024-05-25T09:26:51.000Z</time>
      </trkpt>
      <trkpt lat="40.125277" lon="0.109947">
        <ele>59.012803</ele>
        <time>2024-05-25T09:26:57.000Z</time>
      </trkpt>
      <trkpt lat="40.124708" lon="0.109297">
        <ele>60.802375</ele>
        <time>2024-05-25T09:27:05.000Z</time>
      </trkpt>
      <trkpt lat="40.12083" lon="0.10516">
        <ele>72.369403</ele>
        <time>2024-05-25T09:28:01.000Z</time>
      </trkpt>
      <trkpt lat="40.120588" lon="0.104902">
        <ele>73.05023</ele>
        <time>2024-05-25T09:28:04.000Z</time>
      </trkpt>
      <trkpt lat="40.115909" lon="0.099916">
        <ele>85.877592</ele>
        <time>2024-05-25T09:29:11.000Z</time>
      </trkpt>
      <trkpt lat="40.115372" lon="0.099415">
        <ele>86.567195</ele>
        <time>2024-05-25T09:29:18.000Z</time>
      </trkpt>
      <trkpt lat="40.114801" lon="0.099005">
        <ele>87.244473</ele>
        <time>2024-05-25T09:29:25.000Z</time>
      </trkpt>
      <trkpt lat="40.114589" lon="0.098881">
        <ele>87.443925</ele>
        <time>2024-05-25T09:29:28.000Z</time>
      </trkpt>
      <trkpt lat="40.113243" lon="0.098159">
        <ele>87.456529</ele>
        <time>2024-05-25T09:29:44.000Z</time>
      </trkpt>
      <trkpt lat="40.112834" lon="0.097893">
        <ele>87.716728</ele>
        <time>2024-05-25T09:29:49.000Z</time>
      </trkpt>
      <trkpt lat="40.112495" lon="0.097602">
        <ele>88.433952</ele>
        <time>2024-05-25T09:29:54.000Z</time>
      </trkpt>
      <trkpt lat="40.112225" lon="0.097309">
        <ele>89.058327</ele>
        <time>2024-05-25T09:29:58.000Z</time>
      </trkpt>
      <trkpt lat="40.111941" lon="0.096939">
        <ele>89.770116</ele>
        <time>2024-05-25T09:30:02.000Z</time>
      </trkpt>
      <trkpt lat="40.111639" lon="0.096435">
        <ele>90.611246</ele>
        <time>2024-05-25T09:30:07.000Z</time>
      </trkpt>
      <trkpt lat="40.111404" lon="0.095996">
        <ele>91.559251</ele>
        <time>2024-05-25T09:30:12.000Z</time>
      </trkpt>
      <trkpt lat="40.11097" lon="0.094961">
        <ele>93.63902</ele>
        <time>2024-05-25T09:30:22.000Z</time>
      </trkpt>
      <trkpt lat="40.110768" lon="0.094485">
        <ele>94.605861</ele>
        <time>2024-05-25T09:30:27.000Z</time>
      </trkpt>
      <trkpt lat="40.110751" lon="0.094206">
        <ele>94.898926</ele>
        <time>2024-05-25T09:30:29.000Z</time>
      </trkpt>
      <trkpt lat="40.110797" lon="0.094079">
        <ele>94.991769</ele>
        <time>2024-05-25T09:30:30.000Z</time>
      </trkpt>
      <trkpt lat="40.110783" lon="0.09394">
        <ele>95.084608</ele>
        <time>2024-05-25T09:30:31.000Z</time>
      </trkpt>
      <trkpt lat="40.110752" lon="0.093817">
        <ele>95.177259</ele>
        <time>2024-05-25T09:30:32.000Z</time>
      </trkpt>
      <trkpt lat="40.110667" lon="0.093741">
        <ele>95.269998</ele>
        <time>2024-05-25T09:30:33.000Z</time>
      </trkpt>
      <trkpt lat="40.110557" lon="0.093719">
        <ele>95.362501</ele>
        <time>2024-05-25T09:30:34.000Z</time>
      </trkpt>
      <trkpt lat="40.110235" lon="0.093408">
        <ele>95.722211</ele>
        <time>2024-05-25T09:30:38.000Z</time>
      </trkpt>
      <trkpt lat="40.110095" lon="0.093212">
        <ele>95.906588</ele>
        <time>2024-05-25T09:30:40.000Z</time>
      </trkpt>
      <trkpt lat="40.110028" lon="0.093108">
        <ele>95.999857</ele>
        <time>2024-05-25T09:30:41.000Z</time>
      </trkpt>
      <trkpt lat="40.109329" lon="0.091497">
        <ele>96.743415</ele>
        <time>2024-05-25T09:30:57.000Z</time>
      </trkpt>
      <trkpt lat="40.108953" lon="0.09029">
        <ele>97.395063</ele>
        <time>2024-05-25T09:31:08.000Z</time>
      </trkpt>
      <trkpt lat="40.108932" lon="0.090076">
        <ele>97.682828</ele>
        <time>2024-05-25T09:31:10.000Z</time>
      </trkpt>
      <trkpt lat="40.108918" lon="0.089893">
        <ele>97.957474</ele>
        <time>2024-05-25T09:31:12.000Z</time>
      </trkpt>
      <trkpt lat="40.108986" lon="0.088478">
        <ele>99.883536</ele>
        <time>2024-05-25T09:31:24.000Z</time>
      </trkpt>
      <trkpt lat="40.108928" lon="0.088302">
        <ele>100.165775</ele>
        <time>2024-05-25T09:31:26.000Z</time>
      </trkpt>
      <trkpt lat="40.1088" lon="0.088164">
        <ele>100.55742</ele>
        <time>2024-05-25T09:31:28.000Z</time>
      </trkpt>
      <trkpt lat="40.106964" lon="0.08677">
        <ele>105.459867</ele>
        <time>2024-05-25T09:31:52.000Z</time>
      </trkpt>
      <trkpt lat="40.10688" lon="0.086659">
        <ele>105.472662</ele>
        <time>2024-05-25T09:31:53.000Z</time>
      </trkpt>
      <trkpt lat="40.106849" lon="0.086547">
        <ele>105.481407</ele>
        <time>2024-05-25T09:31:54.000Z</time>
      </trkpt>
      <trkpt lat="40.106843" lon="0.086436">
        <ele>105.490596</ele>
        <time>2024-05-25T09:31:55.000Z</time>
      </trkpt>
      <trkpt lat="40.106871" lon="0.08628">
        <ele>105.502624</ele>
        <time>2024-05-25T09:31:56.000Z</time>
      </trkpt>
      <trkpt lat="40.107002" lon="0.085944">
        <ele>105.531312</ele>
        <time>2024-05-25T09:31:59.000Z</time>
      </trkpt>
      <trkpt lat="40.107056" lon="0.085858">
        <ele>105.540225</ele>
        <time>2024-05-25T09:32:00.000Z</time>
      </trkpt>
      <trkpt lat="40.107235" lon="0.085771">
        <ele>105.559391</ele>
        <time>2024-05-25T09:32:02.000Z</time>
      </trkpt>
      <trkpt lat="40.107769" lon="0.085707">
        <ele>105.964668</ele>
        <time>2024-05-25T09:32:08.000Z</time>
      </trkpt>
      <trkpt lat="40.107909" lon="0.085619">
        <ele>106.372028</ele>
        <time>2024-05-25T09:32:10.000Z</time>
      </trkpt>
      <trkpt lat="40.108199" lon="0.085249">
        <ele>107.436282</ele>
        <time>2024-05-25T09:32:15.000Z</time>
      </trkpt>
      <trkpt lat="40.108422" lon="0.084803">
        <ele>108.518086</ele>
        <time>2024-05-25T09:32:20.000Z</time>
      </trkpt>
      <trkpt lat="40.108591" lon="0.084291">
        <ele>109.61003</ele>
        <time>2024-05-25T09:32:25.000Z</time>
      </trkpt>
      <trkpt lat="40.108646" lon="0.083958">
        <ele>110.363847</ele>
        <time>2024-05-25T09:32:28.000Z</time>
      </trkpt>
      <trkpt lat="40.108629" lon="0.083769">
        <ele>111.668544</ele>
        <time>2024-05-25T09:32:30.000Z</time>
      </trkpt>
      <trkpt lat="40.108509" lon="0.083142">
        <ele>115.987053</ele>
        <time>2024-05-25T09:32:36.000Z</time>
      </trkpt>
      <trkpt lat="40.108243" lon="0.081661">
        <ele>126.352103</ele>
        <time>2024-05-25T09:32:49.000Z</time>
      </trkpt>
      <trkpt lat="40.108168" lon="0.080945">
        <ele>130.064991</ele>
        <time>2024-05-25T09:32:55.000Z</time>
      </trkpt>
      <trkpt lat="40.108121" lon="0.080718">
        <ele>131.219485</ele>
        <time>2024-05-25T09:32:57.000Z</time>
      </trkpt>
      <trkpt lat="40.107863" lon="0.080028">
        <ele>135.156826</ele>
        <time>2024-05-25T09:33:04.000Z</time>
      </trkpt>
      <trkpt lat="40.107741" lon="0.079763">
        <ele>136.762625</ele>
        <time>2024-05-25T09:33:07.000Z</time>
      </trkpt>
      <trkpt lat="40.10738" lon="0.079203">
        <ele>137.964315</ele>
        <time>2024-05-25T09:33:13.000Z</time>
      </trkpt>
      <trkpt lat="40.107161" lon="0.078924">
        <ele>137.673208</ele>
        <time>2024-05-25T09:33:16.000Z</time>
      </trkpt>
      <trkpt lat="40.10677" lon="0.078531">
        <ele>137.203858</ele>
        <time>2024-05-25T09:33:21.000Z</time>
      </trkpt>
      <trkpt lat="40.106496" lon="0.078173">
        <ele>136.825805</ele>
        <time>2024-05-25T09:33:25.000Z</time>
      </trkpt>
      <trkpt lat="40.106406" lon="0.078032">
        <ele>136.698759</ele>
        <time>2024-05-25T09:33:27.000Z</time>
      </trkpt>
      <trkpt lat="40.106305" lon="0.077878">
        <ele>136.487107</ele>
        <time>2024-05-25T09:33:29.000Z</time>
      </trkpt>
      <trkpt lat="40.106256" lon="0.077742">
        <ele>135.776799</ele>
        <time>2024-05-25T09:33:30.000Z</time>
      </trkpt>
      <trkpt lat="40.106197" lon="0.077085">
        <ele>132.78686</ele>
        <time>2024-05-25T09:33:36.000Z</time>
      </trkpt>
      <trkpt lat="40.10625" lon="0.076721">
        <ele>131.08998</ele>
        <time>2024-05-25T09:33:39.000Z</time>
      </trkpt>
      <trkpt lat="40.106328" lon="0.076537">
        <ele>130.121352</ele>
        <time>2024-05-25T09:33:41.000Z</time>
      </trkpt>
      <trkpt lat="40.106522" lon="0.076161">
        <ele>128.020992</ele>
        <time>2024-05-25T09:33:45.000Z</time>
      </trkpt>
      <trkpt lat="40.106669" lon="0.076004">
        <ele>126.903085</ele>
        <time>2024-05-25T09:33:47.000Z</time>
      </trkpt>
      <trkpt lat="40.106921" lon="0.075797">
        <ele>125.688056</ele>
        <time>2024-05-25T09:33:50.000Z</time>
      </trkpt>
      <trkpt lat="40.10789" lon="0.075086">
        <ele>124.428332</ele>
        <time>2024-05-25T09:34:02.000Z</time>
      </trkpt>
      <trkpt lat="40.10796" lon="0.074963">
        <ele>124.295027</ele>
        <time>2024-05-25T09:34:03.000Z</time>
      </trkpt>
      <trkpt lat="40.108027" lon="0.074789">
        <ele>124.129312</ele>
        <time>2024-05-25T09:34:05.000Z</time>
      </trkpt>
      <trkpt lat="40.108119" lon="0.07426">
        <ele>124.011005</ele>
        <time>2024-05-25T09:34:10.000Z</time>
      </trkpt>
      <trkpt lat="40.108078" lon="0.073964">
        <ele>124.45829</ele>
        <time>2024-05-25T09:34:13.000Z</time>
      </trkpt>
      <trkpt lat="40.107989" lon="0.073756">
        <ele>124.856502</ele>
        <time>2024-05-25T09:34:15.000Z</time>
      </trkpt>
      <trkpt lat="40.107246" lon="0.072365">
        <ele>127.472892</ele>
        <time>2024-05-25T09:34:29.000Z</time>
      </trkpt>
      <trkpt lat="40.107075" lon="0.071859">
        <ele>127.97651</ele>
        <time>2024-05-25T09:34:34.000Z</time>
      </trkpt>
      <trkpt lat="40.107047" lon="0.071728">
        <ele>128.104654</ele>
        <time>2024-05-25T09:34:35.000Z</time>
      </trkpt>
      <trkpt lat="40.107049" lon="0.071598">
        <ele>128.220872</ele>
        <time>2024-05-25T09:34:36.000Z</time>
      </trkpt>
      <trkpt lat="40.10708" lon="0.071459">
        <ele>128.345135</ele>
        <time>2024-05-25T09:34:37.000Z</time>
      </trkpt>
      <trkpt lat="40.107373" lon="0.070702">
        <ele>129.134642</ele>
        <time>2024-05-25T09:34:44.000Z</time>
      </trkpt>
      <trkpt lat="40.107565" lon="0.070179">
        <ele>129.691488</ele>
        <time>2024-05-25T09:34:49.000Z</time>
      </trkpt>
      <trkpt lat="40.107739" lon="0.069782">
        <ele>130.293458</ele>
        <time>2024-05-25T09:34:53.000Z</time>
      </trkpt>
      <trkpt lat="40.107831" lon="0.069537">
        <ele>130.644152</ele>
        <time>2024-05-25T09:34:55.000Z</time>
      </trkpt>
      <trkpt lat="40.107913" lon="0.069103">
        <ele>131.249184</ele>
        <time>2024-05-25T09:34:59.000Z</time>
      </trkpt>
      <trkpt lat="40.108059" lon="0.068079">
        <ele>132.635956</ele>
        <time>2024-05-25T09:35:08.000Z</time>
      </trkpt>
      <trkpt lat="40.108173" lon="0.06739">
        <ele>133.738405</ele>
        <time>2024-05-25T09:35:14.000Z</time>
      </trkpt>
      <trkpt lat="40.108214" lon="0.067177">
        <ele>134.109159</ele>
        <time>2024-05-25T09:35:16.000Z</time>
      </trkpt>
      <trkpt lat="40.108306" lon="0.066972">
        <ele>134.489168</ele>
        <time>2024-05-25T09:35:18.000Z</time>
      </trkpt>
      <trkpt lat="40.108724" lon="0.066266">
        <ele>135.919273</ele>
        <time>2024-05-25T09:35:26.000Z</time>
      </trkpt>
      <trkpt lat="40.108839" lon="0.066078">
        <ele>136.282778</ele>
        <time>2024-05-25T09:35:28.000Z</time>
      </trkpt>
      <trkpt lat="40.10895" lon="0.065715">
        <ele>136.899079</ele>
        <time>2024-05-25T09:35:31.000Z</time>
      </trkpt>
      <trkpt lat="40.109006" lon="0.065311">
        <ele>137.495785</ele>
        <time>2024-05-25T09:35:34.000Z</time>
      </trkpt>
      <trkpt lat="40.109084" lon="0.065061">
        <ele>137.918759</ele>
        <time>2024-05-25T09:35:36.000Z</time>
      </trkpt>
      <trkpt lat="40.109152" lon="0.064882">
        <ele>138.216936</ele>
        <time>2024-05-25T09:35:38.000Z</time>
      </trkpt>
      <trkpt lat="40.109282" lon="0.064624">
        <ele>138.680889</ele>
        <time>2024-05-25T09:35:41.000Z</time>
      </trkpt>
      <trkpt lat="40.109443" lon="0.06455">
        <ele>138.998643</ele>
        <time>2024-05-25T09:35:43.000Z</time>
      </trkpt>
      <trkpt lat="40.109788" lon="0.064445">
        <ele>139.72451</ele>
        <time>2024-05-25T09:35:47.000Z</time>
      </trkpt>
      <trkpt lat="40.110221" lon="0.064382">
        <ele>141.085225</ele>
        <time>2024-05-25T09:35:52.000Z</time>
      </trkpt>
      <trkpt lat="40.110388" lon="0.064278">
        <ele>141.831787</ele>
        <time>2024-05-25T09:35:54.000Z</time>
      </trkpt>
      <trkpt lat="40.110699" lon="0.063842">
        <ele>143.668836</ele>
        <time>2024-05-25T09:35:59.000Z</time>
      </trkpt>
      <trkpt lat="40.110752" lon="0.063703">
        <ele>144.127675</ele>
        <time>2024-05-25T09:36:00.000Z</time>
      </trkpt>
      <trkpt lat="40.110789" lon="0.063509">
        <ele>144.730849</ele>
        <time>2024-05-25T09:36:02.000Z</time>
      </trkpt>
      <trkpt lat="40.110878" lon="0.062917">
        <ele>146.569239</ele>
        <time>2024-05-25T09:36:07.000Z</time>
      </trkpt>
      <trkpt lat="40.110959" lon="0.061951">
        <ele>150.184636</ele>
        <time>2024-05-25T09:36:15.000Z</time>
      </trkpt>
      <trkpt lat="40.110953" lon="0.061925">
        <ele>150.334026</ele>
        <time>2024-05-25T09:36:15.000Z</time>
      </trkpt>
      <trkpt lat="40.110997" lon="0.061698">
        <ele>151.249803</ele>
        <time>2024-05-25T09:36:17.000Z</time>
      </trkpt>
      <trkpt lat="40.111071" lon="0.061502">
        <ele>152.04192</ele>
        <time>2024-05-25T09:36:19.000Z</time>
      </trkpt>
      <trkpt lat="40.11111" lon="0.061404">
        <ele>152.515194</ele>
        <time>2024-05-25T09:36:20.000Z</time>
      </trkpt>
      <trkpt lat="40.111284" lon="0.061101">
        <ele>154.000049</ele>
        <time>2024-05-25T09:36:23.000Z</time>
      </trkpt>
      <trkpt lat="40.111553" lon="0.060567">
        <ele>156.432088</ele>
        <time>2024-05-25T09:36:28.000Z</time>
      </trkpt>
      <trkpt lat="40.111603" lon="0.060468">
        <ele>156.603736</ele>
        <time>2024-05-25T09:36:29.000Z</time>
      </trkpt>
      <trkpt lat="40.111947" lon="0.060021">
        <ele>157.453901</ele>
        <time>2024-05-25T09:36:34.000Z</time>
      </trkpt>
      <trkpt lat="40.112175" lon="0.059381">
        <ele>158.398727</ele>
        <time>2024-05-25T09:36:40.000Z</time>
      </trkpt>
      <trkpt lat="40.112265" lon="0.059245">
        <ele>158.650335</ele>
        <time>2024-05-25T09:36:42.000Z</time>
      </trkpt>
      <trkpt lat="40.112363" lon="0.059143">
        <ele>158.882379</ele>
        <time>2024-05-25T09:36:43.000Z</time>
      </trkpt>
      <trkpt lat="40.113004" lon="0.058828">
        <ele>160.211069</ele>
        <time>2024-05-25T09:36:51.000Z</time>
      </trkpt>
      <trkpt lat="40.112984" lon="0.058895">
        <ele>160.328723</ele>
        <time>2024-05-25T09:36:52.000Z</time>
      </trkpt>
      <trkpt lat="40.112995" lon="0.058822">
        <ele>160.446366</ele>
        <time>2024-05-25T09:36:53.000Z</time>
      </trkpt>
      <trkpt lat="40.113165" lon="0.05877">
        <ele>160.811782</ele>
        <time>2024-05-25T09:36:55.000Z</time>
      </trkpt>
      <trkpt lat="40.113758" lon="0.058715">
        <ele>162.129454</ele>
        <time>2024-05-25T09:37:02.000Z</time>
      </trkpt>
      <trkpt lat="40.11422" lon="0.058527">
        <ele>163.202379</ele>
        <time>2024-05-25T09:37:07.000Z</time>
      </trkpt>
      <trkpt lat="40.11435" lon="0.058444">
        <ele>163.532303</ele>
        <time>2024-05-25T09:37:09.000Z</time>
      </trkpt>
      <trkpt lat="40.114454" lon="0.058341">
        <ele>163.930028</ele>
        <time>2024-05-25T09:37:10.000Z</time>
      </trkpt>
      <trkpt lat="40.114599" lon="0.058088">
        <ele>164.703511</ele>
        <time>2024-05-25T09:37:13.000Z</time>
      </trkpt>
      <trkpt lat="40.11468" lon="0.057907">
        <ele>165.199222</ele>
        <time>2024-05-25T09:37:15.000Z</time>
      </trkpt>
      <trkpt lat="40.114705" lon="0.057434">
        <ele>166.367158</ele>
        <time>2024-05-25T09:37:19.000Z</time>
      </trkpt>
      <trkpt lat="40.114694" lon="0.057231">
        <ele>166.847707</ele>
        <time>2024-05-25T09:37:21.000Z</time>
      </trkpt>
      <trkpt lat="40.114551" lon="0.056689">
        <ele>168.278518</ele>
        <time>2024-05-25T09:37:26.000Z</time>
      </trkpt>
      <trkpt lat="40.114253" lon="0.055087">
        <ele>174.329296</ele>
        <time>2024-05-25T09:37:40.000Z</time>
      </trkpt>
      <trkpt lat="40.114157" lon="0.05474">
        <ele>175.81587</ele>
        <time>2024-05-25T09:37:43.000Z</time>
      </trkpt>
      <trkpt lat="40.114051" lon="0.054497">
        <ele>177.006868</ele>
        <time>2024-05-25T09:37:45.000Z</time>
      </trkpt>
      <trkpt lat="40.113572" lon="0.053558">
        <ele>182.062968</ele>
        <time>2024-05-25T09:37:55.000Z</time>
      </trkpt>
      <trkpt lat="40.11347" lon="0.05325">
        <ele>183.618762</ele>
        <time>2024-05-25T09:37:58.000Z</time>
      </trkpt>
      <trkpt lat="40.113415" lon="0.053003">
        <ele>184.785736</ele>
        <time>2024-05-25T09:38:00.000Z</time>
      </trkpt>
      <trkpt lat="40.113305" lon="0.052058">
        <ele>189.258033</ele>
        <time>2024-05-25T09:38:08.000Z</time>
      </trkpt>
      <trkpt lat="40.113332" lon="0.051559">
        <ele>190.179047</ele>
        <time>2024-05-25T09:38:12.000Z</time>
      </trkpt>
      <trkpt lat="40.113365" lon="0.051349">
        <ele>190.28028</ele>
        <time>2024-05-25T09:38:14.000Z</time>
      </trkpt>
      <trkpt lat="40.113433" lon="0.05111">
        <ele>190.396682</ele>
        <time>2024-05-25T09:38:16.000Z</time>
      </trkpt>
      <trkpt lat="40.113612" lon="0.050741">
        <ele>190.597437</ele>
        <time>2024-05-25T09:38:20.000Z</time>
      </trkpt>
      <trkpt lat="40.114212" lon="0.04994">
        <ele>191.110748</ele>
        <time>2024-05-25T09:38:30.000Z</time>
      </trkpt>
      <trkpt lat="40.114292" lon="0.049606">
        <ele>191.749731</ele>
        <time>2024-05-25T09:38:33.000Z</time>
      </trkpt>
      <trkpt lat="40.114368" lon="0.049088">
        <ele>192.725051</ele>
        <time>2024-05-25T09:38:37.000Z</time>
      </trkpt>
      <trkpt lat="40.11442" lon="0.048959">
        <ele>192.989491</ele>
        <time>2024-05-25T09:38:38.000Z</time>
      </trkpt>
      <trkpt lat="40.114509" lon="0.048878">
        <ele>193.247635</ele>
        <time>2024-05-25T09:38:39.000Z</time>
      </trkpt>
      <trkpt lat="40.115555" lon="0.048247">
        <ele>196.884569</ele>
        <time>2024-05-25T09:38:52.000Z</time>
      </trkpt>
      <trkpt lat="40.116777" lon="0.047713">
        <ele>204.905135</ele>
        <time>2024-05-25T09:39:06.000Z</time>
      </trkpt>
      <trkpt lat="40.1171" lon="0.047587">
        <ele>206.916548</ele>
        <time>2024-05-25T09:39:10.000Z</time>
      </trkpt>
      <trkpt lat="40.117489" lon="0.047517">
        <ele>209.254672</ele>
        <time>2024-05-25T09:39:14.000Z</time>
      </trkpt>
      <trkpt lat="40.118489" lon="0.047427">
        <ele>215.293246</ele>
        <time>2024-05-25T09:39:25.000Z</time>
      </trkpt>
      <trkpt lat="40.1189" lon="0.047278">
        <ele>218.123515</ele>
        <time>2024-05-25T09:39:30.000Z</time>
      </trkpt>
      <trkpt lat="40.119797" lon="0.046813">
        <ele>226.839661</ele>
        <time>2024-05-25T09:39:41.000Z</time>
      </trkpt>
      <trkpt lat="40.120446" lon="0.046398">
        <ele>233.368061</ele>
        <time>2024-05-25T09:39:49.000Z</time>
      </trkpt>
      <trkpt lat="40.120819" lon="0.04613">
        <ele>237.765891</ele>
        <time>2024-05-25T09:39:54.000Z</time>
      </trkpt>
      <trkpt lat="40.121214" lon="0.045778">
        <ele>242.581541</ele>
        <time>2024-05-25T09:39:59.000Z</time>
      </trkpt>
      <trkpt lat="40.12154" lon="0.045381">
        <ele>247.050097</ele>
        <time>2024-05-25T09:40:04.000Z</time>
      </trkpt>
      <trkpt lat="40.121707" lon="0.045292">
        <ele>248.931589</ele>
        <time>2024-05-25T09:40:06.000Z</time>
      </trkpt>
      <trkpt lat="40.122238" lon="0.045134">
        <ele>252.839211</ele>
        <time>2024-05-25T09:40:12.000Z</time>
      </trkpt>
      <trkpt lat="40.122671" lon="0.045078">
        <ele>254.4894</ele>
        <time>2024-05-25T09:40:17.000Z</time>
      </trkpt>
      <trkpt lat="40.122709" lon="0.045075">
        <ele>254.604084</ele>
        <time>2024-05-25T09:40:17.000Z</time>
      </trkpt>
      <trkpt lat="40.122914" lon="0.044989">
        <ele>255.389878</ele>
        <time>2024-05-25T09:40:19.000Z</time>
      </trkpt>
      <trkpt lat="40.12334" lon="0.044775">
        <ele>257.095567</ele>
        <time>2024-05-25T09:40:24.000Z</time>
      </trkpt>
      <trkpt lat="40.123627" lon="0.044632">
        <ele>258.255625</ele>
        <time>2024-05-25T09:40:27.000Z</time>
      </trkpt>
      <trkpt lat="40.123853" lon="0.044565">
        <ele>258.325178</ele>
        <time>2024-05-25T09:40:30.000Z</time>
      </trkpt>
      <trkpt lat="40.124053" lon="0.044668">
        <ele>257.989812</ele>
        <time>2024-05-25T09:40:32.000Z</time>
      </trkpt>
      <trkpt lat="40.124165" lon="0.044812">
        <ele>257.754936</ele>
        <time>2024-05-25T09:40:34.000Z</time>
      </trkpt>
      <trkpt lat="40.124235" lon="0.044855">
        <ele>257.636231</ele>
        <time>2024-05-25T09:40:35.000Z</time>
      </trkpt>
      <trkpt lat="40.124378" lon="0.044833">
        <ele>257.400344</ele>
        <time>2024-05-25T09:40:37.000Z</time>
      </trkpt>
      <trkpt lat="40.124492" lon="0.044718">
        <ele>257.165811</ele>
        <time>2024-05-25T09:40:39.000Z</time>
      </trkpt>
      <trkpt lat="40.124766" lon="0.044614">
        <ele>256.723799</ele>
        <time>2024-05-25T09:40:42.000Z</time>
      </trkpt>
      <trkpt lat="40.125068" lon="0.044578">
        <ele>256.260591</ele>
        <time>2024-05-25T09:40:45.000Z</time>
      </trkpt>
      <trkpt lat="40.126658" lon="0.044651">
        <ele>254.07959</ele>
        <time>2024-05-25T09:41:03.000Z</time>
      </trkpt>
      <trkpt lat="40.127263" lon="0.04464">
        <ele>253.359947</ele>
        <time>2024-05-25T09:41:10.000Z</time>
      </trkpt>
      <trkpt lat="40.12798" lon="0.044531">
        <ele>253.181418</ele>
        <time>2024-05-25T09:41:18.000Z</time>
      </trkpt>
      <trkpt lat="40.12846" lon="0.044382">
        <ele>253.05557</ele>
        <time>2024-05-25T09:41:23.000Z</time>
      </trkpt>
      <trkpt lat="40.12887" lon="0.044215">
        <ele>252.950874</ele>
        <time>2024-05-25T09:41:28.000Z</time>
      </trkpt>
      <trkpt lat="40.12928" lon="0.043993">
        <ele>253.083659</ele>
        <time>2024-05-25T09:41:33.000Z</time>
      </trkpt>
      <trkpt lat="40.13005" lon="0.043533">
        <ele>253.431625</ele>
        <time>2024-05-25T09:41:42.000Z</time>
      </trkpt>
      <trkpt lat="40.130698" lon="0.043153">
        <ele>253.669498</ele>
        <time>2024-05-25T09:41:50.000Z</time>
      </trkpt>
      <trkpt lat="40.131096" lon="0.042912">
        <ele>253.664827</ele>
        <time>2024-05-25T09:41:55.000Z</time>
      </trkpt>
      <trkpt lat="40.131323" lon="0.042765">
        <ele>253.662263</ele>
        <time>2024-05-25T09:41:58.000Z</time>
      </trkpt>
      <trkpt lat="40.13215" lon="0.04226">
        <ele>253.652587</ele>
        <time>2024-05-25T09:42:08.000Z</time>
      </trkpt>
      <trkpt lat="40.132325" lon="0.042133">
        <ele>253.66155</ele>
        <time>2024-05-25T09:42:10.000Z</time>
      </trkpt>
      <trkpt lat="40.132469" lon="0.042057">
        <ele>253.672083</ele>
        <time>2024-05-25T09:42:12.000Z</time>
      </trkpt>
      <trkpt lat="40.132782" lon="0.041802">
        <ele>253.699793</ele>
        <time>2024-05-25T09:42:16.000Z</time>
      </trkpt>
      <trkpt lat="40.133587" lon="0.041015">
        <ele>253.772613</ele>
        <time>2024-05-25T09:42:27.000Z</time>
      </trkpt>
      <trkpt lat="40.13388" lon="0.040758">
        <ele>253.897586</ele>
        <time>2024-05-25T09:42:31.000Z</time>
      </trkpt>
      <trkpt lat="40.134226" lon="0.040491">
        <ele>254.108173</ele>
        <time>2024-05-25T09:42:35.000Z</time>
      </trkpt>
      <trkpt lat="40.134628" lon="0.040242">
        <ele>254.33836</ele>
        <time>2024-05-25T09:42:40.000Z</time>
      </trkpt>
      <trkpt lat="40.135121" lon="0.039996">
        <ele>254.605967</ele>
        <time>2024-05-25T09:42:46.000Z</time>
      </trkpt>
      <trkpt lat="40.137487" lon="0.039083">
        <ele>256.159753</ele>
        <time>2024-05-25T09:43:13.000Z</time>
      </trkpt>
      <trkpt lat="40.138608" lon="0.038715">
        <ele>257.157239</ele>
        <time>2024-05-25T09:43:26.000Z</time>
      </trkpt>
      <trkpt lat="40.139618" lon="0.038446">
        <ele>257.980395</ele>
        <time>2024-05-25T09:43:37.000Z</time>
      </trkpt>
      <trkpt lat="40.141689" lon="0.038044">
        <ele>259.177111</ele>
        <time>2024-05-25T09:44:00.000Z</time>
      </trkpt>
      <trkpt lat="40.142547" lon="0.037891">
        <ele>259.353299</ele>
        <time>2024-05-25T09:44:10.000Z</time>
      </trkpt>
      <trkpt lat="40.142704" lon="0.037858">
        <ele>259.298746</ele>
        <time>2024-05-25T09:44:12.000Z</time>
      </trkpt>
      <trkpt lat="40.142784" lon="0.03784">
        <ele>259.274309</ele>
        <time>2024-05-25T09:44:13.000Z</time>
      </trkpt>
      <trkpt lat="40.144089" lon="0.03767">
        <ele>258.837805</ele>
        <time>2024-05-25T09:44:28.000Z</time>
      </trkpt>
      <trkpt lat="40.144938" lon="0.037539">
        <ele>258.485669</ele>
        <time>2024-05-25T09:44:38.000Z</time>
      </trkpt>
      <trkpt lat="40.145321" lon="0.037503">
        <ele>258.332716</ele>
        <time>2024-05-25T09:44:42.000Z</time>
      </trkpt>
      <trkpt lat="40.145494" lon="0.037569">
        <ele>258.256631</ele>
        <time>2024-05-25T09:44:44.000Z</time>
      </trkpt>
      <trkpt lat="40.145628" lon="0.037605">
        <ele>258.201742</ele>
        <time>2024-05-25T09:44:46.000Z</time>
      </trkpt>
      <trkpt lat="40.145793" lon="0.03762">
        <ele>258.132657</ele>
        <time>2024-05-25T09:44:48.000Z</time>
      </trkpt>
      <trkpt lat="40.145943" lon="0.037658">
        <ele>258.051205</ele>
        <time>2024-05-25T09:44:50.000Z</time>
      </trkpt>
      <trkpt lat="40.146068" lon="0.037739">
        <ele>257.926134</ele>
        <time>2024-05-25T09:44:52.000Z</time>
      </trkpt>
      <trkpt lat="40.14621" lon="0.037732">
        <ele>257.80039</ele>
        <time>2024-05-25T09:44:54.000Z</time>
      </trkpt>
      <trkpt lat="40.146306" lon="0.03774">
        <ele>257.716681</ele>
        <time>2024-05-25T09:44:55.000Z</time>
      </trkpt>
      <trkpt lat="40.146465" lon="0.037752">
        <ele>257.574594</ele>
        <time>2024-05-25T09:44:57.000Z</time>
      </trkpt>
      <trkpt lat="40.146641" lon="0.037722">
        <ele>257.413613</ele>
        <time>2024-05-25T09:44:59.000Z</time>
      </trkpt>
      <trkpt lat="40.146826" lon="0.037603">
        <ele>257.226017</ele>
        <time>2024-05-25T09:45:01.000Z</time>
      </trkpt>
      <trkpt lat="40.146942" lon="0.037473">
        <ele>257.092044</ele>
        <time>2024-05-25T09:45:03.000Z</time>
      </trkpt>
      <trkpt lat="40.147041" lon="0.037308">
        <ele>256.945681</ele>
        <time>2024-05-25T09:45:05.000Z</time>
      </trkpt>
      <trkpt lat="40.147226" lon="0.03692">
        <ele>256.625987</ele>
        <time>2024-05-25T09:45:09.000Z</time>
      </trkpt>
      <trkpt lat="40.14737" lon="0.036723">
        <ele>256.457704</ele>
        <time>2024-05-25T09:45:11.000Z</time>
      </trkpt>
      <trkpt lat="40.147509" lon="0.036623">
        <ele>256.406238</ele>
        <time>2024-05-25T09:45:13.000Z</time>
      </trkpt>
      <trkpt lat="40.14767" lon="0.03657">
        <ele>256.353398</ele>
        <time>2024-05-25T09:45:15.000Z</time>
      </trkpt>
      <trkpt lat="40.148679" lon="0.036705">
        <ele>256.021589</ele>
        <time>2024-05-25T09:45:26.000Z</time>
      </trkpt>
      <trkpt lat="40.14891" lon="0.036764">
        <ele>255.944395</ele>
        <time>2024-05-25T09:45:29.000Z</time>
      </trkpt>
      <trkpt lat="40.15003" lon="0.037353">
        <ele>257.198827</ele>
        <time>2024-05-25T09:45:42.000Z</time>
      </trkpt>
      <trkpt lat="40.150215" lon="0.037453">
        <ele>257.457093</ele>
        <time>2024-05-25T09:45:44.000Z</time>
      </trkpt>
      <trkpt lat="40.151534" lon="0.038169">
        <ele>259.691535</ele>
        <time>2024-05-25T09:46:00.000Z</time>
      </trkpt>
      <trkpt lat="40.152072" lon="0.038472">
        <ele>260.712926</ele>
        <time>2024-05-25T09:46:07.000Z</time>
      </trkpt>
      <trkpt lat="40.152522" lon="0.038703">
        <ele>261.530268</ele>
        <time>2024-05-25T09:46:12.000Z</time>
      </trkpt>
      <trkpt lat="40.154057" lon="0.03954">
        <ele>263.70937</ele>
        <time>2024-05-25T09:46:30.000Z</time>
      </trkpt>
      <trkpt lat="40.15419" lon="0.039596">
        <ele>263.860769</ele>
        <time>2024-05-25T09:46:32.000Z</time>
      </trkpt>
      <trkpt lat="40.154424" lon="0.039724">
        <ele>264.116415</ele>
        <time>2024-05-25T09:46:35.000Z</time>
      </trkpt>
      <trkpt lat="40.155181" lon="0.04015">
        <ele>264.931258</ele>
        <time>2024-05-25T09:46:44.000Z</time>
      </trkpt>
      <trkpt lat="40.155724" lon="0.040436">
        <ele>265.489262</ele>
        <time>2024-05-25T09:46:51.000Z</time>
      </trkpt>
      <trkpt lat="40.156169" lon="0.040674">
        <ele>265.058239</ele>
        <time>2024-05-25T09:46:56.000Z</time>
      </trkpt>
      <trkpt lat="40.156256" lon="0.040779">
        <ele>264.945684</ele>
        <time>2024-05-25T09:46:57.000Z</time>
      </trkpt>
      <trkpt lat="40.156304" lon="0.040857">
        <ele>264.870054</ele>
        <time>2024-05-25T09:46:58.000Z</time>
      </trkpt>
      <trkpt lat="40.156373" lon="0.040874">
        <ele>264.793017</ele>
        <time>2024-05-25T09:46:59.000Z</time>
      </trkpt>
      <trkpt lat="40.156393" lon="0.040853">
        <ele>264.776694</ele>
        <time>2024-05-25T09:46:59.000Z</time>
      </trkpt>
      <trkpt lat="40.156414" lon="0.040761">
        <ele>264.700543</ele>
        <time>2024-05-25T09:47:00.000Z</time>
      </trkpt>
      <trkpt lat="40.156406" lon="0.040702">
        <ele>264.654847</ele>
        <time>2024-05-25T09:47:01.000Z</time>
      </trkpt>
      <trkpt lat="40.156413" lon="0.040526">
        <ele>264.52011</ele>
        <time>2024-05-25T09:47:02.000Z</time>
      </trkpt>
      <trkpt lat="40.156572" lon="0.040091">
        <ele>264.152871</ele>
        <time>2024-05-25T09:47:06.000Z</time>
      </trkpt>
      <trkpt lat="40.156769" lon="0.039528">
        <ele>263.643486</ele>
        <time>2024-05-25T09:47:11.000Z</time>
      </trkpt>
      <trkpt lat="40.156877" lon="0.039213">
        <ele>263.284513</ele>
        <time>2024-05-25T09:47:14.000Z</time>
      </trkpt>
      <trkpt lat="40.156909" lon="0.039135">
        <ele>263.191016</ele>
        <time>2024-05-25T09:47:15.000Z</time>
      </trkpt>
      <trkpt lat="40.157624" lon="0.037111">
        <ele>260.999792</ele>
        <time>2024-05-25T09:47:34.000Z</time>
      </trkpt>
      <trkpt lat="40.157804" lon="0.036625">
        <ele>260.708383</ele>
        <time>2024-05-25T09:47:39.000Z</time>
      </trkpt>
      <trkpt lat="40.158455" lon="0.034798">
        <ele>259.729091</ele>
        <time>2024-05-25T09:47:56.000Z</time>
      </trkpt>
      <trkpt lat="40.158823" lon="0.033797">
        <ele>259.298006</ele>
        <time>2024-05-25T09:48:05.000Z</time>
      </trkpt>
      <trkpt lat="40.160119" lon="0.030138">
        <ele>258.571313</ele>
        <time>2024-05-25T09:48:39.000Z</time>
      </trkpt>
      <trkpt lat="40.161404" lon="0.026477">
        <ele>258.144214</ele>
        <time>2024-05-25T09:49:13.000Z</time>
      </trkpt>
      <trkpt lat="40.161423" lon="0.026431">
        <ele>258.164822</ele>
        <time>2024-05-25T09:49:13.000Z</time>
      </trkpt>
      <trkpt lat="40.16149" lon="0.026265">
        <ele>258.239945</ele>
        <time>2024-05-25T09:49:15.000Z</time>
      </trkpt>
      <trkpt lat="40.161945" lon="0.024962">
        <ele>258.806067</ele>
        <time>2024-05-25T09:49:27.000Z</time>
      </trkpt>
      <trkpt lat="40.163381" lon="0.020902">
        <ele>263.835544</ele>
        <time>2024-05-25T09:50:05.000Z</time>
      </trkpt>
      <trkpt lat="40.16376" lon="0.019869">
        <ele>265.168099</ele>
        <time>2024-05-25T09:50:15.000Z</time>
      </trkpt>
      <trkpt lat="40.165254" lon="0.015637">
        <ele>269.866145</ele>
        <time>2024-05-25T09:50:55.000Z</time>
      </trkpt>
      <trkpt lat="40.165364" lon="0.015339">
        <ele>270.076522</ele>
        <time>2024-05-25T09:50:58.000Z</time>
      </trkpt>
      <trkpt lat="40.165454" lon="0.015211">
        <ele>270.189806</ele>
        <time>2024-05-25T09:50:59.000Z</time>
      </trkpt>
      <trkpt lat="40.165547" lon="0.015107">
        <ele>270.30386</ele>
        <time>2024-05-25T09:51:00.000Z</time>
      </trkpt>
      <trkpt lat="40.165662" lon="0.015043">
        <ele>270.402509</ele>
        <time>2024-05-25T09:51:01.000Z</time>
      </trkpt>
      <trkpt lat="40.165732" lon="0.014952">
        <ele>270.500419</ele>
        <time>2024-05-25T09:51:02.000Z</time>
      </trkpt>
      <trkpt lat="40.165759" lon="0.014855">
        <ele>270.565241</ele>
        <time>2024-05-25T09:51:03.000Z</time>
      </trkpt>
      <trkpt lat="40.165748" lon="0.014724">
        <ele>270.64809</ele>
        <time>2024-05-25T09:51:04.000Z</time>
      </trkpt>
      <trkpt lat="40.165692" lon="0.014621">
        <ele>270.731921</ele>
        <time>2024-05-25T09:51:05.000Z</time>
      </trkpt>
      <trkpt lat="40.165672" lon="0.014349">
        <ele>270.911757</ele>
        <time>2024-05-25T09:51:07.000Z</time>
      </trkpt>
      <trkpt lat="40.165804" lon="0.013124">
        <ele>271.339079</ele>
        <time>2024-05-25T09:51:18.000Z</time>
      </trkpt>
      <trkpt lat="40.165822" lon="0.012701">
        <ele>271.45307</ele>
        <time>2024-05-25T09:51:22.000Z</time>
      </trkpt>
      <trkpt lat="40.165757" lon="0.011871">
        <ele>271.680216</ele>
        <time>2024-05-25T09:51:29.000Z</time>
      </trkpt>
      <trkpt lat="40.165751" lon="0.01131">
        <ele>272.011336</ele>
        <time>2024-05-25T09:51:34.000Z</time>
      </trkpt>
      <trkpt lat="40.165783" lon="0.010767">
        <ele>272.361894</ele>
        <time>2024-05-25T09:51:39.000Z</time>
      </trkpt>
      <trkpt lat="40.165852" lon="0.010239">
        <ele>272.709376</ele>
        <time>2024-05-25T09:51:44.000Z</time>
      </trkpt>
      <trkpt lat="40.166017" lon="0.009351">
        <ele>273.342514</ele>
        <time>2024-05-25T09:51:52.000Z</time>
      </trkpt>
      <trkpt lat="40.166745" lon="0.006643">
        <ele>276.320641</ele>
        <time>2024-05-25T09:52:16.000Z</time>
      </trkpt>
      <trkpt lat="40.167406" lon="0.004642">
        <ele>278.378848</ele>
        <time>2024-05-25T09:52:35.000Z</time>
      </trkpt>
      <trkpt lat="40.167728" lon="0.003699">
        <ele>279.290323</ele>
        <time>2024-05-25T09:52:44.000Z</time>
      </trkpt>
      <trkpt lat="40.168475" lon="0.002077">
        <ele>280.653176</ele>
        <time>2024-05-25T09:53:00.000Z</time>
      </trkpt>
      <trkpt lat="40.169052" lon="0.001024">
        <ele>281.439792</ele>
        <time>2024-05-25T09:53:11.000Z</time>
      </trkpt>
      <trkpt lat="40.169566" lon="0.000135">
        <ele>281.372081</ele>
        <time>2024-05-25T09:53:20.000Z</time>
      </trkpt>
      <trkpt lat="40.169944" lon="-0.000533">
        <ele>281.306796</ele>
        <time>2024-05-25T09:53:27.000Z</time>
      </trkpt>
      <trkpt lat="40.170203" lon="-0.001038">
        <ele>281.06458</ele>
        <time>2024-05-25T09:53:32.000Z</time>
      </trkpt>
      <trkpt lat="40.170796" lon="-0.002304">
        <ele>279.255915</ele>
        <time>2024-05-25T09:53:45.000Z</time>
      </trkpt>
      <trkpt lat="40.170965" lon="-0.002733">
        <ele>278.676377</ele>
        <time>2024-05-25T09:53:49.000Z</time>
      </trkpt>
      <trkpt lat="40.171075" lon="-0.003103">
        <ele>278.377802</ele>
        <time>2024-05-25T09:53:52.000Z</time>
      </trkpt>
      <trkpt lat="40.171146" lon="-0.00348">
        <ele>278.305974</ele>
        <time>2024-05-25T09:53:55.000Z</time>
      </trkpt>
      <trkpt lat="40.171164" lon="-0.003815">
        <ele>278.242878</ele>
        <time>2024-05-25T09:53:58.000Z</time>
      </trkpt>
      <trkpt lat="40.171159" lon="-0.004805">
        <ele>278.057973</ele>
        <time>2024-05-25T09:54:06.000Z</time>
      </trkpt>
      <trkpt lat="40.171154" lon="-0.00526">
        <ele>277.976077</ele>
        <time>2024-05-25T09:54:10.000Z</time>
      </trkpt>
      <trkpt lat="40.171186" lon="-0.005573">
        <ele>278.583419</ele>
        <time>2024-05-25T09:54:13.000Z</time>
      </trkpt>
      <trkpt lat="40.171304" lon="-0.006043">
        <ele>279.537797</ele>
        <time>2024-05-25T09:54:17.000Z</time>
      </trkpt>
      <trkpt lat="40.172024" lon="-0.009427">
        <ele>286.803456</ele>
        <time>2024-05-25T09:54:47.000Z</time>
      </trkpt>
      <trkpt lat="40.172125" lon="-0.009762">
        <ele>287.620325</ele>
        <time>2024-05-25T09:54:50.000Z</time>
      </trkpt>
      <trkpt lat="40.172293" lon="-0.010155">
        <ele>288.214811</ele>
        <time>2024-05-25T09:54:54.000Z</time>
      </trkpt>
      <trkpt lat="40.172469" lon="-0.010476">
        <ele>288.725001</ele>
        <time>2024-05-25T09:54:57.000Z</time>
      </trkpt>
      <trkpt lat="40.172507" lon="-0.010552">
        <ele>288.833175</ele>
        <time>2024-05-25T09:54:58.000Z</time>
      </trkpt>
      <trkpt lat="40.172615" lon="-0.010729">
        <ele>289.110847</ele>
        <time>2024-05-25T09:55:00.000Z</time>
      </trkpt>
      <trkpt lat="40.173348" lon="-0.011983">
        <ele>291.093496</ele>
        <time>2024-05-25T09:55:13.000Z</time>
      </trkpt>
      <trkpt lat="40.173586" lon="-0.01221">
        <ele>291.550429</ele>
        <time>2024-05-25T09:55:16.000Z</time>
      </trkpt>
      <trkpt lat="40.17371" lon="-0.012205">
        <ele>291.753744</ele>
        <time>2024-05-25T09:55:17.000Z</time>
      </trkpt>
      <trkpt lat="40.173805" lon="-0.012322">
        <ele>291.975313</ele>
        <time>2024-05-25T09:55:18.000Z</time>
      </trkpt>
      <trkpt lat="40.173834" lon="-0.012449">
        <ele>292.129014</ele>
        <time>2024-05-25T09:55:19.000Z</time>
      </trkpt>
      <trkpt lat="40.173813" lon="-0.012579">
        <ele>292.28277</ele>
        <time>2024-05-25T09:55:20.000Z</time>
      </trkpt>
      <trkpt lat="40.173835" lon="-0.012785">
        <ele>292.535137</ele>
        <time>2024-05-25T09:55:22.000Z</time>
      </trkpt>
      <trkpt lat="40.173897" lon="-0.012991">
        <ele>292.809773</ele>
        <time>2024-05-25T09:55:24.000Z</time>
      </trkpt>
      <trkpt lat="40.17437" lon="-0.013802">
        <ele>294.30506</ele>
        <time>2024-05-25T09:55:33.000Z</time>
      </trkpt>
      <trkpt lat="40.174593" lon="-0.014084">
        <ele>295.052543</ele>
        <time>2024-05-25T09:55:36.000Z</time>
      </trkpt>
      <trkpt lat="40.174928" lon="-0.01449">
        <ele>296.17153</ele>
        <time>2024-05-25T09:55:41.000Z</time>
      </trkpt>
      <trkpt lat="40.175542" lon="-0.015183">
        <ele>298.203049</ele>
        <time>2024-05-25T09:55:50.000Z</time>
      </trkpt>
      <trkpt lat="40.176156" lon="-0.015963">
        <ele>300.598122</ele>
        <time>2024-05-25T09:56:00.000Z</time>
      </trkpt>
      <trkpt lat="40.176498" lon="-0.016427">
        <ele>301.99243</ele>
        <time>2024-05-25T09:56:05.000Z</time>
      </trkpt>
      <trkpt lat="40.177425" lon="-0.017682">
        <ele>305.228364</ele>
        <time>2024-05-25T09:56:20.000Z</time>
      </trkpt>
      <trkpt lat="40.178367" lon="-0.019002">
        <ele>307.385766</ele>
        <time>2024-05-25T09:56:35.000Z</time>
      </trkpt>
      <trkpt lat="40.179347" lon="-0.020344">
        <ele>307.679138</ele>
        <time>2024-05-25T09:56:51.000Z</time>
      </trkpt>
      <trkpt lat="40.179695" lon="-0.020857">
        <ele>306.864751</ele>
        <time>2024-05-25T09:56:57.000Z</time>
      </trkpt>
      <trkpt lat="40.180098" lon="-0.021637">
        <ele>305.732735</ele>
        <time>2024-05-25T09:57:05.000Z</time>
      </trkpt>
      <trkpt lat="40.180455" lon="-0.022472">
        <ele>304.417442</ele>
        <time>2024-05-25T09:57:13.000Z</time>
      </trkpt>
      <trkpt lat="40.180643" lon="-0.022895">
        <ele>303.647385</ele>
        <time>2024-05-25T09:57:17.000Z</time>
      </trkpt>
      <trkpt lat="40.181777" lon="-0.024785">
        <ele>300.945352</ele>
        <time>2024-05-25T09:57:37.000Z</time>
      </trkpt>
      <trkpt lat="40.181875" lon="-0.024948">
        <ele>300.836932</ele>
        <time>2024-05-25T09:57:39.000Z</time>
      </trkpt>
      <trkpt lat="40.182861" lon="-0.026711">
        <ele>301.298373</ele>
        <time>2024-05-25T09:57:58.000Z</time>
      </trkpt>
      <trkpt lat="40.183382" lon="-0.027626">
        <ele>302.444629</ele>
        <time>2024-05-25T09:58:08.000Z</time>
      </trkpt>
      <trkpt lat="40.183416" lon="-0.027686">
        <ele>302.506518</ele>
        <time>2024-05-25T09:58:09.000Z</time>
      </trkpt>
      <trkpt lat="40.183961" lon="-0.028644">
        <ele>304.722807</ele>
        <time>2024-05-25T09:58:19.000Z</time>
      </trkpt>
      <trkpt lat="40.184112" lon="-0.028366">
        <ele>305.378559</ele>
        <time>2024-05-25T09:58:22.000Z</time>
      </trkpt>
      <trkpt lat="40.184331" lon="-0.028041">
        <ele>306.227648</ele>
        <time>2024-05-25T09:58:26.000Z</time>
      </trkpt>
      <trkpt lat="40.184422" lon="-0.027892">
        <ele>306.572954</ele>
        <time>2024-05-25T09:58:28.000Z</time>
      </trkpt>
      <trkpt lat="40.184512" lon="-0.027752">
        <ele>306.921346</ele>
        <time>2024-05-25T09:58:30.000Z</time>
      </trkpt>
      <trkpt lat="40.184524" lon="-0.027754">
        <ele>306.924488</ele>
        <time>2024-05-25T09:58:30.000Z</time>
      </trkpt>
      <trkpt lat="40.184609" lon="-0.027641">
        <ele>307.186004</ele>
        <time>2024-05-25T09:58:31.000Z</time>
      </trkpt>
      <trkpt lat="40.184797" lon="-0.027351">
        <ele>307.721675</ele>
        <time>2024-05-25T09:58:34.000Z</time>
      </trkpt>
      <trkpt lat="40.185467" lon="-0.026362">
        <ele>309.548694</ele>
        <time>2024-05-25T09:58:45.000Z</time>
      </trkpt>
      <trkpt lat="40.186019" lon="-0.025407">
        <ele>310.654012</ele>
        <time>2024-05-25T09:58:55.000Z</time>
      </trkpt>
      <trkpt lat="40.186379" lon="-0.024695">
        <ele>311.062225</ele>
        <time>2024-05-25T09:59:02.000Z</time>
      </trkpt>
      <trkpt lat="40.186932" lon="-0.023373">
        <ele>311.822714</ele>
        <time>2024-05-25T09:59:15.000Z</time>
      </trkpt>
      <trkpt lat="40.187205" lon="-0.022752">
        <ele>312.204373</ele>
        <time>2024-05-25T09:59:21.000Z</time>
      </trkpt>
      <trkpt lat="40.187362" lon="-0.022453">
        <ele>312.401281</ele>
        <time>2024-05-25T09:59:24.000Z</time>
      </trkpt>
      <trkpt lat="40.187633" lon="-0.022023">
        <ele>312.691665</ele>
        <time>2024-05-25T09:59:29.000Z</time>
      </trkpt>
      <trkpt lat="40.187818" lon="-0.021813">
        <ele>313.008764</ele>
        <time>2024-05-25T09:59:32.000Z</time>
      </trkpt>
      <trkpt lat="40.188242" lon="-0.021351">
        <ele>313.849689</ele>
        <time>2024-05-25T09:59:38.000Z</time>
      </trkpt>
      <trkpt lat="40.188621" lon="-0.020963">
        <ele>314.575847</ele>
        <time>2024-05-25T09:59:43.000Z</time>
      </trkpt>
      <trkpt lat="40.189184" lon="-0.020391">
        <ele>315.685713</ele>
        <time>2024-05-25T09:59:51.000Z</time>
      </trkpt>
      <trkpt lat="40.19011" lon="-0.019474">
        <ele>317.855183</ele>
        <time>2024-05-25T10:00:04.000Z</time>
      </trkpt>
      <trkpt lat="40.190775" lon="-0.018786">
        <ele>319.579606</ele>
        <time>2024-05-25T10:00:13.000Z</time>
      </trkpt>
      <trkpt lat="40.190995" lon="-0.01856">
        <ele>320.209217</ele>
        <time>2024-05-25T10:00:16.000Z</time>
      </trkpt>
      <trkpt lat="40.192525" lon="-0.017079">
        <ele>324.925993</ele>
        <time>2024-05-25T10:00:37.000Z</time>
      </trkpt>
      <trkpt lat="40.194792" lon="-0.014979">
        <ele>333.573998</ele>
        <time>2024-05-25T10:01:08.000Z</time>
      </trkpt>
      <trkpt lat="40.199266" lon="-0.011095">
        <ele>357.112723</ele>
        <time>2024-05-25T10:02:08.000Z</time>
      </trkpt>
      <trkpt lat="40.199449" lon="-0.010879">
        <ele>357.886554</ele>
        <time>2024-05-25T10:02:11.000Z</time>
      </trkpt>
      <trkpt lat="40.199809" lon="-0.010271">
        <ele>358.993208</ele>
        <time>2024-05-25T10:02:18.000Z</time>
      </trkpt>
      <trkpt lat="40.199947" lon="-0.009873">
        <ele>359.636633</ele>
        <time>2024-05-25T10:02:22.000Z</time>
      </trkpt>
      <trkpt lat="40.200432" lon="-0.008389">
        <ele>361.042102</ele>
        <time>2024-05-25T10:02:36.000Z</time>
      </trkpt>
      <trkpt lat="40.200526" lon="-0.008077">
        <ele>361.024374</ele>
        <time>2024-05-25T10:02:39.000Z</time>
      </trkpt>
      <trkpt lat="40.20237" lon="-0.002303">
        <ele>360.186411</ele>
        <time>2024-05-25T10:03:32.000Z</time>
      </trkpt>
      <trkpt lat="40.203022" lon="-0.000227">
        <ele>358.048712</ele>
        <time>2024-05-25T10:03:51.000Z</time>
      </trkpt>
      <trkpt lat="40.203137" lon="0.000223">
        <ele>357.100041</ele>
        <time>2024-05-25T10:03:55.000Z</time>
      </trkpt>
      <trkpt lat="40.203175" lon="0.000596">
        <ele>356.335606</ele>
        <time>2024-05-25T10:03:58.000Z</time>
      </trkpt>
      <trkpt lat="40.203159" lon="0.001082">
        <ele>355.36217</ele>
        <time>2024-05-25T10:04:02.000Z</time>
      </trkpt>
      <trkpt lat="40.202709" lon="0.004049">
        <ele>348.518469</ele>
        <time>2024-05-25T10:04:28.000Z</time>
      </trkpt>
      <trkpt lat="40.202649" lon="0.004477">
        <ele>347.58263</ele>
        <time>2024-05-25T10:04:32.000Z</time>
      </trkpt>
      <trkpt lat="40.20266" lon="0.004894">
        <ele>346.902264</ele>
        <time>2024-05-25T10:04:36.000Z</time>
      </trkpt>
      <trkpt lat="40.202738" lon="0.005272">
        <ele>346.241752</ele>
        <time>2024-05-25T10:04:39.000Z</time>
      </trkpt>
      <trkpt lat="40.202879" lon="0.005568">
        <ele>345.633162</ele>
        <time>2024-05-25T10:04:42.000Z</time>
      </trkpt>
      <trkpt lat="40.204681" lon="0.008579">
        <ele>340.360044</ele>
        <time>2024-05-25T10:05:14.000Z</time>
      </trkpt>
      <trkpt lat="40.204872" lon="0.008837">
        <ele>339.956361</ele>
        <time>2024-05-25T10:05:17.000Z</time>
      </trkpt>
      <trkpt lat="40.205187" lon="0.009142">
        <ele>339.395615</ele>
        <time>2024-05-25T10:05:21.000Z</time>
      </trkpt>
      <trkpt lat="40.205449" lon="0.00937">
        <ele>338.940228</ele>
        <time>2024-05-25T10:05:24.000Z</time>
      </trkpt>
      <trkpt lat="40.205615" lon="0.009486">
        <ele>338.670663</ele>
        <time>2024-05-25T10:05:26.000Z</time>
      </trkpt>
      <trkpt lat="40.205635" lon="0.009514">
        <ele>338.633345</ele>
        <time>2024-05-25T10:05:26.000Z</time>
      </trkpt>
      <trkpt lat="40.205948" lon="0.009815">
        <ele>338.188696</ele>
        <time>2024-05-25T10:05:30.000Z</time>
      </trkpt>
      <trkpt lat="40.206064" lon="0.010031">
        <ele>338.205801</ele>
        <time>2024-05-25T10:05:32.000Z</time>
      </trkpt>
      <trkpt lat="40.206287" lon="0.010667">
        <ele>338.251601</ele>
        <time>2024-05-25T10:05:38.000Z</time>
      </trkpt>
      <trkpt lat="40.206056" lon="0.010033">
        <ele>338.297387</ele>
        <time>2024-05-25T10:05:44.000Z</time>
      </trkpt>
      <trkpt lat="40.20594" lon="0.009811">
        <ele>338.314501</ele>
        <time>2024-05-25T10:05:46.000Z</time>
      </trkpt>
      <trkpt lat="40.205637" lon="0.009496">
        <ele>338.583444</ele>
        <time>2024-05-25T10:05:50.000Z</time>
      </trkpt>
      <trkpt lat="40.205613" lon="0.009494">
        <ele>338.622046</ele>
        <time>2024-05-25T10:05:50.000Z</time>
      </trkpt>
      <trkpt lat="40.205444" lon="0.00936">
        <ele>338.900835</ele>
        <time>2024-05-25T10:05:52.000Z</time>
      </trkpt>
      <trkpt lat="40.20518" lon="0.009137">
        <ele>339.371774</ele>
        <time>2024-05-25T10:05:55.000Z</time>
      </trkpt>
      <trkpt lat="40.20488" lon="0.008842">
        <ele>339.951696</ele>
        <time>2024-05-25T10:05:59.000Z</time>
      </trkpt>
      <trkpt lat="40.20469" lon="0.008573">
        <ele>340.36919</ele>
        <time>2024-05-25T10:06:02.000Z</time>
      </trkpt>
      <trkpt lat="40.202876" lon="0.00557">
        <ele>345.627513</ele>
        <time>2024-05-25T10:06:35.000Z</time>
      </trkpt>
      <trkpt lat="40.202744" lon="0.005257">
        <ele>346.262413</ele>
        <time>2024-05-25T10:06:38.000Z</time>
      </trkpt>
      <trkpt lat="40.202659" lon="0.004879">
        <ele>346.95147</ele>
        <time>2024-05-25T10:06:41.000Z</time>
      </trkpt>
      <trkpt lat="40.202653" lon="0.004489">
        <ele>347.661264</ele>
        <time>2024-05-25T10:06:44.000Z</time>
      </trkpt>
      <trkpt lat="40.202701" lon="0.004049">
        <ele>348.489307</ele>
        <time>2024-05-25T10:06:48.000Z</time>
      </trkpt>
      <trkpt lat="40.20315" lon="0.001099">
        <ele>355.371079</ele>
        <time>2024-05-25T10:07:14.000Z</time>
      </trkpt>
      <trkpt lat="40.203177" lon="0.000607">
        <ele>356.303696</ele>
        <time>2024-05-25T10:07:18.000Z</time>
      </trkpt>
      <trkpt lat="40.203141" lon="0.00022">
        <ele>357.036045</ele>
        <time>2024-05-25T10:07:21.000Z</time>
      </trkpt>
      <trkpt lat="40.203034" lon="-0.000236">
        <ele>357.944934</ele>
        <time>2024-05-25T10:07:25.000Z</time>
      </trkpt>
      <trkpt lat="40.202364" lon="-0.002297">
        <ele>360.122024</ele>
        <time>2024-05-25T10:07:44.000Z</time>
      </trkpt>
      <trkpt lat="40.200532" lon="-0.008072">
        <ele>361.067392</ele>
        <time>2024-05-25T10:08:37.000Z</time>
      </trkpt>
      <trkpt lat="40.200423" lon="-0.008374">
        <ele>361.046599</ele>
        <time>2024-05-25T10:08:40.000Z</time>
      </trkpt>
      <trkpt lat="40.199958" lon="-0.009881">
        <ele>359.675202</ele>
        <time>2024-05-25T10:08:54.000Z</time>
      </trkpt>
      <trkpt lat="40.199798" lon="-0.01027">
        <ele>358.947905</ele>
        <time>2024-05-25T10:08:58.000Z</time>
      </trkpt>
      <trkpt lat="40.199435" lon="-0.010873">
        <ele>357.696969</ele>
        <time>2024-05-25T10:09:05.000Z</time>
      </trkpt>
      <trkpt lat="40.199272" lon="-0.011094">
        <ele>357.175096</ele>
        <time>2024-05-25T10:09:08.000Z</time>
      </trkpt>
      <trkpt lat="40.194798" lon="-0.014974">
        <ele>333.542223</ele>
        <time>2024-05-25T10:10:08.000Z</time>
      </trkpt>
      <trkpt lat="40.192525" lon="-0.017068">
        <ele>324.934545</ele>
        <time>2024-05-25T10:10:39.000Z</time>
      </trkpt>
      <trkpt lat="40.191007" lon="-0.018558">
        <ele>320.219938</ele>
        <time>2024-05-25T10:11:00.000Z</time>
      </trkpt>
      <trkpt lat="40.190787" lon="-0.018788">
        <ele>319.598161</ele>
        <time>2024-05-25T10:11:03.000Z</time>
      </trkpt>
      <trkpt lat="40.190097" lon="-0.019462">
        <ele>317.836774</ele>
        <time>2024-05-25T10:11:13.000Z</time>
      </trkpt>
      <trkpt lat="40.189184" lon="-0.02039">
        <ele>315.694754</ele>
        <time>2024-05-25T10:11:26.000Z</time>
      </trkpt>
      <trkpt lat="40.188614" lon="-0.020955">
        <ele>314.564506</ele>
        <time>2024-05-25T10:11:34.000Z</time>
      </trkpt>
      <trkpt lat="40.188245" lon="-0.021351">
        <ele>313.863605</ele>
        <time>2024-05-25T10:11:39.000Z</time>
      </trkpt>
      <trkpt lat="40.187809" lon="-0.021804">
        <ele>313.051969</ele>
        <time>2024-05-25T10:11:45.000Z</time>
      </trkpt>
      <trkpt lat="40.18764" lon="-0.022022">
        <ele>312.688853</ele>
        <time>2024-05-25T10:11:48.000Z</time>
      </trkpt>
      <trkpt lat="40.187355" lon="-0.022444">
        <ele>312.364855</ele>
        <time>2024-05-25T10:11:53.000Z</time>
      </trkpt>
      <trkpt lat="40.18721" lon="-0.022754">
        <ele>312.184756</ele>
        <time>2024-05-25T10:11:56.000Z</time>
      </trkpt>
      <trkpt lat="40.186934" lon="-0.023376">
        <ele>311.835632</ele>
        <time>2024-05-25T10:12:02.000Z</time>
      </trkpt>
      <trkpt lat="40.186377" lon="-0.024701">
        <ele>311.064249</ele>
        <time>2024-05-25T10:12:15.000Z</time>
      </trkpt>
      <trkpt lat="40.186027" lon="-0.025417">
        <ele>310.609075</ele>
        <time>2024-05-25T10:12:22.000Z</time>
      </trkpt>
      <trkpt lat="40.18547" lon="-0.02637">
        <ele>309.602339</ele>
        <time>2024-05-25T10:12:32.000Z</time>
      </trkpt>
      <trkpt lat="40.184798" lon="-0.027345">
        <ele>307.685468</ele>
        <time>2024-05-25T10:12:43.000Z</time>
      </trkpt>
      <trkpt lat="40.184594" lon="-0.027639">
        <ele>307.123414</ele>
        <time>2024-05-25T10:12:46.000Z</time>
      </trkpt>
      <trkpt lat="40.184515" lon="-0.027764">
        <ele>306.896261</ele>
        <time>2024-05-25T10:12:47.000Z</time>
      </trkpt>
      <trkpt lat="40.184514" lon="-0.027758">
        <ele>306.893864</ele>
        <time>2024-05-25T10:12:47.000Z</time>
      </trkpt>
      <trkpt lat="40.184422" lon="-0.027898">
        <ele>306.591689</ele>
        <time>2024-05-25T10:12:49.000Z</time>
      </trkpt>
      <trkpt lat="40.184331" lon="-0.028026">
        <ele>306.247411</ele>
        <time>2024-05-25T10:12:50.000Z</time>
      </trkpt>
      <trkpt lat="40.184116" lon="-0.028359">
        <ele>305.400866</ele>
        <time>2024-05-25T10:12:54.000Z</time>
      </trkpt>
      <trkpt lat="40.183964" lon="-0.028633">
        <ele>304.747087</ele>
        <time>2024-05-25T10:12:57.000Z</time>
      </trkpt>
      <trkpt lat="40.183407" lon="-0.027675">
        <ele>302.461822</ele>
        <time>2024-05-25T10:13:07.000Z</time>
      </trkpt>
      <trkpt lat="40.183384" lon="-0.027631">
        <ele>302.345301</ele>
        <time>2024-05-25T10:13:07.000Z</time>
      </trkpt>
      <trkpt lat="40.182878" lon="-0.026715">
        <ele>301.294734</ele>
        <time>2024-05-25T10:13:17.000Z</time>
      </trkpt>
      <trkpt lat="40.181865" lon="-0.024942">
        <ele>300.811812</ele>
        <time>2024-05-25T10:13:36.000Z</time>
      </trkpt>
      <trkpt lat="40.181784" lon="-0.02478">
        <ele>300.944819</ele>
        <time>2024-05-25T10:13:38.000Z</time>
      </trkpt>
      <trkpt lat="40.180647" lon="-0.022898">
        <ele>303.641236</ele>
        <time>2024-05-25T10:13:58.000Z</time>
      </trkpt>
      <trkpt lat="40.180456" lon="-0.022483">
        <ele>304.423481</ele>
        <time>2024-05-25T10:14:02.000Z</time>
      </trkpt>
      <trkpt lat="40.180116" lon="-0.02164">
        <ele>305.794796</ele>
        <time>2024-05-25T10:14:10.000Z</time>
      </trkpt>
      <trkpt lat="40.179694" lon="-0.020854">
        <ele>306.832231</ele>
        <time>2024-05-25T10:14:18.000Z</time>
      </trkpt>
      <trkpt lat="40.17934" lon="-0.020349">
        <ele>307.578563</ele>
        <time>2024-05-25T10:14:24.000Z</time>
      </trkpt>
      <trkpt lat="40.178382" lon="-0.019007">
        <ele>307.34903</ele>
        <time>2024-05-25T10:14:40.000Z</time>
      </trkpt>
      <trkpt lat="40.177416" lon="-0.017691">
        <ele>305.263804</ele>
        <time>2024-05-25T10:14:56.000Z</time>
      </trkpt>
      <trkpt lat="40.176507" lon="-0.01643">
        <ele>301.993364</ele>
        <time>2024-05-25T10:15:11.000Z</time>
      </trkpt>
      <trkpt lat="40.176167" lon="-0.015953">
        <ele>300.599053</ele>
        <time>2024-05-25T10:15:17.000Z</time>
      </trkpt>
      <trkpt lat="40.175543" lon="-0.015178">
        <ele>298.204018</ele>
        <time>2024-05-25T10:15:27.000Z</time>
      </trkpt>
      <trkpt lat="40.17493" lon="-0.014483">
        <ele>296.107258</ele>
        <time>2024-05-25T10:15:36.000Z</time>
      </trkpt>
      <trkpt lat="40.174585" lon="-0.014086">
        <ele>294.9786</ele>
        <time>2024-05-25T10:15:41.000Z</time>
      </trkpt>
      <trkpt lat="40.174373" lon="-0.013797">
        <ele>294.224642</ele>
        <time>2024-05-25T10:15:44.000Z</time>
      </trkpt>
      <trkpt lat="40.17391" lon="-0.012997">
        <ele>292.615866</ele>
        <time>2024-05-25T10:15:53.000Z</time>
      </trkpt>
      <trkpt lat="40.173665" lon="-0.012691">
        <ele>292.116563</ele>
        <time>2024-05-25T10:15:57.000Z</time>
      </trkpt>
      <trkpt lat="40.173563" lon="-0.012673">
        <ele>291.962812</ele>
        <time>2024-05-25T10:15:58.000Z</time>
      </trkpt>
      <trkpt lat="40.173498" lon="-0.012606">
        <ele>291.834572</ele>
        <time>2024-05-25T10:15:59.000Z</time>
      </trkpt>
      <trkpt lat="40.173458" lon="-0.012505">
        <ele>291.699013</ele>
        <time>2024-05-25T10:16:00.000Z</time>
      </trkpt>
      <trkpt lat="40.173444" lon="-0.01238">
        <ele>291.545724</ele>
        <time>2024-05-25T10:16:01.000Z</time>
      </trkpt>
      <trkpt lat="40.173345" lon="-0.011991">
        <ele>291.063298</ele>
        <time>2024-05-25T10:16:04.000Z</time>
      </trkpt>
      <trkpt lat="40.172607" lon="-0.010724">
        <ele>289.056159</ele>
        <time>2024-05-25T10:16:18.000Z</time>
      </trkpt>
      <trkpt lat="40.172508" lon="-0.010545">
        <ele>288.761659</ele>
        <time>2024-05-25T10:16:20.000Z</time>
      </trkpt>
      <trkpt lat="40.172469" lon="-0.010484">
        <ele>288.646945</ele>
        <time>2024-05-25T10:16:21.000Z</time>
      </trkpt>
      <trkpt lat="40.172294" lon="-0.010158">
        <ele>288.10583</ele>
        <time>2024-05-25T10:16:24.000Z</time>
      </trkpt>
      <trkpt lat="40.17213" lon="-0.009761">
        <ele>287.501558</ele>
        <time>2024-05-25T10:16:28.000Z</time>
      </trkpt>
      <trkpt lat="40.172019" lon="-0.009416">
        <ele>286.880541</ele>
        <time>2024-05-25T10:16:31.000Z</time>
      </trkpt>
      <trkpt lat="40.171295" lon="-0.006058">
        <ele>279.634889</ele>
        <time>2024-05-25T10:17:01.000Z</time>
      </trkpt>
      <trkpt lat="40.171189" lon="-0.005578">
        <ele>278.760824</ele>
        <time>2024-05-25T10:17:05.000Z</time>
      </trkpt>
      <trkpt lat="40.171165" lon="-0.005251">
        <ele>278.177812</ele>
        <time>2024-05-25T10:17:08.000Z</time>
      </trkpt>
      <trkpt lat="40.171147" lon="-0.004807">
        <ele>277.81108</ele>
        <time>2024-05-25T10:17:12.000Z</time>
      </trkpt>
      <trkpt lat="40.171164" lon="-0.00382">
        <ele>278.240068</ele>
        <time>2024-05-25T10:17:20.000Z</time>
      </trkpt>
      <trkpt lat="40.171138" lon="-0.003466">
        <ele>278.386456</ele>
        <time>2024-05-25T10:17:23.000Z</time>
      </trkpt>
      <trkpt lat="40.171068" lon="-0.003103">
        <ele>278.553083</ele>
        <time>2024-05-25T10:17:26.000Z</time>
      </trkpt>
      <trkpt lat="40.170966" lon="-0.002735">
        <ele>278.721154</ele>
        <time>2024-05-25T10:17:29.000Z</time>
      </trkpt>
      <trkpt lat="40.170802" lon="-0.002304">
        <ele>279.236716</ele>
        <time>2024-05-25T10:17:33.000Z</time>
      </trkpt>
      <trkpt lat="40.170206" lon="-0.001049">
        <ele>280.953726</ele>
        <time>2024-05-25T10:17:46.000Z</time>
      </trkpt>
      <trkpt lat="40.169946" lon="-0.000525">
        <ele>281.450607</ele>
        <time>2024-05-25T10:17:51.000Z</time>
      </trkpt>
      <trkpt lat="40.169582" lon="0.000133">
        <ele>281.407822</ele>
        <time>2024-05-25T10:17:58.000Z</time>
      </trkpt>
      <trkpt lat="40.169038" lon="0.001025">
        <ele>281.349442</ele>
        <time>2024-05-25T10:18:08.000Z</time>
      </trkpt>
      <trkpt lat="40.168478" lon="0.002079">
        <ele>280.654613</ele>
        <time>2024-05-25T10:18:19.000Z</time>
      </trkpt>
      <trkpt lat="40.167733" lon="0.003698">
        <ele>279.303382</ele>
        <time>2024-05-25T10:18:35.000Z</time>
      </trkpt>
      <trkpt lat="40.167408" lon="0.004645">
        <ele>278.37427</ele>
        <time>2024-05-25T10:18:44.000Z</time>
      </trkpt>
      <trkpt lat="40.166749" lon="0.006639">
        <ele>276.31119</ele>
        <time>2024-05-25T10:19:02.000Z</time>
      </trkpt>
      <trkpt lat="40.166005" lon="0.009352">
        <ele>273.371154</ele>
        <time>2024-05-25T10:19:26.000Z</time>
      </trkpt>
      <trkpt lat="40.165846" lon="0.010233">
        <ele>272.659838</ele>
        <time>2024-05-25T10:19:34.000Z</time>
      </trkpt>
      <trkpt lat="40.165772" lon="0.010772">
        <ele>272.339087</ele>
        <time>2024-05-25T10:19:39.000Z</time>
      </trkpt>
      <trkpt lat="40.165761" lon="0.011316">
        <ele>272.01549</ele>
        <time>2024-05-25T10:19:44.000Z</time>
      </trkpt>
      <trkpt lat="40.165758" lon="0.011877">
        <ele>271.676857</ele>
        <time>2024-05-25T10:19:49.000Z</time>
      </trkpt>
      <trkpt lat="40.165825" lon="0.012716">
        <ele>271.356299</ele>
        <time>2024-05-25T10:19:56.000Z</time>
      </trkpt>
      <trkpt lat="40.165816" lon="0.013123">
        <ele>271.218294</ele>
        <time>2024-05-25T10:19:59.000Z</time>
      </trkpt>
      <trkpt lat="40.165658" lon="0.014352">
        <ele>270.810473</ele>
        <time>2024-05-25T10:20:10.000Z</time>
      </trkpt>
      <trkpt lat="40.16561" lon="0.014466">
        <ele>270.723222</ele>
        <time>2024-05-25T10:20:11.000Z</time>
      </trkpt>
      <trkpt lat="40.165555" lon="0.01454">
        <ele>270.646535</ele>
        <time>2024-05-25T10:20:12.000Z</time>
      </trkpt>
      <trkpt lat="40.165441" lon="0.014569">
        <ele>270.535661</ele>
        <time>2024-05-25T10:20:13.000Z</time>
      </trkpt>
      <trkpt lat="40.165377" lon="0.014631">
        <ele>270.456879</ele>
        <time>2024-05-25T10:20:14.000Z</time>
      </trkpt>
      <trkpt lat="40.165345" lon="0.014738">
        <ele>270.382774</ele>
        <time>2024-05-25T10:20:15.000Z</time>
      </trkpt>
      <trkpt lat="40.16536" lon="0.01474">
        <ele>270.379843</ele>
        <time>2024-05-25T10:20:15.000Z</time>
      </trkpt>
      <trkpt lat="40.165373" lon="0.014993">
        <ele>270.18163</ele>
        <time>2024-05-25T10:20:17.000Z</time>
      </trkpt>
      <trkpt lat="40.165383" lon="0.015193">
        <ele>270.041162</ele>
        <time>2024-05-25T10:20:19.000Z</time>
      </trkpt>
      <trkpt lat="40.165367" lon="0.015353">
        <ele>269.924792</ele>
        <time>2024-05-25T10:20:20.000Z</time>
      </trkpt>
      <trkpt lat="40.165262" lon="0.01563">
        <ele>269.687571</ele>
        <time>2024-05-25T10:20:23.000Z</time>
      </trkpt>
      <trkpt lat="40.163765" lon="0.019863">
        <ele>265.128748</ele>
        <time>2024-05-25T10:21:03.000Z</time>
      </trkpt>
      <trkpt lat="40.163382" lon="0.020897">
        <ele>263.836075</ele>
        <time>2024-05-25T10:21:13.000Z</time>
      </trkpt>
      <trkpt lat="40.161944" lon="0.02497">
        <ele>258.662266</ele>
        <time>2024-05-25T10:21:51.000Z</time>
      </trkpt>
      <trkpt lat="40.161486" lon="0.026263">
        <ele>258.275151</ele>
        <time>2024-05-25T10:22:03.000Z</time>
      </trkpt>
      <trkpt lat="40.16143" lon="0.026429">
        <ele>258.223798</ele>
        <time>2024-05-25T10:22:05.000Z</time>
      </trkpt>
      <trkpt lat="40.161414" lon="0.026486">
        <ele>258.2097</ele>
        <time>2024-05-25T10:22:06.000Z</time>
      </trkpt>
      <trkpt lat="40.160121" lon="0.030139">
        <ele>258.571268</ele>
        <time>2024-05-25T10:22:40.000Z</time>
      </trkpt>
      <trkpt lat="40.158821" lon="0.033798">
        <ele>259.26151</ele>
        <time>2024-05-25T10:23:14.000Z</time>
      </trkpt>
      <trkpt lat="40.15846" lon="0.034796">
        <ele>259.727124</ele>
        <time>2024-05-25T10:23:23.000Z</time>
      </trkpt>
      <trkpt lat="40.157807" lon="0.036612">
        <ele>260.724577</ele>
        <time>2024-05-25T10:23:40.000Z</time>
      </trkpt>
      <trkpt lat="40.157632" lon="0.03711">
        <ele>261.034559</ele>
        <time>2024-05-25T10:23:45.000Z</time>
      </trkpt>
      <trkpt lat="40.156914" lon="0.039138">
        <ele>263.12156</ele>
        <time>2024-05-25T10:24:04.000Z</time>
      </trkpt>
      <trkpt lat="40.156881" lon="0.039219">
        <ele>263.217894</ele>
        <time>2024-05-25T10:24:05.000Z</time>
      </trkpt>
      <trkpt lat="40.156771" lon="0.039525">
        <ele>263.587709</ele>
        <time>2024-05-25T10:24:08.000Z</time>
      </trkpt>
      <trkpt lat="40.156564" lon="0.040089">
        <ele>264.1407</ele>
        <time>2024-05-25T10:24:13.000Z</time>
      </trkpt>
      <trkpt lat="40.156414" lon="0.040532">
        <ele>264.364184</ele>
        <time>2024-05-25T10:24:17.000Z</time>
      </trkpt>
      <trkpt lat="40.156329" lon="0.040658">
        <ele>264.449058</ele>
        <time>2024-05-25T10:24:18.000Z</time>
      </trkpt>
      <trkpt lat="40.156273" lon="0.040703">
        <ele>264.477113</ele>
        <time>2024-05-25T10:24:19.000Z</time>
      </trkpt>
      <trkpt lat="40.156168" lon="0.040678">
        <ele>264.541501</ele>
        <time>2024-05-25T10:24:20.000Z</time>
      </trkpt>
      <trkpt lat="40.15611" lon="0.040642">
        <ele>264.580377</ele>
        <time>2024-05-25T10:24:21.000Z</time>
      </trkpt>
      <trkpt lat="40.156105" lon="0.040643">
        <ele>264.588196</ele>
        <time>2024-05-25T10:24:21.000Z</time>
      </trkpt>
      <trkpt lat="40.156079" lon="0.040627">
        <ele>264.609944</ele>
        <time>2024-05-25T10:24:21.000Z</time>
      </trkpt>
      <trkpt lat="40.155967" lon="0.040566">
        <ele>264.681728</ele>
        <time>2024-05-25T10:24:22.000Z</time>
      </trkpt>
      <trkpt lat="40.155713" lon="0.040441">
        <ele>264.84428</ele>
        <time>2024-05-25T10:24:25.000Z</time>
      </trkpt>
      <trkpt lat="40.155187" lon="0.040153">
        <ele>265.006919</ele>
        <time>2024-05-25T10:24:31.000Z</time>
      </trkpt>
      <trkpt lat="40.154427" lon="0.039741">
        <ele>264.078515</ele>
        <time>2024-05-25T10:24:40.000Z</time>
      </trkpt>
      <trkpt lat="40.154187" lon="0.039607">
        <ele>263.787266</ele>
        <time>2024-05-25T10:24:43.000Z</time>
      </trkpt>
      <trkpt lat="40.154053" lon="0.039536">
        <ele>263.629158</ele>
        <time>2024-05-25T10:24:45.000Z</time>
      </trkpt>
      <trkpt lat="40.152517" lon="0.038704">
        <ele>261.452341</ele>
        <time>2024-05-25T10:25:03.000Z</time>
      </trkpt>
      <trkpt lat="40.152063" lon="0.038465">
        <ele>260.76019</ele>
        <time>2024-05-25T10:25:08.000Z</time>
      </trkpt>
      <trkpt lat="40.151525" lon="0.038173">
        <ele>259.764051</ele>
        <time>2024-05-25T10:25:14.000Z</time>
      </trkpt>
      <trkpt lat="40.150209" lon="0.037455">
        <ele>257.305653</ele>
        <time>2024-05-25T10:25:30.000Z</time>
      </trkpt>
      <trkpt lat="40.150032" lon="0.037354">
        <ele>257.122695</ele>
        <time>2024-05-25T10:25:32.000Z</time>
      </trkpt>
      <trkpt lat="40.148906" lon="0.036775">
        <ele>255.996463</ele>
        <time>2024-05-25T10:25:45.000Z</time>
      </trkpt>
      <trkpt lat="40.14867" lon="0.036716">
        <ele>255.778115</ele>
        <time>2024-05-25T10:25:48.000Z</time>
      </trkpt>
      <trkpt lat="40.147667" lon="0.036575">
        <ele>255.997423</ele>
        <time>2024-05-25T10:25:59.000Z</time>
      </trkpt>
      <trkpt lat="40.147508" lon="0.036621">
        <ele>256.043181</ele>
        <time>2024-05-25T10:26:01.000Z</time>
      </trkpt>
      <trkpt lat="40.147363" lon="0.036711">
        <ele>256.087761</ele>
        <time>2024-05-25T10:26:03.000Z</time>
      </trkpt>
      <trkpt lat="40.147238" lon="0.036908">
        <ele>256.146305</ele>
        <time>2024-05-25T10:26:05.000Z</time>
      </trkpt>
      <trkpt lat="40.147056" lon="0.037322">
        <ele>256.256339</ele>
        <time>2024-05-25T10:26:09.000Z</time>
      </trkpt>
      <trkpt lat="40.14694" lon="0.037485">
        <ele>256.341729</ele>
        <time>2024-05-25T10:26:11.000Z</time>
      </trkpt>
      <trkpt lat="40.146717" lon="0.037598">
        <ele>256.463993</ele>
        <time>2024-05-25T10:26:14.000Z</time>
      </trkpt>
      <trkpt lat="40.146606" lon="0.037618">
        <ele>256.526163</ele>
        <time>2024-05-25T10:26:15.000Z</time>
      </trkpt>
      <trkpt lat="40.146492" lon="0.037566">
        <ele>256.586277</ele>
        <time>2024-05-25T10:26:16.000Z</time>
      </trkpt>
      <trkpt lat="40.146436" lon="0.037447">
        <ele>256.648003</ele>
        <time>2024-05-25T10:26:17.000Z</time>
      </trkpt>
      <trkpt lat="40.146448" lon="0.037304">
        <ele>256.704329</ele>
        <time>2024-05-25T10:26:18.000Z</time>
      </trkpt>
      <trkpt lat="40.1464" lon="0.037126">
        <ele>256.778201</ele>
        <time>2024-05-25T10:26:20.000Z</time>
      </trkpt>
      <trkpt lat="40.146384" lon="0.03711">
        <ele>256.784193</ele>
        <time>2024-05-25T10:26:20.000Z</time>
      </trkpt>
      <trkpt lat="40.146378" lon="0.0371">
        <ele>256.78887</ele>
        <time>2024-05-25T10:26:20.000Z</time>
      </trkpt>
      <trkpt lat="40.146348" lon="0.037047">
        <ele>256.815134</ele>
        <time>2024-05-25T10:26:21.000Z</time>
      </trkpt>
      <trkpt lat="40.146318" lon="0.036999">
        <ele>256.845603</ele>
        <time>2024-05-25T10:26:22.000Z</time>
      </trkpt>
      <trkpt lat="40.146131" lon="0.036926">
        <ele>256.939408</ele>
        <time>2024-05-25T10:26:24.000Z</time>
      </trkpt>
      <trkpt lat="40.146007" lon="0.036964">
        <ele>257.012581</ele>
        <time>2024-05-25T10:26:25.000Z</time>
      </trkpt>
      <trkpt lat="40.145891" lon="0.037075">
        <ele>257.08641</ele>
        <time>2024-05-25T10:26:27.000Z</time>
      </trkpt>
      <trkpt lat="40.145831" lon="0.037228">
        <ele>257.153587</ele>
        <time>2024-05-25T10:26:28.000Z</time>
      </trkpt>
      <trkpt lat="40.14582" lon="0.037382">
        <ele>257.232899</ele>
        <time>2024-05-25T10:26:29.000Z</time>
      </trkpt>
      <trkpt lat="40.145741" lon="0.037489">
        <ele>257.325807</ele>
        <time>2024-05-25T10:26:30.000Z</time>
      </trkpt>
      <trkpt lat="40.145608" lon="0.037556">
        <ele>257.445082</ele>
        <time>2024-05-25T10:26:32.000Z</time>
      </trkpt>
      <trkpt lat="40.145496" lon="0.037555">
        <ele>257.534622</ele>
        <time>2024-05-25T10:26:33.000Z</time>
      </trkpt>
      <trkpt lat="40.145312" lon="0.037505">
        <ele>257.6804</ele>
        <time>2024-05-25T10:26:35.000Z</time>
      </trkpt>
      <trkpt lat="40.144938" lon="0.037538">
        <ele>257.973474</ele>
        <time>2024-05-25T10:26:39.000Z</time>
      </trkpt>
      <trkpt lat="40.144093" lon="0.037672">
        <ele>258.632681</ele>
        <time>2024-05-25T10:26:48.000Z</time>
      </trkpt>
      <trkpt lat="40.142778" lon="0.037852">
        <ele>259.230823</ele>
        <time>2024-05-25T10:27:03.000Z</time>
      </trkpt>
      <trkpt lat="40.142704" lon="0.037862">
        <ele>259.264311</ele>
        <time>2024-05-25T10:27:04.000Z</time>
      </trkpt>
      <trkpt lat="40.14254" lon="0.037884">
        <ele>259.339089</ele>
        <time>2024-05-25T10:27:06.000Z</time>
      </trkpt>
      <trkpt lat="40.141696" lon="0.038047">
        <ele>259.172878</ele>
        <time>2024-05-25T10:27:15.000Z</time>
      </trkpt>
      <trkpt lat="40.139607" lon="0.038455">
        <ele>257.980775</ele>
        <time>2024-05-25T10:27:38.000Z</time>
      </trkpt>
      <trkpt lat="40.13861" lon="0.038725">
        <ele>257.15991</ele>
        <time>2024-05-25T10:27:49.000Z</time>
      </trkpt>
      <trkpt lat="40.137501" lon="0.039082">
        <ele>256.156679</ele>
        <time>2024-05-25T10:28:02.000Z</time>
      </trkpt>
      <trkpt lat="40.135107" lon="0.039995">
        <ele>254.606699</ele>
        <time>2024-05-25T10:28:30.000Z</time>
      </trkpt>
      <trkpt lat="40.134627" lon="0.040238">
        <ele>254.337452</ele>
        <time>2024-05-25T10:28:36.000Z</time>
      </trkpt>
      <trkpt lat="40.134239" lon="0.040491">
        <ele>254.105874</ele>
        <time>2024-05-25T10:28:41.000Z</time>
      </trkpt>
      <trkpt lat="40.133876" lon="0.040742">
        <ele>253.894005</ele>
        <time>2024-05-25T10:28:46.000Z</time>
      </trkpt>
      <trkpt lat="40.1336" lon="0.041006">
        <ele>253.778875</ele>
        <time>2024-05-25T10:28:50.000Z</time>
      </trkpt>
      <trkpt lat="40.132783" lon="0.0418">
        <ele>253.698974</ele>
        <time>2024-05-25T10:29:01.000Z</time>
      </trkpt>
      <trkpt lat="40.132463" lon="0.042056">
        <ele>253.668564</ele>
        <time>2024-05-25T10:29:05.000Z</time>
      </trkpt>
      <trkpt lat="40.132328" lon="0.042133">
        <ele>253.657019</ele>
        <time>2024-05-25T10:29:07.000Z</time>
      </trkpt>
      <trkpt lat="40.132145" lon="0.042271">
        <ele>253.649989</ele>
        <time>2024-05-25T10:29:09.000Z</time>
      </trkpt>
      <trkpt lat="40.131322" lon="0.042777">
        <ele>253.664816</ele>
        <time>2024-05-25T10:29:19.000Z</time>
      </trkpt>
      <trkpt lat="40.131104" lon="0.042899">
        <ele>253.668777</ele>
        <time>2024-05-25T10:29:22.000Z</time>
      </trkpt>
      <trkpt lat="40.130701" lon="0.043151">
        <ele>253.675937</ele>
        <time>2024-05-25T10:29:27.000Z</time>
      </trkpt>
      <trkpt lat="40.130059" lon="0.043542">
        <ele>253.427984</ele>
        <time>2024-05-25T10:29:35.000Z</time>
      </trkpt>
      <trkpt lat="40.129293" lon="0.044005">
        <ele>253.08033</ele>
        <time>2024-05-25T10:29:44.000Z</time>
      </trkpt>
      <trkpt lat="40.128866" lon="0.044227">
        <ele>252.963311</ele>
        <time>2024-05-25T10:29:49.000Z</time>
      </trkpt>
      <trkpt lat="40.128463" lon="0.044394">
        <ele>253.062589</ele>
        <time>2024-05-25T10:29:54.000Z</time>
      </trkpt>
      <trkpt lat="40.127978" lon="0.044528">
        <ele>253.181927</ele>
        <time>2024-05-25T10:30:00.000Z</time>
      </trkpt>
      <trkpt lat="40.127263" lon="0.04464">
        <ele>253.351224</ele>
        <time>2024-05-25T10:30:08.000Z</time>
      </trkpt>
      <trkpt lat="40.126655" lon="0.044651">
        <ele>254.149297</ele>
        <time>2024-05-25T10:30:15.000Z</time>
      </trkpt>
      <trkpt lat="40.125062" lon="0.044578">
        <ele>256.473498</ele>
        <time>2024-05-25T10:30:33.000Z</time>
      </trkpt>
      <trkpt lat="40.124765" lon="0.044498">
        <ele>256.97363</ele>
        <time>2024-05-25T10:30:36.000Z</time>
      </trkpt>
      <trkpt lat="40.124517" lon="0.044378">
        <ele>257.401422</ele>
        <time>2024-05-25T10:30:39.000Z</time>
      </trkpt>
      <trkpt lat="40.124434" lon="0.044249">
        <ele>257.6053</ele>
        <time>2024-05-25T10:30:40.000Z</time>
      </trkpt>
      <trkpt lat="40.124278" lon="0.044196">
        <ele>257.850772</ele>
        <time>2024-05-25T10:30:42.000Z</time>
      </trkpt>
      <trkpt lat="40.124133" lon="0.044249">
        <ele>258.099304</ele>
        <time>2024-05-25T10:30:44.000Z</time>
      </trkpt>
      <trkpt lat="40.124049" lon="0.044413">
        <ele>258.348934</ele>
        <time>2024-05-25T10:30:46.000Z</time>
      </trkpt>
      <trkpt lat="40.123857" lon="0.044562">
        <ele>258.704599</ele>
        <time>2024-05-25T10:30:48.000Z</time>
      </trkpt>
      <trkpt lat="40.123627" lon="0.044639">
        <ele>258.268107</ele>
        <time>2024-05-25T10:30:51.000Z</time>
      </trkpt>
      <trkpt lat="40.123335" lon="0.04477">
        <ele>257.164249</ele>
        <time>2024-05-25T10:30:54.000Z</time>
      </trkpt>
      <trkpt lat="40.122917" lon="0.044989">
        <ele>255.541203</ele>
        <time>2024-05-25T10:30:59.000Z</time>
      </trkpt>
      <trkpt lat="40.122705" lon="0.045076">
        <ele>254.793488</ele>
        <time>2024-05-25T10:31:01.000Z</time>
      </trkpt>
      <trkpt lat="40.122671" lon="0.045079">
        <ele>254.68436</ele>
        <time>2024-05-25T10:31:01.000Z</time>
      </trkpt>
      <trkpt lat="40.122241" lon="0.045134">
        <ele>253.114131</ele>
        <time>2024-05-25T10:31:06.000Z</time>
      </trkpt>
      <trkpt lat="40.121709" lon="0.04528">
        <ele>248.793533</ele>
        <time>2024-05-25T10:31:12.000Z</time>
      </trkpt>
      <trkpt lat="40.121538" lon="0.045377">
        <ele>246.936821</ele>
        <time>2024-05-25T10:31:14.000Z</time>
      </trkpt>
      <trkpt lat="40.121222" lon="0.045781">
        <ele>242.527145</ele>
        <time>2024-05-25T10:31:19.000Z</time>
      </trkpt>
      <trkpt lat="40.120816" lon="0.046118">
        <ele>237.774915</ele>
        <time>2024-05-25T10:31:24.000Z</time>
      </trkpt>
      <trkpt lat="40.120447" lon="0.046397">
        <ele>233.497979</ele>
        <time>2024-05-25T10:31:29.000Z</time>
      </trkpt>
      <trkpt lat="40.119797" lon="0.046816">
        <ele>226.851828</ele>
        <time>2024-05-25T10:31:37.000Z</time>
      </trkpt>
      <trkpt lat="40.118895" lon="0.047289">
        <ele>217.978498</ele>
        <time>2024-05-25T10:31:48.000Z</time>
      </trkpt>
      <trkpt lat="40.118487" lon="0.047432">
        <ele>215.35582</ele>
        <time>2024-05-25T10:31:53.000Z</time>
      </trkpt>
      <trkpt lat="40.117482" lon="0.0475">
        <ele>209.268602</ele>
        <time>2024-05-25T10:32:04.000Z</time>
      </trkpt>
      <trkpt lat="40.117097" lon="0.047605">
        <ele>206.910556</ele>
        <time>2024-05-25T10:32:08.000Z</time>
      </trkpt>
      <trkpt lat="40.116784" lon="0.047715">
        <ele>204.88111</ele>
        <time>2024-05-25T10:32:12.000Z</time>
      </trkpt>
      <trkpt lat="40.115551" lon="0.048257">
        <ele>196.836703</ele>
        <time>2024-05-25T10:32:26.000Z</time>
      </trkpt>
      <trkpt lat="40.114513" lon="0.048879">
        <ele>193.235932</ele>
        <time>2024-05-25T10:32:39.000Z</time>
      </trkpt>
      <trkpt lat="40.11443" lon="0.048956">
        <ele>192.950375</ele>
        <time>2024-05-25T10:32:40.000Z</time>
      </trkpt>
      <trkpt lat="40.114369" lon="0.049087">
        <ele>192.657818</ele>
        <time>2024-05-25T10:32:41.000Z</time>
      </trkpt>
      <trkpt lat="40.114304" lon="0.049607">
        <ele>191.578879</ele>
        <time>2024-05-25T10:32:45.000Z</time>
      </trkpt>
      <trkpt lat="40.114211" lon="0.049935">
        <ele>191.034168</ele>
        <time>2024-05-25T10:32:48.000Z</time>
      </trkpt>
      <trkpt lat="40.11363" lon="0.050735">
        <ele>190.662198</ele>
        <time>2024-05-25T10:32:57.000Z</time>
      </trkpt>
      <trkpt lat="40.113446" lon="0.051112">
        <ele>190.515418</ele>
        <time>2024-05-25T10:33:01.000Z</time>
      </trkpt>
      <trkpt lat="40.113361" lon="0.051349">
        <ele>190.43032</ele>
        <time>2024-05-25T10:33:03.000Z</time>
      </trkpt>
      <trkpt lat="40.113338" lon="0.051558">
        <ele>190.356281</ele>
        <time>2024-05-25T10:33:05.000Z</time>
      </trkpt>
      <trkpt lat="40.113314" lon="0.05206">
        <ele>189.078783</ele>
        <time>2024-05-25T10:33:09.000Z</time>
      </trkpt>
      <trkpt lat="40.113407" lon="0.052999">
        <ele>184.731347</ele>
        <time>2024-05-25T10:33:17.000Z</time>
      </trkpt>
      <trkpt lat="40.113456" lon="0.053242">
        <ele>183.596956</ele>
        <time>2024-05-25T10:33:19.000Z</time>
      </trkpt>
      <trkpt lat="40.113563" lon="0.053557">
        <ele>182.084604</ele>
        <time>2024-05-25T10:33:22.000Z</time>
      </trkpt>
      <trkpt lat="40.114061" lon="0.054486">
        <ele>177.0826</ele>
        <time>2024-05-25T10:33:32.000Z</time>
      </trkpt>
      <trkpt lat="40.11416" lon="0.054752">
        <ele>175.856914</ele>
        <time>2024-05-25T10:33:35.000Z</time>
      </trkpt>
      <trkpt lat="40.114265" lon="0.055075">
        <ele>174.327035</ele>
        <time>2024-05-25T10:33:38.000Z</time>
      </trkpt>
      <trkpt lat="40.114552" lon="0.056688">
        <ele>168.307421</ele>
        <time>2024-05-25T10:33:52.000Z</time>
      </trkpt>
      <trkpt lat="40.11469" lon="0.057228">
        <ele>166.873213</ele>
        <time>2024-05-25T10:33:57.000Z</time>
      </trkpt>
      <trkpt lat="40.114707" lon="0.057426">
        <ele>166.391507</ele>
        <time>2024-05-25T10:33:59.000Z</time>
      </trkpt>
      <trkpt lat="40.114671" lon="0.057901">
        <ele>165.220795</ele>
        <time>2024-05-25T10:34:03.000Z</time>
      </trkpt>
      <trkpt lat="40.114611" lon="0.058081">
        <ele>164.723902</ele>
        <time>2024-05-25T10:34:05.000Z</time>
      </trkpt>
      <trkpt lat="40.114467" lon="0.058345">
        <ele>163.948588</ele>
        <time>2024-05-25T10:34:08.000Z</time>
      </trkpt>
      <trkpt lat="40.114348" lon="0.058444">
        <ele>163.621656</ele>
        <time>2024-05-25T10:34:10.000Z</time>
      </trkpt>
      <trkpt lat="40.114209" lon="0.058527">
        <ele>163.287827</ele>
        <time>2024-05-25T10:34:12.000Z</time>
      </trkpt>
      <trkpt lat="40.113757" lon="0.058703">
        <ele>162.202251</ele>
        <time>2024-05-25T10:34:17.000Z</time>
      </trkpt>
      <trkpt lat="40.113163" lon="0.058769">
        <ele>160.869036</ele>
        <time>2024-05-25T10:34:24.000Z</time>
      </trkpt>
      <trkpt lat="40.113005" lon="0.058818">
        <ele>160.499319</ele>
        <time>2024-05-25T10:34:26.000Z</time>
      </trkpt>
      <trkpt lat="40.112375" lon="0.059136">
        <ele>159.085073</ele>
        <time>2024-05-25T10:34:34.000Z</time>
      </trkpt>
      <trkpt lat="40.112256" lon="0.059253">
        <ele>158.830617</ele>
        <time>2024-05-25T10:34:36.000Z</time>
      </trkpt>
      <trkpt lat="40.11218" lon="0.059388">
        <ele>158.554693</ele>
        <time>2024-05-25T10:34:37.000Z</time>
      </trkpt>
      <trkpt lat="40.111947" lon="0.06001">
        <ele>157.518608</ele>
        <time>2024-05-25T10:34:43.000Z</time>
      </trkpt>
      <trkpt lat="40.111602" lon="0.060483">
        <ele>156.586346</ele>
        <time>2024-05-25T10:34:49.000Z</time>
      </trkpt>
      <trkpt lat="40.111545" lon="0.060568">
        <ele>156.398109</ele>
        <time>2024-05-25T10:34:50.000Z</time>
      </trkpt>
      <trkpt lat="40.111285" lon="0.061094">
        <ele>154.041187</ele>
        <time>2024-05-25T10:34:55.000Z</time>
      </trkpt>
      <trkpt lat="40.111116" lon="0.061405">
        <ele>152.544375</ele>
        <time>2024-05-25T10:34:58.000Z</time>
      </trkpt>
      <trkpt lat="40.111066" lon="0.061517">
        <ele>152.067271</ele>
        <time>2024-05-25T10:34:59.000Z</time>
      </trkpt>
      <trkpt lat="40.110998" lon="0.061688">
        <ele>151.268779</ele>
        <time>2024-05-25T10:35:01.000Z</time>
      </trkpt>
      <trkpt lat="40.110959" lon="0.061913">
        <ele>150.345622</ele>
        <time>2024-05-25T10:35:03.000Z</time>
      </trkpt>
      <trkpt lat="40.110946" lon="0.061948">
        <ele>150.195025</ele>
        <time>2024-05-25T10:35:03.000Z</time>
      </trkpt>
      <trkpt lat="40.110865" lon="0.06293">
        <ele>146.528198</ele>
        <time>2024-05-25T10:35:11.000Z</time>
      </trkpt>
      <trkpt lat="40.110799" lon="0.063511">
        <ele>144.71488</ele>
        <time>2024-05-25T10:35:16.000Z</time>
      </trkpt>
      <trkpt lat="40.110752" lon="0.063701">
        <ele>144.119946</ele>
        <time>2024-05-25T10:35:18.000Z</time>
      </trkpt>
      <trkpt lat="40.110697" lon="0.063825">
        <ele>143.667363</ele>
        <time>2024-05-25T10:35:19.000Z</time>
      </trkpt>
      <trkpt lat="40.110392" lon="0.064281">
        <ele>141.855378</ele>
        <time>2024-05-25T10:35:24.000Z</time>
      </trkpt>
      <trkpt lat="40.110212" lon="0.064378">
        <ele>141.118983</ele>
        <time>2024-05-25T10:35:26.000Z</time>
      </trkpt>
      <trkpt lat="40.109804" lon="0.064441">
        <ele>139.714598</ele>
        <time>2024-05-25T10:35:31.000Z</time>
      </trkpt>
      <trkpt lat="40.109439" lon="0.064547">
        <ele>138.990967</ele>
        <time>2024-05-25T10:35:35.000Z</time>
      </trkpt>
      <trkpt lat="40.109288" lon="0.064636">
        <ele>138.674205</ele>
        <time>2024-05-25T10:35:37.000Z</time>
      </trkpt>
      <trkpt lat="40.109154" lon="0.064874">
        <ele>138.21169</ele>
        <time>2024-05-25T10:35:40.000Z</time>
      </trkpt>
      <trkpt lat="40.109086" lon="0.065054">
        <ele>137.914413</ele>
        <time>2024-05-25T10:35:42.000Z</time>
      </trkpt>
      <trkpt lat="40.109019" lon="0.065313">
        <ele>137.492754</ele>
        <time>2024-05-25T10:35:44.000Z</time>
      </trkpt>
      <trkpt lat="40.10896" lon="0.065707">
        <ele>136.897901</ele>
        <time>2024-05-25T10:35:47.000Z</time>
      </trkpt>
      <trkpt lat="40.108837" lon="0.066066">
        <ele>136.286643</ele>
        <time>2024-05-25T10:35:50.000Z</time>
      </trkpt>
      <trkpt lat="40.108728" lon="0.066257">
        <ele>135.922786</ele>
        <time>2024-05-25T10:35:52.000Z</time>
      </trkpt>
      <trkpt lat="40.10831" lon="0.066958">
        <ele>134.491374</ele>
        <time>2024-05-25T10:36:00.000Z</time>
      </trkpt>
      <trkpt lat="40.108223" lon="0.067173">
        <ele>134.111008</ele>
        <time>2024-05-25T10:36:02.000Z</time>
      </trkpt>
      <trkpt lat="40.108169" lon="0.067384">
        <ele>133.739914</ele>
        <time>2024-05-25T10:36:04.000Z</time>
      </trkpt>
      <trkpt lat="40.108066" lon="0.068073">
        <ele>132.625879</ele>
        <time>2024-05-25T10:36:10.000Z</time>
      </trkpt>
      <trkpt lat="40.107917" lon="0.069104">
        <ele>131.252413</ele>
        <time>2024-05-25T10:36:19.000Z</time>
      </trkpt>
      <trkpt lat="40.107822" lon="0.069546">
        <ele>130.653171</ele>
        <time>2024-05-25T10:36:23.000Z</time>
      </trkpt>
      <trkpt lat="40.107735" lon="0.069771">
        <ele>130.305847</ele>
        <time>2024-05-25T10:36:25.000Z</time>
      </trkpt>
      <trkpt lat="40.10757" lon="0.070166">
        <ele>129.709631</ele>
        <time>2024-05-25T10:36:29.000Z</time>
      </trkpt>
      <trkpt lat="40.107387" lon="0.070701">
        <ele>129.13415</ele>
        <time>2024-05-25T10:36:34.000Z</time>
      </trkpt>
      <trkpt lat="40.107091" lon="0.071464">
        <ele>128.337365</ele>
        <time>2024-05-25T10:36:41.000Z</time>
      </trkpt>
      <trkpt lat="40.107064" lon="0.071596">
        <ele>128.211958</ele>
        <time>2024-05-25T10:36:42.000Z</time>
      </trkpt>
      <trkpt lat="40.107059" lon="0.071717">
        <ele>128.094653</ele>
        <time>2024-05-25T10:36:43.000Z</time>
      </trkpt>
      <trkpt lat="40.107069" lon="0.07186">
        <ele>127.965311</ele>
        <time>2024-05-25T10:36:44.000Z</time>
      </trkpt>
      <trkpt lat="40.107231" lon="0.072368">
        <ele>127.457067</ele>
        <time>2024-05-25T10:36:49.000Z</time>
      </trkpt>
      <trkpt lat="40.107971" lon="0.073758">
        <ele>124.868136</ele>
        <time>2024-05-25T10:37:03.000Z</time>
      </trkpt>
      <trkpt lat="40.108077" lon="0.073964">
        <ele>124.470399</ele>
        <time>2024-05-25T10:37:05.000Z</time>
      </trkpt>
      <trkpt lat="40.108122" lon="0.074261">
        <ele>124.023613</ele>
        <time>2024-05-25T10:37:08.000Z</time>
      </trkpt>
      <trkpt lat="40.108016" lon="0.074788">
        <ele>124.077342</ele>
        <time>2024-05-25T10:37:13.000Z</time>
      </trkpt>
      <trkpt lat="40.107959" lon="0.07496">
        <ele>124.258594</ele>
        <time>2024-05-25T10:37:15.000Z</time>
      </trkpt>
      <trkpt lat="40.107901" lon="0.07508">
        <ele>124.404436</ele>
        <time>2024-05-25T10:37:16.000Z</time>
      </trkpt>
      <trkpt lat="40.10692" lon="0.0758">
        <ele>125.782407</ele>
        <time>2024-05-25T10:37:29.000Z</time>
      </trkpt>
      <trkpt lat="40.106665" lon="0.076001">
        <ele>126.866514</ele>
        <time>2024-05-25T10:37:32.000Z</time>
      </trkpt>
      <trkpt lat="40.106536" lon="0.076155">
        <ele>127.98473</ele>
        <time>2024-05-25T10:37:34.000Z</time>
      </trkpt>
      <trkpt lat="40.106332" lon="0.076536">
        <ele>130.085723</ele>
        <time>2024-05-25T10:37:38.000Z</time>
      </trkpt>
      <trkpt lat="40.106256" lon="0.076719">
        <ele>131.054633</ele>
        <time>2024-05-25T10:37:40.000Z</time>
      </trkpt>
      <trkpt lat="40.106196" lon="0.077082">
        <ele>132.752004</ele>
        <time>2024-05-25T10:37:43.000Z</time>
      </trkpt>
      <trkpt lat="40.106252" lon="0.077729">
        <ele>135.742797</ele>
        <time>2024-05-25T10:37:49.000Z</time>
      </trkpt>
      <trkpt lat="40.106298" lon="0.077874">
        <ele>136.453307</ele>
        <time>2024-05-25T10:37:50.000Z</time>
      </trkpt>
      <trkpt lat="40.106392" lon="0.078033">
        <ele>136.798687</ele>
        <time>2024-05-25T10:37:52.000Z</time>
      </trkpt>
      <trkpt lat="40.106485" lon="0.078171">
        <ele>136.90691</ele>
        <time>2024-05-25T10:37:54.000Z</time>
      </trkpt>
      <trkpt lat="40.10677" lon="0.078524">
        <ele>137.229014</ele>
        <time>2024-05-25T10:37:58.000Z</time>
      </trkpt>
      <trkpt lat="40.107168" lon="0.07892">
        <ele>137.628887</ele>
        <time>2024-05-25T10:38:04.000Z</time>
      </trkpt>
      <trkpt lat="40.107385" lon="0.07921">
        <ele>137.876891</ele>
        <time>2024-05-25T10:38:07.000Z</time>
      </trkpt>
      <trkpt lat="40.107725" lon="0.079754">
        <ele>136.836365</ele>
        <time>2024-05-25T10:38:13.000Z</time>
      </trkpt>
      <trkpt lat="40.107864" lon="0.080022">
        <ele>135.210205</ele>
        <time>2024-05-25T10:38:16.000Z</time>
      </trkpt>
      <trkpt lat="40.108113" lon="0.080719">
        <ele>131.222903</ele>
        <time>2024-05-25T10:38:23.000Z</time>
      </trkpt>
      <trkpt lat="40.108163" lon="0.080935">
        <ele>130.053753</ele>
        <time>2024-05-25T10:38:25.000Z</time>
      </trkpt>
      <trkpt lat="40.108238" lon="0.081661">
        <ele>126.293763</ele>
        <time>2024-05-25T10:38:31.000Z</time>
      </trkpt>
      <trkpt lat="40.108516" lon="0.083139">
        <ele>116.021129</ele>
        <time>2024-05-25T10:38:44.000Z</time>
      </trkpt>
      <trkpt lat="40.108632" lon="0.083755">
        <ele>111.715664</ele>
        <time>2024-05-25T10:38:49.000Z</time>
      </trkpt>
      <trkpt lat="40.108636" lon="0.083948">
        <ele>110.414934</ele>
        <time>2024-05-25T10:38:51.000Z</time>
      </trkpt>
      <trkpt lat="40.108593" lon="0.084307">
        <ele>109.506034</ele>
        <time>2024-05-25T10:38:54.000Z</time>
      </trkpt>
      <trkpt lat="40.108439" lon="0.084812">
        <ele>108.470177</ele>
        <time>2024-05-25T10:38:59.000Z</time>
      </trkpt>
      <trkpt lat="40.108197" lon="0.085248">
        <ele>107.443945</ele>
        <time>2024-05-25T10:39:04.000Z</time>
      </trkpt>
      <trkpt lat="40.107894" lon="0.085618">
        <ele>106.434377</ele>
        <time>2024-05-25T10:39:09.000Z</time>
      </trkpt>
      <trkpt lat="40.107762" lon="0.085703">
        <ele>106.047944</ele>
        <time>2024-05-25T10:39:11.000Z</time>
      </trkpt>
      <trkpt lat="40.107242" lon="0.085776">
        <ele>105.572332</ele>
        <time>2024-05-25T10:39:17.000Z</time>
      </trkpt>
      <trkpt lat="40.107057" lon="0.085864">
        <ele>105.543513</ele>
        <time>2024-05-25T10:39:19.000Z</time>
      </trkpt>
      <trkpt lat="40.10701" lon="0.085954">
        <ele>105.530113</ele>
        <time>2024-05-25T10:39:20.000Z</time>
      </trkpt>
      <trkpt lat="40.106883" lon="0.08628">
        <ele>105.486962</ele>
        <time>2024-05-25T10:39:23.000Z</time>
      </trkpt>
      <trkpt lat="40.10685" lon="0.086442">
        <ele>105.468846</ele>
        <time>2024-05-25T10:39:24.000Z</time>
      </trkpt>
      <trkpt lat="40.106848" lon="0.086559">
        <ele>105.455045</ele>
        <time>2024-05-25T10:39:25.000Z</time>
      </trkpt>
      <trkpt lat="40.106869" lon="0.086669">
        <ele>105.441897</ele>
        <time>2024-05-25T10:39:26.000Z</time>
      </trkpt>
      <trkpt lat="40.106966" lon="0.086768">
        <ele>105.422627</ele>
        <time>2024-05-25T10:39:27.000Z</time>
      </trkpt>
      <trkpt lat="40.108805" lon="0.088166">
        <ele>100.563903</ele>
        <time>2024-05-25T10:39:51.000Z</time>
      </trkpt>
      <trkpt lat="40.108926" lon="0.088297">
        <ele>100.140011</ele>
        <time>2024-05-25T10:39:53.000Z</time>
      </trkpt>
      <trkpt lat="40.108994" lon="0.088478">
        <ele>99.862326</ele>
        <time>2024-05-25T10:39:55.000Z</time>
      </trkpt>
      <trkpt lat="40.108912" lon="0.08989">
        <ele>97.967505</ele>
        <time>2024-05-25T10:40:07.000Z</time>
      </trkpt>
      <trkpt lat="40.108922" lon="0.090092">
        <ele>97.697317</ele>
        <time>2024-05-25T10:40:09.000Z</time>
      </trkpt>
      <trkpt lat="40.108954" lon="0.090282">
        <ele>97.414233</ele>
        <time>2024-05-25T10:40:11.000Z</time>
      </trkpt>
      <trkpt lat="40.109335" lon="0.091494">
        <ele>96.538997</ele>
        <time>2024-05-25T10:40:22.000Z</time>
      </trkpt>
      <trkpt lat="40.110033" lon="0.093099">
        <ele>95.524897</ele>
        <time>2024-05-25T10:40:38.000Z</time>
      </trkpt>
      <trkpt lat="40.110089" lon="0.09321">
        <ele>95.421998</ele>
        <time>2024-05-25T10:40:39.000Z</time>
      </trkpt>
      <trkpt lat="40.110234" lon="0.093401">
        <ele>95.218537</ele>
        <time>2024-05-25T10:40:41.000Z</time>
      </trkpt>
      <trkpt lat="40.11038" lon="0.093672">
        <ele>94.975035</ele>
        <time>2024-05-25T10:40:44.000Z</time>
      </trkpt>
      <trkpt lat="40.110383" lon="0.093827">
        <ele>94.848791</ele>
        <time>2024-05-25T10:40:45.000Z</time>
      </trkpt>
      <trkpt lat="40.110342" lon="0.093947">
        <ele>94.752522</ele>
        <time>2024-05-25T10:40:46.000Z</time>
      </trkpt>
      <trkpt lat="40.110359" lon="0.094073">
        <ele>94.655352</ele>
        <time>2024-05-25T10:40:47.000Z</time>
      </trkpt>
      <trkpt lat="40.110394" lon="0.094202">
        <ele>94.558688</ele>
        <time>2024-05-25T10:40:48.000Z</time>
      </trkpt>
      <trkpt lat="40.110469" lon="0.094281">
        <ele>94.46213</ele>
        <time>2024-05-25T10:40:49.000Z</time>
      </trkpt>
      <trkpt lat="40.110586" lon="0.0943">
        <ele>94.354032</ele>
        <time>2024-05-25T10:40:50.000Z</time>
      </trkpt>
      <trkpt lat="40.110638" lon="0.094305">
        <ele>94.298264</ele>
        <time>2024-05-25T10:40:51.000Z</time>
      </trkpt>
      <trkpt lat="40.110776" lon="0.09449">
        <ele>94.073155</ele>
        <time>2024-05-25T10:40:53.000Z</time>
      </trkpt>
      <trkpt lat="40.110972" lon="0.094965">
        <ele>93.214181</ele>
        <time>2024-05-25T10:40:58.000Z</time>
      </trkpt>
      <trkpt lat="40.111406" lon="0.095988">
        <ele>91.366455</ele>
        <time>2024-05-25T10:41:08.000Z</time>
      </trkpt>
      <trkpt lat="40.11164" lon="0.096437">
        <ele>90.52423</ele>
        <time>2024-05-25T10:41:13.000Z</time>
      </trkpt>
      <trkpt lat="40.111938" lon="0.096934">
        <ele>89.706476</ele>
        <time>2024-05-25T10:41:18.000Z</time>
      </trkpt>
      <trkpt lat="40.112222" lon="0.097309">
        <ele>89.02721</ele>
        <time>2024-05-25T10:41:22.000Z</time>
      </trkpt>
      <trkpt lat="40.112497" lon="0.097608">
        <ele>88.431369</ele>
        <time>2024-05-25T10:41:26.000Z</time>
      </trkpt>
      <trkpt lat="40.112851" lon="0.097905">
        <ele>87.746898</ele>
        <time>2024-05-25T10:41:31.000Z</time>
      </trkpt>
      <trkpt lat="40.11323" lon="0.098166">
        <ele>87.434806</ele>
        <time>2024-05-25T10:41:36.000Z</time>
      </trkpt>
      <trkpt lat="40.114598" lon="0.098873">
        <ele>87.438426</ele>
        <time>2024-05-25T10:41:52.000Z</time>
      </trkpt>
      <trkpt lat="40.114813" lon="0.099005">
        <ele>87.275265</ele>
        <time>2024-05-25T10:41:55.000Z</time>
      </trkpt>
      <trkpt lat="40.115377" lon="0.099421">
        <ele>86.572044</ele>
        <time>2024-05-25T10:42:02.000Z</time>
      </trkpt>
      <trkpt lat="40.115914" lon="0.09992">
        <ele>85.856029</ele>
        <time>2024-05-25T10:42:09.000Z</time>
      </trkpt>
      <trkpt lat="40.120587" lon="0.104912">
        <ele>73.048113</ele>
        <time>2024-05-25T10:43:16.000Z</time>
      </trkpt>
      <trkpt lat="40.120831" lon="0.105162">
        <ele>72.363063</ele>
        <time>2024-05-25T10:43:19.000Z</time>
      </trkpt>
      <trkpt lat="40.124696" lon="0.109294">
        <ele>60.804232</ele>
        <time>2024-05-25T10:44:15.000Z</time>
      </trkpt>
      <trkpt lat="40.125282" lon="0.109947">
        <ele>59.012516</ele>
        <time>2024-05-25T10:44:24.000Z</time>
      </trkpt>
      <trkpt lat="40.125632" lon="0.110378">
        <ele>57.859206</ele>
        <time>2024-05-25T10:44:29.000Z</time>
      </trkpt>
      <trkpt lat="40.125992" lon="0.110904">
        <ele>56.672373</ele>
        <time>2024-05-25T10:44:35.000Z</time>
      </trkpt>
      <trkpt lat="40.126246" lon="0.111367">
        <ele>55.717442</ele>
        <time>2024-05-25T10:44:40.000Z</time>
      </trkpt>
      <trkpt lat="40.126571" lon="0.111974">
        <ele>54.513145</ele>
        <time>2024-05-25T10:44:46.000Z</time>
      </trkpt>
      <trkpt lat="40.126774" lon="0.112478">
        <ele>53.581747</ele>
        <time>2024-05-25T10:44:51.000Z</time>
      </trkpt>
      <trkpt lat="40.127012" lon="0.113128">
        <ele>52.785557</ele>
        <time>2024-05-25T10:44:57.000Z</time>
      </trkpt>
      <trkpt lat="40.12717" lon="0.113642">
        <ele>52.303425</ele>
        <time>2024-05-25T10:45:02.000Z</time>
      </trkpt>
      <trkpt lat="40.127383" lon="0.11458">
        <ele>51.427331</ele>
        <time>2024-05-25T10:45:10.000Z</time>
      </trkpt>
      <trkpt lat="40.127522" lon="0.115586">
        <ele>50.427005</ele>
        <time>2024-05-25T10:45:19.000Z</time>
      </trkpt>
      <trkpt lat="40.127529" lon="0.116956">
        <ele>49.054235</ele>
        <time>2024-05-25T10:45:31.000Z</time>
      </trkpt>
      <trkpt lat="40.12744" lon="0.117624">
        <ele>48.257943</ele>
        <time>2024-05-25T10:45:37.000Z</time>
      </trkpt>
      <trkpt lat="40.127365" lon="0.117944">
        <ele>47.832821</ele>
        <time>2024-05-25T10:45:40.000Z</time>
      </trkpt>
      <trkpt lat="40.127181" lon="0.118513">
        <ele>47.052016</ele>
        <time>2024-05-25T10:45:45.000Z</time>
      </trkpt>
      <trkpt lat="40.127128" lon="0.118585">
        <ele>46.91761</ele>
        <time>2024-05-25T10:45:46.000Z</time>
      </trkpt>
      <trkpt lat="40.127035" lon="0.118788">
        <ele>46.623211</ele>
        <time>2024-05-25T10:45:48.000Z</time>
      </trkpt>
      <trkpt lat="40.126991" lon="0.119004">
        <ele>46.349027</ele>
        <time>2024-05-25T10:45:50.000Z</time>
      </trkpt>
      <trkpt lat="40.127" lon="0.119098">
        <ele>46.220474</ele>
        <time>2024-05-25T10:45:51.000Z</time>
      </trkpt>
      <trkpt lat="40.127054" lon="0.119372">
        <ele>45.876504</ele>
        <time>2024-05-25T10:45:53.000Z</time>
      </trkpt>
      <trkpt lat="40.127119" lon="0.120443">
        <ele>44.532291</ele>
        <time>2024-05-25T10:46:02.000Z</time>
      </trkpt>
      <trkpt lat="40.127107" lon="0.121448">
        <ele>43.297601</ele>
        <time>2024-05-25T10:46:11.000Z</time>
      </trkpt>
      <trkpt lat="40.127052" lon="0.122353">
        <ele>42.010381</ele>
        <time>2024-05-25T10:46:19.000Z</time>
      </trkpt>
      <trkpt lat="40.126961" lon="0.123251">
        <ele>40.658545</ele>
        <time>2024-05-25T10:46:27.000Z</time>
      </trkpt>
      <trkpt lat="40.126917" lon="0.124183">
        <ele>39.260113</ele>
        <time>2024-05-25T10:46:35.000Z</time>
      </trkpt>
      <trkpt lat="40.126838" lon="0.124984">
        <ele>38.283461</ele>
        <time>2024-05-25T10:46:42.000Z</time>
      </trkpt>
      <trkpt lat="40.126261" lon="0.130892">
        <ele>31.059683</ele>
        <time>2024-05-25T10:47:33.000Z</time>
      </trkpt>
      <trkpt lat="40.126166" lon="0.131617">
        <ele>30.028384</ele>
        <time>2024-05-25T10:47:39.000Z</time>
      </trkpt>
      <trkpt lat="40.12604" lon="0.132185">
        <ele>29.151817</ele>
        <time>2024-05-25T10:47:44.000Z</time>
      </trkpt>
      <trkpt lat="40.125885" lon="0.1328">
        <ele>28.166915</ele>
        <time>2024-05-25T10:47:50.000Z</time>
      </trkpt>
      <trkpt lat="40.125263" lon="0.134821">
        <ele>24.939317</ele>
        <time>2024-05-25T10:48:09.000Z</time>
      </trkpt>
      <trkpt lat="40.124987" lon="0.135721">
        <ele>23.592625</ele>
        <time>2024-05-25T10:48:17.000Z</time>
      </trkpt>
      <trkpt lat="40.124312" lon="0.138036">
        <ele>20.792093</ele>
        <time>2024-05-25T10:48:38.000Z</time>
      </trkpt>
      <trkpt lat="40.12422" lon="0.138332">
        <ele>20.503666</ele>
        <time>2024-05-25T10:48:41.000Z</time>
      </trkpt>
      <trkpt lat="40.122734" lon="0.143248">
        <ele>15.363826</ele>
        <time>2024-05-25T10:49:26.000Z</time>
      </trkpt>
      <trkpt lat="40.122515" lon="0.144027">
        <ele>14.447831</ele>
        <time>2024-05-25T10:49:33.000Z</time>
      </trkpt>
      <trkpt lat="40.122307" lon="0.144793">
        <ele>13.719798</ele>
        <time>2024-05-25T10:49:40.000Z</time>
      </trkpt>
      <trkpt lat="40.122276" lon="0.145093">
        <ele>13.483835</ele>
        <time>2024-05-25T10:49:43.000Z</time>
      </trkpt>
      <trkpt lat="40.122306" lon="0.145339">
        <ele>13.280494</ele>
        <time>2024-05-25T10:49:45.000Z</time>
      </trkpt>
      <trkpt lat="40.122405" lon="0.145596">
        <ele>13.052124</ele>
        <time>2024-05-25T10:49:47.000Z</time>
      </trkpt>
      <trkpt lat="40.122563" lon="0.145819">
        <ele>12.818633</ele>
        <time>2024-05-25T10:49:50.000Z</time>
      </trkpt>
      <trkpt lat="40.122731" lon="0.145942">
        <ele>12.612559</ele>
        <time>2024-05-25T10:49:52.000Z</time>
      </trkpt>
      <trkpt lat="40.122959" lon="0.146008">
        <ele>12.378202</ele>
        <time>2024-05-25T10:49:55.000Z</time>
      </trkpt>
      <trkpt lat="40.123142" lon="0.145985">
        <ele>12.304697</ele>
        <time>2024-05-25T10:49:57.000Z</time>
      </trkpt>
      <trkpt lat="40.12327" lon="0.145912">
        <ele>12.345967</ele>
        <time>2024-05-25T10:49:59.000Z</time>
      </trkpt>
      <trkpt lat="40.12345" lon="0.1458">
        <ele>12.402601</ele>
        <time>2024-05-25T10:50:01.000Z</time>
      </trkpt>
      <trkpt lat="40.123976" lon="0.145113">
        <ele>12.6118</ele>
        <time>2024-05-25T10:50:09.000Z</time>
      </trkpt>
      <trkpt lat="40.124154" lon="0.144982">
        <ele>12.673866</ele>
        <time>2024-05-25T10:50:11.000Z</time>
      </trkpt>
      <trkpt lat="40.124409" lon="0.144902">
        <ele>12.747004</ele>
        <time>2024-05-25T10:50:14.000Z</time>
      </trkpt>
      <trkpt lat="40.124652" lon="0.14492">
        <ele>12.80845</ele>
        <time>2024-05-25T10:50:17.000Z</time>
      </trkpt>
      <trkpt lat="40.125182" lon="0.145073">
        <ele>12.916336</ele>
        <time>2024-05-25T10:50:23.000Z</time>
      </trkpt>
      <trkpt lat="40.126645" lon="0.145741">
        <ele>12.886089</ele>
        <time>2024-05-25T10:50:40.000Z</time>
      </trkpt>
      <trkpt lat="40.127047" lon="0.145985">
        <ele>12.578717</ele>
        <time>2024-05-25T10:50:45.000Z</time>
      </trkpt>
      <trkpt lat="40.127139" lon="0.146053">
        <ele>12.50328</ele>
        <time>2024-05-25T10:50:46.000Z</time>
      </trkpt>
      <trkpt lat="40.12728" lon="0.146244">
        <ele>12.360168</ele>
        <time>2024-05-25T10:50:48.000Z</time>
      </trkpt>
      <trkpt lat="40.127363" lon="0.146485">
        <ele>12.225022</ele>
        <time>2024-05-25T10:50:50.000Z</time>
      </trkpt>
      <trkpt lat="40.127386" lon="0.146743">
        <ele>12.084264</ele>
        <time>2024-05-25T10:50:52.000Z</time>
      </trkpt>
      <trkpt lat="40.127334" lon="0.147324">
        <ele>11.695803</ele>
        <time>2024-05-25T10:50:57.000Z</time>
      </trkpt>
      <trkpt lat="40.127238" lon="0.147809">
        <ele>11.290309</ele>
        <time>2024-05-25T10:51:01.000Z</time>
      </trkpt>
      <trkpt lat="40.127154" lon="0.148038">
        <ele>11.081183</ele>
        <time>2024-05-25T10:51:03.000Z</time>
      </trkpt>
      <trkpt lat="40.126991" lon="0.148192">
        <ele>10.851929</ele>
        <time>2024-05-25T10:51:05.000Z</time>
      </trkpt>
      <trkpt lat="40.126862" lon="0.148222">
        <ele>10.726154</ele>
        <time>2024-05-25T10:51:06.000Z</time>
      </trkpt>
      <trkpt lat="40.126772" lon="0.148173">
        <ele>10.6064</ele>
        <time>2024-05-25T10:51:07.000Z</time>
      </trkpt>
      <trkpt lat="40.126681" lon="0.148132">
        <ele>10.504357</ele>
        <time>2024-05-25T10:51:08.000Z</time>
      </trkpt>
      <trkpt lat="40.126542" lon="0.148119">
        <ele>10.349907</ele>
        <time>2024-05-25T10:51:10.000Z</time>
      </trkpt>
      <trkpt lat="40.126481" lon="0.148166">
        <ele>10.271234</ele>
        <time>2024-05-25T10:51:11.000Z</time>
      </trkpt>
      <trkpt lat="40.126411" lon="0.14827">
        <ele>10.155558</ele>
        <time>2024-05-25T10:51:12.000Z</time>
      </trkpt>
      <trkpt lat="40.126367" lon="0.148454">
        <ele>10.002664</ele>
        <time>2024-05-25T10:51:14.000Z</time>
      </trkpt>
      <trkpt lat="40.12643" lon="0.14863">
        <ele>9.861503</ele>
        <time>2024-05-25T10:51:16.000Z</time>
      </trkpt>
      <trkpt lat="40.126473" lon="0.14888">
        <ele>9.676054</ele>
        <time>2024-05-25T10:51:18.000Z</time>
      </trkpt>
      <trkpt lat="40.126485" lon="0.149074">
        <ele>9.531046</ele>
        <time>2024-05-25T10:51:20.000Z</time>
      </trkpt>
      <trkpt lat="40.126227" lon="0.150467">
        <ele>8.492418</ele>
        <time>2024-05-25T10:51:32.000Z</time>
      </trkpt>
      <trkpt lat="40.126063" lon="0.151723">
        <ele>7.284153</ele>
        <time>2024-05-25T10:51:43.000Z</time>
      </trkpt>
      <trkpt lat="40.125976" lon="0.152121">
        <ele>6.862052</ele>
        <time>2024-05-25T10:51:47.000Z</time>
      </trkpt>
      <trkpt lat="40.12569" lon="0.153514">
        <ele>5.452028</ele>
        <time>2024-05-25T10:51:59.000Z</time>
      </trkpt>
      <trkpt lat="40.125614" lon="0.153668">
        <ele>5.277121</ele>
        <time>2024-05-25T10:52:01.000Z</time>
      </trkpt>
      <trkpt lat="40.125531" lon="0.153707">
        <ele>5.163823</ele>
        <time>2024-05-25T10:52:02.000Z</time>
      </trkpt>
      <trkpt lat="40.125453" lon="0.153785">
        <ele>5.049695</ele>
        <time>2024-05-25T10:52:03.000Z</time>
      </trkpt>
      <trkpt lat="40.125428" lon="0.153882">
        <ele>4.954114</ele>
        <time>2024-05-25T10:52:04.000Z</time>
      </trkpt>
      <trkpt lat="40.125423" lon="0.154">
        <ele>4.853151</ele>
        <time>2024-05-25T10:52:05.000Z</time>
      </trkpt>
      <trkpt lat="40.125471" lon="0.154086">
        <ele>4.752294</ele>
        <time>2024-05-25T10:52:06.000Z</time>
      </trkpt>
      <trkpt lat="40.125468" lon="0.154249">
        <ele>4.608458</ele>
        <time>2024-05-25T10:52:07.000Z</time>
      </trkpt>
      <trkpt lat="40.125348" lon="0.154811">
        <ele>4.078985</ele>
        <time>2024-05-25T10:52:12.000Z</time>
      </trkpt>
      <trkpt lat="40.125268" lon="0.155134">
        <ele>3.764974</ele>
        <time>2024-05-25T10:52:15.000Z</time>
      </trkpt>
      <trkpt lat="40.124991" lon="0.156368">
        <ele>3.386506</ele>
        <time>2024-05-25T10:52:26.000Z</time>
      </trkpt>
      <trkpt lat="40.124987" lon="0.156423">
        <ele>3.370485</ele>
        <time>2024-05-25T10:52:26.000Z</time>
      </trkpt>
      <trkpt lat="40.124964" lon="0.15647">
        <ele>3.358087</ele>
        <time>2024-05-25T10:52:26.000Z</time>
      </trkpt>
      <trkpt lat="40.124845" lon="0.156992">
        <ele>3.22143</ele>
        <time>2024-05-25T10:52:31.000Z</time>
      </trkpt>
      <trkpt lat="40.124756" lon="0.157151">
        <ele>3.167502</ele>
        <time>2024-05-25T10:52:33.000Z</time>
      </trkpt>
      <trkpt lat="40.124669" lon="0.157128">
        <ele>3.138498</ele>
        <time>2024-05-25T10:52:34.000Z</time>
      </trkpt>
      <trkpt lat="40.12459" lon="0.157157">
        <ele>3.109466</ele>
        <time>2024-05-25T10:52:35.000Z</time>
      </trkpt>
      <trkpt lat="40.124514" lon="0.157232">
        <ele>3.090344</ele>
        <time>2024-05-25T10:52:36.000Z</time>
      </trkpt>
      <trkpt lat="40.12433" lon="0.157295">
        <ele>3.069215</ele>
        <time>2024-05-25T10:52:38.000Z</time>
      </trkpt>
      <trkpt lat="40.124016" lon="0.157251">
        <ele>3.034901</ele>
        <time>2024-05-25T10:52:42.000Z</time>
      </trkpt>
      <trkpt lat="40.123941" lon="0.157221">
        <ele>3.026502</ele>
        <time>2024-05-25T10:52:43.000Z</time>
      </trkpt>
      <trkpt lat="40.123167" lon="0.156913">
        <ele>2.937615</ele>
        <time>2024-05-25T10:52:52.000Z</time>
      </trkpt>
      <trkpt lat="40.12293" lon="0.156806">
        <ele>2.911202</ele>
        <time>2024-05-25T10:52:55.000Z</time>
      </trkpt>
      <trkpt lat="40.122879" lon="0.156786">
        <ele>2.905144</ele>
        <time>2024-05-25T10:52:56.000Z</time>
      </trkpt>
      <trkpt lat="40.12202" lon="0.156441">
        <ele>2.747989</ele>
        <time>2024-05-25T10:53:06.000Z</time>
      </trkpt>
      <trkpt lat="40.121855" lon="0.156316">
        <ele>2.713169</ele>
        <time>2024-05-25T10:53:08.000Z</time>
      </trkpt>
      <trkpt lat="40.121808" lon="0.156172">
        <ele>2.694052</ele>
        <time>2024-05-25T10:53:09.000Z</time>
      </trkpt>
      <trkpt lat="40.121777" lon="0.156129">
        <ele>2.684403</ele>
        <time>2024-05-25T10:53:10.000Z</time>
      </trkpt>
      <trkpt lat="40.121638" lon="0.156076">
        <ele>2.658522</ele>
        <time>2024-05-25T10:53:12.000Z</time>
      </trkpt>
      <trkpt lat="40.121568" lon="0.156099">
        <ele>2.646809</ele>
        <time>2024-05-25T10:53:13.000Z</time>
      </trkpt>
      <trkpt lat="40.121518" lon="0.15614">
        <ele>2.635269</ele>
        <time>2024-05-25T10:53:14.000Z</time>
      </trkpt>
      <trkpt lat="40.121378" lon="0.156118">
        <ele>2.609708</ele>
        <time>2024-05-25T10:53:16.000Z</time>
      </trkpt>
      <trkpt lat="40.120777" lon="0.155803">
        <ele>2.474469</ele>
        <time>2024-05-25T10:53:23.000Z</time>
      </trkpt>
      <trkpt lat="40.120688" lon="0.155772">
        <ele>2.45389</ele>
        <time>2024-05-25T10:53:24.000Z</time>
      </trkpt>
      <trkpt lat="40.12056" lon="0.155703">
        <ele>2.423098</ele>
        <time>2024-05-25T10:53:26.000Z</time>
      </trkpt>
      <trkpt lat="40.119809" lon="0.155304">
        <ele>2.24567</ele>
        <time>2024-05-25T10:53:35.000Z</time>
      </trkpt>
      <trkpt lat="40.119695" lon="0.155237">
        <ele>2.216949</ele>
        <time>2024-05-25T10:53:36.000Z</time>
      </trkpt>
      <trkpt lat="40.119302" lon="0.155023">
        <ele>2.124204</ele>
        <time>2024-05-25T10:53:41.000Z</time>
      </trkpt>
      <trkpt lat="40.118142" lon="0.15442">
        <ele>1.852822</ele>
        <time>2024-05-25T10:53:55.000Z</time>
      </trkpt>
      <trkpt lat="40.117792" lon="0.154238">
        <ele>1.809841</ele>
        <time>2024-05-25T10:53:59.000Z</time>
      </trkpt>
      <trkpt lat="40.117604" lon="0.154126">
        <ele>1.857973</ele>
        <time>2024-05-25T10:54:01.000Z</time>
      </trkpt>
      <trkpt lat="40.11686" lon="0.153726">
        <ele>2.041596</ele>
        <time>2024-05-25T10:54:10.000Z</time>
      </trkpt>
      <trkpt lat="40.116458" lon="0.153464">
        <ele>2.145197</ele>
        <time>2024-05-25T10:54:15.000Z</time>
      </trkpt>
      <trkpt lat="40.11627" lon="0.153313">
        <ele>2.198484</ele>
        <time>2024-05-25T10:54:17.000Z</time>
      </trkpt>
      <trkpt lat="40.116253" lon="0.153176">
        <ele>2.26701</ele>
        <time>2024-05-25T10:54:18.000Z</time>
      </trkpt>
      <trkpt lat="40.11621" lon="0.153072">
        <ele>2.345256</ele>
        <time>2024-05-25T10:54:19.000Z</time>
      </trkpt>
      <trkpt lat="40.116138" lon="0.153011">
        <ele>2.409162</ele>
        <time>2024-05-25T10:54:20.000Z</time>
      </trkpt>
      <trkpt lat="40.116052" lon="0.152994">
        <ele>2.473584</ele>
        <time>2024-05-25T10:54:21.000Z</time>
      </trkpt>
      <trkpt lat="40.115967" lon="0.153037">
        <ele>2.532613</ele>
        <time>2024-05-25T10:54:22.000Z</time>
      </trkpt>
      <trkpt lat="40.115917" lon="0.153091">
        <ele>2.585867</ele>
        <time>2024-05-25T10:54:23.000Z</time>
      </trkpt>
      <trkpt lat="40.11579" lon="0.153073">
        <ele>2.68699</ele>
        <time>2024-05-25T10:54:24.000Z</time>
      </trkpt>
      <trkpt lat="40.115535" lon="0.152961">
        <ele>2.898947</ele>
        <time>2024-05-25T10:54:27.000Z</time>
      </trkpt>
      <trkpt lat="40.115176" lon="0.1528">
        <ele>3.187939</ele>
        <time>2024-05-25T10:54:31.000Z</time>
      </trkpt>
      <trkpt lat="40.113687" lon="0.152118">
        <ele>4.178262</ele>
        <time>2024-05-25T10:54:49.000Z</time>
      </trkpt>
      <trkpt lat="40.1136" lon="0.152083">
        <ele>4.234652</ele>
        <time>2024-05-25T10:54:50.000Z</time>
      </trkpt>
      <trkpt lat="40.112245" lon="0.151476">
        <ele>4.316102</ele>
        <time>2024-05-25T10:55:06.000Z</time>
      </trkpt>
      <trkpt lat="40.111125" lon="0.150961">
        <ele>3.957138</ele>
        <time>2024-05-25T10:55:19.000Z</time>
      </trkpt>
      <trkpt lat="40.110978" lon="0.150855">
        <ele>3.95688</ele>
        <time>2024-05-25T10:55:21.000Z</time>
      </trkpt>
      <trkpt lat="40.110913" lon="0.150703">
        <ele>3.956703</ele>
        <time>2024-05-25T10:55:22.000Z</time>
      </trkpt>
      <trkpt lat="40.110823" lon="0.15065">
        <ele>3.956584</ele>
        <time>2024-05-25T10:55:23.000Z</time>
      </trkpt>
      <trkpt lat="40.110742" lon="0.150648">
        <ele>3.956458</ele>
        <time>2024-05-25T10:55:24.000Z</time>
      </trkpt>
      <trkpt lat="40.110667" lon="0.150671">
        <ele>3.956369</ele>
        <time>2024-05-25T10:55:25.000Z</time>
      </trkpt>
      <trkpt lat="40.110626" lon="0.150737">
        <ele>3.956276</ele>
        <time>2024-05-25T10:55:26.000Z</time>
      </trkpt>
      <trkpt lat="40.110618" lon="0.150755">
        <ele>3.956247</ele>
        <time>2024-05-25T10:55:26.000Z</time>
      </trkpt>
      <trkpt lat="40.110624" lon="0.150763">
        <ele>3.956243</ele>
        <time>2024-05-25T10:55:26.000Z</time>
      </trkpt>
      <trkpt lat="40.110608" lon="0.150762">
        <ele>3.956228</ele>
        <time>2024-05-25T10:55:26.000Z</time>
      </trkpt>
      <trkpt lat="40.1106" lon="0.150895">
        <ele>3.95611</ele>
        <time>2024-05-25T10:55:27.000Z</time>
      </trkpt>
      <trkpt lat="40.110601" lon="0.150988">
        <ele>3.955998</ele>
        <time>2024-05-25T10:55:28.000Z</time>
      </trkpt>
      <trkpt lat="40.110658" lon="0.151064">
        <ele>3.955898</ele>
        <time>2024-05-25T10:55:29.000Z</time>
      </trkpt>
      <trkpt lat="40.110745" lon="0.151126">
        <ele>3.95575</ele>
        <time>2024-05-25T10:55:30.000Z</time>
      </trkpt>
      <trkpt lat="40.110848" lon="0.151113">
        <ele>3.955608</ele>
        <time>2024-05-25T10:55:31.000Z</time>
      </trkpt>
      <trkpt lat="40.110933" lon="0.151028">
        <ele>3.955442</ele>
        <time>2024-05-25T10:55:32.000Z</time>
      </trkpt>
      <trkpt lat="40.111106" lon="0.151038">
        <ele>3.95522</ele>
        <time>2024-05-25T10:55:34.000Z</time>
      </trkpt>
      <trkpt lat="40.111407" lon="0.151173">
        <ele>3.981719</ele>
        <time>2024-05-25T10:55:38.000Z</time>
      </trkpt>
      <trkpt lat="40.112227" lon="0.151537">
        <ele>4.27984</ele>
        <time>2024-05-25T10:55:48.000Z</time>
      </trkpt>
      <trkpt lat="40.113581" lon="0.152147">
        <ele>4.229</ele>
        <time>2024-05-25T10:56:04.000Z</time>
      </trkpt>
      <trkpt lat="40.113673" lon="0.152198">
        <ele>4.170231</ele>
        <time>2024-05-25T10:56:05.000Z</time>
      </trkpt>
      <trkpt lat="40.115148" lon="0.152869">
        <ele>3.170305</ele>
        <time>2024-05-25T10:56:22.000Z</time>
      </trkpt>
      <trkpt lat="40.115764" lon="0.153157">
        <ele>2.695489</ele>
        <time>2024-05-25T10:56:29.000Z</time>
      </trkpt>
      <trkpt lat="40.115886" lon="0.153262">
        <ele>2.593063</ele>
        <time>2024-05-25T10:56:31.000Z</time>
      </trkpt>
      <trkpt lat="40.115904" lon="0.153381">
        <ele>2.530233</ele>
        <time>2024-05-25T10:56:32.000Z</time>
      </trkpt>
      <trkpt lat="40.115973" lon="0.153463">
        <ele>2.466485</ele>
        <time>2024-05-25T10:56:33.000Z</time>
      </trkpt>
      <trkpt lat="40.116059" lon="0.153497">
        <ele>2.396408</ele>
        <time>2024-05-25T10:56:34.000Z</time>
      </trkpt>
      <trkpt lat="40.116142" lon="0.153486">
        <ele>2.328671</ele>
        <time>2024-05-25T10:56:35.000Z</time>
      </trkpt>
      <trkpt lat="40.116204" lon="0.153437">
        <ele>2.282345</ele>
        <time>2024-05-25T10:56:36.000Z</time>
      </trkpt>
      <trkpt lat="40.116441" lon="0.153533">
        <ele>2.159773</ele>
        <time>2024-05-25T10:56:39.000Z</time>
      </trkpt>
      <trkpt lat="40.116833" lon="0.153778">
        <ele>2.042315</ele>
        <time>2024-05-25T10:56:44.000Z</time>
      </trkpt>
      <trkpt lat="40.116955" lon="0.153846">
        <ele>2.008388</ele>
        <time>2024-05-25T10:56:45.000Z</time>
      </trkpt>
      <trkpt lat="40.116983" lon="0.153861">
        <ele>2.000598</ele>
        <time>2024-05-25T10:56:45.000Z</time>
      </trkpt>
      <trkpt lat="40.116988" lon="0.153876">
        <ele>1.994511</ele>
        <time>2024-05-25T10:56:45.000Z</time>
      </trkpt>
      <trkpt lat="40.117583" lon="0.154193">
        <ele>1.827337</ele>
        <time>2024-05-25T10:56:52.000Z</time>
      </trkpt>
      <trkpt lat="40.117764" lon="0.154299">
        <ele>1.771743</ele>
        <time>2024-05-25T10:56:54.000Z</time>
      </trkpt>
      <trkpt lat="40.118133" lon="0.154482">
        <ele>1.7571</ele>
        <time>2024-05-25T10:56:58.000Z</time>
      </trkpt>
      <trkpt lat="40.118749" lon="0.154816">
        <ele>1.940148</ele>
        <time>2024-05-25T10:57:05.000Z</time>
      </trkpt>
      <trkpt lat="40.118873" lon="0.154894">
        <ele>1.978533</ele>
        <time>2024-05-25T10:57:07.000Z</time>
      </trkpt>
      <trkpt lat="40.118909" lon="0.154907">
        <ele>1.988825</ele>
        <time>2024-05-25T10:57:07.000Z</time>
      </trkpt>
      <trkpt lat="40.119679" lon="0.155295">
        <ele>2.210815</ele>
        <time>2024-05-25T10:57:16.000Z</time>
      </trkpt>
      <trkpt lat="40.119799" lon="0.155369">
        <ele>2.251022</ele>
        <time>2024-05-25T10:57:17.000Z</time>
      </trkpt>
      <trkpt lat="40.120676" lon="0.155838">
        <ele>2.543211</ele>
        <time>2024-05-25T10:57:28.000Z</time>
      </trkpt>
      <trkpt lat="40.120752" lon="0.155873">
        <ele>2.570898</ele>
        <time>2024-05-25T10:57:29.000Z</time>
      </trkpt>
      <trkpt lat="40.121375" lon="0.156201">
        <ele>2.765633</ele>
        <time>2024-05-25T10:57:36.000Z</time>
      </trkpt>
      <trkpt lat="40.121468" lon="0.156343">
        <ele>2.787682</ele>
        <time>2024-05-25T10:57:38.000Z</time>
      </trkpt>
      <trkpt lat="40.121504" lon="0.156469">
        <ele>2.80376</ele>
        <time>2024-05-25T10:57:39.000Z</time>
      </trkpt>
      <trkpt lat="40.121574" lon="0.156566">
        <ele>2.819934</ele>
        <time>2024-05-25T10:57:40.000Z</time>
      </trkpt>
      <trkpt lat="40.121691" lon="0.156572">
        <ele>2.837248</ele>
        <time>2024-05-25T10:57:41.000Z</time>
      </trkpt>
      <trkpt lat="40.121791" lon="0.156507">
        <ele>2.854518</ele>
        <time>2024-05-25T10:57:42.000Z</time>
      </trkpt>
      <trkpt lat="40.122009" lon="0.156519">
        <ele>2.888184</ele>
        <time>2024-05-25T10:57:44.000Z</time>
      </trkpt>
      <trkpt lat="40.122852" lon="0.156866">
        <ele>3.025051</ele>
        <time>2024-05-25T10:57:54.000Z</time>
      </trkpt>
      <trkpt lat="40.123927" lon="0.157303">
        <ele>2.985536</ele>
        <time>2024-05-25T10:58:07.000Z</time>
      </trkpt>
      <trkpt lat="40.124326" lon="0.157362">
        <ele>2.967948</ele>
        <time>2024-05-25T10:58:11.000Z</time>
      </trkpt>
      <trkpt lat="40.124493" lon="0.157465">
        <ele>2.960176</ele>
        <time>2024-05-25T10:58:13.000Z</time>
      </trkpt>
      <trkpt lat="40.124549" lon="0.15757">
        <ele>2.955976</ele>
        <time>2024-05-25T10:58:14.000Z</time>
      </trkpt>
      <trkpt lat="40.124623" lon="0.157629">
        <ele>2.970825</ele>
        <time>2024-05-25T10:58:15.000Z</time>
      </trkpt>
      <trkpt lat="40.124718" lon="0.157634">
        <ele>3.005515</ele>
        <time>2024-05-25T10:58:16.000Z</time>
      </trkpt>
      <trkpt lat="40.124797" lon="0.157584">
        <ele>3.040189</ele>
        <time>2024-05-25T10:58:17.000Z</time>
      </trkpt>
      <trkpt lat="40.124863" lon="0.157423">
        <ele>3.089745</ele>
        <time>2024-05-25T10:58:19.000Z</time>
      </trkpt>
      <trkpt lat="40.124878" lon="0.157362">
        <ele>3.107828</ele>
        <time>2024-05-25T10:58:20.000Z</time>
      </trkpt>
      <trkpt lat="40.124842" lon="0.157243">
        <ele>3.142762</ele>
        <time>2024-05-25T10:58:21.000Z</time>
      </trkpt>
      <trkpt lat="40.124888" lon="0.156997">
        <ele>3.214838</ele>
        <time>2024-05-25T10:58:23.000Z</time>
      </trkpt>
      <trkpt lat="40.124935" lon="0.156848">
        <ele>3.261769</ele>
        <time>2024-05-25T10:58:24.000Z</time>
      </trkpt>
      <trkpt lat="40.12507" lon="0.156576">
        <ele>3.350791</ele>
        <time>2024-05-25T10:58:27.000Z</time>
      </trkpt>
      <trkpt lat="40.125121" lon="0.156456">
        <ele>3.390706</ele>
        <time>2024-05-25T10:58:28.000Z</time>
      </trkpt>
      <trkpt lat="40.12518" lon="0.156114">
        <ele>3.488538</ele>
        <time>2024-05-25T10:58:31.000Z</time>
      </trkpt>
      <trkpt lat="40.125211" lon="0.156025">
        <ele>3.516978</ele>
        <time>2024-05-25T10:58:32.000Z</time>
      </trkpt>
      <trkpt lat="40.125208" lon="0.156022">
        <ele>3.517903</ele>
        <time>2024-05-25T10:58:32.000Z</time>
      </trkpt>
      <trkpt lat="40.125595" lon="0.154294">
        <ele>4.834164</ele>
        <time>2024-05-25T10:58:47.000Z</time>
      </trkpt>
      <trkpt lat="40.125626" lon="0.154174">
        <ele>4.944601</ele>
        <time>2024-05-25T10:58:48.000Z</time>
      </trkpt>
      <trkpt lat="40.125695" lon="0.154149">
        <ele>5.028581</ele>
        <time>2024-05-25T10:58:49.000Z</time>
      </trkpt>
      <trkpt lat="40.125759" lon="0.154086">
        <ele>5.112576</ele>
        <time>2024-05-25T10:58:50.000Z</time>
      </trkpt>
      <trkpt lat="40.125797" lon="0.153978">
        <ele>5.200431</ele>
        <time>2024-05-25T10:58:51.000Z</time>
      </trkpt>
      <trkpt lat="40.125799" lon="0.153898">
        <ele>5.274645</ele>
        <time>2024-05-25T10:58:52.000Z</time>
      </trkpt>
      <trkpt lat="40.125765" lon="0.153787">
        <ele>5.380604</ele>
        <time>2024-05-25T10:58:53.000Z</time>
      </trkpt>
      <trkpt lat="40.1257" lon="0.153706">
        <ele>5.486321</ele>
        <time>2024-05-25T10:58:54.000Z</time>
      </trkpt>
      <trkpt lat="40.125696" lon="0.1535">
        <ele>5.650421</ele>
        <time>2024-05-25T10:58:56.000Z</time>
      </trkpt>
      <trkpt lat="40.125972" lon="0.152128">
        <ele>6.998447</ele>
        <time>2024-05-25T10:59:08.000Z</time>
      </trkpt>
      <trkpt lat="40.126061" lon="0.15173">
        <ele>7.389644</ele>
        <time>2024-05-25T10:59:12.000Z</time>
      </trkpt>
      <trkpt lat="40.126244" lon="0.150468">
        <ele>8.507836</ele>
        <time>2024-05-25T10:59:23.000Z</time>
      </trkpt>
      <trkpt lat="40.126486" lon="0.149071">
        <ele>9.691088</ele>
        <time>2024-05-25T10:59:35.000Z</time>
      </trkpt>
      <trkpt lat="40.126518" lon="0.148925">
        <ele>9.827523</ele>
        <time>2024-05-25T10:59:36.000Z</time>
      </trkpt>
      <trkpt lat="40.126624" lon="0.148717">
        <ele>10.07656</ele>
        <time>2024-05-25T10:59:38.000Z</time>
      </trkpt>
      <trkpt lat="40.126729" lon="0.148685">
        <ele>10.23096</ele>
        <time>2024-05-25T10:59:39.000Z</time>
      </trkpt>
      <trkpt lat="40.126763" lon="0.148642">
        <ele>10.30817</ele>
        <time>2024-05-25T10:59:40.000Z</time>
      </trkpt>
      <trkpt lat="40.126825" lon="0.148524">
        <ele>10.465137</ele>
        <time>2024-05-25T10:59:41.000Z</time>
      </trkpt>
      <trkpt lat="40.126842" lon="0.148343">
        <ele>10.652703</ele>
        <time>2024-05-25T10:59:43.000Z</time>
      </trkpt>
      <trkpt lat="40.126816" lon="0.148254">
        <ele>10.747235</ele>
        <time>2024-05-25T10:59:44.000Z</time>
      </trkpt>
      <trkpt lat="40.126767" lon="0.148184">
        <ele>10.842068</ele>
        <time>2024-05-25T10:59:45.000Z</time>
      </trkpt>
      <trkpt lat="40.126684" lon="0.148119">
        <ele>10.970064</ele>
        <time>2024-05-25T10:59:46.000Z</time>
      </trkpt>
      <trkpt lat="40.126623" lon="0.147949">
        <ele>11.172303</ele>
        <time>2024-05-25T10:59:48.000Z</time>
      </trkpt>
      <trkpt lat="40.126608" lon="0.14768">
        <ele>11.434618</ele>
        <time>2024-05-25T10:59:50.000Z</time>
      </trkpt>
      <trkpt lat="40.126639" lon="0.147245">
        <ele>11.887568</ele>
        <time>2024-05-25T10:59:54.000Z</time>
      </trkpt>
      <trkpt lat="40.126786" lon="0.14611">
        <ele>13.286976</ele>
        <time>2024-05-25T11:00:04.000Z</time>
      </trkpt>
      <trkpt lat="40.126936" lon="0.145032">
        <ele>14.688326</ele>
        <time>2024-05-25T11:00:13.000Z</time>
      </trkpt>
      <trkpt lat="40.127082" lon="0.143999">
        <ele>15.365872</ele>
        <time>2024-05-25T11:00:22.000Z</time>
      </trkpt>
      <trkpt lat="40.127128" lon="0.143788">
        <ele>15.421104</ele>
        <time>2024-05-25T11:00:24.000Z</time>
      </trkpt>
      <trkpt lat="40.127254" lon="0.143514">
        <ele>15.500924</ele>
        <time>2024-05-25T11:00:27.000Z</time>
      </trkpt>
      <trkpt lat="40.127371" lon="0.143425">
        <ele>15.542869</ele>
        <time>2024-05-25T11:00:29.000Z</time>
      </trkpt>
      <trkpt lat="40.127435" lon="0.143286">
        <ele>15.584833</ele>
        <time>2024-05-25T11:00:30.000Z</time>
      </trkpt>
      <trkpt lat="40.127423" lon="0.14313">
        <ele>15.62543</ele>
        <time>2024-05-25T11:00:31.000Z</time>
      </trkpt>
      <trkpt lat="40.127351" lon="0.142989">
        <ele>15.666112</ele>
        <time>2024-05-25T11:00:32.000Z</time>
      </trkpt>
      <trkpt lat="40.127236" lon="0.142919">
        <ele>15.710791</ele>
        <time>2024-05-25T11:00:33.000Z</time>
      </trkpt>
      <trkpt lat="40.12716" lon="0.142923">
        <ele>15.733188</ele>
        <time>2024-05-25T11:00:34.000Z</time>
      </trkpt>
      <trkpt lat="40.127092" lon="0.142963">
        <ele>15.758712</ele>
        <time>2024-05-25T11:00:35.000Z</time>
      </trkpt>
      <trkpt lat="40.126996" lon="0.143083">
        <ele>15.769942</ele>
        <time>2024-05-25T11:00:36.000Z</time>
      </trkpt>
      <trkpt lat="40.126752" lon="0.143245">
        <ele>15.567811</ele>
        <time>2024-05-25T11:00:39.000Z</time>
      </trkpt>
      <trkpt lat="40.126601" lon="0.143362">
        <ele>15.433708</ele>
        <time>2024-05-25T11:00:41.000Z</time>
      </trkpt>
      <trkpt lat="40.126497" lon="0.14351">
        <ele>15.322916</ele>
        <time>2024-05-25T11:00:43.000Z</time>
      </trkpt>
      <trkpt lat="40.126446" lon="0.14365">
        <ele>15.231392</ele>
        <time>2024-05-25T11:00:44.000Z</time>
      </trkpt>
      <trkpt lat="40.126369" lon="0.144047">
        <ele>15.007449</ele>
        <time>2024-05-25T11:00:47.000Z</time>
      </trkpt>
      <trkpt lat="40.126316" lon="0.144209">
        <ele>14.902453</ele>
        <time>2024-05-25T11:00:48.000Z</time>
      </trkpt>
      <trkpt lat="40.12617" lon="0.144444">
        <ele>14.728904</ele>
        <time>2024-05-25T11:00:51.000Z</time>
      </trkpt>
      <trkpt lat="40.126022" lon="0.144577">
        <ele>14.599982</ele>
        <time>2024-05-25T11:00:53.000Z</time>
      </trkpt>
      <trkpt lat="40.125913" lon="0.144641">
        <ele>14.515522</ele>
        <time>2024-05-25T11:00:54.000Z</time>
      </trkpt>
      <trkpt lat="40.12579" lon="0.144672">
        <ele>14.481353</ele>
        <time>2024-05-25T11:00:55.000Z</time>
      </trkpt>
      <trkpt lat="40.125674" lon="0.144648">
        <ele>14.525312</ele>
        <time>2024-05-25T11:00:56.000Z</time>
      </trkpt>
      <trkpt lat="40.124992" lon="0.144405">
        <ele>14.768982</ele>
        <time>2024-05-25T11:01:04.000Z</time>
      </trkpt>
      <trkpt lat="40.123872" lon="0.143892">
        <ele>15.372173</ele>
        <time>2024-05-25T11:01:17.000Z</time>
      </trkpt>
      <trkpt lat="40.123522" lon="0.143655">
        <ele>15.813605</ele>
        <time>2024-05-25T11:01:21.000Z</time>
      </trkpt>
      <trkpt lat="40.123368" lon="0.143472">
        <ele>16.034774</ele>
        <time>2024-05-25T11:01:23.000Z</time>
      </trkpt>
      <trkpt lat="40.123245" lon="0.143227">
        <ele>16.287291</ele>
        <time>2024-05-25T11:01:25.000Z</time>
      </trkpt>
      <trkpt lat="40.123161" lon="0.142963">
        <ele>16.52519</ele>
        <time>2024-05-25T11:01:27.000Z</time>
      </trkpt>
      <trkpt lat="40.123139" lon="0.142657">
        <ele>16.773406</ele>
        <time>2024-05-25T11:01:30.000Z</time>
      </trkpt>
      <trkpt lat="40.123198" lon="0.142286">
        <ele>17.083331</ele>
        <time>2024-05-25T11:01:33.000Z</time>
      </trkpt>
      <trkpt lat="40.124312" lon="0.13804">
        <ele>20.806566</ele>
        <time>2024-05-25T11:02:11.000Z</time>
      </trkpt>
      <trkpt lat="40.124476" lon="0.13751">
        <ele>21.41091</ele>
        <time>2024-05-25T11:02:16.000Z</time>
      </trkpt>
      <trkpt lat="40.124513" lon="0.137374">
        <ele>21.567853</ele>
        <time>2024-05-25T11:02:17.000Z</time>
      </trkpt>
      <trkpt lat="40.124577" lon="0.137133">
        <ele>21.856376</ele>
        <time>2024-05-25T11:02:19.000Z</time>
      </trkpt>
      <trkpt lat="40.124627" lon="0.136983">
        <ele>22.033386</ele>
        <time>2024-05-25T11:02:20.000Z</time>
      </trkpt>
      <trkpt lat="40.12462" lon="0.136964">
        <ele>22.068811</ele>
        <time>2024-05-25T11:02:20.000Z</time>
      </trkpt>
      <trkpt lat="40.125004" lon="0.13573">
        <ele>23.572162</ele>
        <time>2024-05-25T11:02:31.000Z</time>
      </trkpt>
      <trkpt lat="40.125255" lon="0.134835">
        <ele>24.952401</ele>
        <time>2024-05-25T11:02:39.000Z</time>
      </trkpt>
      <trkpt lat="40.125885" lon="0.132796">
        <ele>28.168301</ele>
        <time>2024-05-25T11:02:58.000Z</time>
      </trkpt>
      <trkpt lat="40.126049" lon="0.132183">
        <ele>29.161025</ele>
        <time>2024-05-25T11:03:04.000Z</time>
      </trkpt>
      <trkpt lat="40.126166" lon="0.131612">
        <ele>30.044556</ele>
        <time>2024-05-25T11:03:09.000Z</time>
      </trkpt>
      <trkpt lat="40.126247" lon="0.130895">
        <ele>31.021269</ele>
        <time>2024-05-25T11:03:15.000Z</time>
      </trkpt>
      <trkpt lat="40.126827" lon="0.124995">
        <ele>38.141859</ele>
        <time>2024-05-25T11:04:06.000Z</time>
      </trkpt>
      <trkpt lat="40.126922" lon="0.124196">
        <ele>39.149456</ele>
        <time>2024-05-25T11:04:13.000Z</time>
      </trkpt>
      <trkpt lat="40.127016" lon="0.12325">
        <ele>40.546691</ele>
        <time>2024-05-25T11:04:21.000Z</time>
      </trkpt>
      <trkpt lat="40.127566" lon="0.117486">
        <ele>49.015161</ele>
        <time>2024-05-25T11:05:10.000Z</time>
      </trkpt>
      <trkpt lat="40.127587" lon="0.116735">
        <ele>49.764302</ele>
        <time>2024-05-25T11:05:16.000Z</time>
      </trkpt>
      <trkpt lat="40.127528" lon="0.115598">
        <ele>50.715139</ele>
        <time>2024-05-25T11:05:26.000Z</time>
      </trkpt>
      <trkpt lat="40.127385" lon="0.114589">
        <ele>51.557431</ele>
        <time>2024-05-25T11:05:35.000Z</time>
      </trkpt>
      <trkpt lat="40.127172" lon="0.113643">
        <ele>52.359913</ele>
        <time>2024-05-25T11:05:43.000Z</time>
      </trkpt>
      <trkpt lat="40.12702" lon="0.113121">
        <ele>52.801546</ele>
        <time>2024-05-25T11:05:48.000Z</time>
      </trkpt>
      <trkpt lat="40.126781" lon="0.112469">
        <ele>53.597255</ele>
        <time>2024-05-25T11:05:54.000Z</time>
      </trkpt>
      <trkpt lat="40.12656" lon="0.111972">
        <ele>54.521703</ele>
        <time>2024-05-25T11:05:59.000Z</time>
      </trkpt>
      <trkpt lat="40.126253" lon="0.111357">
        <ele>55.717037</ele>
        <time>2024-05-25T11:06:05.000Z</time>
      </trkpt>
      <trkpt lat="40.125989" lon="0.110893">
        <ele>56.664854</ele>
        <time>2024-05-25T11:06:10.000Z</time>
      </trkpt>
      <trkpt lat="40.125642" lon="0.110389">
        <ele>57.857924</ele>
        <time>2024-05-25T11:06:16.000Z</time>
      </trkpt>
      <trkpt lat="40.125293" lon="0.109938">
        <ele>59.012553</ele>
        <time>2024-05-25T11:06:21.000Z</time>
      </trkpt>
      <trkpt lat="40.124711" lon="0.109289">
        <ele>60.80627</ele>
        <time>2024-05-25T11:06:30.000Z</time>
      </trkpt>
      <trkpt lat="40.120829" lon="0.105161">
        <ele>72.371677</ele>
        <time>2024-05-25T11:07:26.000Z</time>
      </trkpt>
      <trkpt lat="40.120592" lon="0.104906">
        <ele>73.053557</ele>
        <time>2024-05-25T11:07:29.000Z</time>
      </trkpt>
      <trkpt lat="40.115901" lon="0.099915">
        <ele>85.837685</ele>
        <time>2024-05-25T11:08:36.000Z</time>
      </trkpt>
      <trkpt lat="40.115364" lon="0.099412">
        <ele>86.578495</ele>
        <time>2024-05-25T11:08:43.000Z</time>
      </trkpt>
      <trkpt lat="40.114811" lon="0.099004">
        <ele>87.30609</ele>
        <time>2024-05-25T11:08:50.000Z</time>
      </trkpt>
      <trkpt lat="40.114591" lon="0.098867">
        <ele>87.431214</ele>
        <time>2024-05-25T11:08:53.000Z</time>
      </trkpt>
      <trkpt lat="40.113229" lon="0.098164">
        <ele>87.414876</ele>
        <time>2024-05-25T11:09:09.000Z</time>
      </trkpt>
      <trkpt lat="40.112841" lon="0.097901">
        <ele>87.787774</ele>
        <time>2024-05-25T11:09:14.000Z</time>
      </trkpt>
      <trkpt lat="40.112505" lon="0.097609">
        <ele>88.470675</ele>
        <time>2024-05-25T11:09:18.000Z</time>
      </trkpt>
      <trkpt lat="40.112231" lon="0.097307">
        <ele>89.065172</ele>
        <time>2024-05-25T11:09:22.000Z</time>
      </trkpt>
      <trkpt lat="40.111934" lon="0.09694">
        <ele>89.742895</ele>
        <time>2024-05-25T11:09:27.000Z</time>
      </trkpt>
      <trkpt lat="40.111631" lon="0.096443">
        <ele>90.597337</ele>
        <time>2024-05-25T11:09:32.000Z</time>
      </trkpt>
      <trkpt lat="40.111405" lon="0.095999">
        <ele>91.561746</ele>
        <time>2024-05-25T11:09:37.000Z</time>
      </trkpt>
      <trkpt lat="40.110973" lon="0.094974">
        <ele>93.677587</ele>
        <time>2024-05-25T11:09:47.000Z</time>
      </trkpt>
      <trkpt lat="40.110761" lon="0.094488">
        <ele>94.647013</ele>
        <time>2024-05-25T11:09:52.000Z</time>
      </trkpt>
      <trkpt lat="40.110753" lon="0.094193">
        <ele>94.855684</ele>
        <time>2024-05-25T11:09:55.000Z</time>
      </trkpt>
      <trkpt lat="40.1108" lon="0.094079">
        <ele>94.954139</ele>
        <time>2024-05-25T11:09:56.000Z</time>
      </trkpt>
      <trkpt lat="40.110795" lon="0.09394">
        <ele>95.052568</ele>
        <time>2024-05-25T11:09:57.000Z</time>
      </trkpt>
      <trkpt lat="40.110751" lon="0.093823">
        <ele>95.150788</ele>
        <time>2024-05-25T11:09:58.000Z</time>
      </trkpt>
      <trkpt lat="40.110664" lon="0.093738">
        <ele>95.249151</ele>
        <time>2024-05-25T11:09:59.000Z</time>
      </trkpt>
      <trkpt lat="40.11056" lon="0.093723">
        <ele>95.347226</ele>
        <time>2024-05-25T11:10:00.000Z</time>
      </trkpt>
      <trkpt lat="40.110231" lon="0.093406">
        <ele>95.728605</ele>
        <time>2024-05-25T11:10:05.000Z</time>
      </trkpt>
      <trkpt lat="40.110096" lon="0.093208">
        <ele>95.924119</ele>
        <time>2024-05-25T11:10:07.000Z</time>
      </trkpt>
      <trkpt lat="40.110031" lon="0.093102">
        <ele>96.022991</ele>
        <time>2024-05-25T11:10:08.000Z</time>
      </trkpt>
      <trkpt lat="40.109339" lon="0.091503">
        <ele>96.722447</ele>
        <time>2024-05-25T11:10:24.000Z</time>
      </trkpt>
      <trkpt lat="40.108959" lon="0.090294">
        <ele>97.448313</ele>
        <time>2024-05-25T11:10:35.000Z</time>
      </trkpt>
      <trkpt lat="40.108917" lon="0.090091">
        <ele>97.723286</ele>
        <time>2024-05-25T11:10:37.000Z</time>
      </trkpt>
      <trkpt lat="40.108923" lon="0.089883">
        <ele>97.985716</ele>
        <time>2024-05-25T11:10:39.000Z</time>
      </trkpt>
      <trkpt lat="40.108993" lon="0.088478">
        <ele>99.82622</ele>
        <time>2024-05-25T11:10:51.000Z</time>
      </trkpt>
      <trkpt lat="40.108934" lon="0.088305">
        <ele>100.118005</ele>
        <time>2024-05-25T11:10:53.000Z</time>
      </trkpt>
      <trkpt lat="40.108798" lon="0.088166">
        <ele>100.576083</ele>
        <time>2024-05-25T11:10:55.000Z</time>
      </trkpt>
      <trkpt lat="40.106967" lon="0.086771">
        <ele>105.367086</ele>
        <time>2024-05-25T11:11:19.000Z</time>
      </trkpt>
      <trkpt lat="40.106881" lon="0.086665">
        <ele>105.397248</ele>
        <time>2024-05-25T11:11:20.000Z</time>
      </trkpt>
      <trkpt lat="40.106844" lon="0.08656">
        <ele>105.417849</ele>
        <time>2024-05-25T11:11:21.000Z</time>
      </trkpt>
      <trkpt lat="40.106837" lon="0.08644">
        <ele>105.439454</ele>
        <time>2024-05-25T11:11:22.000Z</time>
      </trkpt>
      <trkpt lat="40.106882" lon="0.086285">
        <ele>105.467822</ele>
        <time>2024-05-25T11:11:23.000Z</time>
      </trkpt>
      <trkpt lat="40.106997" lon="0.08596">
        <ele>105.535386</ele>
        <time>2024-05-25T11:11:26.000Z</time>
      </trkpt>
      <trkpt lat="40.107057" lon="0.085868">
        <ele>105.556386</ele>
        <time>2024-05-25T11:11:27.000Z</time>
      </trkpt>
      <trkpt lat="40.107248" lon="0.085784">
        <ele>105.601528</ele>
        <time>2024-05-25T11:11:29.000Z</time>
      </trkpt>
      <trkpt lat="40.107754" lon="0.085707">
        <ele>106.168811</ele>
        <time>2024-05-25T11:11:35.000Z</time>
      </trkpt>
      <trkpt lat="40.107898" lon="0.085625">
        <ele>106.521977</ele>
        <time>2024-05-25T11:11:37.000Z</time>
      </trkpt>
      <trkpt lat="40.108199" lon="0.08525">
        <ele>107.444624</ele>
        <time>2024-05-25T11:11:42.000Z</time>
      </trkpt>
      <trkpt lat="40.108436" lon="0.0848">
        <ele>108.382503</ele>
        <time>2024-05-25T11:11:47.000Z</time>
      </trkpt>
      <trkpt lat="40.108591" lon="0.084303">
        <ele>109.32919</ele>
        <time>2024-05-25T11:11:52.000Z</time>
      </trkpt>
      <trkpt lat="40.108651" lon="0.083958">
        <ele>110.500903</ele>
        <time>2024-05-25T11:11:55.000Z</time>
      </trkpt>
      <trkpt lat="40.108621" lon="0.083768">
        <ele>111.794452</ele>
        <time>2024-05-25T11:11:57.000Z</time>
      </trkpt>
      <trkpt lat="40.108499" lon="0.08314">
        <ele>116.076058</ele>
        <time>2024-05-25T11:12:03.000Z</time>
      </trkpt>
      <trkpt lat="40.108236" lon="0.081658">
        <ele>126.207381</ele>
        <time>2024-05-25T11:12:16.000Z</time>
      </trkpt>
      <trkpt lat="40.108172" lon="0.080929">
        <ele>130.04138</ele>
        <time>2024-05-25T11:12:22.000Z</time>
      </trkpt>
      <trkpt lat="40.108121" lon="0.080718">
        <ele>131.233543</ele>
        <time>2024-05-25T11:12:24.000Z</time>
      </trkpt>
      <trkpt lat="40.107861" lon="0.080023">
        <ele>135.299328</ele>
        <time>2024-05-25T11:12:31.000Z</time>
      </trkpt>
      <trkpt lat="40.107725" lon="0.079764">
        <ele>136.957507</ele>
        <time>2024-05-25T11:12:34.000Z</time>
      </trkpt>
      <trkpt lat="40.10737" lon="0.079205">
        <ele>137.74607</ele>
        <time>2024-05-25T11:12:40.000Z</time>
      </trkpt>
      <trkpt lat="40.107164" lon="0.078922">
        <ele>137.567824</ele>
        <time>2024-05-25T11:12:43.000Z</time>
      </trkpt>
      <trkpt lat="40.106773" lon="0.078538">
        <ele>137.280449</ele>
        <time>2024-05-25T11:12:48.000Z</time>
      </trkpt>
      <trkpt lat="40.106486" lon="0.078174">
        <ele>137.048965</ele>
        <time>2024-05-25T11:12:52.000Z</time>
      </trkpt>
      <trkpt lat="40.1064" lon="0.078049">
        <ele>136.971185</ele>
        <time>2024-05-25T11:12:53.000Z</time>
      </trkpt>
      <trkpt lat="40.106299" lon="0.077874">
        <ele>136.393471</ele>
        <time>2024-05-25T11:12:55.000Z</time>
      </trkpt>
      <trkpt lat="40.106241" lon="0.077732">
        <ele>135.683382</ele>
        <time>2024-05-25T11:12:56.000Z</time>
      </trkpt>
      <trkpt lat="40.10621" lon="0.077081">
        <ele>132.694352</ele>
        <time>2024-05-25T11:13:02.000Z</time>
      </trkpt>
      <trkpt lat="40.106255" lon="0.076713">
        <ele>130.998004</ele>
        <time>2024-05-25T11:13:05.000Z</time>
      </trkpt>
      <trkpt lat="40.106319" lon="0.076537">
        <ele>130.02968</ele>
        <time>2024-05-25T11:13:07.000Z</time>
      </trkpt>
      <trkpt lat="40.106525" lon="0.076155">
        <ele>127.929946</ele>
        <time>2024-05-25T11:13:11.000Z</time>
      </trkpt>
      <trkpt lat="40.106671" lon="0.075994">
        <ele>126.812389</ele>
        <time>2024-05-25T11:13:13.000Z</time>
      </trkpt>
      <trkpt lat="40.106904" lon="0.075789">
        <ele>125.926329</ele>
        <time>2024-05-25T11:13:16.000Z</time>
      </trkpt>
      <trkpt lat="40.107892" lon="0.075096">
        <ele>124.35695</ele>
        <time>2024-05-25T11:13:28.000Z</time>
      </trkpt>
      <trkpt lat="40.107961" lon="0.074963">
        <ele>124.190867</ele>
        <time>2024-05-25T11:13:29.000Z</time>
      </trkpt>
      <trkpt lat="40.108034" lon="0.074798">
        <ele>123.98444</ele>
        <time>2024-05-25T11:13:31.000Z</time>
      </trkpt>
      <trkpt lat="40.108129" lon="0.074247">
        <ele>124.046775</ele>
        <time>2024-05-25T11:13:36.000Z</time>
      </trkpt>
      <trkpt lat="40.108079" lon="0.073967">
        <ele>124.49215</ele>
        <time>2024-05-25T11:13:38.000Z</time>
      </trkpt>
      <trkpt lat="40.107982" lon="0.073758">
        <ele>124.888635</ele>
        <time>2024-05-25T11:13:40.000Z</time>
      </trkpt>
      <trkpt lat="40.10723" lon="0.072366">
        <ele>127.43199</ele>
        <time>2024-05-25T11:13:54.000Z</time>
      </trkpt>
      <trkpt lat="40.107074" lon="0.071855">
        <ele>127.948374</ele>
        <time>2024-05-25T11:13:59.000Z</time>
      </trkpt>
      <trkpt lat="40.107054" lon="0.071729">
        <ele>128.079773</ele>
        <time>2024-05-25T11:14:00.000Z</time>
      </trkpt>
      <trkpt lat="40.107057" lon="0.071601">
        <ele>128.198951</ele>
        <time>2024-05-25T11:14:01.000Z</time>
      </trkpt>
      <trkpt lat="40.107083" lon="0.071473">
        <ele>128.326366</ele>
        <time>2024-05-25T11:14:02.000Z</time>
      </trkpt>
      <trkpt lat="40.107377" lon="0.070687">
        <ele>129.13588</ele>
        <time>2024-05-25T11:14:09.000Z</time>
      </trkpt>
      <trkpt lat="40.107559" lon="0.070165">
        <ele>129.738219</ele>
        <time>2024-05-25T11:14:14.000Z</time>
      </trkpt>
      <trkpt lat="40.107731" lon="0.069781">
        <ele>130.324823</ele>
        <time>2024-05-25T11:14:18.000Z</time>
      </trkpt>
      <trkpt lat="40.107821" lon="0.06953">
        <ele>130.666557</ele>
        <time>2024-05-25T11:14:20.000Z</time>
      </trkpt>
      <trkpt lat="40.107928" lon="0.069106">
        <ele>131.256127</ele>
        <time>2024-05-25T11:14:24.000Z</time>
      </trkpt>
      <trkpt lat="40.10805" lon="0.068071">
        <ele>132.620182</ele>
        <time>2024-05-25T11:14:33.000Z</time>
      </trkpt>
      <trkpt lat="40.10817" lon="0.067394">
        <ele>133.742298</ele>
        <time>2024-05-25T11:14:39.000Z</time>
      </trkpt>
      <trkpt lat="40.108227" lon="0.067173">
        <ele>134.113889</ele>
        <time>2024-05-25T11:14:41.000Z</time>
      </trkpt>
      <trkpt lat="40.108308" lon="0.066965">
        <ele>134.494752</ele>
        <time>2024-05-25T11:14:43.000Z</time>
      </trkpt>
      <trkpt lat="40.108727" lon="0.066256">
        <ele>135.928079</ele>
        <time>2024-05-25T11:14:51.000Z</time>
      </trkpt>
      <trkpt lat="40.108828" lon="0.06607">
        <ele>136.292404</ele>
        <time>2024-05-25T11:14:53.000Z</time>
      </trkpt>
      <trkpt lat="40.108951" lon="0.065703">
        <ele>136.894971</ele>
        <time>2024-05-25T11:14:56.000Z</time>
      </trkpt>
      <trkpt lat="40.109007" lon="0.065313">
        <ele>137.487327</ele>
        <time>2024-05-25T11:14:59.000Z</time>
      </trkpt>
      <trkpt lat="40.109078" lon="0.065051">
        <ele>137.907204</ele>
        <time>2024-05-25T11:15:01.000Z</time>
      </trkpt>
      <trkpt lat="40.109152" lon="0.064876">
        <ele>138.203221</ele>
        <time>2024-05-25T11:15:03.000Z</time>
      </trkpt>
      <trkpt lat="40.109283" lon="0.064636">
        <ele>138.663788</ele>
        <time>2024-05-25T11:15:06.000Z</time>
      </trkpt>
      <trkpt lat="40.109429" lon="0.064548">
        <ele>138.979228</ele>
        <time>2024-05-25T11:15:08.000Z</time>
      </trkpt>
      <trkpt lat="40.109793" lon="0.064446">
        <ele>139.699797</ele>
        <time>2024-05-25T11:15:12.000Z</time>
      </trkpt>
      <trkpt lat="40.110217" lon="0.064379">
        <ele>141.168451</ele>
        <time>2024-05-25T11:15:17.000Z</time>
      </trkpt>
      <trkpt lat="40.110394" lon="0.064292">
        <ele>141.888437</ele>
        <time>2024-05-25T11:15:19.000Z</time>
      </trkpt>
      <trkpt lat="40.110688" lon="0.063837">
        <ele>143.660044</ele>
        <time>2024-05-25T11:15:24.000Z</time>
      </trkpt>
      <trkpt lat="40.110747" lon="0.063702">
        <ele>144.102544</ele>
        <time>2024-05-25T11:15:25.000Z</time>
      </trkpt>
      <trkpt lat="40.110794" lon="0.06352">
        <ele>144.684227</ele>
        <time>2024-05-25T11:15:27.000Z</time>
      </trkpt>
      <trkpt lat="40.110883" lon="0.062915">
        <ele>146.457153</ele>
        <time>2024-05-25T11:15:32.000Z</time>
      </trkpt>
      <trkpt lat="40.110959" lon="0.061959">
        <ele>150.210525</ele>
        <time>2024-05-25T11:15:40.000Z</time>
      </trkpt>
      <trkpt lat="40.11096" lon="0.061921">
        <ele>150.362688</ele>
        <time>2024-05-25T11:15:40.000Z</time>
      </trkpt>
      <trkpt lat="40.111001" lon="0.061685">
        <ele>151.295466</ele>
        <time>2024-05-25T11:15:42.000Z</time>
      </trkpt>
      <trkpt lat="40.111066" lon="0.061508">
        <ele>152.10231</ele>
        <time>2024-05-25T11:15:44.000Z</time>
      </trkpt>
      <trkpt lat="40.111116" lon="0.061411">
        <ele>152.58439</ele>
        <time>2024-05-25T11:15:45.000Z</time>
      </trkpt>
      <trkpt lat="40.111284" lon="0.061093">
        <ele>154.096831</ele>
        <time>2024-05-25T11:15:48.000Z</time>
      </trkpt>
      <trkpt lat="40.111536" lon="0.060561">
        <ele>156.325031</ele>
        <time>2024-05-25T11:15:53.000Z</time>
      </trkpt>
      <trkpt lat="40.111611" lon="0.060481">
        <ele>156.518463</ele>
        <time>2024-05-25T11:15:54.000Z</time>
      </trkpt>
      <trkpt lat="40.111934" lon="0.060014">
        <ele>157.476451</ele>
        <time>2024-05-25T11:15:59.000Z</time>
      </trkpt>
      <trkpt lat="40.112167" lon="0.059383">
        <ele>158.541127</ele>
        <time>2024-05-25T11:16:05.000Z</time>
      </trkpt>
      <trkpt lat="40.112254" lon="0.05924">
        <ele>158.824645</ele>
        <time>2024-05-25T11:16:07.000Z</time>
      </trkpt>
      <trkpt lat="40.112376" lon="0.059151">
        <ele>159.086122</ele>
        <time>2024-05-25T11:16:09.000Z</time>
      </trkpt>
      <trkpt lat="40.113003" lon="0.05882">
        <ele>160.520354</ele>
        <time>2024-05-25T11:16:17.000Z</time>
      </trkpt>
      <trkpt lat="40.113162" lon="0.058781">
        <ele>160.884364</ele>
        <time>2024-05-25T11:16:19.000Z</time>
      </trkpt>
      <trkpt lat="40.113749" lon="0.058699">
        <ele>162.19699</ele>
        <time>2024-05-25T11:16:26.000Z</time>
      </trkpt>
      <trkpt lat="40.114215" lon="0.058535">
        <ele>163.265804</ele>
        <time>2024-05-25T11:16:31.000Z</time>
      </trkpt>
      <trkpt lat="40.114355" lon="0.058451">
        <ele>163.59448</ele>
        <time>2024-05-25T11:16:33.000Z</time>
      </trkpt>
      <trkpt lat="40.11446" lon="0.058342">
        <ele>163.96362</ele>
        <time>2024-05-25T11:16:34.000Z</time>
      </trkpt>
      <trkpt lat="40.114608" lon="0.058097">
        <ele>164.733884</ele>
        <time>2024-05-25T11:16:37.000Z</time>
      </trkpt>
      <trkpt lat="40.114679" lon="0.057908">
        <ele>165.227556</ele>
        <time>2024-05-25T11:16:39.000Z</time>
      </trkpt>
      <trkpt lat="40.114714" lon="0.057441">
        <ele>166.390628</ele>
        <time>2024-05-25T11:16:43.000Z</time>
      </trkpt>
      <trkpt lat="40.114699" lon="0.057246">
        <ele>166.869185</ele>
        <time>2024-05-25T11:16:45.000Z</time>
      </trkpt>
      <trkpt lat="40.114544" lon="0.056672">
        <ele>168.294062</ele>
        <time>2024-05-25T11:16:50.000Z</time>
      </trkpt>
      <trkpt lat="40.114252" lon="0.055077">
        <ele>174.330493</ele>
        <time>2024-05-25T11:17:04.000Z</time>
      </trkpt>
      <trkpt lat="40.11415" lon="0.054754">
        <ele>175.833043</ele>
        <time>2024-05-25T11:17:07.000Z</time>
      </trkpt>
      <trkpt lat="40.114055" lon="0.054498">
        <ele>177.036831</ele>
        <time>2024-05-25T11:17:09.000Z</time>
      </trkpt>
      <trkpt lat="40.113561" lon="0.053542">
        <ele>182.068165</ele>
        <time>2024-05-25T11:17:19.000Z</time>
      </trkpt>
      <trkpt lat="40.113461" lon="0.053241">
        <ele>183.608434</ele>
        <time>2024-05-25T11:17:22.000Z</time>
      </trkpt>
      <trkpt lat="40.113416" lon="0.053014">
        <ele>184.763793</ele>
        <time>2024-05-25T11:17:24.000Z</time>
      </trkpt>
      <trkpt lat="40.1133" lon="0.052062">
        <ele>189.191502</ele>
        <time>2024-05-25T11:17:32.000Z</time>
      </trkpt>
      <trkpt lat="40.113329" lon="0.051561">
        <ele>190.243374</ele>
        <time>2024-05-25T11:17:36.000Z</time>
      </trkpt>
      <trkpt lat="40.11336" lon="0.051342">
        <ele>190.334209</ele>
        <time>2024-05-25T11:17:38.000Z</time>
      </trkpt>
      <trkpt lat="40.113441" lon="0.051106">
        <ele>190.438622</ele>
        <time>2024-05-25T11:17:40.000Z</time>
      </trkpt>
      <trkpt lat="40.113612" lon="0.050739">
        <ele>190.618731</ele>
        <time>2024-05-25T11:17:44.000Z</time>
      </trkpt>
      <trkpt lat="40.114221" lon="0.049948">
        <ele>191.075153</ele>
        <time>2024-05-25T11:17:54.000Z</time>
      </trkpt>
      <trkpt lat="40.114302" lon="0.049613">
        <ele>191.689768</ele>
        <time>2024-05-25T11:17:57.000Z</time>
      </trkpt>
      <trkpt lat="40.114372" lon="0.049083">
        <ele>192.703356</ele>
        <time>2024-05-25T11:18:02.000Z</time>
      </trkpt>
      <trkpt lat="40.114421" lon="0.048968">
        <ele>192.97819</ele>
        <time>2024-05-25T11:18:03.000Z</time>
      </trkpt>
      <trkpt lat="40.114514" lon="0.04889">
        <ele>193.246444</ele>
        <time>2024-05-25T11:18:04.000Z</time>
      </trkpt>
      <trkpt lat="40.115553" lon="0.048252">
        <ele>196.866571</ele>
        <time>2024-05-25T11:18:17.000Z</time>
      </trkpt>
      <trkpt lat="40.116789" lon="0.047711">
        <ele>204.896943</ele>
        <time>2024-05-25T11:18:32.000Z</time>
      </trkpt>
      <trkpt lat="40.117094" lon="0.047591">
        <ele>206.916124</ele>
        <time>2024-05-25T11:18:36.000Z</time>
      </trkpt>
      <trkpt lat="40.11748" lon="0.047509">
        <ele>209.260812</ele>
        <time>2024-05-25T11:18:40.000Z</time>
      </trkpt>
      <trkpt lat="40.118484" lon="0.047425">
        <ele>215.31638</ele>
        <time>2024-05-25T11:18:51.000Z</time>
      </trkpt>
      <trkpt lat="40.118907" lon="0.047291">
        <ele>218.072086</ele>
        <time>2024-05-25T11:18:56.000Z</time>
      </trkpt>
      <trkpt lat="40.119792" lon="0.046824">
        <ele>226.845952</ele>
        <time>2024-05-25T11:19:07.000Z</time>
      </trkpt>
      <trkpt lat="40.120439" lon="0.046393">
        <ele>233.417572</ele>
        <time>2024-05-25T11:19:15.000Z</time>
      </trkpt>
      <trkpt lat="40.120815" lon="0.046114">
        <ele>237.765423</ele>
        <time>2024-05-25T11:19:20.000Z</time>
      </trkpt>
      <trkpt lat="40.121216" lon="0.045791">
        <ele>242.5574</ele>
        <time>2024-05-25T11:19:25.000Z</time>
      </trkpt>
      <trkpt lat="40.121539" lon="0.045383">
        <ele>247.003962</ele>
        <time>2024-05-25T11:19:30.000Z</time>
      </trkpt>
      <trkpt lat="40.121698" lon="0.045278">
        <ele>248.876211</ele>
        <time>2024-05-25T11:19:32.000Z</time>
      </trkpt>
      <trkpt lat="40.122236" lon="0.045144">
        <ele>252.921747</ele>
        <time>2024-05-25T11:19:38.000Z</time>
      </trkpt>
      <trkpt lat="40.12268" lon="0.045088">
        <ele>254.517799</ele>
        <time>2024-05-25T11:19:43.000Z</time>
      </trkpt>
      <trkpt lat="40.122718" lon="0.045075">
        <ele>254.628728</ele>
        <time>2024-05-25T11:19:43.000Z</time>
      </trkpt>
      <trkpt lat="40.122918" lon="0.044996">
        <ele>255.38875</ele>
        <time>2024-05-25T11:19:45.000Z</time>
      </trkpt>
      <trkpt lat="40.12334" lon="0.044779">
        <ele>257.038517</ele>
        <time>2024-05-25T11:19:50.000Z</time>
      </trkpt>
      <trkpt lat="40.123639" lon="0.044623">
        <ele>258.160529</ele>
        <time>2024-05-25T11:19:54.000Z</time>
      </trkpt>
      <trkpt lat="40.123862" lon="0.044551">
        <ele>258.360956</ele>
        <time>2024-05-25T11:19:57.000Z</time>
      </trkpt>
      <trkpt lat="40.12406" lon="0.044675">
        <ele>258.020504</ele>
        <time>2024-05-25T11:19:59.000Z</time>
      </trkpt>
      <trkpt lat="40.124161" lon="0.044808">
        <ele>257.782051</ele>
        <time>2024-05-25T11:20:01.000Z</time>
      </trkpt>
      <trkpt lat="40.124234" lon="0.04486">
        <ele>257.661537</ele>
        <time>2024-05-25T11:20:02.000Z</time>
      </trkpt>
      <trkpt lat="40.124386" lon="0.044833">
        <ele>257.422095</ele>
        <time>2024-05-25T11:20:04.000Z</time>
      </trkpt>
      <trkpt lat="40.124499" lon="0.044704">
        <ele>257.183999</ele>
        <time>2024-05-25T11:20:06.000Z</time>
      </trkpt>
      <trkpt lat="40.124773" lon="0.044602">
        <ele>256.735279</ele>
        <time>2024-05-25T11:20:09.000Z</time>
      </trkpt>
      <trkpt lat="40.125068" lon="0.04458">
        <ele>256.265049</ele>
        <time>2024-05-25T11:20:12.000Z</time>
      </trkpt>
      <trkpt lat="40.126658" lon="0.044657">
        <ele>254.085653</ele>
        <time>2024-05-25T11:20:30.000Z</time>
      </trkpt>
      <trkpt lat="40.127269" lon="0.044625">
        <ele>253.343874</ele>
        <time>2024-05-25T11:20:37.000Z</time>
      </trkpt>
      <trkpt lat="40.127973" lon="0.044532">
        <ele>253.178036</ele>
        <time>2024-05-25T11:20:45.000Z</time>
      </trkpt>
      <trkpt lat="40.128462" lon="0.044387">
        <ele>253.061143</ele>
        <time>2024-05-25T11:20:51.000Z</time>
      </trkpt>
      <trkpt lat="40.12886" lon="0.044218">
        <ele>252.963895</ele>
        <time>2024-05-25T11:20:56.000Z</time>
      </trkpt>
      <trkpt lat="40.129297" lon="0.043996">
        <ele>253.080056</ele>
        <time>2024-05-25T11:21:01.000Z</time>
      </trkpt>
      <trkpt lat="40.130053" lon="0.043541">
        <ele>253.427674</ele>
        <time>2024-05-25T11:21:10.000Z</time>
      </trkpt>
      <trkpt lat="40.130703" lon="0.043139">
        <ele>253.676468</ele>
        <time>2024-05-25T11:21:18.000Z</time>
      </trkpt>
      <trkpt lat="40.131107" lon="0.042912">
        <ele>253.66912</ele>
        <time>2024-05-25T11:21:23.000Z</time>
      </trkpt>
      <trkpt lat="40.131326" lon="0.042761">
        <ele>253.665053</ele>
        <time>2024-05-25T11:21:26.000Z</time>
      </trkpt>
      <trkpt lat="40.132158" lon="0.042269">
        <ele>253.649771</ele>
        <time>2024-05-25T11:21:36.000Z</time>
      </trkpt>
      <trkpt lat="40.132329" lon="0.042146">
        <ele>253.656638</ele>
        <time>2024-05-25T11:21:38.000Z</time>
      </trkpt>
      <trkpt lat="40.132467" lon="0.042058">
        <ele>253.668268</ele>
        <time>2024-05-25T11:21:40.000Z</time>
      </trkpt>
      <trkpt lat="40.132781" lon="0.041791">
        <ele>253.698899</ele>
        <time>2024-05-25T11:21:44.000Z</time>
      </trkpt>
      <trkpt lat="40.133585" lon="0.041003">
        <ele>253.779403</ele>
        <time>2024-05-25T11:21:55.000Z</time>
      </trkpt>
      <trkpt lat="40.13388" lon="0.040754">
        <ele>253.893697</ele>
        <time>2024-05-25T11:21:59.000Z</time>
      </trkpt>
      <trkpt lat="40.134243" lon="0.040492">
        <ele>254.105682</ele>
        <time>2024-05-25T11:22:04.000Z</time>
      </trkpt>
      <trkpt lat="40.134627" lon="0.040229">
        <ele>254.337374</ele>
        <time>2024-05-25T11:22:09.000Z</time>
      </trkpt>
      <trkpt lat="40.135104" lon="0.039994">
        <ele>254.606748</ele>
        <time>2024-05-25T11:22:15.000Z</time>
      </trkpt>
      <trkpt lat="40.137492" lon="0.03908">
        <ele>256.156415</ele>
        <time>2024-05-25T11:22:43.000Z</time>
      </trkpt>
      <trkpt lat="40.13861" lon="0.038729">
        <ele>257.160123</ele>
        <time>2024-05-25T11:22:56.000Z</time>
      </trkpt>
      <trkpt lat="40.139604" lon="0.038454">
        <ele>257.980816</ele>
        <time>2024-05-25T11:23:07.000Z</time>
      </trkpt>
      <trkpt lat="40.141684" lon="0.038039">
        <ele>259.172536</ele>
        <time>2024-05-25T11:23:30.000Z</time>
      </trkpt>
      <trkpt lat="40.142554" lon="0.037889">
        <ele>259.361168</ele>
        <time>2024-05-25T11:23:40.000Z</time>
      </trkpt>
      <trkpt lat="40.142708" lon="0.037854">
        <ele>259.305557</ele>
        <time>2024-05-25T11:23:42.000Z</time>
      </trkpt>
      <trkpt lat="40.142782" lon="0.037856">
        <ele>259.280643</ele>
        <time>2024-05-25T11:23:43.000Z</time>
      </trkpt>
      <trkpt lat="40.144092" lon="0.037675">
        <ele>258.835826</ele>
        <time>2024-05-25T11:23:58.000Z</time>
      </trkpt>
      <trkpt lat="40.144945" lon="0.037542">
        <ele>258.481707</ele>
        <time>2024-05-25T11:24:08.000Z</time>
      </trkpt>
      <trkpt lat="40.145316" lon="0.037511">
        <ele>258.326961</ele>
        <time>2024-05-25T11:24:12.000Z</time>
      </trkpt>
      <trkpt lat="40.145501" lon="0.037561">
        <ele>258.249997</ele>
        <time>2024-05-25T11:24:14.000Z</time>
      </trkpt>
      <trkpt lat="40.145614" lon="0.037615">
        <ele>258.194467</ele>
        <time>2024-05-25T11:24:15.000Z</time>
      </trkpt>
      <trkpt lat="40.145794" lon="0.037605">
        <ele>258.124568</ele>
        <time>2024-05-25T11:24:17.000Z</time>
      </trkpt>
      <trkpt lat="40.145946" lon="0.037655">
        <ele>258.055876</ele>
        <time>2024-05-25T11:24:19.000Z</time>
      </trkpt>
      <trkpt lat="40.146071" lon="0.037724">
        <ele>257.930606</ele>
        <time>2024-05-25T11:24:21.000Z</time>
      </trkpt>
      <trkpt lat="40.146202" lon="0.037724">
        <ele>257.804644</ele>
        <time>2024-05-25T11:24:22.000Z</time>
      </trkpt>
      <trkpt lat="40.146471" lon="0.037755">
        <ele>257.578479</ele>
        <time>2024-05-25T11:24:25.000Z</time>
      </trkpt>
      <trkpt lat="40.146649" lon="0.037725">
        <ele>257.417219</ele>
        <time>2024-05-25T11:24:27.000Z</time>
      </trkpt>
      <trkpt lat="40.14684" lon="0.037602">
        <ele>257.229334</ele>
        <time>2024-05-25T11:24:29.000Z</time>
      </trkpt>
      <trkpt lat="40.14694" lon="0.037478">
        <ele>257.095132</ele>
        <time>2024-05-25T11:24:31.000Z</time>
      </trkpt>
      <trkpt lat="40.147041" lon="0.03731">
        <ele>256.948514</ele>
        <time>2024-05-25T11:24:33.000Z</time>
      </trkpt>
      <trkpt lat="40.147234" lon="0.036925">
        <ele>256.628279</ele>
        <time>2024-05-25T11:24:37.000Z</time>
      </trkpt>
      <trkpt lat="40.14737" lon="0.036721">
        <ele>256.443818</ele>
        <time>2024-05-25T11:24:39.000Z</time>
      </trkpt>
      <trkpt lat="40.147514" lon="0.036625">
        <ele>256.395635</ele>
        <time>2024-05-25T11:24:41.000Z</time>
      </trkpt>
      <trkpt lat="40.147658" lon="0.036574">
        <ele>256.346193</ele>
        <time>2024-05-25T11:24:43.000Z</time>
      </trkpt>
      <trkpt lat="40.148664" lon="0.03671">
        <ele>256.0356</ele>
        <time>2024-05-25T11:24:54.000Z</time>
      </trkpt>
      <trkpt lat="40.148901" lon="0.036765">
        <ele>255.963356</ele>
        <time>2024-05-25T11:24:57.000Z</time>
      </trkpt>
      <trkpt lat="40.15003" lon="0.03735">
        <ele>257.196472</ele>
        <time>2024-05-25T11:25:11.000Z</time>
      </trkpt>
      <trkpt lat="40.150206" lon="0.037451">
        <ele>257.458652</ele>
        <time>2024-05-25T11:25:13.000Z</time>
      </trkpt>
      <trkpt lat="40.151533" lon="0.038169">
        <ele>259.689108</ele>
        <time>2024-05-25T11:25:29.000Z</time>
      </trkpt>
      <trkpt lat="40.152064" lon="0.038465">
        <ele>260.70755</ele>
        <time>2024-05-25T11:25:35.000Z</time>
      </trkpt>
      <trkpt lat="40.152534" lon="0.038708">
        <ele>261.534568</ele>
        <time>2024-05-25T11:25:41.000Z</time>
      </trkpt>
      <trkpt lat="40.154048" lon="0.039525">
        <ele>263.709455</ele>
        <time>2024-05-25T11:25:59.000Z</time>
      </trkpt>
      <trkpt lat="40.154184" lon="0.0396">
        <ele>263.869474</ele>
        <time>2024-05-25T11:26:01.000Z</time>
      </trkpt>
      <trkpt lat="40.154429" lon="0.039728">
        <ele>264.122524</ele>
        <time>2024-05-25T11:26:04.000Z</time>
      </trkpt>
      <trkpt lat="40.155194" lon="0.040144">
        <ele>264.929153</ele>
        <time>2024-05-25T11:26:13.000Z</time>
      </trkpt>
      <trkpt lat="40.155724" lon="0.040431">
        <ele>265.481545</ele>
        <time>2024-05-25T11:26:19.000Z</time>
      </trkpt>
      <trkpt lat="40.155967" lon="0.040563">
        <ele>265.328331</ele>
        <time>2024-05-25T11:26:22.000Z</time>
      </trkpt>
      <trkpt lat="40.156064" lon="0.040629">
        <ele>265.206191</ele>
        <time>2024-05-25T11:26:23.000Z</time>
      </trkpt>
      <trkpt lat="40.156101" lon="0.040642">
        <ele>265.169164</ele>
        <time>2024-05-25T11:26:23.000Z</time>
      </trkpt>
      <trkpt lat="40.156124" lon="0.040656">
        <ele>265.155871</ele>
        <time>2024-05-25T11:26:23.000Z</time>
      </trkpt>
      <trkpt lat="40.156181" lon="0.040679">
        <ele>265.089735</ele>
        <time>2024-05-25T11:26:24.000Z</time>
      </trkpt>
      <trkpt lat="40.156267" lon="0.040776">
        <ele>264.973193</ele>
        <time>2024-05-25T11:26:25.000Z</time>
      </trkpt>
      <trkpt lat="40.156309" lon="0.040867">
        <ele>264.894874</ele>
        <time>2024-05-25T11:26:26.000Z</time>
      </trkpt>
      <trkpt lat="40.156376" lon="0.040874">
        <ele>264.815104</ele>
        <time>2024-05-25T11:26:27.000Z</time>
      </trkpt>
      <trkpt lat="40.15639" lon="0.04085">
        <ele>264.798194</ele>
        <time>2024-05-25T11:26:27.000Z</time>
      </trkpt>
      <trkpt lat="40.156431" lon="0.040755">
        <ele>264.719345</ele>
        <time>2024-05-25T11:26:28.000Z</time>
      </trkpt>
      <trkpt lat="40.156414" lon="0.040707">
        <ele>264.672029</ele>
        <time>2024-05-25T11:26:28.000Z</time>
      </trkpt>
      <trkpt lat="40.156414" lon="0.040527">
        <ele>264.532493</ele>
        <time>2024-05-25T11:26:30.000Z</time>
      </trkpt>
      <trkpt lat="40.156561" lon="0.040092">
        <ele>264.152211</ele>
        <time>2024-05-25T11:26:34.000Z</time>
      </trkpt>
      <trkpt lat="40.156769" lon="0.039527">
        <ele>263.638165</ele>
        <time>2024-05-25T11:26:39.000Z</time>
      </trkpt>
      <trkpt lat="40.156877" lon="0.039219">
        <ele>263.281585</ele>
        <time>2024-05-25T11:26:42.000Z</time>
      </trkpt>
      <trkpt lat="40.156905" lon="0.039141">
        <ele>263.188707</ele>
        <time>2024-05-25T11:26:43.000Z</time>
      </trkpt>
      <trkpt lat="40.157624" lon="0.037119">
        <ele>260.992725</ele>
        <time>2024-05-25T11:27:02.000Z</time>
      </trkpt>
      <trkpt lat="40.157817" lon="0.036624">
        <ele>260.70379</ele>
        <time>2024-05-25T11:27:07.000Z</time>
      </trkpt>
      <trkpt lat="40.158453" lon="0.034813">
        <ele>259.728109</ele>
        <time>2024-05-25T11:27:24.000Z</time>
      </trkpt>
      <trkpt lat="40.158806" lon="0.033787">
        <ele>259.301554</ele>
        <time>2024-05-25T11:27:34.000Z</time>
      </trkpt>
      <trkpt lat="40.160115" lon="0.030131">
        <ele>258.5715</ele>
        <time>2024-05-25T11:28:08.000Z</time>
      </trkpt>
      <trkpt lat="40.161418" lon="0.026469">
        <ele>258.133379</ele>
        <time>2024-05-25T11:28:42.000Z</time>
      </trkpt>
      <trkpt lat="40.161426" lon="0.026423">
        <ele>258.154734</ele>
        <time>2024-05-25T11:28:42.000Z</time>
      </trkpt>
      <trkpt lat="40.161485" lon="0.026251">
        <ele>258.232591</ele>
        <time>2024-05-25T11:28:44.000Z</time>
      </trkpt>
      <trkpt lat="40.161943" lon="0.024966">
        <ele>258.819344</ele>
        <time>2024-05-25T11:28:56.000Z</time>
      </trkpt>
      <trkpt lat="40.163387" lon="0.020909">
        <ele>263.834951</ele>
        <time>2024-05-25T11:29:34.000Z</time>
      </trkpt>
      <trkpt lat="40.163763" lon="0.019864">
        <ele>265.170507</ele>
        <time>2024-05-25T11:29:44.000Z</time>
      </trkpt>
      <trkpt lat="40.165248" lon="0.015636">
        <ele>269.871319</ele>
        <time>2024-05-25T11:30:24.000Z</time>
      </trkpt>
      <trkpt lat="40.165359" lon="0.015342">
        <ele>270.078917</ele>
        <time>2024-05-25T11:30:27.000Z</time>
      </trkpt>
      <trkpt lat="40.165446" lon="0.015218">
        <ele>270.190719</ele>
        <time>2024-05-25T11:30:28.000Z</time>
      </trkpt>
      <trkpt lat="40.16556" lon="0.015118">
        <ele>270.303259</ele>
        <time>2024-05-25T11:30:30.000Z</time>
      </trkpt>
      <trkpt lat="40.165658" lon="0.015051">
        <ele>270.400608</ele>
        <time>2024-05-25T11:30:31.000Z</time>
      </trkpt>
      <trkpt lat="40.165749" lon="0.014938">
        <ele>270.497223</ele>
        <time>2024-05-25T11:30:32.000Z</time>
      </trkpt>
      <trkpt lat="40.165766" lon="0.014846">
        <ele>270.561213</ele>
        <time>2024-05-25T11:30:33.000Z</time>
      </trkpt>
      <trkpt lat="40.165747" lon="0.014732">
        <ele>270.642969</ele>
        <time>2024-05-25T11:30:34.000Z</time>
      </trkpt>
      <trkpt lat="40.165698" lon="0.014625">
        <ele>270.72569</ele>
        <time>2024-05-25T11:30:35.000Z</time>
      </trkpt>
      <trkpt lat="40.165656" lon="0.014345">
        <ele>270.903178</ele>
        <time>2024-05-25T11:30:37.000Z</time>
      </trkpt>
      <trkpt lat="40.165818" lon="0.013133">
        <ele>271.34223</ele>
        <time>2024-05-25T11:30:47.000Z</time>
      </trkpt>
      <trkpt lat="40.165831" lon="0.012701">
        <ele>271.456268</ele>
        <time>2024-05-25T11:30:51.000Z</time>
      </trkpt>
      <trkpt lat="40.165768" lon="0.01187">
        <ele>271.683514</ele>
        <time>2024-05-25T11:30:58.000Z</time>
      </trkpt>
      <trkpt lat="40.165752" lon="0.011313">
        <ele>272.005119</ele>
        <time>2024-05-25T11:31:03.000Z</time>
      </trkpt>
      <trkpt lat="40.165773" lon="0.010756">
        <ele>272.360757</ele>
        <time>2024-05-25T11:31:08.000Z</time>
      </trkpt>
      <trkpt lat="40.165842" lon="0.010228">
        <ele>272.713254</ele>
        <time>2024-05-25T11:31:13.000Z</time>
      </trkpt>
      <trkpt lat="40.166004" lon="0.009357">
        <ele>273.339239</ele>
        <time>2024-05-25T11:31:21.000Z</time>
      </trkpt>
      <trkpt lat="40.166752" lon="0.006636">
        <ele>276.322248</ele>
        <time>2024-05-25T11:31:46.000Z</time>
      </trkpt>
      <trkpt lat="40.167395" lon="0.004641">
        <ele>278.380073</ele>
        <time>2024-05-25T11:32:04.000Z</time>
      </trkpt>
      <trkpt lat="40.167735" lon="0.003685">
        <ele>279.288713</ele>
        <time>2024-05-25T11:32:13.000Z</time>
      </trkpt>
      <trkpt lat="40.168476" lon="0.002084">
        <ele>280.65344</ele>
        <time>2024-05-25T11:32:29.000Z</time>
      </trkpt>
      <trkpt lat="40.16905" lon="0.001027">
        <ele>281.433254</ele>
        <time>2024-05-25T11:32:40.000Z</time>
      </trkpt>
      <trkpt lat="40.169582" lon="0.000136">
        <ele>281.370458</ele>
        <time>2024-05-25T11:32:50.000Z</time>
      </trkpt>
      <trkpt lat="40.169944" lon="-0.000526">
        <ele>281.289734</ele>
        <time>2024-05-25T11:32:57.000Z</time>
      </trkpt>
      <trkpt lat="40.170194" lon="-0.001037">
        <ele>281.079487</ele>
        <time>2024-05-25T11:33:02.000Z</time>
      </trkpt>
      <trkpt lat="40.170789" lon="-0.002302">
        <ele>279.262292</ele>
        <time>2024-05-25T11:33:15.000Z</time>
      </trkpt>
      <trkpt lat="40.170969" lon="-0.002735">
        <ele>278.680023</ele>
        <time>2024-05-25T11:33:19.000Z</time>
      </trkpt>
      <trkpt lat="40.171065" lon="-0.003089">
        <ele>278.346963</ele>
        <time>2024-05-25T11:33:22.000Z</time>
      </trkpt>
      <trkpt lat="40.171131" lon="-0.003471">
        <ele>278.288507</ele>
        <time>2024-05-25T11:33:25.000Z</time>
      </trkpt>
      <trkpt lat="40.171163" lon="-0.003816">
        <ele>278.237142</ele>
        <time>2024-05-25T11:33:28.000Z</time>
      </trkpt>
      <trkpt lat="40.171161" lon="-0.004801">
        <ele>278.086624</ele>
        <time>2024-05-25T11:33:36.000Z</time>
      </trkpt>
      <trkpt lat="40.171163" lon="-0.005252">
        <ele>278.019967</ele>
        <time>2024-05-25T11:33:40.000Z</time>
      </trkpt>
      <trkpt lat="40.171192" lon="-0.005573">
        <ele>278.557271</ele>
        <time>2024-05-25T11:33:43.000Z</time>
      </trkpt>
      <trkpt lat="40.171295" lon="-0.006061">
        <ele>279.521455</ele>
        <time>2024-05-25T11:33:47.000Z</time>
      </trkpt>
      <trkpt lat="40.172016" lon="-0.009423">
        <ele>286.792905</ele>
        <time>2024-05-25T11:34:17.000Z</time>
      </trkpt>
      <trkpt lat="40.172124" lon="-0.009759">
        <ele>287.606642</ele>
        <time>2024-05-25T11:34:20.000Z</time>
      </trkpt>
      <trkpt lat="40.172299" lon="-0.010152">
        <ele>288.229372</ele>
        <time>2024-05-25T11:34:24.000Z</time>
      </trkpt>
      <trkpt lat="40.172479" lon="-0.010487">
        <ele>288.734425</ele>
        <time>2024-05-25T11:34:27.000Z</time>
      </trkpt>
      <trkpt lat="40.172519" lon="-0.010553">
        <ele>288.841509</ele>
        <time>2024-05-25T11:34:28.000Z</time>
      </trkpt>
      <trkpt lat="40.17261" lon="-0.010723">
        <ele>289.116383</ele>
        <time>2024-05-25T11:34:30.000Z</time>
      </trkpt>
      <trkpt lat="40.17335" lon="-0.01199">
        <ele>291.088017</ele>
        <time>2024-05-25T11:34:44.000Z</time>
      </trkpt>
      <trkpt lat="40.173582" lon="-0.012206">
        <ele>291.548147</ele>
        <time>2024-05-25T11:34:47.000Z</time>
      </trkpt>
      <trkpt lat="40.173716" lon="-0.012213">
        <ele>291.752875</ele>
        <time>2024-05-25T11:34:48.000Z</time>
      </trkpt>
      <trkpt lat="40.173823" lon="-0.012324">
        <ele>291.976026</ele>
        <time>2024-05-25T11:34:50.000Z</time>
      </trkpt>
      <trkpt lat="40.173842" lon="-0.012463">
        <ele>292.130794</ele>
        <time>2024-05-25T11:34:51.000Z</time>
      </trkpt>
      <trkpt lat="40.173796" lon="-0.012573">
        <ele>292.285621</ele>
        <time>2024-05-25T11:34:52.000Z</time>
      </trkpt>
      <trkpt lat="40.173837" lon="-0.012787">
        <ele>292.539764</ele>
        <time>2024-05-25T11:34:54.000Z</time>
      </trkpt>
      <trkpt lat="40.173906" lon="-0.013002">
        <ele>292.816308</ele>
        <time>2024-05-25T11:34:56.000Z</time>
      </trkpt>
      <trkpt lat="40.174376" lon="-0.013787">
        <ele>294.296443</ele>
        <time>2024-05-25T11:35:04.000Z</time>
      </trkpt>
      <trkpt lat="40.174593" lon="-0.014084">
        <ele>295.047636</ele>
        <time>2024-05-25T11:35:07.000Z</time>
      </trkpt>
      <trkpt lat="40.174936" lon="-0.014485">
        <ele>296.172158</ele>
        <time>2024-05-25T11:35:12.000Z</time>
      </trkpt>
      <trkpt lat="40.175556" lon="-0.015182">
        <ele>298.202103</ele>
        <time>2024-05-25T11:35:21.000Z</time>
      </trkpt>
      <trkpt lat="40.17617" lon="-0.015957">
        <ele>300.59753</ele>
        <time>2024-05-25T11:35:30.000Z</time>
      </trkpt>
      <trkpt lat="40.176509" lon="-0.016438">
        <ele>301.992059</ele>
        <time>2024-05-25T11:35:36.000Z</time>
      </trkpt>
      <trkpt lat="40.177417" lon="-0.017685">
        <ele>305.222538</ele>
        <time>2024-05-25T11:35:51.000Z</time>
      </trkpt>
      <trkpt lat="40.178371" lon="-0.019012">
        <ele>307.395453</ele>
        <time>2024-05-25T11:36:06.000Z</time>
      </trkpt>
      <trkpt lat="40.179342" lon="-0.020354">
        <ele>307.700873</ele>
        <time>2024-05-25T11:36:22.000Z</time>
      </trkpt>
      <trkpt lat="40.179684" lon="-0.020849">
        <ele>306.873948</ele>
        <time>2024-05-25T11:36:28.000Z</time>
      </trkpt>
      <trkpt lat="40.180107" lon="-0.021639">
        <ele>305.724515</ele>
        <time>2024-05-25T11:36:36.000Z</time>
      </trkpt>
      <trkpt lat="40.180446" lon="-0.022467">
        <ele>304.415289</ele>
        <time>2024-05-25T11:36:44.000Z</time>
      </trkpt>
      <trkpt lat="40.180651" lon="-0.022903">
        <ele>303.647738</ele>
        <time>2024-05-25T11:36:48.000Z</time>
      </trkpt>
      <trkpt lat="40.181771" lon="-0.024791">
        <ele>300.942021</ele>
        <time>2024-05-25T11:37:08.000Z</time>
      </trkpt>
      <trkpt lat="40.181868" lon="-0.024944">
        <ele>300.838652</ele>
        <time>2024-05-25T11:37:10.000Z</time>
      </trkpt>
      <trkpt lat="40.182866" lon="-0.026725">
        <ele>301.296553</ele>
        <time>2024-05-25T11:37:29.000Z</time>
      </trkpt>
      <trkpt lat="40.183387" lon="-0.027631">
        <ele>302.468482</ele>
        <time>2024-05-25T11:37:39.000Z</time>
      </trkpt>
      <trkpt lat="40.183405" lon="-0.027671">
        <ele>302.531753</ele>
        <time>2024-05-25T11:37:39.000Z</time>
      </trkpt>
      <trkpt lat="40.183964" lon="-0.028646">
        <ele>304.718059</ele>
        <time>2024-05-25T11:37:49.000Z</time>
      </trkpt>
      <trkpt lat="40.184105" lon="-0.028363">
        <ele>305.373867</ele>
        <time>2024-05-25T11:37:52.000Z</time>
      </trkpt>
      <trkpt lat="40.18433" lon="-0.028038">
        <ele>306.22302</ele>
        <time>2024-05-25T11:37:56.000Z</time>
      </trkpt>
      <trkpt lat="40.184421" lon="-0.027893">
        <ele>306.56835</ele>
        <time>2024-05-25T11:37:58.000Z</time>
      </trkpt>
      <trkpt lat="40.184522" lon="-0.027767">
        <ele>306.916758</ele>
        <time>2024-05-25T11:38:00.000Z</time>
      </trkpt>
      <trkpt lat="40.184521" lon="-0.027759">
        <ele>306.919914</ele>
        <time>2024-05-25T11:38:00.000Z</time>
      </trkpt>
      <trkpt lat="40.184594" lon="-0.027651">
        <ele>307.200111</ele>
        <time>2024-05-25T11:38:01.000Z</time>
      </trkpt>
      <trkpt lat="40.184794" lon="-0.02735">
        <ele>307.730521</ele>
        <time>2024-05-25T11:38:04.000Z</time>
      </trkpt>
      <trkpt lat="40.185454" lon="-0.026356">
        <ele>309.539575</ele>
        <time>2024-05-25T11:38:15.000Z</time>
      </trkpt>
      <trkpt lat="40.186027" lon="-0.025407">
        <ele>310.663761</ele>
        <time>2024-05-25T11:38:25.000Z</time>
      </trkpt>
      <trkpt lat="40.186372" lon="-0.024698">
        <ele>311.063576</ele>
        <time>2024-05-25T11:38:32.000Z</time>
      </trkpt>
      <trkpt lat="40.186934" lon="-0.023375">
        <ele>311.818661</ele>
        <time>2024-05-25T11:38:45.000Z</time>
      </trkpt>
      <trkpt lat="40.187201" lon="-0.02275">
        <ele>312.207086</ele>
        <time>2024-05-25T11:38:51.000Z</time>
      </trkpt>
      <trkpt lat="40.187358" lon="-0.022441">
        <ele>312.407469</ele>
        <time>2024-05-25T11:38:54.000Z</time>
      </trkpt>
      <trkpt lat="40.187628" lon="-0.02203">
        <ele>312.702981</ele>
        <time>2024-05-25T11:38:59.000Z</time>
      </trkpt>
      <trkpt lat="40.187804" lon="-0.021807">
        <ele>312.999996</ele>
        <time>2024-05-25T11:39:02.000Z</time>
      </trkpt>
      <trkpt lat="40.188239" lon="-0.02135">
        <ele>313.846149</ele>
        <time>2024-05-25T11:39:08.000Z</time>
      </trkpt>
      <trkpt lat="40.188625" lon="-0.020959">
        <ele>314.576842</ele>
        <time>2024-05-25T11:39:13.000Z</time>
      </trkpt>
      <trkpt lat="40.189175" lon="-0.020392">
        <ele>315.683267</ele>
        <time>2024-05-25T11:39:21.000Z</time>
      </trkpt>
      <trkpt lat="40.190098" lon="-0.019464">
        <ele>317.858598</ele>
        <time>2024-05-25T11:39:34.000Z</time>
      </trkpt>
      <trkpt lat="40.190773" lon="-0.018787">
        <ele>319.575951</ele>
        <time>2024-05-25T11:39:43.000Z</time>
      </trkpt>
      <trkpt lat="40.190992" lon="-0.01857">
        <ele>320.207102</ele>
        <time>2024-05-25T11:39:46.000Z</time>
      </trkpt>
      <trkpt lat="40.192538" lon="-0.017078">
        <ele>324.92308</ele>
        <time>2024-05-25T11:40:07.000Z</time>
      </trkpt>
      <trkpt lat="40.194791" lon="-0.014985">
        <ele>333.588644</ele>
        <time>2024-05-25T11:40:38.000Z</time>
      </trkpt>
      <trkpt lat="40.199261" lon="-0.011101">
        <ele>357.093999</ele>
        <time>2024-05-25T11:41:38.000Z</time>
      </trkpt>
      <trkpt lat="40.199447" lon="-0.010875">
        <ele>357.928362</ele>
        <time>2024-05-25T11:41:41.000Z</time>
      </trkpt>
      <trkpt lat="40.199806" lon="-0.010277">
        <ele>359.007083</ele>
        <time>2024-05-25T11:41:47.000Z</time>
      </trkpt>
      <trkpt lat="40.199956" lon="-0.009876">
        <ele>359.634251</ele>
        <time>2024-05-25T11:41:51.000Z</time>
      </trkpt>
      <trkpt lat="40.200426" lon="-0.008378">
        <ele>361.054724</ele>
        <time>2024-05-25T11:42:05.000Z</time>
      </trkpt>
      <trkpt lat="40.20052" lon="-0.008086">
        <ele>361.035781</ele>
        <time>2024-05-25T11:42:08.000Z</time>
      </trkpt>
      <trkpt lat="40.202369" lon="-0.002292">
        <ele>360.200475</ele>
        <time>2024-05-25T11:43:01.000Z</time>
      </trkpt>
      <trkpt lat="40.203024" lon="-0.000229">
        <ele>358.070675</ele>
        <time>2024-05-25T11:43:20.000Z</time>
      </trkpt>
      <trkpt lat="40.203127" lon="0.000229">
        <ele>357.114506</ele>
        <time>2024-05-25T11:43:24.000Z</time>
      </trkpt>
      <trkpt lat="40.203178" lon="0.000608">
        <ele>356.344042</ele>
        <time>2024-05-25T11:43:27.000Z</time>
      </trkpt>
      <trkpt lat="40.203157" lon="0.001096">
        <ele>355.36291</ele>
        <time>2024-05-25T11:43:31.000Z</time>
      </trkpt>
      <trkpt lat="40.20271" lon="0.004058">
        <ele>348.524591</ele>
        <time>2024-05-25T11:43:57.000Z</time>
      </trkpt>
      <trkpt lat="40.202659" lon="0.004474">
        <ele>347.565523</ele>
        <time>2024-05-25T11:44:01.000Z</time>
      </trkpt>
      <trkpt lat="40.202663" lon="0.004878">
        <ele>346.890744</ele>
        <time>2024-05-25T11:44:04.000Z</time>
      </trkpt>
      <trkpt lat="40.202745" lon="0.005272">
        <ele>346.235662</ele>
        <time>2024-05-25T11:44:07.000Z</time>
      </trkpt>
      <trkpt lat="40.202873" lon="0.005576">
        <ele>345.632073</ele>
        <time>2024-05-25T11:44:10.000Z</time>
      </trkpt>
      <trkpt lat="40.204685" lon="0.008578">
        <ele>340.354514</ele>
        <time>2024-05-25T11:44:42.000Z</time>
      </trkpt>
      <trkpt lat="40.204873" lon="0.008852">
        <ele>339.951297</ele>
        <time>2024-05-25T11:44:45.000Z</time>
      </trkpt>
      <trkpt lat="40.205188" lon="0.009143">
        <ele>339.39123</ele>
        <time>2024-05-25T11:44:49.000Z</time>
      </trkpt>
      <trkpt lat="40.205458" lon="0.009364">
        <ele>338.936382</ele>
        <time>2024-05-25T11:44:53.000Z</time>
      </trkpt>
      <trkpt lat="40.205609" lon="0.009479">
        <ele>338.667118</ele>
        <time>2024-05-25T11:44:55.000Z</time>
      </trkpt>
      <trkpt lat="40.205622" lon="0.009501">
        <ele>338.62985</ele>
        <time>2024-05-25T11:44:55.000Z</time>
      </trkpt>
      <trkpt lat="40.205954" lon="0.009816">
        <ele>338.144098</ele>
        <time>2024-05-25T11:45:00.000Z</time>
      </trkpt>
      <trkpt lat="40.206064" lon="0.010035">
        <ele>338.166794</ele>
        <time>2024-05-25T11:45:02.000Z</time>
      </trkpt>
      <trkpt lat="40.206277" lon="0.010681">
        <ele>338.227536</ele>
        <time>2024-05-25T11:45:08.000Z</time>
      </trkpt>
      <trkpt lat="40.206293" lon="0.010682">
        <ele>338.227975</ele>
        <time>2024-05-25T11:45:08.000Z</time>
      </trkpt>
      <trkpt lat="40.206295" lon="0.010681">
        <ele>338.228418</ele>
        <time>2024-05-25T11:45:08.000Z</time>
      </trkpt>
      <trkpt lat="40.206067" lon="0.010035">
        <ele>338.28914</ele>
        <time>2024-05-25T11:45:14.000Z</time>
      </trkpt>
      <trkpt lat="40.205939" lon="0.00981">
        <ele>338.311845</ele>
        <time>2024-05-25T11:45:16.000Z</time>
      </trkpt>
      <trkpt lat="40.205622" lon="0.009497">
        <ele>338.561239</ele>
        <time>2024-05-25T11:45:20.000Z</time>
      </trkpt>
      <trkpt lat="40.205607" lon="0.009489">
        <ele>338.600232</ele>
        <time>2024-05-25T11:45:20.000Z</time>
      </trkpt>
      <trkpt lat="40.205456" lon="0.009362">
        <ele>338.881881</ele>
        <time>2024-05-25T11:45:22.000Z</time>
      </trkpt>
      <trkpt lat="40.205194" lon="0.00914">
        <ele>339.357701</ele>
        <time>2024-05-25T11:45:25.000Z</time>
      </trkpt>
      <trkpt lat="40.204877" lon="0.008855">
        <ele>339.943576</ele>
        <time>2024-05-25T11:45:29.000Z</time>
      </trkpt>
      <trkpt lat="40.204693" lon="0.008584">
        <ele>340.365369</ele>
        <time>2024-05-25T11:45:32.000Z</time>
      </trkpt>
      <trkpt lat="40.202879" lon="0.005579">
        <ele>345.625176</ele>
        <time>2024-05-25T11:46:05.000Z</time>
      </trkpt>
      <trkpt lat="40.202743" lon="0.005263">
        <ele>346.263808</ele>
        <time>2024-05-25T11:46:08.000Z</time>
      </trkpt>
      <trkpt lat="40.202664" lon="0.004895">
        <ele>346.956945</ele>
        <time>2024-05-25T11:46:11.000Z</time>
      </trkpt>
      <trkpt lat="40.202654" lon="0.00449">
        <ele>347.670901</ele>
        <time>2024-05-25T11:46:14.000Z</time>
      </trkpt>
      <trkpt lat="40.202712" lon="0.004066">
        <ele>348.485699</ele>
        <time>2024-05-25T11:46:18.000Z</time>
      </trkpt>
      <trkpt lat="40.203152" lon="0.001084">
        <ele>355.374101</ele>
        <time>2024-05-25T11:46:44.000Z</time>
      </trkpt>
      <trkpt lat="40.20317" lon="0.000601">
        <ele>356.300853</ele>
        <time>2024-05-25T11:46:48.000Z</time>
      </trkpt>
      <trkpt lat="40.203133" lon="0.000234">
        <ele>357.028596</ele>
        <time>2024-05-25T11:46:51.000Z</time>
      </trkpt>
      <trkpt lat="40.203022" lon="-0.000218">
        <ele>357.931765</ele>
        <time>2024-05-25T11:46:55.000Z</time>
      </trkpt>
      <trkpt lat="40.202361" lon="-0.002294">
        <ele>360.11409</ele>
        <time>2024-05-25T11:47:14.000Z</time>
      </trkpt>
      <trkpt lat="40.200525" lon="-0.008082">
        <ele>361.063966</ele>
        <time>2024-05-25T11:48:07.000Z</time>
      </trkpt>
      <trkpt lat="40.200434" lon="-0.008378">
        <ele>361.040871</ele>
        <time>2024-05-25T11:48:10.000Z</time>
      </trkpt>
      <trkpt lat="40.199953" lon="-0.009874">
        <ele>359.684109</ele>
        <time>2024-05-25T11:48:24.000Z</time>
      </trkpt>
      <trkpt lat="40.199799" lon="-0.010274">
        <ele>358.945064</ele>
        <time>2024-05-25T11:48:28.000Z</time>
      </trkpt>
      <trkpt lat="40.199445" lon="-0.01087">
        <ele>357.673954</ele>
        <time>2024-05-25T11:48:34.000Z</time>
      </trkpt>
      <trkpt lat="40.199276" lon="-0.011109">
        <ele>357.143681</ele>
        <time>2024-05-25T11:48:37.000Z</time>
      </trkpt>
      <trkpt lat="40.194792" lon="-0.014981">
        <ele>333.552879</ele>
        <time>2024-05-25T11:49:37.000Z</time>
      </trkpt>
      <trkpt lat="40.192533" lon="-0.017068">
        <ele>324.934786</ele>
        <time>2024-05-25T11:50:08.000Z</time>
      </trkpt>
      <trkpt lat="40.191002" lon="-0.018559">
        <ele>320.221431</ele>
        <time>2024-05-25T11:50:29.000Z</time>
      </trkpt>
      <trkpt lat="40.190774" lon="-0.018781">
        <ele>319.600724</ele>
        <time>2024-05-25T11:50:32.000Z</time>
      </trkpt>
      <trkpt lat="40.190096" lon="-0.019463">
        <ele>317.834157</ele>
        <time>2024-05-25T11:50:42.000Z</time>
      </trkpt>
      <trkpt lat="40.18919" lon="-0.020404">
        <ele>315.695597</ele>
        <time>2024-05-25T11:50:55.000Z</time>
      </trkpt>
      <trkpt lat="40.188619" lon="-0.020956">
        <ele>314.561991</ele>
        <time>2024-05-25T11:51:03.000Z</time>
      </trkpt>
      <trkpt lat="40.188238" lon="-0.021338">
        <ele>313.864886</ele>
        <time>2024-05-25T11:51:08.000Z</time>
      </trkpt>
      <trkpt lat="40.187812" lon="-0.021802">
        <ele>313.057618</ele>
        <time>2024-05-25T11:51:14.000Z</time>
      </trkpt>
      <trkpt lat="40.187634" lon="-0.022036">
        <ele>312.696467</ele>
        <time>2024-05-25T11:51:17.000Z</time>
      </trkpt>
      <trkpt lat="40.187372" lon="-0.022442">
        <ele>312.359267</ele>
        <time>2024-05-25T11:51:22.000Z</time>
      </trkpt>
      <trkpt lat="40.187207" lon="-0.02275">
        <ele>312.181357</ele>
        <time>2024-05-25T11:51:25.000Z</time>
      </trkpt>
      <trkpt lat="40.186943" lon="-0.023381">
        <ele>311.836501</ele>
        <time>2024-05-25T11:51:31.000Z</time>
      </trkpt>
      <trkpt lat="40.186387" lon="-0.024697">
        <ele>311.065871</ele>
        <time>2024-05-25T11:51:44.000Z</time>
      </trkpt>
      <trkpt lat="40.186032" lon="-0.025401">
        <ele>310.603666</ele>
        <time>2024-05-25T11:51:51.000Z</time>
      </trkpt>
      <trkpt lat="40.185471" lon="-0.02636">
        <ele>309.610664</ele>
        <time>2024-05-25T11:52:01.000Z</time>
      </trkpt>
      <trkpt lat="40.184787" lon="-0.027359">
        <ele>307.681604</ele>
        <time>2024-05-25T11:52:12.000Z</time>
      </trkpt>
      <trkpt lat="40.1846" lon="-0.027647">
        <ele>307.115991</ele>
        <time>2024-05-25T11:52:15.000Z</time>
      </trkpt>
      <trkpt lat="40.184525" lon="-0.02775">
        <ele>306.887375</ele>
        <time>2024-05-25T11:52:16.000Z</time>
      </trkpt>
      <trkpt lat="40.184513" lon="-0.027757">
        <ele>306.884967</ele>
        <time>2024-05-25T11:52:16.000Z</time>
      </trkpt>
      <trkpt lat="40.184426" lon="-0.027904">
        <ele>306.593515</ele>
        <time>2024-05-25T11:52:18.000Z</time>
      </trkpt>
      <trkpt lat="40.184342" lon="-0.028037">
        <ele>306.249571</ele>
        <time>2024-05-25T11:52:19.000Z</time>
      </trkpt>
      <trkpt lat="40.184104" lon="-0.028359">
        <ele>305.403808</ele>
        <time>2024-05-25T11:52:23.000Z</time>
      </trkpt>
      <trkpt lat="40.183955" lon="-0.028633">
        <ele>304.750649</ele>
        <time>2024-05-25T11:52:26.000Z</time>
      </trkpt>
      <trkpt lat="40.183415" lon="-0.027681">
        <ele>302.467568</ele>
        <time>2024-05-25T11:52:36.000Z</time>
      </trkpt>
      <trkpt lat="40.183393" lon="-0.027619">
        <ele>302.351155</ele>
        <time>2024-05-25T11:52:37.000Z</time>
      </trkpt>
      <trkpt lat="40.182872" lon="-0.026717">
        <ele>301.292451</ele>
        <time>2024-05-25T11:52:47.000Z</time>
      </trkpt>
      <trkpt lat="40.181861" lon="-0.024947">
        <ele>300.805955</ele>
        <time>2024-05-25T11:53:06.000Z</time>
      </trkpt>
      <trkpt lat="40.181778" lon="-0.024785">
        <ele>300.942236</ele>
        <time>2024-05-25T11:53:08.000Z</time>
      </trkpt>
      <trkpt lat="40.180652" lon="-0.022897">
        <ele>303.639741</ele>
        <time>2024-05-25T11:53:28.000Z</time>
      </trkpt>
      <trkpt lat="40.180457" lon="-0.022471">
        <ele>304.423643</ele>
        <time>2024-05-25T11:53:32.000Z</time>
      </trkpt>
      <trkpt lat="40.180113" lon="-0.021639">
        <ele>305.806219</ele>
        <time>2024-05-25T11:53:40.000Z</time>
      </trkpt>
      <trkpt lat="40.179683" lon="-0.020864">
        <ele>306.829824</ele>
        <time>2024-05-25T11:53:48.000Z</time>
      </trkpt>
      <trkpt lat="40.179342" lon="-0.020349">
        <ele>307.566206</ele>
        <time>2024-05-25T11:53:54.000Z</time>
      </trkpt>
      <trkpt lat="40.178385" lon="-0.019013">
        <ele>307.345763</ele>
        <time>2024-05-25T11:54:10.000Z</time>
      </trkpt>
      <trkpt lat="40.177409" lon="-0.017692">
        <ele>305.269211</ele>
        <time>2024-05-25T11:54:26.000Z</time>
      </trkpt>
      <trkpt lat="40.176503" lon="-0.016439">
        <ele>301.993512</ele>
        <time>2024-05-25T11:54:41.000Z</time>
      </trkpt>
      <trkpt lat="40.176158" lon="-0.015961">
        <ele>300.599369</ele>
        <time>2024-05-25T11:54:47.000Z</time>
      </trkpt>
      <trkpt lat="40.175544" lon="-0.015184">
        <ele>298.204568</ele>
        <time>2024-05-25T11:54:56.000Z</time>
      </trkpt>
      <trkpt lat="40.174929" lon="-0.014488">
        <ele>296.105526</ele>
        <time>2024-05-25T11:55:05.000Z</time>
      </trkpt>
      <trkpt lat="40.174582" lon="-0.014078">
        <ele>294.980856</ele>
        <time>2024-05-25T11:55:10.000Z</time>
      </trkpt>
      <trkpt lat="40.174368" lon="-0.013803">
        <ele>294.229564</ele>
        <time>2024-05-25T11:55:13.000Z</time>
      </trkpt>
      <trkpt lat="40.173902" lon="-0.012986">
        <ele>292.608485</ele>
        <time>2024-05-25T11:55:22.000Z</time>
      </trkpt>
      <trkpt lat="40.173658" lon="-0.012695">
        <ele>292.111995</ele>
        <time>2024-05-25T11:55:26.000Z</time>
      </trkpt>
      <trkpt lat="40.173571" lon="-0.012673">
        <ele>291.959127</ele>
        <time>2024-05-25T11:55:27.000Z</time>
      </trkpt>
      <trkpt lat="40.173503" lon="-0.012611">
        <ele>291.831624</ele>
        <time>2024-05-25T11:55:28.000Z</time>
      </trkpt>
      <trkpt lat="40.17345" lon="-0.012518">
        <ele>291.696813</ele>
        <time>2024-05-25T11:55:29.000Z</time>
      </trkpt>
      <trkpt lat="40.173457" lon="-0.012377">
        <ele>291.544389</ele>
        <time>2024-05-25T11:55:30.000Z</time>
      </trkpt>
      <trkpt lat="40.173347" lon="-0.011981">
        <ele>291.064708</ele>
        <time>2024-05-25T11:55:34.000Z</time>
      </trkpt>
      <trkpt lat="40.172611" lon="-0.010722">
        <ele>289.056471</ele>
        <time>2024-05-25T11:55:47.000Z</time>
      </trkpt>
      <trkpt lat="40.172513" lon="-0.01055">
        <ele>288.759532</ele>
        <time>2024-05-25T11:55:49.000Z</time>
      </trkpt>
      <trkpt lat="40.172479" lon="-0.010481">
        <ele>288.643872</ele>
        <time>2024-05-25T11:55:50.000Z</time>
      </trkpt>
      <trkpt lat="40.172299" lon="-0.010162">
        <ele>288.098274</ele>
        <time>2024-05-25T11:55:53.000Z</time>
      </trkpt>
      <trkpt lat="40.172122" lon="-0.009768">
        <ele>287.489003</ele>
        <time>2024-05-25T11:55:57.000Z</time>
      </trkpt>
      <trkpt lat="40.172024" lon="-0.009423">
        <ele>286.888078</ele>
        <time>2024-05-25T11:56:00.000Z</time>
      </trkpt>
      <trkpt lat="40.171295" lon="-0.006056">
        <ele>279.641792</ele>
        <time>2024-05-25T11:56:30.000Z</time>
      </trkpt>
      <trkpt lat="40.1712" lon="-0.005571">
        <ele>278.776439</ele>
        <time>2024-05-25T11:56:34.000Z</time>
      </trkpt>
      <trkpt lat="40.171158" lon="-0.005252">
        <ele>278.199223</ele>
        <time>2024-05-25T11:56:37.000Z</time>
      </trkpt>
      <trkpt lat="40.171159" lon="-0.004802">
        <ele>277.783556</ele>
        <time>2024-05-25T11:56:41.000Z</time>
      </trkpt>
      <trkpt lat="40.171169" lon="-0.003814">
        <ele>278.23578</ele>
        <time>2024-05-25T11:56:49.000Z</time>
      </trkpt>
      <trkpt lat="40.17113" lon="-0.003474">
        <ele>278.390092</ele>
        <time>2024-05-25T11:56:52.000Z</time>
      </trkpt>
      <trkpt lat="40.171069" lon="-0.003104">
        <ele>278.565736</ele>
        <time>2024-05-25T11:56:55.000Z</time>
      </trkpt>
      <trkpt lat="40.170973" lon="-0.002718">
        <ele>278.742888</ele>
        <time>2024-05-25T11:56:58.000Z</time>
      </trkpt>
      <trkpt lat="40.170788" lon="-0.002305">
        <ele>279.237937</ele>
        <time>2024-05-25T11:57:02.000Z</time>
      </trkpt>
      <trkpt lat="40.170208" lon="-0.001041">
        <ele>280.94289</ele>
        <time>2024-05-25T11:57:15.000Z</time>
      </trkpt>
      <trkpt lat="40.169958" lon="-0.000532">
        <ele>281.465941</ele>
        <time>2024-05-25T11:57:20.000Z</time>
      </trkpt>
      <trkpt lat="40.169577" lon="0.000135">
        <ele>281.413259</ele>
        <time>2024-05-25T11:57:27.000Z</time>
      </trkpt>
      <trkpt lat="40.169052" lon="0.001017">
        <ele>281.341384</ele>
        <time>2024-05-25T11:57:36.000Z</time>
      </trkpt>
      <trkpt lat="40.168488" lon="0.002092">
        <ele>280.655263</ele>
        <time>2024-05-25T11:57:47.000Z</time>
      </trkpt>
      <trkpt lat="40.16774" lon="0.003682">
        <ele>279.30483</ele>
        <time>2024-05-25T11:58:03.000Z</time>
      </trkpt>
      <trkpt lat="40.1674" lon="0.004639">
        <ele>278.374208</ele>
        <time>2024-05-25T11:58:12.000Z</time>
      </trkpt>
      <trkpt lat="40.166751" lon="0.006644">
        <ele>276.31053</ele>
        <time>2024-05-25T11:58:31.000Z</time>
      </trkpt>
      <trkpt lat="40.166019" lon="0.009356">
        <ele>273.374401</ele>
        <time>2024-05-25T11:58:55.000Z</time>
      </trkpt>
      <trkpt lat="40.165856" lon="0.010238">
        <ele>272.655048</ele>
        <time>2024-05-25T11:59:03.000Z</time>
      </trkpt>
      <trkpt lat="40.16579" lon="0.010756">
        <ele>272.337374</ele>
        <time>2024-05-25T11:59:07.000Z</time>
      </trkpt>
      <trkpt lat="40.165759" lon="0.011306">
        <ele>272.016887</ele>
        <time>2024-05-25T11:59:12.000Z</time>
      </trkpt>
      <trkpt lat="40.165756" lon="0.01188">
        <ele>271.681499</ele>
        <time>2024-05-25T11:59:17.000Z</time>
      </trkpt>
      <trkpt lat="40.165819" lon="0.012713">
        <ele>271.35481</ele>
        <time>2024-05-25T11:59:24.000Z</time>
      </trkpt>
      <trkpt lat="40.165815" lon="0.013128">
        <ele>271.216613</ele>
        <time>2024-05-25T11:59:28.000Z</time>
      </trkpt>
      <trkpt lat="40.165658" lon="0.01435">
        <ele>270.808232</ele>
        <time>2024-05-25T11:59:39.000Z</time>
      </trkpt>
      <trkpt lat="40.165614" lon="0.014482">
        <ele>270.731185</ele>
        <time>2024-05-25T11:59:40.000Z</time>
      </trkpt>
      <trkpt lat="40.16556" lon="0.014543">
        <ele>270.653851</ele>
        <time>2024-05-25T11:59:41.000Z</time>
      </trkpt>
      <trkpt lat="40.165451" lon="0.014561">
        <ele>270.542028</ele>
        <time>2024-05-25T11:59:42.000Z</time>
      </trkpt>
      <trkpt lat="40.165387" lon="0.014644">
        <ele>270.462564</ele>
        <time>2024-05-25T11:59:43.000Z</time>
      </trkpt>
      <trkpt lat="40.165346" lon="0.014726">
        <ele>270.387837</ele>
        <time>2024-05-25T11:59:44.000Z</time>
      </trkpt>
      <trkpt lat="40.165344" lon="0.014733">
        <ele>270.384881</ele>
        <time>2024-05-25T11:59:44.000Z</time>
      </trkpt>
      <trkpt lat="40.165362" lon="0.014992">
        <ele>270.184968</ele>
        <time>2024-05-25T11:59:46.000Z</time>
      </trkpt>
      <trkpt lat="40.165376" lon="0.01519">
        <ele>270.043306</ele>
        <time>2024-05-25T11:59:48.000Z</time>
      </trkpt>
      <trkpt lat="40.165359" lon="0.015342">
        <ele>269.925943</ele>
        <time>2024-05-25T11:59:49.000Z</time>
      </trkpt>
      <trkpt lat="40.165249" lon="0.015631">
        <ele>269.68669</ele>
        <time>2024-05-25T11:59:52.000Z</time>
      </trkpt>
      <trkpt lat="40.163762" lon="0.019858">
        <ele>265.127916</ele>
        <time>2024-05-25T12:00:32.000Z</time>
      </trkpt>
      <trkpt lat="40.163391" lon="0.02091">
        <ele>263.835898</ele>
        <time>2024-05-25T12:00:42.000Z</time>
      </trkpt>
      <trkpt lat="40.161952" lon="0.024971">
        <ele>258.653642</ele>
        <time>2024-05-25T12:01:20.000Z</time>
      </trkpt>
      <trkpt lat="40.161482" lon="0.026264">
        <ele>258.275721</ele>
        <time>2024-05-25T12:01:32.000Z</time>
      </trkpt>
      <trkpt lat="40.161427" lon="0.026428">
        <ele>258.226211</ele>
        <time>2024-05-25T12:01:34.000Z</time>
      </trkpt>
      <trkpt lat="40.161411" lon="0.026486">
        <ele>258.212635</ele>
        <time>2024-05-25T12:01:35.000Z</time>
      </trkpt>
      <trkpt lat="40.160109" lon="0.030135">
        <ele>258.571391</ele>
        <time>2024-05-25T12:02:09.000Z</time>
      </trkpt>
      <trkpt lat="40.158807" lon="0.033789">
        <ele>259.25834</ele>
        <time>2024-05-25T12:02:43.000Z</time>
      </trkpt>
      <trkpt lat="40.158449" lon="0.034803">
        <ele>259.726174</ele>
        <time>2024-05-25T12:02:52.000Z</time>
      </trkpt>
      <trkpt lat="40.157804" lon="0.036616">
        <ele>260.726132</ele>
        <time>2024-05-25T12:03:09.000Z</time>
      </trkpt>
      <trkpt lat="40.157637" lon="0.037116">
        <ele>261.038432</ele>
        <time>2024-05-25T12:03:14.000Z</time>
      </trkpt>
      <trkpt lat="40.156903" lon="0.039128">
        <ele>263.119893</ele>
        <time>2024-05-25T12:03:33.000Z</time>
      </trkpt>
      <trkpt lat="40.156878" lon="0.039215">
        <ele>263.216534</ele>
        <time>2024-05-25T12:03:34.000Z</time>
      </trkpt>
      <trkpt lat="40.156769" lon="0.039513">
        <ele>263.587604</ele>
        <time>2024-05-25T12:03:37.000Z</time>
      </trkpt>
      <trkpt lat="40.156579" lon="0.040102">
        <ele>264.155211</ele>
        <time>2024-05-25T12:03:42.000Z</time>
      </trkpt>
      <trkpt lat="40.156416" lon="0.040537">
        <ele>264.370069</ele>
        <time>2024-05-25T12:03:46.000Z</time>
      </trkpt>
      <trkpt lat="40.15633" lon="0.040659">
        <ele>264.451665</ele>
        <time>2024-05-25T12:03:47.000Z</time>
      </trkpt>
      <trkpt lat="40.156273" lon="0.040695">
        <ele>264.478635</ele>
        <time>2024-05-25T12:03:48.000Z</time>
      </trkpt>
      <trkpt lat="40.156173" lon="0.040673">
        <ele>264.54053</ele>
        <time>2024-05-25T12:03:49.000Z</time>
      </trkpt>
      <trkpt lat="40.156115" lon="0.040651">
        <ele>264.577906</ele>
        <time>2024-05-25T12:03:50.000Z</time>
      </trkpt>
      <trkpt lat="40.156105" lon="0.040639">
        <ele>264.585422</ele>
        <time>2024-05-25T12:03:50.000Z</time>
      </trkpt>
      <trkpt lat="40.156063" lon="0.040626">
        <ele>264.606333</ele>
        <time>2024-05-25T12:03:50.000Z</time>
      </trkpt>
      <trkpt lat="40.155967" lon="0.040562">
        <ele>264.675345</ele>
        <time>2024-05-25T12:03:51.000Z</time>
      </trkpt>
      <trkpt lat="40.155719" lon="0.040433">
        <ele>264.831612</ele>
        <time>2024-05-25T12:03:54.000Z</time>
      </trkpt>
      <trkpt lat="40.155186" lon="0.040155">
        <ele>265.016825</ele>
        <time>2024-05-25T12:04:00.000Z</time>
      </trkpt>
      <trkpt lat="40.154427" lon="0.039738">
        <ele>264.082159</ele>
        <time>2024-05-25T12:04:09.000Z</time>
      </trkpt>
      <trkpt lat="40.154173" lon="0.039605">
        <ele>263.788929</ele>
        <time>2024-05-25T12:04:12.000Z</time>
      </trkpt>
      <trkpt lat="40.154057" lon="0.039526">
        <ele>263.629755</ele>
        <time>2024-05-25T12:04:13.000Z</time>
      </trkpt>
      <trkpt lat="40.152529" lon="0.038713">
        <ele>261.449829</ele>
        <time>2024-05-25T12:04:31.000Z</time>
      </trkpt>
      <trkpt lat="40.152077" lon="0.038471">
        <ele>260.755499</ele>
        <time>2024-05-25T12:04:36.000Z</time>
      </trkpt>
      <trkpt lat="40.151528" lon="0.038179">
        <ele>259.766899</ele>
        <time>2024-05-25T12:04:43.000Z</time>
      </trkpt>
      <trkpt lat="40.150215" lon="0.037461">
        <ele>257.294062</ele>
        <time>2024-05-25T12:04:59.000Z</time>
      </trkpt>
      <trkpt lat="40.150023" lon="0.037367">
        <ele>257.114466</ele>
        <time>2024-05-25T12:05:01.000Z</time>
      </trkpt>
      <trkpt lat="40.148903" lon="0.036775">
        <ele>256.008937</ele>
        <time>2024-05-25T12:05:14.000Z</time>
      </trkpt>
      <trkpt lat="40.148676" lon="0.036706">
        <ele>255.794604</ele>
        <time>2024-05-25T12:05:17.000Z</time>
      </trkpt>
      <trkpt lat="40.14767" lon="0.036573">
        <ele>255.995072</ele>
        <time>2024-05-25T12:05:28.000Z</time>
      </trkpt>
      <trkpt lat="40.147505" lon="0.036611">
        <ele>256.041539</ele>
        <time>2024-05-25T12:05:30.000Z</time>
      </trkpt>
      <trkpt lat="40.147366" lon="0.036712">
        <ele>256.086827</ele>
        <time>2024-05-25T12:05:32.000Z</time>
      </trkpt>
      <trkpt lat="40.147242" lon="0.036926">
        <ele>256.146277</ele>
        <time>2024-05-25T12:05:34.000Z</time>
      </trkpt>
      <trkpt lat="40.147054" lon="0.037325">
        <ele>256.253042</ele>
        <time>2024-05-25T12:05:38.000Z</time>
      </trkpt>
      <trkpt lat="40.14695" lon="0.037468">
        <ele>256.338791</ele>
        <time>2024-05-25T12:05:40.000Z</time>
      </trkpt>
      <trkpt lat="40.146719" lon="0.037593">
        <ele>256.461553</ele>
        <time>2024-05-25T12:05:43.000Z</time>
      </trkpt>
      <trkpt lat="40.146614" lon="0.037607">
        <ele>256.52397</ele>
        <time>2024-05-25T12:05:44.000Z</time>
      </trkpt>
      <trkpt lat="40.146502" lon="0.037575">
        <ele>256.584335</ele>
        <time>2024-05-25T12:05:45.000Z</time>
      </trkpt>
      <trkpt lat="40.146424" lon="0.037439">
        <ele>256.646306</ele>
        <time>2024-05-25T12:05:46.000Z</time>
      </trkpt>
      <trkpt lat="40.146441" lon="0.037295">
        <ele>256.702869</ele>
        <time>2024-05-25T12:05:47.000Z</time>
      </trkpt>
      <trkpt lat="40.146388" lon="0.037131">
        <ele>256.777042</ele>
        <time>2024-05-25T12:05:49.000Z</time>
      </trkpt>
      <trkpt lat="40.146397" lon="0.03711">
        <ele>256.783041</ele>
        <time>2024-05-25T12:05:49.000Z</time>
      </trkpt>
      <trkpt lat="40.146379" lon="0.037096">
        <ele>256.787749</ele>
        <time>2024-05-25T12:05:49.000Z</time>
      </trkpt>
      <trkpt lat="40.14635" lon="0.037058">
        <ele>256.814103</ele>
        <time>2024-05-25T12:05:49.000Z</time>
      </trkpt>
      <trkpt lat="40.146319" lon="0.036997">
        <ele>256.844709</ele>
        <time>2024-05-25T12:05:50.000Z</time>
      </trkpt>
      <trkpt lat="40.146136" lon="0.036933">
        <ele>256.938908</ele>
        <time>2024-05-25T12:05:52.000Z</time>
      </trkpt>
      <trkpt lat="40.146011" lon="0.036956">
        <ele>257.012365</ele>
        <time>2024-05-25T12:05:53.000Z</time>
      </trkpt>
      <trkpt lat="40.145883" lon="0.037068">
        <ele>257.086493</ele>
        <time>2024-05-25T12:05:55.000Z</time>
      </trkpt>
      <trkpt lat="40.145841" lon="0.037225">
        <ele>257.153938</ele>
        <time>2024-05-25T12:05:56.000Z</time>
      </trkpt>
      <trkpt lat="40.145819" lon="0.037374">
        <ele>257.228192</ele>
        <time>2024-05-25T12:05:57.000Z</time>
      </trkpt>
      <trkpt lat="40.145757" lon="0.037491">
        <ele>257.321516</ele>
        <time>2024-05-25T12:05:58.000Z</time>
      </trkpt>
      <trkpt lat="40.145607" lon="0.037559">
        <ele>257.441306</ele>
        <time>2024-05-25T12:06:00.000Z</time>
      </trkpt>
      <trkpt lat="40.145495" lon="0.037554">
        <ele>257.531241</ele>
        <time>2024-05-25T12:06:01.000Z</time>
      </trkpt>
      <trkpt lat="40.145322" lon="0.037521">
        <ele>257.677671</ele>
        <time>2024-05-25T12:06:03.000Z</time>
      </trkpt>
      <trkpt lat="40.144939" lon="0.037546">
        <ele>257.972023</ele>
        <time>2024-05-25T12:06:07.000Z</time>
      </trkpt>
      <trkpt lat="40.144086" lon="0.03767">
        <ele>258.640438</ele>
        <time>2024-05-25T12:06:17.000Z</time>
      </trkpt>
      <trkpt lat="40.142781" lon="0.037838">
        <ele>259.226105</ele>
        <time>2024-05-25T12:06:32.000Z</time>
      </trkpt>
      <trkpt lat="40.142717" lon="0.037854">
        <ele>259.258896</ele>
        <time>2024-05-25T12:06:33.000Z</time>
      </trkpt>
      <trkpt lat="40.142553" lon="0.037877">
        <ele>259.332122</ele>
        <time>2024-05-25T12:06:35.000Z</time>
      </trkpt>
      <trkpt lat="40.141683" lon="0.038032">
        <ele>259.176152</ele>
        <time>2024-05-25T12:06:45.000Z</time>
      </trkpt>
      <trkpt lat="40.139611" lon="0.038451">
        <ele>257.980466</ele>
        <time>2024-05-25T12:07:08.000Z</time>
      </trkpt>
      <trkpt lat="40.13861" lon="0.038726">
        <ele>257.157861</ele>
        <time>2024-05-25T12:07:19.000Z</time>
      </trkpt>
      <trkpt lat="40.137487" lon="0.039095">
        <ele>256.159084</ele>
        <time>2024-05-25T12:07:32.000Z</time>
      </trkpt>
      <trkpt lat="40.135111" lon="0.040006">
        <ele>254.606149</ele>
        <time>2024-05-25T12:08:00.000Z</time>
      </trkpt>
      <trkpt lat="40.134638" lon="0.040246">
        <ele>254.338168</ele>
        <time>2024-05-25T12:08:06.000Z</time>
      </trkpt>
      <trkpt lat="40.134241" lon="0.040494">
        <ele>254.107674</ele>
        <time>2024-05-25T12:08:11.000Z</time>
      </trkpt>
      <trkpt lat="40.133891" lon="0.040742">
        <ele>253.896787</ele>
        <time>2024-05-25T12:08:15.000Z</time>
      </trkpt>
      <trkpt lat="40.133594" lon="0.041003">
        <ele>253.774028</ele>
        <time>2024-05-25T12:08:19.000Z</time>
      </trkpt>
      <trkpt lat="40.13279" lon="0.041805">
        <ele>253.699624</ele>
        <time>2024-05-25T12:08:30.000Z</time>
      </trkpt>
      <trkpt lat="40.132457" lon="0.042047">
        <ele>253.671316</ele>
        <time>2024-05-25T12:08:34.000Z</time>
      </trkpt>
      <trkpt lat="40.132332" lon="0.042145">
        <ele>253.660555</ele>
        <time>2024-05-25T12:08:36.000Z</time>
      </trkpt>
      <trkpt lat="40.132144" lon="0.042264">
        <ele>253.651975</ele>
        <time>2024-05-25T12:08:38.000Z</time>
      </trkpt>
      <trkpt lat="40.131324" lon="0.042766">
        <ele>253.662812</ele>
        <time>2024-05-25T12:08:48.000Z</time>
      </trkpt>
      <trkpt lat="40.131105" lon="0.042907">
        <ele>253.665694</ele>
        <time>2024-05-25T12:08:51.000Z</time>
      </trkpt>
      <trkpt lat="40.130704" lon="0.043141">
        <ele>253.670919</ele>
        <time>2024-05-25T12:08:56.000Z</time>
      </trkpt>
      <trkpt lat="40.130065" lon="0.043529">
        <ele>253.43083</ele>
        <time>2024-05-25T12:09:04.000Z</time>
      </trkpt>
      <trkpt lat="40.129291" lon="0.044003">
        <ele>253.082904</ele>
        <time>2024-05-25T12:09:14.000Z</time>
      </trkpt>
      <trkpt lat="40.128854" lon="0.044214">
        <ele>252.953972</ele>
        <time>2024-05-25T12:09:19.000Z</time>
      </trkpt>
      <trkpt lat="40.128455" lon="0.044392">
        <ele>253.058744</ele>
        <time>2024-05-25T12:09:24.000Z</time>
      </trkpt>
      <trkpt lat="40.12797" lon="0.044531">
        <ele>253.184708</ele>
        <time>2024-05-25T12:09:30.000Z</time>
      </trkpt>
      <trkpt lat="40.127259" lon="0.044627">
        <ele>253.363415</ele>
        <time>2024-05-25T12:09:38.000Z</time>
      </trkpt>
      <trkpt lat="40.126649" lon="0.044645">
        <ele>254.143895</ele>
        <time>2024-05-25T12:09:45.000Z</time>
      </trkpt>
      <trkpt lat="40.125063" lon="0.044567">
        <ele>256.470923</ele>
        <time>2024-05-25T12:10:03.000Z</time>
      </trkpt>
      <trkpt lat="40.124765" lon="0.044494">
        <ele>256.965704</ele>
        <time>2024-05-25T12:10:06.000Z</time>
      </trkpt>
      <trkpt lat="40.124514" lon="0.044383">
        <ele>257.388905</ele>
        <time>2024-05-25T12:10:09.000Z</time>
      </trkpt>
      <trkpt lat="40.124434" lon="0.044252">
        <ele>257.590628</ele>
        <time>2024-05-25T12:10:10.000Z</time>
      </trkpt>
      <trkpt lat="40.124282" lon="0.0442">
        <ele>257.833466</ele>
        <time>2024-05-25T12:10:12.000Z</time>
      </trkpt>
      <trkpt lat="40.12414" lon="0.044253">
        <ele>258.079332</ele>
        <time>2024-05-25T12:10:14.000Z</time>
      </trkpt>
      <trkpt lat="40.124051" lon="0.044415">
        <ele>258.326298</ele>
        <time>2024-05-25T12:10:16.000Z</time>
      </trkpt>
      <trkpt lat="40.123857" lon="0.044552">
        <ele>258.678145</ele>
        <time>2024-05-25T12:10:18.000Z</time>
      </trkpt>
      <trkpt lat="40.123628" lon="0.04464">
        <ele>258.331382</ele>
        <time>2024-05-25T12:10:21.000Z</time>
      </trkpt>
      <trkpt lat="40.123338" lon="0.044771">
        <ele>257.200634</ele>
        <time>2024-05-25T12:10:24.000Z</time>
      </trkpt>
      <trkpt lat="40.122911" lon="0.044999">
        <ele>255.538037</ele>
        <time>2024-05-25T12:10:29.000Z</time>
      </trkpt>
      <trkpt lat="40.122704" lon="0.045068">
        <ele>254.772089</ele>
        <time>2024-05-25T12:10:31.000Z</time>
      </trkpt>
      <trkpt lat="40.122685" lon="0.045088">
        <ele>254.660301</ele>
        <time>2024-05-25T12:10:31.000Z</time>
      </trkpt>
      <trkpt lat="40.122234" lon="0.04514">
        <ele>253.051823</ele>
        <time>2024-05-25T12:10:36.000Z</time>
      </trkpt>
      <trkpt lat="40.121695" lon="0.045284">
        <ele>248.831802</ele>
        <time>2024-05-25T12:10:42.000Z</time>
      </trkpt>
      <trkpt lat="40.121524" lon="0.045379">
        <ele>246.967948</ele>
        <time>2024-05-25T12:10:44.000Z</time>
      </trkpt>
      <trkpt lat="40.121212" lon="0.045784">
        <ele>242.541322</ele>
        <time>2024-05-25T12:10:49.000Z</time>
      </trkpt>
      <trkpt lat="40.120833" lon="0.046124">
        <ele>237.770827</ele>
        <time>2024-05-25T12:10:54.000Z</time>
      </trkpt>
      <trkpt lat="40.120439" lon="0.046386">
        <ele>233.465238</ele>
        <time>2024-05-25T12:10:59.000Z</time>
      </trkpt>
      <trkpt lat="40.119802" lon="0.046811">
        <ele>226.850152</ele>
        <time>2024-05-25T12:11:07.000Z</time>
      </trkpt>
      <trkpt lat="40.118901" lon="0.047275">
        <ele>218.018253</ele>
        <time>2024-05-25T12:11:18.000Z</time>
      </trkpt>
      <trkpt lat="40.118498" lon="0.047433">
        <ele>215.33948</ele>
        <time>2024-05-25T12:11:23.000Z</time>
      </trkpt>
      <trkpt lat="40.117487" lon="0.047506">
        <ele>209.265802</ele>
        <time>2024-05-25T12:11:34.000Z</time>
      </trkpt>
      <trkpt lat="40.117099" lon="0.047598">
        <ele>206.914104</ele>
        <time>2024-05-25T12:11:38.000Z</time>
      </trkpt>
      <trkpt lat="40.116784" lon="0.047704">
        <ele>204.887946</ele>
        <time>2024-05-25T12:11:42.000Z</time>
      </trkpt>
      <trkpt lat="40.115555" lon="0.04825">
        <ele>196.848962</ele>
        <time>2024-05-25T12:11:56.000Z</time>
      </trkpt>
      <trkpt lat="40.114516" lon="0.048885">
        <ele>193.241551</ele>
        <time>2024-05-25T12:12:09.000Z</time>
      </trkpt>
      <trkpt lat="40.114425" lon="0.048956">
        <ele>192.963168</ele>
        <time>2024-05-25T12:12:10.000Z</time>
      </trkpt>
      <trkpt lat="40.114366" lon="0.049094">
        <ele>192.677964</ele>
        <time>2024-05-25T12:12:11.000Z</time>
      </trkpt>
      <trkpt lat="40.114296" lon="0.049608">
        <ele>191.626137</ele>
        <time>2024-05-25T12:12:15.000Z</time>
      </trkpt>
      <trkpt lat="40.114217" lon="0.049939">
        <ele>191.049268</ele>
        <time>2024-05-25T12:12:18.000Z</time>
      </trkpt>
      <trkpt lat="40.113613" lon="0.050737">
        <ele>190.643035</ele>
        <time>2024-05-25T12:12:28.000Z</time>
      </trkpt>
      <trkpt lat="40.113432" lon="0.051117">
        <ele>190.482723</ele>
        <time>2024-05-25T12:12:32.000Z</time>
      </trkpt>
      <trkpt lat="40.113358" lon="0.051356">
        <ele>190.389784</ele>
        <time>2024-05-25T12:12:34.000Z</time>
      </trkpt>
      <trkpt lat="40.113333" lon="0.05156">
        <ele>190.308933</ele>
        <time>2024-05-25T12:12:36.000Z</time>
      </trkpt>
      <trkpt lat="40.113298" lon="0.05206">
        <ele>189.125378</ele>
        <time>2024-05-25T12:12:40.000Z</time>
      </trkpt>
      <trkpt lat="40.113416" lon="0.05301">
        <ele>184.744113</ele>
        <time>2024-05-25T12:12:48.000Z</time>
      </trkpt>
      <trkpt lat="40.113459" lon="0.053237">
        <ele>183.600871</ele>
        <time>2024-05-25T12:12:50.000Z</time>
      </trkpt>
      <trkpt lat="40.113574" lon="0.053542">
        <ele>182.076743</ele>
        <time>2024-05-25T12:12:53.000Z</time>
      </trkpt>
      <trkpt lat="40.114054" lon="0.054496">
        <ele>177.064598</ele>
        <time>2024-05-25T12:13:03.000Z</time>
      </trkpt>
      <trkpt lat="40.114166" lon="0.054749">
        <ele>175.847961</ele>
        <time>2024-05-25T12:13:05.000Z</time>
      </trkpt>
      <trkpt lat="40.114257" lon="0.055093">
        <ele>174.329392</ele>
        <time>2024-05-25T12:13:08.000Z</time>
      </trkpt>
      <trkpt lat="40.114545" lon="0.05668">
        <ele>168.301686</ele>
        <time>2024-05-25T12:13:22.000Z</time>
      </trkpt>
      <trkpt lat="40.114697" lon="0.05724">
        <ele>166.871474</ele>
        <time>2024-05-25T12:13:27.000Z</time>
      </trkpt>
      <trkpt lat="40.114723" lon="0.057425">
        <ele>166.391121</ele>
        <time>2024-05-25T12:13:29.000Z</time>
      </trkpt>
      <trkpt lat="40.114676" lon="0.057911">
        <ele>165.223677</ele>
        <time>2024-05-25T12:13:33.000Z</time>
      </trkpt>
      <trkpt lat="40.1146" lon="0.058085">
        <ele>164.728157</ele>
        <time>2024-05-25T12:13:35.000Z</time>
      </trkpt>
      <trkpt lat="40.114461" lon="0.058348">
        <ele>163.954996</ele>
        <time>2024-05-25T12:13:38.000Z</time>
      </trkpt>
      <trkpt lat="40.114358" lon="0.058449">
        <ele>163.61067</ele>
        <time>2024-05-25T12:13:39.000Z</time>
      </trkpt>
      <trkpt lat="40.114226" lon="0.058518">
        <ele>163.27899</ele>
        <time>2024-05-25T12:13:41.000Z</time>
      </trkpt>
      <trkpt lat="40.113759" lon="0.058714">
        <ele>162.200357</ele>
        <time>2024-05-25T12:13:46.000Z</time>
      </trkpt>
      <trkpt lat="40.113163" lon="0.058782">
        <ele>160.875682</ele>
        <time>2024-05-25T12:13:53.000Z</time>
      </trkpt>
      <trkpt lat="40.113007" lon="0.058821">
        <ele>160.508335</ele>
        <time>2024-05-25T12:13:55.000Z</time>
      </trkpt>
      <trkpt lat="40.112363" lon="0.059152">
        <ele>159.084873</ele>
        <time>2024-05-25T12:14:03.000Z</time>
      </trkpt>
      <trkpt lat="40.112264" lon="0.059244">
        <ele>158.827559</ele>
        <time>2024-05-25T12:14:04.000Z</time>
      </trkpt>
      <trkpt lat="40.112176" lon="0.059392">
        <ele>158.54853</ele>
        <time>2024-05-25T12:14:06.000Z</time>
      </trkpt>
      <trkpt lat="40.111932" lon="0.060023">
        <ele>157.500778</ele>
        <time>2024-05-25T12:14:12.000Z</time>
      </trkpt>
      <trkpt lat="40.111604" lon="0.060484">
        <ele>156.558016</ele>
        <time>2024-05-25T12:14:17.000Z</time>
      </trkpt>
      <trkpt lat="40.111554" lon="0.060572">
        <ele>156.367656</ele>
        <time>2024-05-25T12:14:18.000Z</time>
      </trkpt>
      <trkpt lat="40.111281" lon="0.061085">
        <ele>154.064159</ele>
        <time>2024-05-25T12:14:23.000Z</time>
      </trkpt>
      <trkpt lat="40.111114" lon="0.061401">
        <ele>152.560702</ele>
        <time>2024-05-25T12:14:26.000Z</time>
      </trkpt>
      <trkpt lat="40.111075" lon="0.061503">
        <ele>152.081459</ele>
        <time>2024-05-25T12:14:27.000Z</time>
      </trkpt>
      <trkpt lat="40.110996" lon="0.061696">
        <ele>151.279415</ele>
        <time>2024-05-25T12:14:29.000Z</time>
      </trkpt>
      <trkpt lat="40.110958" lon="0.061926">
        <ele>150.352163</ele>
        <time>2024-05-25T12:14:31.000Z</time>
      </trkpt>
      <trkpt lat="40.110953" lon="0.061962">
        <ele>150.200898</ele>
        <time>2024-05-25T12:14:31.000Z</time>
      </trkpt>
      <trkpt lat="40.110865" lon="0.062919">
        <ele>146.499363</ele>
        <time>2024-05-25T12:14:39.000Z</time>
      </trkpt>
      <trkpt lat="40.110804" lon="0.063523">
        <ele>144.702847</ele>
        <time>2024-05-25T12:14:44.000Z</time>
      </trkpt>
      <trkpt lat="40.110751" lon="0.063707">
        <ele>144.11344</ele>
        <time>2024-05-25T12:14:46.000Z</time>
      </trkpt>
      <trkpt lat="40.110701" lon="0.063834">
        <ele>143.665028</ele>
        <time>2024-05-25T12:14:47.000Z</time>
      </trkpt>
      <trkpt lat="40.110397" lon="0.064284">
        <ele>141.869859</ele>
        <time>2024-05-25T12:14:52.000Z</time>
      </trkpt>
      <trkpt lat="40.110223" lon="0.064383">
        <ele>141.140294</ele>
        <time>2024-05-25T12:14:54.000Z</time>
      </trkpt>
      <trkpt lat="40.109797" lon="0.064436">
        <ele>139.708215</ele>
        <time>2024-05-25T12:14:59.000Z</time>
      </trkpt>
      <trkpt lat="40.10943" lon="0.06454">
        <ele>138.985966</ele>
        <time>2024-05-25T12:15:03.000Z</time>
      </trkpt>
      <trkpt lat="40.109296" lon="0.064637">
        <ele>138.669793</ele>
        <time>2024-05-25T12:15:05.000Z</time>
      </trkpt>
      <trkpt lat="40.109145" lon="0.06488">
        <ele>138.208146</ele>
        <time>2024-05-25T12:15:08.000Z</time>
      </trkpt>
      <trkpt lat="40.109093" lon="0.065053">
        <ele>137.911455</ele>
        <time>2024-05-25T12:15:10.000Z</time>
      </trkpt>
      <trkpt lat="40.10902" lon="0.065323">
        <ele>137.490578</ele>
        <time>2024-05-25T12:15:12.000Z</time>
      </trkpt>
      <trkpt lat="40.108957" lon="0.065705">
        <ele>136.896854</ele>
        <time>2024-05-25T12:15:15.000Z</time>
      </trkpt>
      <trkpt lat="40.108833" lon="0.066077">
        <ele>136.289143</ele>
        <time>2024-05-25T12:15:18.000Z</time>
      </trkpt>
      <trkpt lat="40.108733" lon="0.066259">
        <ele>135.92508</ele>
        <time>2024-05-25T12:15:20.000Z</time>
      </trkpt>
      <trkpt lat="40.108314" lon="0.066955">
        <ele>134.49282</ele>
        <time>2024-05-25T12:15:28.000Z</time>
      </trkpt>
      <trkpt lat="40.108215" lon="0.067163">
        <ele>134.112241</ele>
        <time>2024-05-25T12:15:30.000Z</time>
      </trkpt>
      <trkpt lat="40.10817" lon="0.067385">
        <ele>133.740913</ele>
        <time>2024-05-25T12:15:32.000Z</time>
      </trkpt>
      <trkpt lat="40.108052" lon="0.068064">
        <ele>132.619653</ele>
        <time>2024-05-25T12:15:38.000Z</time>
      </trkpt>
      <trkpt lat="40.107911" lon="0.069096">
        <ele>131.254182</ele>
        <time>2024-05-25T12:15:47.000Z</time>
      </trkpt>
      <trkpt lat="40.107815" lon="0.069529">
        <ele>130.658917</ele>
        <time>2024-05-25T12:15:51.000Z</time>
      </trkpt>
      <trkpt lat="40.107746" lon="0.069773">
        <ele>130.313899</ele>
        <time>2024-05-25T12:15:53.000Z</time>
      </trkpt>
      <trkpt lat="40.10756" lon="0.070164">
        <ele>129.721636</ele>
        <time>2024-05-25T12:15:57.000Z</time>
      </trkpt>
      <trkpt lat="40.107371" lon="0.070697">
        <ele>129.134491</ele>
        <time>2024-05-25T12:16:02.000Z</time>
      </trkpt>
      <trkpt lat="40.107087" lon="0.071464">
        <ele>128.332549</ele>
        <time>2024-05-25T12:16:09.000Z</time>
      </trkpt>
      <trkpt lat="40.107052" lon="0.071592">
        <ele>128.206315</ele>
        <time>2024-05-25T12:16:10.000Z</time>
      </trkpt>
      <trkpt lat="40.107046" lon="0.071721">
        <ele>128.088261</ele>
        <time>2024-05-25T12:16:11.000Z</time>
      </trkpt>
      <trkpt lat="40.107063" lon="0.071863">
        <ele>127.95809</ele>
        <time>2024-05-25T12:16:12.000Z</time>
      </trkpt>
      <trkpt lat="40.107243" lon="0.072367">
        <ele>127.446554</ele>
        <time>2024-05-25T12:16:17.000Z</time>
      </trkpt>
      <trkpt lat="40.107972" lon="0.073754">
        <ele>124.876427</ele>
        <time>2024-05-25T12:16:31.000Z</time>
      </trkpt>
      <trkpt lat="40.108074" lon="0.073965">
        <ele>124.479131</ele>
        <time>2024-05-25T12:16:33.000Z</time>
      </trkpt>
      <trkpt lat="40.10813" lon="0.074249">
        <ele>124.032846</ele>
        <time>2024-05-25T12:16:35.000Z</time>
      </trkpt>
      <trkpt lat="40.108025" lon="0.074792">
        <ele>124.040042</ele>
        <time>2024-05-25T12:16:40.000Z</time>
      </trkpt>
      <trkpt lat="40.107972" lon="0.074974">
        <ele>124.231767</ele>
        <time>2024-05-25T12:16:42.000Z</time>
      </trkpt>
      <trkpt lat="40.107898" lon="0.075094">
        <ele>124.386018</ele>
        <time>2024-05-25T12:16:43.000Z</time>
      </trkpt>
      <trkpt lat="40.106918" lon="0.075798">
        <ele>125.843542</ele>
        <time>2024-05-25T12:16:55.000Z</time>
      </trkpt>
      <trkpt lat="40.106678" lon="0.07599">
        <ele>126.843229</ele>
        <time>2024-05-25T12:16:58.000Z</time>
      </trkpt>
      <trkpt lat="40.106531" lon="0.076152">
        <ele>127.961337</ele>
        <time>2024-05-25T12:17:00.000Z</time>
      </trkpt>
      <trkpt lat="40.106329" lon="0.076524">
        <ele>130.062153</ele>
        <time>2024-05-25T12:17:04.000Z</time>
      </trkpt>
      <trkpt lat="40.106253" lon="0.076731">
        <ele>131.030965</ele>
        <time>2024-05-25T12:17:06.000Z</time>
      </trkpt>
      <trkpt lat="40.106212" lon="0.077083">
        <ele>132.728173</ele>
        <time>2024-05-25T12:17:09.000Z</time>
      </trkpt>
      <trkpt lat="40.106251" lon="0.077746">
        <ele>135.718715</ele>
        <time>2024-05-25T12:17:15.000Z</time>
      </trkpt>
      <trkpt lat="40.106297" lon="0.077881">
        <ele>136.429178</ele>
        <time>2024-05-25T12:17:16.000Z</time>
      </trkpt>
      <trkpt lat="40.106409" lon="0.078042">
        <ele>136.868752</ele>
        <time>2024-05-25T12:17:18.000Z</time>
      </trkpt>
      <trkpt lat="40.106483" lon="0.078173">
        <ele>136.964334</ele>
        <time>2024-05-25T12:17:19.000Z</time>
      </trkpt>
      <trkpt lat="40.106764" lon="0.07854">
        <ele>137.248792</ele>
        <time>2024-05-25T12:17:23.000Z</time>
      </trkpt>
      <trkpt lat="40.107163" lon="0.078925">
        <ele>137.601912</ele>
        <time>2024-05-25T12:17:29.000Z</time>
      </trkpt>
      <trkpt lat="40.107372" lon="0.07921">
        <ele>137.820939</ele>
        <time>2024-05-25T12:17:32.000Z</time>
      </trkpt>
      <trkpt lat="40.107738" lon="0.079751">
        <ele>136.88647</ele>
        <time>2024-05-25T12:17:38.000Z</time>
      </trkpt>
      <trkpt lat="40.107858" lon="0.080018">
        <ele>135.246853</ele>
        <time>2024-05-25T12:17:41.000Z</time>
      </trkpt>
      <trkpt lat="40.10811" lon="0.080718">
        <ele>131.226589</ele>
        <time>2024-05-25T12:17:48.000Z</time>
      </trkpt>
      <trkpt lat="40.108169" lon="0.080932">
        <ele>130.047776</ele>
        <time>2024-05-25T12:17:50.000Z</time>
      </trkpt>
      <trkpt lat="40.108243" lon="0.081661">
        <ele>126.256695</ele>
        <time>2024-05-25T12:17:56.000Z</time>
      </trkpt>
      <trkpt lat="40.108503" lon="0.083144">
        <ele>116.044036</ele>
        <time>2024-05-25T12:18:09.000Z</time>
      </trkpt>
      <trkpt lat="40.108633" lon="0.083769">
        <ele>111.74807</ele>
        <time>2024-05-25T12:18:15.000Z</time>
      </trkpt>
      <trkpt lat="40.108642" lon="0.083958">
        <ele>110.450208</ele>
        <time>2024-05-25T12:18:17.000Z</time>
      </trkpt>
      <trkpt lat="40.108578" lon="0.084294">
        <ele>109.433797</ele>
        <time>2024-05-25T12:18:20.000Z</time>
      </trkpt>
      <trkpt lat="40.10844" lon="0.084803">
        <ele>108.435223</ele>
        <time>2024-05-25T12:18:25.000Z</time>
      </trkpt>
      <trkpt lat="40.10819" lon="0.085245">
        <ele>107.445929</ele>
        <time>2024-05-25T12:18:30.000Z</time>
      </trkpt>
      <trkpt lat="40.107904" lon="0.08562">
        <ele>106.472681</ele>
        <time>2024-05-25T12:18:35.000Z</time>
      </trkpt>
      <trkpt lat="40.107757" lon="0.085715">
        <ele>106.100172</ele>
        <time>2024-05-25T12:18:37.000Z</time>
      </trkpt>
      <trkpt lat="40.107234" lon="0.085775">
        <ele>105.58317</ele>
        <time>2024-05-25T12:18:43.000Z</time>
      </trkpt>
      <trkpt lat="40.107054" lon="0.08586">
        <ele>105.547676</ele>
        <time>2024-05-25T12:18:45.000Z</time>
      </trkpt>
      <trkpt lat="40.107008" lon="0.085956">
        <ele>105.531182</ele>
        <time>2024-05-25T12:18:46.000Z</time>
      </trkpt>
      <trkpt lat="40.106876" lon="0.086289">
        <ele>105.478055</ele>
        <time>2024-05-25T12:18:49.000Z</time>
      </trkpt>
      <trkpt lat="40.106846" lon="0.086436">
        <ele>105.455764</ele>
        <time>2024-05-25T12:18:50.000Z</time>
      </trkpt>
      <trkpt lat="40.106844" lon="0.086562">
        <ele>105.438754</ele>
        <time>2024-05-25T12:18:51.000Z</time>
      </trkpt>
      <trkpt lat="40.106885" lon="0.08666">
        <ele>105.422555</ele>
        <time>2024-05-25T12:18:52.000Z</time>
      </trkpt>
      <trkpt lat="40.106969" lon="0.086771">
        <ele>105.398843</ele>
        <time>2024-05-25T12:18:53.000Z</time>
      </trkpt>
      <trkpt lat="40.108808" lon="0.088157">
        <ele>100.568739</ele>
        <time>2024-05-25T12:19:17.000Z</time>
      </trkpt>
      <trkpt lat="40.10894" lon="0.088297">
        <ele>100.122075</ele>
        <time>2024-05-25T12:19:19.000Z</time>
      </trkpt>
      <trkpt lat="40.108997" lon="0.088488">
        <ele>99.847553</ele>
        <time>2024-05-25T12:19:21.000Z</time>
      </trkpt>
      <trkpt lat="40.108924" lon="0.089879">
        <ele>97.974237</ele>
        <time>2024-05-25T12:19:33.000Z</time>
      </trkpt>
      <trkpt lat="40.108916" lon="0.090088">
        <ele>97.707122</ele>
        <time>2024-05-25T12:19:35.000Z</time>
      </trkpt>
      <trkpt lat="40.108954" lon="0.090281">
        <ele>97.427254</ele>
        <time>2024-05-25T12:19:37.000Z</time>
      </trkpt>
      <trkpt lat="40.109338" lon="0.091494">
        <ele>96.53576</ele>
        <time>2024-05-25T12:19:48.000Z</time>
      </trkpt>
      <trkpt lat="40.110024" lon="0.093105">
        <ele>95.528128</ele>
        <time>2024-05-25T12:20:04.000Z</time>
      </trkpt>
      <trkpt lat="40.110101" lon="0.093208">
        <ele>95.424261</ele>
        <time>2024-05-25T12:20:05.000Z</time>
      </trkpt>
      <trkpt lat="40.110236" lon="0.09341">
        <ele>95.218914</ele>
        <time>2024-05-25T12:20:07.000Z</time>
      </trkpt>
      <trkpt lat="40.110381" lon="0.093662">
        <ele>94.973123</ele>
        <time>2024-05-25T12:20:10.000Z</time>
      </trkpt>
      <trkpt lat="40.110383" lon="0.093838">
        <ele>94.845688</ele>
        <time>2024-05-25T12:20:11.000Z</time>
      </trkpt>
      <trkpt lat="40.110359" lon="0.093954">
        <ele>94.748542</ele>
        <time>2024-05-25T12:20:12.000Z</time>
      </trkpt>
      <trkpt lat="40.110344" lon="0.094089">
        <ele>94.650479</ele>
        <time>2024-05-25T12:20:13.000Z</time>
      </trkpt>
      <trkpt lat="40.110402" lon="0.094195">
        <ele>94.552909</ele>
        <time>2024-05-25T12:20:14.000Z</time>
      </trkpt>
      <trkpt lat="40.110463" lon="0.094278">
        <ele>94.455437</ele>
        <time>2024-05-25T12:20:15.000Z</time>
      </trkpt>
      <trkpt lat="40.110586" lon="0.094304">
        <ele>94.346335</ele>
        <time>2024-05-25T12:20:16.000Z</time>
      </trkpt>
      <trkpt lat="40.110637" lon="0.094291">
        <ele>94.290037</ele>
        <time>2024-05-25T12:20:17.000Z</time>
      </trkpt>
      <trkpt lat="40.110776" lon="0.094495">
        <ele>94.084498</ele>
        <time>2024-05-25T12:20:19.000Z</time>
      </trkpt>
      <trkpt lat="40.110966" lon="0.094974">
        <ele>93.221549</ele>
        <time>2024-05-25T12:20:24.000Z</time>
      </trkpt>
      <trkpt lat="40.111407" lon="0.095998">
        <ele>91.365291</ele>
        <time>2024-05-25T12:20:34.000Z</time>
      </trkpt>
      <trkpt lat="40.111634" lon="0.096442">
        <ele>90.519183</ele>
        <time>2024-05-25T12:20:39.000Z</time>
      </trkpt>
      <trkpt lat="40.111932" lon="0.096942">
        <ele>89.701338</ele>
        <time>2024-05-25T12:20:44.000Z</time>
      </trkpt>
      <trkpt lat="40.112231" lon="0.097304">
        <ele>89.029998</ele>
        <time>2024-05-25T12:20:49.000Z</time>
      </trkpt>
      <trkpt lat="40.112503" lon="0.097605">
        <ele>88.441105</ele>
        <time>2024-05-25T12:20:53.000Z</time>
      </trkpt>
      <trkpt lat="40.112847" lon="0.097906">
        <ele>87.764644</ele>
        <time>2024-05-25T12:20:58.000Z</time>
      </trkpt>
      <trkpt lat="40.113233" lon="0.098159">
        <ele>87.424205</ele>
        <time>2024-05-25T12:21:03.000Z</time>
      </trkpt>
      <trkpt lat="40.114594" lon="0.098872">
        <ele>87.434848</ele>
        <time>2024-05-25T12:21:19.000Z</time>
      </trkpt>
      <trkpt lat="40.114803" lon="0.099">
        <ele>87.291334</ele>
        <time>2024-05-25T12:21:22.000Z</time>
      </trkpt>
      <trkpt lat="40.115375" lon="0.099412">
        <ele>86.575216</ele>
        <time>2024-05-25T12:21:29.000Z</time>
      </trkpt>
      <trkpt lat="40.11591" lon="0.099913">
        <ele>85.846103</ele>
        <time>2024-05-25T12:21:36.000Z</time>
      </trkpt>
      <trkpt lat="40.120597" lon="0.104916">
        <ele>73.049354</ele>
        <time>2024-05-25T12:22:43.000Z</time>
      </trkpt>
      <trkpt lat="40.120823" lon="0.105158">
        <ele>72.364175</ele>
        <time>2024-05-25T12:22:46.000Z</time>
      </trkpt>
      <trkpt lat="40.124705" lon="0.109299">
        <ele>60.805272</ele>
        <time>2024-05-25T12:23:42.000Z</time>
      </trkpt>
      <trkpt lat="40.125288" lon="0.109939">
        <ele>59.012506</ele>
        <time>2024-05-25T12:23:50.000Z</time>
      </trkpt>
      <trkpt lat="40.125641" lon="0.110377">
        <ele>57.858489</ele>
        <time>2024-05-25T12:23:55.000Z</time>
      </trkpt>
      <trkpt lat="40.125978" lon="0.110898">
        <ele>56.668512</ele>
        <time>2024-05-25T12:24:01.000Z</time>
      </trkpt>
      <trkpt lat="40.126257" lon="0.111358">
        <ele>55.717223</ele>
        <time>2024-05-25T12:24:06.000Z</time>
      </trkpt>
      <trkpt lat="40.126558" lon="0.111968">
        <ele>54.51752</ele>
        <time>2024-05-25T12:24:12.000Z</time>
      </trkpt>
      <trkpt lat="40.126781" lon="0.112473">
        <ele>53.589687</ele>
        <time>2024-05-25T12:24:17.000Z</time>
      </trkpt>
      <trkpt lat="40.127009" lon="0.113136">
        <ele>52.778115</ele>
        <time>2024-05-25T12:24:23.000Z</time>
      </trkpt>
      <trkpt lat="40.127164" lon="0.113636">
        <ele>52.299179</ele>
        <time>2024-05-25T12:24:28.000Z</time>
      </trkpt>
      <trkpt lat="40.127387" lon="0.114582">
        <ele>51.428879</ele>
        <time>2024-05-25T12:24:36.000Z</time>
      </trkpt>
      <trkpt lat="40.127522" lon="0.115584">
        <ele>50.430341</ele>
        <time>2024-05-25T12:24:45.000Z</time>
      </trkpt>
      <trkpt lat="40.127527" lon="0.116939">
        <ele>49.050869</ele>
        <time>2024-05-25T12:24:57.000Z</time>
      </trkpt>
      <trkpt lat="40.127431" lon="0.11763">
        <ele>48.259356</ele>
        <time>2024-05-25T12:25:03.000Z</time>
      </trkpt>
      <trkpt lat="40.127353" lon="0.117954">
        <ele>47.83408</ele>
        <time>2024-05-25T12:25:06.000Z</time>
      </trkpt>
      <trkpt lat="40.127184" lon="0.118517">
        <ele>47.05297</ele>
        <time>2024-05-25T12:25:11.000Z</time>
      </trkpt>
      <trkpt lat="40.127128" lon="0.118598">
        <ele>46.918495</ele>
        <time>2024-05-25T12:25:12.000Z</time>
      </trkpt>
      <trkpt lat="40.127024" lon="0.11879">
        <ele>46.623993</ele>
        <time>2024-05-25T12:25:14.000Z</time>
      </trkpt>
      <trkpt lat="40.126992" lon="0.119014">
        <ele>46.34969</ele>
        <time>2024-05-25T12:25:16.000Z</time>
      </trkpt>
      <trkpt lat="40.126996" lon="0.119098">
        <ele>46.221097</ele>
        <time>2024-05-25T12:25:17.000Z</time>
      </trkpt>
      <trkpt lat="40.12705" lon="0.119371">
        <ele>45.876994</ele>
        <time>2024-05-25T12:25:19.000Z</time>
      </trkpt>
      <trkpt lat="40.127131" lon="0.120453">
        <ele>44.530722</ele>
        <time>2024-05-25T12:25:28.000Z</time>
      </trkpt>
      <trkpt lat="40.127108" lon="0.121442">
        <ele>43.294493</ele>
        <time>2024-05-25T12:25:36.000Z</time>
      </trkpt>
      <trkpt lat="40.127066" lon="0.122349">
        <ele>42.012884</ele>
        <time>2024-05-25T12:25:44.000Z</time>
      </trkpt>
      <trkpt lat="40.126958" lon="0.123247">
        <ele>40.659901</ele>
        <time>2024-05-25T12:25:52.000Z</time>
      </trkpt>
      <trkpt lat="40.126917" lon="0.12419">
        <ele>39.25297</ele>
        <time>2024-05-25T12:26:00.000Z</time>
      </trkpt>
      <trkpt lat="40.126833" lon="0.12499">
        <ele>38.277903</ele>
        <time>2024-05-25T12:26:07.000Z</time>
      </trkpt>
      <trkpt lat="40.12625" lon="0.130887">
        <ele>31.055992</ele>
        <time>2024-05-25T12:26:58.000Z</time>
      </trkpt>
      <trkpt lat="40.126153" lon="0.131616">
        <ele>30.030886</ele>
        <time>2024-05-25T12:27:04.000Z</time>
      </trkpt>
      <trkpt lat="40.126043" lon="0.132183">
        <ele>29.153162</ele>
        <time>2024-05-25T12:27:09.000Z</time>
      </trkpt>
      <trkpt lat="40.125881" lon="0.132795">
        <ele>28.166969</ele>
        <time>2024-05-25T12:27:15.000Z</time>
      </trkpt>
      <trkpt lat="40.125269" lon="0.134821">
        <ele>24.930585</ele>
        <time>2024-05-25T12:27:34.000Z</time>
      </trkpt>
      <trkpt lat="40.125002" lon="0.135715">
        <ele>23.571828</ele>
        <time>2024-05-25T12:27:42.000Z</time>
      </trkpt>
      <trkpt lat="40.124623" lon="0.136963">
        <ele>22.029741</ele>
        <time>2024-05-25T12:27:53.000Z</time>
      </trkpt>
      <trkpt lat="40.124623" lon="0.136989">
        <ele>21.993412</ele>
        <time>2024-05-25T12:27:53.000Z</time>
      </trkpt>
      <trkpt lat="40.124569" lon="0.137138">
        <ele>21.811833</ele>
        <time>2024-05-25T12:27:54.000Z</time>
      </trkpt>
      <trkpt lat="40.124504" lon="0.137381">
        <ele>21.515884</ele>
        <time>2024-05-25T12:27:56.000Z</time>
      </trkpt>
      <trkpt lat="40.124471" lon="0.137496">
        <ele>21.354898</ele>
        <time>2024-05-25T12:27:57.000Z</time>
      </trkpt>
      <trkpt lat="40.124307" lon="0.138033">
        <ele>20.759348</ele>
        <time>2024-05-25T12:28:02.000Z</time>
      </trkpt>
      <trkpt lat="40.124223" lon="0.138337">
        <ele>20.473261</ele>
        <time>2024-05-25T12:28:05.000Z</time>
      </trkpt>
      <trkpt lat="40.122734" lon="0.143257">
        <ele>15.364207</ele>
        <time>2024-05-25T12:28:50.000Z</time>
      </trkpt>
      <trkpt lat="40.122514" lon="0.14402">
        <ele>14.445004</ele>
        <time>2024-05-25T12:28:57.000Z</time>
      </trkpt>
      <trkpt lat="40.122297" lon="0.144791">
        <ele>13.713644</ele>
        <time>2024-05-25T12:29:04.000Z</time>
      </trkpt>
      <trkpt lat="40.122263" lon="0.145094">
        <ele>13.481355</ele>
        <time>2024-05-25T12:29:07.000Z</time>
      </trkpt>
      <trkpt lat="40.122296" lon="0.145335">
        <ele>13.281197</ele>
        <time>2024-05-25T12:29:09.000Z</time>
      </trkpt>
      <trkpt lat="40.122397" lon="0.145599">
        <ele>13.056376</ele>
        <time>2024-05-25T12:29:12.000Z</time>
      </trkpt>
      <trkpt lat="40.122562" lon="0.145807">
        <ele>12.82652</ele>
        <time>2024-05-25T12:29:15.000Z</time>
      </trkpt>
      <trkpt lat="40.122729" lon="0.145953">
        <ele>12.623681</ele>
        <time>2024-05-25T12:29:17.000Z</time>
      </trkpt>
      <trkpt lat="40.122958" lon="0.146002">
        <ele>12.392988</ele>
        <time>2024-05-25T12:29:20.000Z</time>
      </trkpt>
      <trkpt lat="40.123129" lon="0.145974">
        <ele>12.295509</ele>
        <time>2024-05-25T12:29:22.000Z</time>
      </trkpt>
      <trkpt lat="40.123268" lon="0.145924">
        <ele>12.337878</ele>
        <time>2024-05-25T12:29:24.000Z</time>
      </trkpt>
      <trkpt lat="40.123439" lon="0.145794">
        <ele>12.396028</ele>
        <time>2024-05-25T12:29:26.000Z</time>
      </trkpt>
      <trkpt lat="40.123966" lon="0.145119">
        <ele>12.610812</ele>
        <time>2024-05-25T12:29:34.000Z</time>
      </trkpt>
      <trkpt lat="40.124153" lon="0.144982">
        <ele>12.674538</ele>
        <time>2024-05-25T12:29:36.000Z</time>
      </trkpt>
      <trkpt lat="40.124413" lon="0.144909">
        <ele>12.749634</ele>
        <time>2024-05-25T12:29:39.000Z</time>
      </trkpt>
      <trkpt lat="40.124645" lon="0.14492">
        <ele>12.813668</ele>
        <time>2024-05-25T12:29:42.000Z</time>
      </trkpt>
      <trkpt lat="40.125181" lon="0.145062">
        <ele>12.917337</ele>
        <time>2024-05-25T12:29:48.000Z</time>
      </trkpt>
      <trkpt lat="40.126638" lon="0.145742">
        <ele>12.892119</ele>
        <time>2024-05-25T12:30:05.000Z</time>
      </trkpt>
      <trkpt lat="40.127047" lon="0.145974">
        <ele>12.580226</ele>
        <time>2024-05-25T12:30:10.000Z</time>
      </trkpt>
      <trkpt lat="40.127141" lon="0.146066">
        <ele>12.50367</ele>
        <time>2024-05-25T12:30:11.000Z</time>
      </trkpt>
      <trkpt lat="40.127275" lon="0.146242">
        <ele>12.358473</ele>
        <time>2024-05-25T12:30:13.000Z</time>
      </trkpt>
      <trkpt lat="40.127374" lon="0.146482">
        <ele>12.221341</ele>
        <time>2024-05-25T12:30:15.000Z</time>
      </trkpt>
      <trkpt lat="40.127394" lon="0.146742">
        <ele>12.078509</ele>
        <time>2024-05-25T12:30:17.000Z</time>
      </trkpt>
      <trkpt lat="40.127322" lon="0.147325">
        <ele>11.69521</ele>
        <time>2024-05-25T12:30:22.000Z</time>
      </trkpt>
      <trkpt lat="40.127247" lon="0.147812">
        <ele>11.29072</ele>
        <time>2024-05-25T12:30:26.000Z</time>
      </trkpt>
      <trkpt lat="40.127154" lon="0.148028">
        <ele>11.082111</ele>
        <time>2024-05-25T12:30:28.000Z</time>
      </trkpt>
      <trkpt lat="40.126976" lon="0.1482">
        <ele>10.853405</ele>
        <time>2024-05-25T12:30:30.000Z</time>
      </trkpt>
      <trkpt lat="40.12687" lon="0.148227">
        <ele>10.727934</ele>
        <time>2024-05-25T12:30:31.000Z</time>
      </trkpt>
      <trkpt lat="40.126764" lon="0.148175">
        <ele>10.608476</ele>
        <time>2024-05-25T12:30:32.000Z</time>
      </trkpt>
      <trkpt lat="40.126676" lon="0.14812">
        <ele>10.50668</ele>
        <time>2024-05-25T12:30:33.000Z</time>
      </trkpt>
      <trkpt lat="40.126534" lon="0.148119">
        <ele>10.352614</ele>
        <time>2024-05-25T12:30:35.000Z</time>
      </trkpt>
      <trkpt lat="40.126479" lon="0.148158">
        <ele>10.274117</ele>
        <time>2024-05-25T12:30:36.000Z</time>
      </trkpt>
      <trkpt lat="40.126398" lon="0.148276">
        <ele>10.158732</ele>
        <time>2024-05-25T12:30:37.000Z</time>
      </trkpt>
      <trkpt lat="40.126382" lon="0.148453">
        <ele>10.006196</ele>
        <time>2024-05-25T12:30:39.000Z</time>
      </trkpt>
      <trkpt lat="40.126439" lon="0.148632">
        <ele>9.862457</ele>
        <time>2024-05-25T12:30:41.000Z</time>
      </trkpt>
      <trkpt lat="40.126486" lon="0.148869">
        <ele>9.676441</ele>
        <time>2024-05-25T12:30:43.000Z</time>
      </trkpt>
      <trkpt lat="40.126479" lon="0.149077">
        <ele>9.531003</ele>
        <time>2024-05-25T12:30:45.000Z</time>
      </trkpt>
      <trkpt lat="40.126232" lon="0.150456">
        <ele>8.48924</ele>
        <time>2024-05-25T12:30:57.000Z</time>
      </trkpt>
      <trkpt lat="40.126065" lon="0.151732">
        <ele>7.285895</ele>
        <time>2024-05-25T12:31:08.000Z</time>
      </trkpt>
      <trkpt lat="40.125972" lon="0.15212">
        <ele>6.862966</ele>
        <time>2024-05-25T12:31:11.000Z</time>
      </trkpt>
      <trkpt lat="40.125683" lon="0.1535">
        <ele>5.450149</ele>
        <time>2024-05-25T12:31:23.000Z</time>
      </trkpt>
      <trkpt lat="40.125622" lon="0.153662">
        <ele>5.276147</ele>
        <time>2024-05-25T12:31:25.000Z</time>
      </trkpt>
      <trkpt lat="40.125515" lon="0.153705">
        <ele>5.163426</ele>
        <time>2024-05-25T12:31:26.000Z</time>
      </trkpt>
      <trkpt lat="40.125448" lon="0.15379">
        <ele>5.049885</ele>
        <time>2024-05-25T12:31:27.000Z</time>
      </trkpt>
      <trkpt lat="40.125422" lon="0.153879">
        <ele>4.954793</ele>
        <time>2024-05-25T12:31:28.000Z</time>
      </trkpt>
      <trkpt lat="40.125429" lon="0.154001">
        <ele>4.854364</ele>
        <time>2024-05-25T12:31:29.000Z</time>
      </trkpt>
      <trkpt lat="40.125472" lon="0.154091">
        <ele>4.754002</ele>
        <time>2024-05-25T12:31:30.000Z</time>
      </trkpt>
      <trkpt lat="40.125466" lon="0.154249">
        <ele>4.610912</ele>
        <time>2024-05-25T12:31:31.000Z</time>
      </trkpt>
      <trkpt lat="40.125348" lon="0.154802">
        <ele>4.084161</ele>
        <time>2024-05-25T12:31:36.000Z</time>
      </trkpt>
      <trkpt lat="40.12527" lon="0.155129">
        <ele>3.771765</ele>
        <time>2024-05-25T12:31:39.000Z</time>
      </trkpt>
      <trkpt lat="40.124999" lon="0.156377">
        <ele>3.384568</ele>
        <time>2024-05-25T12:31:50.000Z</time>
      </trkpt>
      <trkpt lat="40.12497" lon="0.156437">
        <ele>3.368963</ele>
        <time>2024-05-25T12:31:51.000Z</time>
      </trkpt>
      <trkpt lat="40.124973" lon="0.156469">
        <ele>3.356886</ele>
        <time>2024-05-25T12:31:51.000Z</time>
      </trkpt>
      <trkpt lat="40.124851" lon="0.156982">
        <ele>3.223795</ele>
        <time>2024-05-25T12:31:56.000Z</time>
      </trkpt>
      <trkpt lat="40.124757" lon="0.157155">
        <ele>3.171273</ele>
        <time>2024-05-25T12:31:58.000Z</time>
      </trkpt>
      <trkpt lat="40.124672" lon="0.157127">
        <ele>3.143045</ele>
        <time>2024-05-25T12:31:59.000Z</time>
      </trkpt>
      <trkpt lat="40.124583" lon="0.15716">
        <ele>3.114773</ele>
        <time>2024-05-25T12:32:00.000Z</time>
      </trkpt>
      <trkpt lat="40.124517" lon="0.157235">
        <ele>3.091597</ele>
        <time>2024-05-25T12:32:01.000Z</time>
      </trkpt>
      <trkpt lat="40.124337" lon="0.157307">
        <ele>3.070181</ele>
        <time>2024-05-25T12:32:03.000Z</time>
      </trkpt>
      <trkpt lat="40.124013" lon="0.157239">
        <ele>3.035369</ele>
        <time>2024-05-25T12:32:07.000Z</time>
      </trkpt>
      <trkpt lat="40.123933" lon="0.157224">
        <ele>3.026831</ele>
        <time>2024-05-25T12:32:08.000Z</time>
      </trkpt>
      <trkpt lat="40.123163" lon="0.156908">
        <ele>2.936686</ele>
        <time>2024-05-25T12:32:17.000Z</time>
      </trkpt>
      <trkpt lat="40.122931" lon="0.156818">
        <ele>2.909895</ele>
        <time>2024-05-25T12:32:20.000Z</time>
      </trkpt>
      <trkpt lat="40.122884" lon="0.156786">
        <ele>2.903747</ele>
        <time>2024-05-25T12:32:21.000Z</time>
      </trkpt>
      <trkpt lat="40.122018" lon="0.156441">
        <ele>2.748426</ele>
        <time>2024-05-25T12:32:31.000Z</time>
      </trkpt>
      <trkpt lat="40.121845" lon="0.156306">
        <ele>2.713735</ele>
        <time>2024-05-25T12:32:33.000Z</time>
      </trkpt>
      <trkpt lat="40.121822" lon="0.156179">
        <ele>2.694677</ele>
        <time>2024-05-25T12:32:34.000Z</time>
      </trkpt>
      <trkpt lat="40.121783" lon="0.156121">
        <ele>2.68507</ele>
        <time>2024-05-25T12:32:35.000Z</time>
      </trkpt>
      <trkpt lat="40.121647" lon="0.156074">
        <ele>2.659286</ele>
        <time>2024-05-25T12:32:37.000Z</time>
      </trkpt>
      <trkpt lat="40.121578" lon="0.156098">
        <ele>2.647621</ele>
        <time>2024-05-25T12:32:38.000Z</time>
      </trkpt>
      <trkpt lat="40.121515" lon="0.156148">
        <ele>2.636118</ele>
        <time>2024-05-25T12:32:39.000Z</time>
      </trkpt>
      <trkpt lat="40.121377" lon="0.156118">
        <ele>2.610659</ele>
        <time>2024-05-25T12:32:41.000Z</time>
      </trkpt>
      <trkpt lat="40.120774" lon="0.155806">
        <ele>2.475237</ele>
        <time>2024-05-25T12:32:48.000Z</time>
      </trkpt>
      <trkpt lat="40.120696" lon="0.155766">
        <ele>2.454438</ele>
        <time>2024-05-25T12:32:49.000Z</time>
      </trkpt>
      <trkpt lat="40.120557" lon="0.155704">
        <ele>2.423287</ele>
        <time>2024-05-25T12:32:51.000Z</time>
      </trkpt>
      <trkpt lat="40.119812" lon="0.155306">
        <ele>2.243829</ele>
        <time>2024-05-25T12:33:00.000Z</time>
      </trkpt>
      <trkpt lat="40.11969" lon="0.15524">
        <ele>2.214783</ele>
        <time>2024-05-25T12:33:01.000Z</time>
      </trkpt>
      <trkpt lat="40.119303" lon="0.155023">
        <ele>2.122677</ele>
        <time>2024-05-25T12:33:06.000Z</time>
      </trkpt>
      <trkpt lat="40.118149" lon="0.154413">
        <ele>1.856981</ele>
        <time>2024-05-25T12:33:20.000Z</time>
      </trkpt>
      <trkpt lat="40.117795" lon="0.154224">
        <ele>1.806733</ele>
        <time>2024-05-25T12:33:24.000Z</time>
      </trkpt>
      <trkpt lat="40.117606" lon="0.154132">
        <ele>1.855703</ele>
        <time>2024-05-25T12:33:26.000Z</time>
      </trkpt>
      <trkpt lat="40.116862" lon="0.15372">
        <ele>2.042524</ele>
        <time>2024-05-25T12:33:35.000Z</time>
      </trkpt>
      <trkpt lat="40.116461" lon="0.153472">
        <ele>2.147948</ele>
        <time>2024-05-25T12:33:40.000Z</time>
      </trkpt>
      <trkpt lat="40.116262" lon="0.15331">
        <ele>2.202164</ele>
        <time>2024-05-25T12:33:43.000Z</time>
      </trkpt>
      <trkpt lat="40.116251" lon="0.153174">
        <ele>2.260357</ele>
        <time>2024-05-25T12:33:44.000Z</time>
      </trkpt>
      <trkpt lat="40.116202" lon="0.153057">
        <ele>2.339215</ele>
        <time>2024-05-25T12:33:45.000Z</time>
      </trkpt>
      <trkpt lat="40.116139" lon="0.153002">
        <ele>2.403625</ele>
        <time>2024-05-25T12:33:46.000Z</time>
      </trkpt>
      <trkpt lat="40.116057" lon="0.153006">
        <ele>2.468574</ele>
        <time>2024-05-25T12:33:47.000Z</time>
      </trkpt>
      <trkpt lat="40.115969" lon="0.153033">
        <ele>2.528062</ele>
        <time>2024-05-25T12:33:48.000Z</time>
      </trkpt>
      <trkpt lat="40.115924" lon="0.1531">
        <ele>2.581736</ele>
        <time>2024-05-25T12:33:49.000Z</time>
      </trkpt>
      <trkpt lat="40.115793" lon="0.153066">
        <ele>2.683667</ele>
        <time>2024-05-25T12:33:50.000Z</time>
      </trkpt>
      <trkpt lat="40.115526" lon="0.152966">
        <ele>2.897302</ele>
        <time>2024-05-25T12:33:53.000Z</time>
      </trkpt>
      <trkpt lat="40.115183" lon="0.152789">
        <ele>3.1886</ele>
        <time>2024-05-25T12:33:57.000Z</time>
      </trkpt>
      <trkpt lat="40.113681" lon="0.152124">
        <ele>4.175797</ele>
        <time>2024-05-25T12:34:15.000Z</time>
      </trkpt>
      <trkpt lat="40.113594" lon="0.15207">
        <ele>4.231092</ele>
        <time>2024-05-25T12:34:16.000Z</time>
      </trkpt>
      <trkpt lat="40.112243" lon="0.151463">
        <ele>4.319192</ele>
        <time>2024-05-25T12:34:32.000Z</time>
      </trkpt>
      <trkpt lat="40.111125" lon="0.150959">
        <ele>3.948729</ele>
        <time>2024-05-25T12:34:45.000Z</time>
      </trkpt>
      <trkpt lat="40.11096" lon="0.150852">
        <ele>3.950575</ele>
        <time>2024-05-25T12:34:47.000Z</time>
      </trkpt>
      <trkpt lat="40.110903" lon="0.150697">
        <ele>3.951961</ele>
        <time>2024-05-25T12:34:48.000Z</time>
      </trkpt>
      <trkpt lat="40.110814" lon="0.150651">
        <ele>3.952904</ele>
        <time>2024-05-25T12:34:49.000Z</time>
      </trkpt>
      <trkpt lat="40.110741" lon="0.15064">
        <ele>3.95382</ele>
        <time>2024-05-25T12:34:50.000Z</time>
      </trkpt>
      <trkpt lat="40.110678" lon="0.150686">
        <ele>3.954471</ele>
        <time>2024-05-25T12:34:51.000Z</time>
      </trkpt>
      <trkpt lat="40.110628" lon="0.15075">
        <ele>3.955145</ele>
        <time>2024-05-25T12:34:52.000Z</time>
      </trkpt>
      <trkpt lat="40.110617" lon="0.150759">
        <ele>3.955275</ele>
        <time>2024-05-25T12:34:52.000Z</time>
      </trkpt>
      <trkpt lat="40.110623" lon="0.150766">
        <ele>3.955315</ele>
        <time>2024-05-25T12:34:52.000Z</time>
      </trkpt>
      <trkpt lat="40.110616" lon="0.150773">
        <ele>3.955451</ele>
        <time>2024-05-25T12:34:52.000Z</time>
      </trkpt>
      <trkpt lat="40.110598" lon="0.150896">
        <ele>3.95641</ele>
        <time>2024-05-25T12:34:53.000Z</time>
      </trkpt>
      <trkpt lat="40.110616" lon="0.150988">
        <ele>3.957183</ele>
        <time>2024-05-25T12:34:54.000Z</time>
      </trkpt>
      <trkpt lat="40.110646" lon="0.151063">
        <ele>3.957958</ele>
        <time>2024-05-25T12:34:55.000Z</time>
      </trkpt>
      <trkpt lat="40.110736" lon="0.151133">
        <ele>3.95905</ele>
        <time>2024-05-25T12:34:56.000Z</time>
      </trkpt>
      <trkpt lat="40.110862" lon="0.151112">
        <ele>3.960176</ele>
        <time>2024-05-25T12:34:57.000Z</time>
      </trkpt>
      <trkpt lat="40.110939" lon="0.151011">
        <ele>3.961318</ele>
        <time>2024-05-25T12:34:58.000Z</time>
      </trkpt>
      <trkpt lat="40.111102" lon="0.151021">
        <ele>3.963045</ele>
        <time>2024-05-25T12:35:00.000Z</time>
      </trkpt>
      <trkpt lat="40.111409" lon="0.151159">
        <ele>3.985093</ele>
        <time>2024-05-25T12:35:04.000Z</time>
      </trkpt>
      <trkpt lat="40.112231" lon="0.151531">
        <ele>4.275012</ele>
        <time>2024-05-25T12:35:14.000Z</time>
      </trkpt>
      <trkpt lat="40.113577" lon="0.15215">
        <ele>4.225763</ele>
        <time>2024-05-25T12:35:30.000Z</time>
      </trkpt>
      <trkpt lat="40.113667" lon="0.15219">
        <ele>4.165422</ele>
        <time>2024-05-25T12:35:31.000Z</time>
      </trkpt>
      <trkpt lat="40.113925" lon="0.152309">
        <ele>3.99441</ele>
        <time>2024-05-25T12:35:34.000Z</time>
      </trkpt>
      <trkpt lat="40.114046" lon="0.152377">
        <ele>3.917344</ele>
        <time>2024-05-25T12:35:35.000Z</time>
      </trkpt>
      <trkpt lat="40.115163" lon="0.152868">
        <ele>3.15599</ele>
        <time>2024-05-25T12:35:48.000Z</time>
      </trkpt>
      <trkpt lat="40.115774" lon="0.153151">
        <ele>2.690667</ele>
        <time>2024-05-25T12:35:55.000Z</time>
      </trkpt>
      <trkpt lat="40.11589" lon="0.153272">
        <ele>2.590305</ele>
        <time>2024-05-25T12:35:57.000Z</time>
      </trkpt>
      <trkpt lat="40.115907" lon="0.153373">
        <ele>2.528732</ele>
        <time>2024-05-25T12:35:58.000Z</time>
      </trkpt>
      <trkpt lat="40.115967" lon="0.153456">
        <ele>2.466256</ele>
        <time>2024-05-25T12:35:59.000Z</time>
      </trkpt>
      <trkpt lat="40.116058" lon="0.153495">
        <ele>2.397578</ele>
        <time>2024-05-25T12:36:00.000Z</time>
      </trkpt>
      <trkpt lat="40.116144" lon="0.153481">
        <ele>2.331211</ele>
        <time>2024-05-25T12:36:01.000Z</time>
      </trkpt>
      <trkpt lat="40.116196" lon="0.153446">
        <ele>2.285811</ele>
        <time>2024-05-25T12:36:02.000Z</time>
      </trkpt>
      <trkpt lat="40.11643" lon="0.153525">
        <ele>2.156506</ele>
        <time>2024-05-25T12:36:05.000Z</time>
      </trkpt>
      <trkpt lat="40.11684" lon="0.153786">
        <ele>2.040931</ele>
        <time>2024-05-25T12:36:10.000Z</time>
      </trkpt>
      <trkpt lat="40.116948" lon="0.153855">
        <ele>2.007557</ele>
        <time>2024-05-25T12:36:11.000Z</time>
      </trkpt>
      <trkpt lat="40.116974" lon="0.153858">
        <ele>1.999889</ele>
        <time>2024-05-25T12:36:11.000Z</time>
      </trkpt>
      <trkpt lat="40.117" lon="0.153877">
        <ele>1.993909</ele>
        <time>2024-05-25T12:36:11.000Z</time>
      </trkpt>
      <trkpt lat="40.117576" lon="0.154192">
        <ele>1.829407</ele>
        <time>2024-05-25T12:36:18.000Z</time>
      </trkpt>
      <trkpt lat="40.117775" lon="0.154291">
        <ele>1.774686</ele>
        <time>2024-05-25T12:36:20.000Z</time>
      </trkpt>
      <trkpt lat="40.118124" lon="0.154483">
        <ele>1.751107</ele>
        <time>2024-05-25T12:36:24.000Z</time>
      </trkpt>
      <trkpt lat="40.11875" lon="0.154817">
        <ele>1.937922</ele>
        <time>2024-05-25T12:36:32.000Z</time>
      </trkpt>
      <trkpt lat="40.118886" lon="0.154892">
        <ele>1.977108</ele>
        <time>2024-05-25T12:36:34.000Z</time>
      </trkpt>
      <trkpt lat="40.118911" lon="0.154902">
        <ele>1.987623</ele>
        <time>2024-05-25T12:36:34.000Z</time>
      </trkpt>
      <trkpt lat="40.119663" lon="0.155308">
        <ele>2.213362</ele>
        <time>2024-05-25T12:36:43.000Z</time>
      </trkpt>
      <trkpt lat="40.119799" lon="0.155362">
        <ele>2.253225</ele>
        <time>2024-05-25T12:36:45.000Z</time>
      </trkpt>
      <trkpt lat="40.120663" lon="0.15583">
        <ele>2.543019</ele>
        <time>2024-05-25T12:36:55.000Z</time>
      </trkpt>
      <trkpt lat="40.120753" lon="0.155882">
        <ele>2.570462</ele>
        <time>2024-05-25T12:36:56.000Z</time>
      </trkpt>
      <trkpt lat="40.121364" lon="0.156207">
        <ele>2.766645</ele>
        <time>2024-05-25T12:37:03.000Z</time>
      </trkpt>
      <trkpt lat="40.121458" lon="0.15634">
        <ele>2.788453</ele>
        <time>2024-05-25T12:37:05.000Z</time>
      </trkpt>
      <trkpt lat="40.1215" lon="0.156467">
        <ele>2.80437</ele>
        <time>2024-05-25T12:37:06.000Z</time>
      </trkpt>
      <trkpt lat="40.121585" lon="0.156569">
        <ele>2.820351</ele>
        <time>2024-05-25T12:37:07.000Z</time>
      </trkpt>
      <trkpt lat="40.1217" lon="0.156578">
        <ele>2.837481</ele>
        <time>2024-05-25T12:37:08.000Z</time>
      </trkpt>
      <trkpt lat="40.121799" lon="0.156511">
        <ele>2.854564</ele>
        <time>2024-05-25T12:37:09.000Z</time>
      </trkpt>
      <trkpt lat="40.122004" lon="0.156512">
        <ele>2.887858</ele>
        <time>2024-05-25T12:37:11.000Z</time>
      </trkpt>
      <trkpt lat="40.122861" lon="0.15687">
        <ele>3.023252</ele>
        <time>2024-05-25T12:37:21.000Z</time>
      </trkpt>
      <trkpt lat="40.123931" lon="0.157308">
        <ele>2.986799</ele>
        <time>2024-05-25T12:37:33.000Z</time>
      </trkpt>
      <trkpt lat="40.124323" lon="0.157363">
        <ele>2.96893</ele>
        <time>2024-05-25T12:37:37.000Z</time>
      </trkpt>
      <trkpt lat="40.124492" lon="0.157464">
        <ele>2.961008</ele>
        <time>2024-05-25T12:37:39.000Z</time>
      </trkpt>
      <trkpt lat="40.124532" lon="0.157579">
        <ele>2.956754</ele>
        <time>2024-05-25T12:37:40.000Z</time>
      </trkpt>
      <trkpt lat="40.124627" lon="0.157629">
        <ele>2.963534</ele>
        <time>2024-05-25T12:37:41.000Z</time>
      </trkpt>
      <trkpt lat="40.124716" lon="0.157636">
        <ele>2.999104</ele>
        <time>2024-05-25T12:37:42.000Z</time>
      </trkpt>
      <trkpt lat="40.124811" lon="0.157585">
        <ele>3.034644</ele>
        <time>2024-05-25T12:37:43.000Z</time>
      </trkpt>
      <trkpt lat="40.124862" lon="0.157423">
        <ele>3.085462</ele>
        <time>2024-05-25T12:37:44.000Z</time>
      </trkpt>
      <trkpt lat="40.124865" lon="0.157358">
        <ele>3.103982</ele>
        <time>2024-05-25T12:37:45.000Z</time>
      </trkpt>
      <trkpt lat="40.124847" lon="0.157244">
        <ele>3.139814</ele>
        <time>2024-05-25T12:37:46.000Z</time>
      </trkpt>
      <trkpt lat="40.124886" lon="0.157006">
        <ele>3.213742</ele>
        <time>2024-05-25T12:37:48.000Z</time>
      </trkpt>
      <trkpt lat="40.124927" lon="0.156843">
        <ele>3.261845</ele>
        <time>2024-05-25T12:37:49.000Z</time>
      </trkpt>
      <trkpt lat="40.125059" lon="0.156584">
        <ele>3.353139</ele>
        <time>2024-05-25T12:37:52.000Z</time>
      </trkpt>
      <trkpt lat="40.125117" lon="0.156454">
        <ele>3.394059</ele>
        <time>2024-05-25T12:37:53.000Z</time>
      </trkpt>
      <trkpt lat="40.125181" lon="0.156127">
        <ele>3.494381</ele>
        <time>2024-05-25T12:37:56.000Z</time>
      </trkpt>
      <trkpt lat="40.125203" lon="0.156025">
        <ele>3.52355</ele>
        <time>2024-05-25T12:37:57.000Z</time>
      </trkpt>
      <trkpt lat="40.125214" lon="0.156016">
        <ele>3.5245</ele>
        <time>2024-05-25T12:37:57.000Z</time>
      </trkpt>
      <trkpt lat="40.125591" lon="0.154286">
        <ele>4.833757</ele>
        <time>2024-05-25T12:38:12.000Z</time>
      </trkpt>
      <trkpt lat="40.125619" lon="0.154168">
        <ele>4.94465</ele>
        <time>2024-05-25T12:38:13.000Z</time>
      </trkpt>
      <trkpt lat="40.125691" lon="0.154146">
        <ele>5.028955</ele>
        <time>2024-05-25T12:38:14.000Z</time>
      </trkpt>
      <trkpt lat="40.12576" lon="0.154087">
        <ele>5.11331</ele>
        <time>2024-05-25T12:38:15.000Z</time>
      </trkpt>
      <trkpt lat="40.125798" lon="0.153981">
        <ele>5.201509</ele>
        <time>2024-05-25T12:38:16.000Z</time>
      </trkpt>
      <trkpt lat="40.125795" lon="0.153896">
        <ele>5.276025</ele>
        <time>2024-05-25T12:38:17.000Z</time>
      </trkpt>
      <trkpt lat="40.125772" lon="0.153774">
        <ele>5.382424</ele>
        <time>2024-05-25T12:38:18.000Z</time>
      </trkpt>
      <trkpt lat="40.125702" lon="0.153701">
        <ele>5.488575</ele>
        <time>2024-05-25T12:38:19.000Z</time>
      </trkpt>
      <trkpt lat="40.125691" lon="0.153517">
        <ele>5.650529</ele>
        <time>2024-05-25T12:38:21.000Z</time>
      </trkpt>
      <trkpt lat="40.125977" lon="0.152133">
        <ele>6.998008</ele>
        <time>2024-05-25T12:38:33.000Z</time>
      </trkpt>
      <trkpt lat="40.126062" lon="0.151718">
        <ele>7.389019</ele>
        <time>2024-05-25T12:38:37.000Z</time>
      </trkpt>
      <trkpt lat="40.126233" lon="0.150455">
        <ele>8.508882</ele>
        <time>2024-05-25T12:38:48.000Z</time>
      </trkpt>
      <trkpt lat="40.126481" lon="0.149068">
        <ele>9.690284</ele>
        <time>2024-05-25T12:39:00.000Z</time>
      </trkpt>
      <trkpt lat="40.126513" lon="0.148932">
        <ele>9.821385</ele>
        <time>2024-05-25T12:39:01.000Z</time>
      </trkpt>
      <trkpt lat="40.126616" lon="0.148731">
        <ele>10.07174</ele>
        <time>2024-05-25T12:39:03.000Z</time>
      </trkpt>
      <trkpt lat="40.126718" lon="0.148693">
        <ele>10.226949</ele>
        <time>2024-05-25T12:39:04.000Z</time>
      </trkpt>
      <trkpt lat="40.126772" lon="0.148642">
        <ele>10.304569</ele>
        <time>2024-05-25T12:39:05.000Z</time>
      </trkpt>
      <trkpt lat="40.126826" lon="0.148506">
        <ele>10.46237</ele>
        <time>2024-05-25T12:39:06.000Z</time>
      </trkpt>
      <trkpt lat="40.12684" lon="0.148336">
        <ele>10.650939</ele>
        <time>2024-05-25T12:39:07.000Z</time>
      </trkpt>
      <trkpt lat="40.126804" lon="0.148247">
        <ele>10.745965</ele>
        <time>2024-05-25T12:39:08.000Z</time>
      </trkpt>
      <trkpt lat="40.126772" lon="0.148179">
        <ele>10.841301</ele>
        <time>2024-05-25T12:39:09.000Z</time>
      </trkpt>
      <trkpt lat="40.126677" lon="0.14812">
        <ele>10.969954</ele>
        <time>2024-05-25T12:39:10.000Z</time>
      </trkpt>
      <trkpt lat="40.12662" lon="0.147939">
        <ele>11.173267</ele>
        <time>2024-05-25T12:39:12.000Z</time>
      </trkpt>
      <trkpt lat="40.126618" lon="0.147681">
        <ele>11.436962</ele>
        <time>2024-05-25T12:39:14.000Z</time>
      </trkpt>
      <trkpt lat="40.126644" lon="0.14726">
        <ele>11.892328</ele>
        <time>2024-05-25T12:39:18.000Z</time>
      </trkpt>
      <trkpt lat="40.126799" lon="0.146114">
        <ele>13.285343</ele>
        <time>2024-05-25T12:39:28.000Z</time>
      </trkpt>
      <trkpt lat="40.126936" lon="0.145029">
        <ele>14.684167</ele>
        <time>2024-05-25T12:39:37.000Z</time>
      </trkpt>
      <trkpt lat="40.127073" lon="0.143985">
        <ele>15.376324</ele>
        <time>2024-05-25T12:39:46.000Z</time>
      </trkpt>
      <trkpt lat="40.127124" lon="0.143786">
        <ele>15.4277</ele>
        <time>2024-05-25T12:39:48.000Z</time>
      </trkpt>
      <trkpt lat="40.127255" lon="0.143521">
        <ele>15.501908</ele>
        <time>2024-05-25T12:39:51.000Z</time>
      </trkpt>
      <trkpt lat="40.127364" lon="0.143429">
        <ele>15.540908</ele>
        <time>2024-05-25T12:39:52.000Z</time>
      </trkpt>
      <trkpt lat="40.127428" lon="0.143278">
        <ele>15.579918</ele>
        <time>2024-05-25T12:39:53.000Z</time>
      </trkpt>
      <trkpt lat="40.127419" lon="0.14312">
        <ele>15.617662</ele>
        <time>2024-05-25T12:39:54.000Z</time>
      </trkpt>
      <trkpt lat="40.127351" lon="0.142996">
        <ele>15.655493</ele>
        <time>2024-05-25T12:39:55.000Z</time>
      </trkpt>
      <trkpt lat="40.127236" lon="0.142925">
        <ele>15.697032</ele>
        <time>2024-05-25T12:39:56.000Z</time>
      </trkpt>
      <trkpt lat="40.127167" lon="0.14292">
        <ele>15.717868</ele>
        <time>2024-05-25T12:39:57.000Z</time>
      </trkpt>
      <trkpt lat="40.127093" lon="0.142958">
        <ele>15.741587</ele>
        <time>2024-05-25T12:39:58.000Z</time>
      </trkpt>
      <trkpt lat="40.126999" lon="0.143082">
        <ele>15.771423</ele>
        <time>2024-05-25T12:39:59.000Z</time>
      </trkpt>
      <trkpt lat="40.126757" lon="0.143231">
        <ele>15.56983</ele>
        <time>2024-05-25T12:40:02.000Z</time>
      </trkpt>
      <trkpt lat="40.1266" lon="0.143375">
        <ele>15.436085</ele>
        <time>2024-05-25T12:40:04.000Z</time>
      </trkpt>
      <trkpt lat="40.126495" lon="0.143506">
        <ele>15.325594</ele>
        <time>2024-05-25T12:40:06.000Z</time>
      </trkpt>
      <trkpt lat="40.126444" lon="0.143661">
        <ele>15.234315</ele>
        <time>2024-05-25T12:40:07.000Z</time>
      </trkpt>
      <trkpt lat="40.126373" lon="0.144034">
        <ele>15.010974</ele>
        <time>2024-05-25T12:40:10.000Z</time>
      </trkpt>
      <trkpt lat="40.126316" lon="0.14422">
        <ele>14.906249</ele>
        <time>2024-05-25T12:40:12.000Z</time>
      </trkpt>
      <trkpt lat="40.126166" lon="0.144459">
        <ele>14.733173</ele>
        <time>2024-05-25T12:40:15.000Z</time>
      </trkpt>
      <trkpt lat="40.126017" lon="0.144577">
        <ele>14.60459</ele>
        <time>2024-05-25T12:40:17.000Z</time>
      </trkpt>
      <trkpt lat="40.125906" lon="0.144646">
        <ele>14.520355</ele>
        <time>2024-05-25T12:40:18.000Z</time>
      </trkpt>
      <trkpt lat="40.125787" lon="0.144657">
        <ele>14.465178</ele>
        <time>2024-05-25T12:40:19.000Z</time>
      </trkpt>
      <trkpt lat="40.125668" lon="0.144654">
        <ele>14.511263</ele>
        <time>2024-05-25T12:40:20.000Z</time>
      </trkpt>
      <trkpt lat="40.124994" lon="0.144405">
        <ele>14.766768</ele>
        <time>2024-05-25T12:40:28.000Z</time>
      </trkpt>
      <trkpt lat="40.123879" lon="0.143897">
        <ele>15.370847</ele>
        <time>2024-05-25T12:40:41.000Z</time>
      </trkpt>
      <trkpt lat="40.123521" lon="0.143652">
        <ele>15.812654</ele>
        <time>2024-05-25T12:40:45.000Z</time>
      </trkpt>
      <trkpt lat="40.123374" lon="0.143482">
        <ele>16.033996</ele>
        <time>2024-05-25T12:40:47.000Z</time>
      </trkpt>
      <trkpt lat="40.123245" lon="0.143231">
        <ele>16.2867</ele>
        <time>2024-05-25T12:40:50.000Z</time>
      </trkpt>
      <trkpt lat="40.123167" lon="0.142958">
        <ele>16.524794</ele>
        <time>2024-05-25T12:40:52.000Z</time>
      </trkpt>
      <trkpt lat="40.123136" lon="0.142666">
        <ele>16.77321</ele>
        <time>2024-05-25T12:40:55.000Z</time>
      </trkpt>
      <trkpt lat="40.123187" lon="0.142282">
        <ele>17.084046</ele>
        <time>2024-05-25T12:40:58.000Z</time>
      </trkpt>
      <trkpt lat="40.124306" lon="0.138048">
        <ele>20.809765</ele>
        <time>2024-05-25T12:41:36.000Z</time>
      </trkpt>
      <trkpt lat="40.124462" lon="0.137504">
        <ele>21.408334</ele>
        <time>2024-05-25T12:41:41.000Z</time>
      </trkpt>
      <trkpt lat="40.124506" lon="0.137368">
        <ele>21.565712</ele>
        <time>2024-05-25T12:41:42.000Z</time>
      </trkpt>
      <trkpt lat="40.124575" lon="0.137137">
        <ele>21.855032</ele>
        <time>2024-05-25T12:41:44.000Z</time>
      </trkpt>
      <trkpt lat="40.124626" lon="0.136987">
        <ele>22.032537</ele>
        <time>2024-05-25T12:41:45.000Z</time>
      </trkpt>
      <trkpt lat="40.12463" lon="0.136953">
        <ele>22.068037</ele>
        <time>2024-05-25T12:41:45.000Z</time>
      </trkpt>
      <trkpt lat="40.124993" lon="0.135724">
        <ele>23.575545</ele>
        <time>2024-05-25T12:41:56.000Z</time>
      </trkpt>
      <trkpt lat="40.125265" lon="0.134829">
        <ele>24.950532</ele>
        <time>2024-05-25T12:42:04.000Z</time>
      </trkpt>
      <trkpt lat="40.125882" lon="0.132804">
        <ele>28.167921</ele>
        <time>2024-05-25T12:42:23.000Z</time>
      </trkpt>
      <trkpt lat="40.12604" lon="0.132172">
        <ele>29.159497</ele>
        <time>2024-05-25T12:42:29.000Z</time>
      </trkpt>
      <trkpt lat="40.126155" lon="0.131621">
        <ele>30.04204</ele>
        <time>2024-05-25T12:42:34.000Z</time>
      </trkpt>
      <trkpt lat="40.12625" lon="0.130898">
        <ele>31.026276</ele>
        <time>2024-05-25T12:42:40.000Z</time>
      </trkpt>
      <trkpt lat="40.12684" lon="0.124987">
        <ele>38.143906</ele>
        <time>2024-05-25T12:43:31.000Z</time>
      </trkpt>
      <trkpt lat="40.126915" lon="0.12418">
        <ele>39.146839</ele>
        <time>2024-05-25T12:43:38.000Z</time>
      </trkpt>
      <trkpt lat="40.127014" lon="0.123251">
        <ele>40.544656</ele>
        <time>2024-05-25T12:43:46.000Z</time>
      </trkpt>
      <trkpt lat="40.127572" lon="0.117493">
        <ele>49.009509</ele>
        <time>2024-05-25T12:44:35.000Z</time>
      </trkpt>
      <trkpt lat="40.127586" lon="0.116747">
        <ele>49.76988</ele>
        <time>2024-05-25T12:44:41.000Z</time>
      </trkpt>
      <trkpt lat="40.127531" lon="0.115597">
        <ele>50.713531</ele>
        <time>2024-05-25T12:44:51.000Z</time>
      </trkpt>
      <trkpt lat="40.127377" lon="0.114576">
        <ele>51.554267</ele>
        <time>2024-05-25T12:45:00.000Z</time>
      </trkpt>
      <trkpt lat="40.127174" lon="0.113638">
        <ele>52.364068</ele>
        <time>2024-05-25T12:45:08.000Z</time>
      </trkpt>
      <trkpt lat="40.127023" lon="0.113121">
        <ele>52.809713</ele>
        <time>2024-05-25T12:45:13.000Z</time>
      </trkpt>
      <trkpt lat="40.126771" lon="0.112465">
        <ele>53.58924</ele>
        <time>2024-05-25T12:45:19.000Z</time>
      </trkpt>
      <trkpt lat="40.126571" lon="0.111974">
        <ele>54.517333</ele>
        <time>2024-05-25T12:45:24.000Z</time>
      </trkpt>
      <trkpt lat="40.126249" lon="0.111374">
        <ele>55.717389</ele>
        <time>2024-05-25T12:45:30.000Z</time>
      </trkpt>
      <trkpt lat="40.125979" lon="0.110898">
        <ele>56.668958</ele>
        <time>2024-05-25T12:45:35.000Z</time>
      </trkpt>
      <trkpt lat="40.125644" lon="0.110376">
        <ele>57.858558</ele>
        <time>2024-05-25T12:45:41.000Z</time>
      </trkpt>
      <trkpt lat="40.125277" lon="0.109932">
        <ele>59.012509</ele>
        <time>2024-05-25T12:45:47.000Z</time>
      </trkpt>
      <trkpt lat="40.124711" lon="0.109299">
        <ele>60.805168</ele>
        <time>2024-05-25T12:45:55.000Z</time>
      </trkpt>
      <trkpt lat="40.12082" lon="0.105147">
        <ele>72.37108</ele>
        <time>2024-05-25T12:46:51.000Z</time>
      </trkpt>
      <trkpt lat="40.120599" lon="0.104919">
        <ele>73.052692</ele>
        <time>2024-05-25T12:46:54.000Z</time>
      </trkpt>
      <trkpt lat="40.115908" lon="0.099923">
        <ele>85.847104</ele>
        <time>2024-05-25T12:48:01.000Z</time>
      </trkpt>
      <trkpt lat="40.115376" lon="0.099417">
        <ele>86.574879</ele>
        <time>2024-05-25T12:48:08.000Z</time>
      </trkpt>
      <trkpt lat="40.114801" lon="0.099003">
        <ele>87.289656</ele>
        <time>2024-05-25T12:48:15.000Z</time>
      </trkpt>
      <trkpt lat="40.114585" lon="0.098881">
        <ele>87.435253</ele>
        <time>2024-05-25T12:48:18.000Z</time>
      </trkpt>
      <trkpt lat="40.113244" lon="0.098171">
        <ele>87.425299</ele>
        <time>2024-05-25T12:48:34.000Z</time>
      </trkpt>
      <trkpt lat="40.112838" lon="0.097896">
        <ele>87.770086</ele>
        <time>2024-05-25T12:48:39.000Z</time>
      </trkpt>
      <trkpt lat="40.112504" lon="0.097594">
        <ele>88.461916</ele>
        <time>2024-05-25T12:48:44.000Z</time>
      </trkpt>
      <trkpt lat="40.112236" lon="0.097309">
        <ele>89.06417</ele>
        <time>2024-05-25T12:48:48.000Z</time>
      </trkpt>
      <trkpt lat="40.111941" lon="0.096937">
        <ele>89.750751</ele>
        <time>2024-05-25T12:48:53.000Z</time>
      </trkpt>
      <trkpt lat="40.111636" lon="0.09645">
        <ele>90.600061</ele>
        <time>2024-05-25T12:48:58.000Z</time>
      </trkpt>
      <trkpt lat="40.111414" lon="0.095993">
        <ele>91.560447</ele>
        <time>2024-05-25T12:49:03.000Z</time>
      </trkpt>
      <trkpt lat="40.110967" lon="0.094967">
        <ele>93.667413</ele>
        <time>2024-05-25T12:49:13.000Z</time>
      </trkpt>
      <trkpt lat="40.110762" lon="0.094479">
        <ele>94.646894</ele>
        <time>2024-05-25T12:49:18.000Z</time>
      </trkpt>
      <trkpt lat="40.110741" lon="0.0942">
        <ele>94.866469</ele>
        <time>2024-05-25T12:49:20.000Z</time>
      </trkpt>
      <trkpt lat="40.110785" lon="0.094071">
        <ele>94.963474</ele>
        <time>2024-05-25T12:49:21.000Z</time>
      </trkpt>
      <trkpt lat="40.11079" lon="0.093935">
        <ele>95.06047</ele>
        <time>2024-05-25T12:49:22.000Z</time>
      </trkpt>
      <trkpt lat="40.110747" lon="0.093829">
        <ele>95.157254</ele>
        <time>2024-05-25T12:49:23.000Z</time>
      </trkpt>
      <trkpt lat="40.110661" lon="0.093741">
        <ele>95.254158</ele>
        <time>2024-05-25T12:49:24.000Z</time>
      </trkpt>
      <trkpt lat="40.110556" lon="0.09371">
        <ele>95.350795</ele>
        <time>2024-05-25T12:49:25.000Z</time>
      </trkpt>
      <trkpt lat="40.110227" lon="0.093419">
        <ele>95.726582</ele>
        <time>2024-05-25T12:49:29.000Z</time>
      </trkpt>
      <trkpt lat="40.110099" lon="0.093212">
        <ele>95.919212</ele>
        <time>2024-05-25T12:49:31.000Z</time>
      </trkpt>
      <trkpt lat="40.110028" lon="0.093096">
        <ele>96.016661</ele>
        <time>2024-05-25T12:49:32.000Z</time>
      </trkpt>
      <trkpt lat="40.109332" lon="0.091493">
        <ele>96.727926</ele>
        <time>2024-05-25T12:49:48.000Z</time>
      </trkpt>
      <trkpt lat="40.108965" lon="0.09028">
        <ele>97.435269</ele>
        <time>2024-05-25T12:49:59.000Z</time>
      </trkpt>
      <trkpt lat="40.108918" lon="0.090093">
        <ele>97.71353</ele>
        <time>2024-05-25T12:50:01.000Z</time>
      </trkpt>
      <trkpt lat="40.108916" lon="0.089881">
        <ele>97.979127</ele>
        <time>2024-05-25T12:50:03.000Z</time>
      </trkpt>
      <trkpt lat="40.108993" lon="0.088494">
        <ele>99.841762</ele>
        <time>2024-05-25T12:50:15.000Z</time>
      </trkpt>
      <trkpt lat="40.108926" lon="0.088303">
        <ele>100.114712</ele>
        <time>2024-05-25T12:50:17.000Z</time>
      </trkpt>
      <trkpt lat="40.1088" lon="0.088174">
        <ele>100.570789</ele>
        <time>2024-05-25T12:50:19.000Z</time>
      </trkpt>
      <trkpt lat="40.106964" lon="0.086772">
        <ele>105.389559</ele>
        <time>2024-05-25T12:50:43.000Z</time>
      </trkpt>
      <trkpt lat="40.106868" lon="0.08667">
        <ele>105.4151</ele>
        <time>2024-05-25T12:50:44.000Z</time>
      </trkpt>
      <trkpt lat="40.106844" lon="0.086557">
        <ele>105.432533</ele>
        <time>2024-05-25T12:50:45.000Z</time>
      </trkpt>
      <trkpt lat="40.106847" lon="0.086428">
        <ele>105.450834</ele>
        <time>2024-05-25T12:50:46.000Z</time>
      </trkpt>
      <trkpt lat="40.106874" lon="0.086283">
        <ele>105.474849</ele>
        <time>2024-05-25T12:50:47.000Z</time>
      </trkpt>
      <trkpt lat="40.107002" lon="0.085957">
        <ele>105.532046</ele>
        <time>2024-05-25T12:50:50.000Z</time>
      </trkpt>
      <trkpt lat="40.107058" lon="0.085872">
        <ele>105.549817</ele>
        <time>2024-05-25T12:50:51.000Z</time>
      </trkpt>
      <trkpt lat="40.107243" lon="0.08578">
        <ele>105.58803</ele>
        <time>2024-05-25T12:50:53.000Z</time>
      </trkpt>
      <trkpt lat="40.10776" lon="0.085707">
        <ele>106.120367</ele>
        <time>2024-05-25T12:50:59.000Z</time>
      </trkpt>
      <trkpt lat="40.107894" lon="0.08562">
        <ele>106.48731</ele>
        <time>2024-05-25T12:51:01.000Z</time>
      </trkpt>
      <trkpt lat="40.108199" lon="0.085252">
        <ele>107.446035</ele>
        <time>2024-05-25T12:51:06.000Z</time>
      </trkpt>
      <trkpt lat="40.108433" lon="0.084799">
        <ele>108.420553</ele>
        <time>2024-05-25T12:51:11.000Z</time>
      </trkpt>
      <trkpt lat="40.108586" lon="0.084306">
        <ele>109.404228</ele>
        <time>2024-05-25T12:51:16.000Z</time>
      </trkpt>
      <trkpt lat="40.108642" lon="0.083955">
        <ele>110.464585</ele>
        <time>2024-05-25T12:51:19.000Z</time>
      </trkpt>
      <trkpt lat="40.108625" lon="0.083756">
        <ele>111.761256</ele>
        <time>2024-05-25T12:51:21.000Z</time>
      </trkpt>
      <trkpt lat="40.108515" lon="0.08315">
        <ele>116.05322</ele>
        <time>2024-05-25T12:51:26.000Z</time>
      </trkpt>
      <trkpt lat="40.108248" lon="0.081665">
        <ele>126.24226</ele>
        <time>2024-05-25T12:51:39.000Z</time>
      </trkpt>
      <trkpt lat="40.108155" lon="0.080929">
        <ele>130.045711</ele>
        <time>2024-05-25T12:51:45.000Z</time>
      </trkpt>
      <trkpt lat="40.108104" lon="0.08073">
        <ele>131.228378</ele>
        <time>2024-05-25T12:51:47.000Z</time>
      </trkpt>
      <trkpt lat="40.107853" lon="0.080025">
        <ele>135.261763</ele>
        <time>2024-05-25T12:51:54.000Z</time>
      </trkpt>
      <trkpt lat="40.107731" lon="0.079761">
        <ele>136.906717</ele>
        <time>2024-05-25T12:51:57.000Z</time>
      </trkpt>
      <trkpt lat="40.107384" lon="0.079197">
        <ele>137.79905</ele>
        <time>2024-05-25T12:52:03.000Z</time>
      </trkpt>
      <trkpt lat="40.107169" lon="0.078918">
        <ele>137.591692</ele>
        <time>2024-05-25T12:52:06.000Z</time>
      </trkpt>
      <trkpt lat="40.106767" lon="0.078529">
        <ele>137.257391</ele>
        <time>2024-05-25T12:52:12.000Z</time>
      </trkpt>
      <trkpt lat="40.106495" lon="0.078172">
        <ele>136.988076</ele>
        <time>2024-05-25T12:52:16.000Z</time>
      </trkpt>
      <trkpt lat="40.106394" lon="0.078041">
        <ele>136.897594</ele>
        <time>2024-05-25T12:52:18.000Z</time>
      </trkpt>
      <trkpt lat="40.106307" lon="0.077878">
        <ele>136.419155</ele>
        <time>2024-05-25T12:52:20.000Z</time>
      </trkpt>
      <trkpt lat="40.106246" lon="0.077744">
        <ele>135.708765</ele>
        <time>2024-05-25T12:52:21.000Z</time>
      </trkpt>
      <trkpt lat="40.106199" lon="0.077092">
        <ele>132.71854</ele>
        <time>2024-05-25T12:52:27.000Z</time>
      </trkpt>
      <trkpt lat="40.10626" lon="0.07673">
        <ele>131.021483</ele>
        <time>2024-05-25T12:52:30.000Z</time>
      </trkpt>
      <trkpt lat="40.106325" lon="0.076531">
        <ele>130.052768</ele>
        <time>2024-05-25T12:52:32.000Z</time>
      </trkpt>
      <trkpt lat="40.10652" lon="0.076147">
        <ele>127.95217</ele>
        <time>2024-05-25T12:52:36.000Z</time>
      </trkpt>
      <trkpt lat="40.106675" lon="0.075989">
        <ele>126.834174</ele>
        <time>2024-05-25T12:52:38.000Z</time>
      </trkpt>
      <trkpt lat="40.106919" lon="0.075791">
        <ele>125.867595</ele>
        <time>2024-05-25T12:52:41.000Z</time>
      </trkpt>
      <trkpt lat="40.1079" lon="0.075084">
        <ele>124.378075</ele>
        <time>2024-05-25T12:52:53.000Z</time>
      </trkpt>
      <trkpt lat="40.107958" lon="0.074966">
        <ele>124.220437</ele>
        <time>2024-05-25T12:52:54.000Z</time>
      </trkpt>
      <trkpt lat="40.10802" lon="0.074798">
        <ele>124.024518</ele>
        <time>2024-05-25T12:52:56.000Z</time>
      </trkpt>
      <trkpt lat="40.108121" lon="0.074258">
        <ele>124.036729</ele>
        <time>2024-05-25T12:53:01.000Z</time>
      </trkpt>
      <trkpt lat="40.108081" lon="0.073973">
        <ele>124.482771</ele>
        <time>2024-05-25T12:53:03.000Z</time>
      </trkpt>
      <trkpt lat="40.107979" lon="0.073754">
        <ele>124.879862</ele>
        <time>2024-05-25T12:53:05.000Z</time>
      </trkpt>
      <trkpt lat="40.107233" lon="0.072371">
        <ele>127.442363</ele>
        <time>2024-05-25T12:53:19.000Z</time>
      </trkpt>
      <trkpt lat="40.10706" lon="0.071863">
        <ele>127.955257</ele>
        <time>2024-05-25T12:53:24.000Z</time>
      </trkpt>
      <trkpt lat="40.107059" lon="0.071718">
        <ele>128.085778</ele>
        <time>2024-05-25T12:53:25.000Z</time>
      </trkpt>
      <trkpt lat="40.107048" lon="0.071603">
        <ele>128.204138</ele>
        <time>2024-05-25T12:53:26.000Z</time>
      </trkpt>
      <trkpt lat="40.107086" lon="0.071464">
        <ele>128.3307</ele>
        <time>2024-05-25T12:53:27.000Z</time>
      </trkpt>
      <trkpt lat="40.107374" lon="0.070703">
        <ele>129.134776</ele>
        <time>2024-05-25T12:53:34.000Z</time>
      </trkpt>
      <trkpt lat="40.107561" lon="0.070168">
        <ele>129.72642</ele>
        <time>2024-05-25T12:53:39.000Z</time>
      </trkpt>
      <trkpt lat="40.107736" lon="0.069788">
        <ele>130.317063</ele>
        <time>2024-05-25T12:53:43.000Z</time>
      </trkpt>
      <trkpt lat="40.107817" lon="0.069535">
        <ele>130.661164</ele>
        <time>2024-05-25T12:53:45.000Z</time>
      </trkpt>
      <trkpt lat="40.107924" lon="0.069105">
        <ele>131.2548</ele>
        <time>2024-05-25T12:53:49.000Z</time>
      </trkpt>
      <trkpt lat="40.10806" lon="0.068072">
        <ele>132.619797</ele>
        <time>2024-05-25T12:53:58.000Z</time>
      </trkpt>
      <trkpt lat="40.108174" lon="0.067393">
        <ele>133.741308</ele>
        <time>2024-05-25T12:54:04.000Z</time>
      </trkpt>
      <trkpt lat="40.108221" lon="0.067171">
        <ele>134.112709</ele>
        <time>2024-05-25T12:54:06.000Z</time>
      </trkpt>
      <trkpt lat="40.108306" lon="0.06697">
        <ele>134.493386</ele>
        <time>2024-05-25T12:54:08.000Z</time>
      </trkpt>
      <trkpt lat="40.108729" lon="0.066249">
        <ele>135.925961</ele>
        <time>2024-05-25T12:54:16.000Z</time>
      </trkpt>
      <trkpt lat="40.108823" lon="0.06607">
        <ele>136.290119</ele>
        <time>2024-05-25T12:54:18.000Z</time>
      </trkpt>
      <trkpt lat="40.108946" lon="0.065697">
        <ele>136.896362</ele>
        <time>2024-05-25T12:54:21.000Z</time>
      </trkpt>
      <trkpt lat="40.109021" lon="0.065312">
        <ele>137.489672</ele>
        <time>2024-05-25T12:54:24.000Z</time>
      </trkpt>
      <trkpt lat="40.109093" lon="0.06506">
        <ele>137.91023</ele>
        <time>2024-05-25T12:54:26.000Z</time>
      </trkpt>
      <trkpt lat="40.109152" lon="0.064873">
        <ele>138.206735</ele>
        <time>2024-05-25T12:54:28.000Z</time>
      </trkpt>
      <trkpt lat="40.109299" lon="0.064638">
        <ele>138.668039</ele>
        <time>2024-05-25T12:54:31.000Z</time>
      </trkpt>
      <trkpt lat="40.109433" lon="0.064546">
        <ele>138.983994</ele>
        <time>2024-05-25T12:54:33.000Z</time>
      </trkpt>
      <trkpt lat="40.109798" lon="0.064443">
        <ele>139.705741</ele>
        <time>2024-05-25T12:54:37.000Z</time>
      </trkpt>
      <trkpt lat="40.110215" lon="0.064381">
        <ele>141.148565</ele>
        <time>2024-05-25T12:54:42.000Z</time>
      </trkpt>
      <trkpt lat="40.110396" lon="0.064279">
        <ele>141.875389</ele>
        <time>2024-05-25T12:54:44.000Z</time>
      </trkpt>
      <trkpt lat="40.110695" lon="0.063833">
        <ele>143.663806</ele>
        <time>2024-05-25T12:54:49.000Z</time>
      </trkpt>
      <trkpt lat="40.110741" lon="0.063704">
        <ele>144.110522</ele>
        <time>2024-05-25T12:54:50.000Z</time>
      </trkpt>
      <trkpt lat="40.11079" lon="0.063522">
        <ele>144.697722</ele>
        <time>2024-05-25T12:54:52.000Z</time>
      </trkpt>
      <trkpt lat="40.110876" lon="0.06292">
        <ele>146.487495</ele>
        <time>2024-05-25T12:54:57.000Z</time>
      </trkpt>
      <trkpt lat="40.110958" lon="0.061952">
        <ele>150.203486</ele>
        <time>2024-05-25T12:55:05.000Z</time>
      </trkpt>
      <trkpt lat="40.110949" lon="0.061922">
        <ele>150.355024</ele>
        <time>2024-05-25T12:55:05.000Z</time>
      </trkpt>
      <trkpt lat="40.111005" lon="0.061699">
        <ele>151.283887</ele>
        <time>2024-05-25T12:55:07.000Z</time>
      </trkpt>
      <trkpt lat="40.111075" lon="0.061507">
        <ele>152.087338</ele>
        <time>2024-05-25T12:55:09.000Z</time>
      </trkpt>
      <trkpt lat="40.111123" lon="0.061411">
        <ele>152.56739</ele>
        <time>2024-05-25T12:55:10.000Z</time>
      </trkpt>
      <trkpt lat="40.111269" lon="0.061091">
        <ele>154.073462</ele>
        <time>2024-05-25T12:55:13.000Z</time>
      </trkpt>
      <trkpt lat="40.11155" lon="0.06056">
        <ele>156.355441</ele>
        <time>2024-05-25T12:55:18.000Z</time>
      </trkpt>
      <trkpt lat="40.111615" lon="0.06047">
        <ele>156.546664</ele>
        <time>2024-05-25T12:55:19.000Z</time>
      </trkpt>
      <trkpt lat="40.111938" lon="0.060021">
        <ele>157.493726</ele>
        <time>2024-05-25T12:55:24.000Z</time>
      </trkpt>
      <trkpt lat="40.11217" lon="0.05938">
        <ele>158.54625</ele>
        <time>2024-05-25T12:55:30.000Z</time>
      </trkpt>
      <trkpt lat="40.112257" lon="0.059253">
        <ele>158.826547</ele>
        <time>2024-05-25T12:55:31.000Z</time>
      </trkpt>
      <trkpt lat="40.112369" lon="0.059145">
        <ele>159.085035</ele>
        <time>2024-05-25T12:55:33.000Z</time>
      </trkpt>
      <trkpt lat="40.113008" lon="0.05882">
        <ele>160.511858</ele>
        <time>2024-05-25T12:55:41.000Z</time>
      </trkpt>
      <trkpt lat="40.11317" lon="0.058766">
        <ele>160.878244</ele>
        <time>2024-05-25T12:55:43.000Z</time>
      </trkpt>
      <trkpt lat="40.113754" lon="0.058698">
        <ele>162.199485</ele>
        <time>2024-05-25T12:55:50.000Z</time>
      </trkpt>
      <trkpt lat="40.114218" lon="0.058534">
        <ele>163.275295</ele>
        <time>2024-05-25T12:55:55.000Z</time>
      </trkpt>
      <trkpt lat="40.114347" lon="0.058441">
        <ele>163.606117</ele>
        <time>2024-05-25T12:55:57.000Z</time>
      </trkpt>
      <trkpt lat="40.114449" lon="0.058348">
        <ele>163.957506</ele>
        <time>2024-05-25T12:55:58.000Z</time>
      </trkpt>
      <trkpt lat="40.114615" lon="0.058092">
        <ele>164.729824</ele>
        <time>2024-05-25T12:56:01.000Z</time>
      </trkpt>
      <trkpt lat="40.114674" lon="0.057915">
        <ele>165.224802</ele>
        <time>2024-05-25T12:56:03.000Z</time>
      </trkpt>
      <trkpt lat="40.114712" lon="0.057435">
        <ele>166.390957</ele>
        <time>2024-05-25T12:56:07.000Z</time>
      </trkpt>
      <trkpt lat="40.114694" lon="0.057242">
        <ele>166.870814</ele>
        <time>2024-05-25T12:56:09.000Z</time>
      </trkpt>
      <trkpt lat="40.114557" lon="0.056686">
        <ele>168.299449</ele>
        <time>2024-05-25T12:56:14.000Z</time>
      </trkpt>
      <trkpt lat="40.114258" lon="0.055085">
        <ele>174.329963</ele>
        <time>2024-05-25T12:56:28.000Z</time>
      </trkpt>
      <trkpt lat="40.114151" lon="0.054746">
        <ele>175.843959</ele>
        <time>2024-05-25T12:56:31.000Z</time>
      </trkpt>
      <trkpt lat="40.114059" lon="0.054502">
        <ele>177.05693</ele>
        <time>2024-05-25T12:56:33.000Z</time>
      </trkpt>
      <trkpt lat="40.113564" lon="0.05355">
        <ele>182.073982</ele>
        <time>2024-05-25T12:56:43.000Z</time>
      </trkpt>
      <trkpt lat="40.113458" lon="0.05325">
        <ele>183.602777</ele>
        <time>2024-05-25T12:56:46.000Z</time>
      </trkpt>
      <trkpt lat="40.113413" lon="0.053002">
        <ele>184.749525</ele>
        <time>2024-05-25T12:56:48.000Z</time>
      </trkpt>
      <trkpt lat="40.11331" lon="0.052048">
        <ele>189.144214</ele>
        <time>2024-05-25T12:56:56.000Z</time>
      </trkpt>
      <trkpt lat="40.113339" lon="0.051571">
        <ele>190.290031</ele>
        <time>2024-05-25T12:57:00.000Z</time>
      </trkpt>
      <trkpt lat="40.113363" lon="0.051352">
        <ele>190.373688</ele>
        <time>2024-05-25T12:57:02.000Z</time>
      </trkpt>
      <trkpt lat="40.113446" lon="0.05112">
        <ele>190.469865</ele>
        <time>2024-05-25T12:57:04.000Z</time>
      </trkpt>
      <trkpt lat="40.113614" lon="0.050738">
        <ele>190.635775</ele>
        <time>2024-05-25T12:57:08.000Z</time>
      </trkpt>
      <trkpt lat="40.114203" lon="0.049951">
        <ele>191.056157</ele>
        <time>2024-05-25T12:57:17.000Z</time>
      </trkpt>
      <trkpt lat="40.114299" lon="0.049618">
        <ele>191.644696</ele>
        <time>2024-05-25T12:57:20.000Z</time>
      </trkpt>
      <trkpt lat="40.114384" lon="0.049082">
        <ele>192.685602</ele>
        <time>2024-05-25T12:57:25.000Z</time>
      </trkpt>
      <trkpt lat="40.114426" lon="0.048964">
        <ele>192.967828</ele>
        <time>2024-05-25T12:57:26.000Z</time>
      </trkpt>
      <trkpt lat="40.11452" lon="0.048883">
        <ele>193.243317</ele>
        <time>2024-05-25T12:57:27.000Z</time>
      </trkpt>
      <trkpt lat="40.115548" lon="0.048258">
        <ele>196.853948</ele>
        <time>2024-05-25T12:57:40.000Z</time>
      </trkpt>
      <trkpt lat="40.116781" lon="0.047708">
        <ele>204.890594</ele>
        <time>2024-05-25T12:57:55.000Z</time>
      </trkpt>
      <trkpt lat="40.117099" lon="0.047593">
        <ele>206.914843</ele>
        <time>2024-05-25T12:57:59.000Z</time>
      </trkpt>
      <trkpt lat="40.11748" lon="0.047509">
        <ele>209.264509</ele>
        <time>2024-05-25T12:58:03.000Z</time>
      </trkpt>
      <trkpt lat="40.118498" lon="0.04742">
        <ele>215.332875</ele>
        <time>2024-05-25T12:58:14.000Z</time>
      </trkpt>
      <trkpt lat="40.118893" lon="0.047282">
        <ele>218.033911</ele>
        <time>2024-05-25T12:58:19.000Z</time>
      </trkpt>
      <trkpt lat="40.119788" lon="0.046808">
        <ele>226.849155</ele>
        <time>2024-05-25T12:58:30.000Z</time>
      </trkpt>
      <trkpt lat="40.120447" lon="0.046397">
        <ele>233.451789</ele>
        <time>2024-05-25T12:58:38.000Z</time>
      </trkpt>
      <trkpt lat="40.120818" lon="0.046118">
        <ele>237.767066</ele>
        <time>2024-05-25T12:58:43.000Z</time>
      </trkpt>
      <trkpt lat="40.121223" lon="0.04579">
        <ele>242.541357</ele>
        <time>2024-05-25T12:58:48.000Z</time>
      </trkpt>
      <trkpt lat="40.121529" lon="0.045383">
        <ele>246.971517</ele>
        <time>2024-05-25T12:58:53.000Z</time>
      </trkpt>
      <trkpt lat="40.121694" lon="0.045284">
        <ele>248.83685</ele>
        <time>2024-05-25T12:58:55.000Z</time>
      </trkpt>
      <trkpt lat="40.122243" lon="0.045143">
        <ele>252.98327</ele>
        <time>2024-05-25T12:59:01.000Z</time>
      </trkpt>
      <trkpt lat="40.122677" lon="0.045071">
        <ele>254.540561</ele>
        <time>2024-05-25T12:59:06.000Z</time>
      </trkpt>
      <trkpt lat="40.122717" lon="0.045061">
        <ele>254.6488</ele>
        <time>2024-05-25T12:59:06.000Z</time>
      </trkpt>
      <trkpt lat="40.122922" lon="0.044986">
        <ele>255.390344</ele>
        <time>2024-05-25T12:59:08.000Z</time>
      </trkpt>
      <trkpt lat="40.123339" lon="0.044767">
        <ele>257.000048</ele>
        <time>2024-05-25T12:59:13.000Z</time>
      </trkpt>
      <trkpt lat="40.123634" lon="0.044634">
        <ele>258.094811</ele>
        <time>2024-05-25T12:59:16.000Z</time>
      </trkpt>
      <trkpt lat="40.123848" lon="0.044563">
        <ele>258.385818</ele>
        <time>2024-05-25T12:59:18.000Z</time>
      </trkpt>
      <trkpt lat="40.124057" lon="0.04466">
        <ele>258.041934</ele>
        <time>2024-05-25T12:59:20.000Z</time>
      </trkpt>
      <trkpt lat="40.12416" lon="0.04481">
        <ele>257.801101</ele>
        <time>2024-05-25T12:59:22.000Z</time>
      </trkpt>
      <trkpt lat="40.124231" lon="0.044843">
        <ele>257.679374</ele>
        <time>2024-05-25T12:59:23.000Z</time>
      </trkpt>
      <trkpt lat="40.124371" lon="0.044833">
        <ele>257.437515</ele>
        <time>2024-05-25T12:59:25.000Z</time>
      </trkpt>
      <trkpt lat="40.124502" lon="0.044706">
        <ele>257.197015</ele>
        <time>2024-05-25T12:59:27.000Z</time>
      </trkpt>
      <trkpt lat="40.124765" lon="0.0446">
        <ele>256.743797</ele>
        <time>2024-05-25T12:59:30.000Z</time>
      </trkpt>
      <trkpt lat="40.125076" lon="0.044579">
        <ele>256.268838</ele>
        <time>2024-05-25T12:59:33.000Z</time>
      </trkpt>
      <trkpt lat="40.126656" lon="0.044652">
        <ele>254.089885</ele>
        <time>2024-05-25T12:59:51.000Z</time>
      </trkpt>
      <trkpt lat="40.127263" lon="0.044634">
        <ele>253.332156</ele>
        <time>2024-05-25T12:59:58.000Z</time>
      </trkpt>
      <trkpt lat="40.127973" lon="0.04454">
        <ele>253.175311</ele>
        <time>2024-05-25T13:00:06.000Z</time>
      </trkpt>
      <trkpt lat="40.128462" lon="0.044396">
        <ele>253.06477</ele>
        <time>2024-05-25T13:00:12.000Z</time>
      </trkpt>
      <trkpt lat="40.128863" lon="0.044213">
        <ele>252.972799</ele>
        <time>2024-05-25T13:00:17.000Z</time>
      </trkpt>
      <trkpt lat="40.129298" lon="0.043995">
        <ele>253.077587</ele>
        <time>2024-05-25T13:00:22.000Z</time>
      </trkpt>
      <trkpt lat="40.130049" lon="0.043537">
        <ele>253.424785</ele>
        <time>2024-05-25T13:00:31.000Z</time>
      </trkpt>
      <trkpt lat="40.130693" lon="0.043141">
        <ele>253.681513</ele>
        <time>2024-05-25T13:00:39.000Z</time>
      </trkpt>
      <trkpt lat="40.13109" lon="0.042912">
        <ele>253.672278</ele>
        <time>2024-05-25T13:00:44.000Z</time>
      </trkpt>
      <trkpt lat="40.131321" lon="0.042771">
        <ele>253.667187</ele>
        <time>2024-05-25T13:00:47.000Z</time>
      </trkpt>
      <trkpt lat="40.13214" lon="0.042265">
        <ele>253.648041</ele>
        <time>2024-05-25T13:00:57.000Z</time>
      </trkpt>
      <trkpt lat="40.132333" lon="0.042133">
        <ele>253.652932</ele>
        <time>2024-05-25T13:00:59.000Z</time>
      </trkpt>
      <trkpt lat="40.132456" lon="0.042052">
        <ele>253.665355</ele>
        <time>2024-05-25T13:01:01.000Z</time>
      </trkpt>
      <trkpt lat="40.132791" lon="0.041798">
        <ele>253.698088</ele>
        <time>2024-05-25T13:01:05.000Z</time>
      </trkpt>
      <trkpt lat="40.133596" lon="0.041009">
        <ele>253.784113</ele>
        <time>2024-05-25T13:01:16.000Z</time>
      </trkpt>
      <trkpt lat="40.133885" lon="0.040744">
        <ele>253.890915</ele>
        <time>2024-05-25T13:01:20.000Z</time>
      </trkpt>
      <trkpt lat="40.134228" lon="0.040488">
        <ele>254.103856</ele>
        <time>2024-05-25T13:01:24.000Z</time>
      </trkpt>
      <trkpt lat="40.134633" lon="0.040236">
        <ele>254.336596</ele>
        <time>2024-05-25T13:01:29.000Z</time>
      </trkpt>
      <trkpt lat="40.135119" lon="0.039994">
        <ele>254.607178</ele>
        <time>2024-05-25T13:01:35.000Z</time>
      </trkpt>
      <trkpt lat="40.137499" lon="0.039093">
        <ele>256.153905</ele>
        <time>2024-05-25T13:02:03.000Z</time>
      </trkpt>
      <trkpt lat="40.138607" lon="0.03872">
        <ele>257.16194</ele>
        <time>2024-05-25T13:02:16.000Z</time>
      </trkpt>
      <trkpt lat="40.139605" lon="0.038449">
        <ele>257.98128</ele>
        <time>2024-05-25T13:02:27.000Z</time>
      </trkpt>
      <trkpt lat="40.141696" lon="0.038049">
        <ele>259.169373</ele>
        <time>2024-05-25T13:02:50.000Z</time>
      </trkpt>
      <trkpt lat="40.142551" lon="0.037887">
        <ele>259.366746</ele>
        <time>2024-05-25T13:03:00.000Z</time>
      </trkpt>
      <trkpt lat="40.142718" lon="0.037867">
        <ele>259.310443</ele>
        <time>2024-05-25T13:03:02.000Z</time>
      </trkpt>
      <trkpt lat="40.142783" lon="0.037839">
        <ele>259.285227</ele>
        <time>2024-05-25T13:03:03.000Z</time>
      </trkpt>
      <trkpt lat="40.144091" lon="0.037667">
        <ele>258.834756</ele>
        <time>2024-05-25T13:03:18.000Z</time>
      </trkpt>
      <trkpt lat="40.144955" lon="0.037538">
        <ele>258.478791</ele>
        <time>2024-05-25T13:03:28.000Z</time>
      </trkpt>
      <trkpt lat="40.145309" lon="0.03752">
        <ele>258.32258</ele>
        <time>2024-05-25T13:03:32.000Z</time>
      </trkpt>
      <trkpt lat="40.145503" lon="0.037557">
        <ele>258.244873</ele>
        <time>2024-05-25T13:03:34.000Z</time>
      </trkpt>
      <trkpt lat="40.14562" lon="0.037602">
        <ele>258.188818</ele>
        <time>2024-05-25T13:03:35.000Z</time>
      </trkpt>
      <trkpt lat="40.145783" lon="0.03761">
        <ele>258.118266</ele>
        <time>2024-05-25T13:03:37.000Z</time>
      </trkpt>
      <trkpt lat="40.145939" lon="0.03766">
        <ele>258.051836</ele>
        <time>2024-05-25T13:03:39.000Z</time>
      </trkpt>
      <trkpt lat="40.146072" lon="0.037735">
        <ele>257.933166</ele>
        <time>2024-05-25T13:03:41.000Z</time>
      </trkpt>
      <trkpt lat="40.146177" lon="0.037731">
        <ele>257.841341</ele>
        <time>2024-05-25T13:03:42.000Z</time>
      </trkpt>
      <trkpt lat="40.146216" lon="0.037726">
        <ele>257.807126</ele>
        <time>2024-05-25T13:03:42.000Z</time>
      </trkpt>
      <trkpt lat="40.146453" lon="0.037753">
        <ele>257.580793</ele>
        <time>2024-05-25T13:03:45.000Z</time>
      </trkpt>
      <trkpt lat="40.146639" lon="0.037717">
        <ele>257.419416</ele>
        <time>2024-05-25T13:03:47.000Z</time>
      </trkpt>
      <trkpt lat="40.146826" lon="0.037607">
        <ele>257.231404</ele>
        <time>2024-05-25T13:03:49.000Z</time>
      </trkpt>
      <trkpt lat="40.146944" lon="0.037471">
        <ele>257.097111</ele>
        <time>2024-05-25T13:03:51.000Z</time>
      </trkpt>
      <trkpt lat="40.147057" lon="0.037307">
        <ele>256.950392</ele>
        <time>2024-05-25T13:03:53.000Z</time>
      </trkpt>
      <trkpt lat="40.147231" lon="0.036922">
        <ele>256.629924</ele>
        <time>2024-05-25T13:03:57.000Z</time>
      </trkpt>
      <trkpt lat="40.147369" lon="0.036718">
        <ele>256.444552</ele>
        <time>2024-05-25T13:03:59.000Z</time>
      </trkpt>
      <trkpt lat="40.147514" lon="0.036612">
        <ele>256.387409</ele>
        <time>2024-05-25T13:04:01.000Z</time>
      </trkpt>
      <trkpt lat="40.147662" lon="0.03657">
        <ele>256.340408</ele>
        <time>2024-05-25T13:04:03.000Z</time>
      </trkpt>
      <trkpt lat="40.14867" lon="0.036708">
        <ele>256.045307</ele>
        <time>2024-05-25T13:04:14.000Z</time>
      </trkpt>
      <trkpt lat="40.148908" lon="0.036781">
        <ele>255.976646</ele>
        <time>2024-05-25T13:04:17.000Z</time>
      </trkpt>
      <trkpt lat="40.150032" lon="0.037353">
        <ele>257.194446</ele>
        <time>2024-05-25T13:04:30.000Z</time>
      </trkpt>
      <trkpt lat="40.150216" lon="0.037463">
        <ele>257.45942</ele>
        <time>2024-05-25T13:04:32.000Z</time>
      </trkpt>
      <trkpt lat="40.151537" lon="0.038171">
        <ele>259.687602</ele>
        <time>2024-05-25T13:04:48.000Z</time>
      </trkpt>
      <trkpt lat="40.152066" lon="0.038463">
        <ele>260.703816</ele>
        <time>2024-05-25T13:04:54.000Z</time>
      </trkpt>
      <trkpt lat="40.152529" lon="0.038719">
        <ele>261.537591</ele>
        <time>2024-05-25T13:05:00.000Z</time>
      </trkpt>
      <trkpt lat="40.154047" lon="0.039533">
        <ele>263.709633</ele>
        <time>2024-05-25T13:05:18.000Z</time>
      </trkpt>
      <trkpt lat="40.15418" lon="0.039612">
        <ele>263.875193</ele>
        <time>2024-05-25T13:05:20.000Z</time>
      </trkpt>
      <trkpt lat="40.154424" lon="0.039727">
        <ele>264.122242</ele>
        <time>2024-05-25T13:05:23.000Z</time>
      </trkpt>
      <trkpt lat="40.155199" lon="0.040155">
        <ele>264.909715</ele>
        <time>2024-05-25T13:05:32.000Z</time>
      </trkpt>
      <trkpt lat="40.155725" lon="0.040433">
        <ele>265.448979</ele>
        <time>2024-05-25T13:05:38.000Z</time>
      </trkpt>
      <trkpt lat="40.156185" lon="0.040678">
        <ele>265.091465</ele>
        <time>2024-05-25T13:05:44.000Z</time>
      </trkpt>
      <trkpt lat="40.156266" lon="0.040781">
        <ele>264.973843</ele>
        <time>2024-05-25T13:05:45.000Z</time>
      </trkpt>
      <trkpt lat="40.156291" lon="0.040865">
        <ele>264.894786</ele>
        <time>2024-05-25T13:05:46.000Z</time>
      </trkpt>
      <trkpt lat="40.156375" lon="0.04086">
        <ele>264.814282</ele>
        <time>2024-05-25T13:05:47.000Z</time>
      </trkpt>
      <trkpt lat="40.156385" lon="0.040846">
        <ele>264.797218</ele>
        <time>2024-05-25T13:05:47.000Z</time>
      </trkpt>
      <trkpt lat="40.156415" lon="0.04076">
        <ele>264.717633</ele>
        <time>2024-05-25T13:05:48.000Z</time>
      </trkpt>
      <trkpt lat="40.156406" lon="0.040708">
        <ele>264.669886</ele>
        <time>2024-05-25T13:05:48.000Z</time>
      </trkpt>
      <trkpt lat="40.156412" lon="0.040532">
        <ele>264.529048</ele>
        <time>2024-05-25T13:05:49.000Z</time>
      </trkpt>
      <trkpt lat="40.156571" lon="0.040091">
        <ele>264.145234</ele>
        <time>2024-05-25T13:05:53.000Z</time>
      </trkpt>
      <trkpt lat="40.156768" lon="0.039528">
        <ele>263.633864</ele>
        <time>2024-05-25T13:05:58.000Z</time>
      </trkpt>
      <trkpt lat="40.156878" lon="0.039207">
        <ele>263.279052</ele>
        <time>2024-05-25T13:06:01.000Z</time>
      </trkpt>
      <trkpt lat="40.156917" lon="0.039141">
        <ele>263.186644</ele>
        <time>2024-05-25T13:06:02.000Z</time>
      </trkpt>
      <trkpt lat="40.157633" lon="0.037122">
        <ele>260.987605</ele>
        <time>2024-05-25T13:06:21.000Z</time>
      </trkpt>
      <trkpt lat="40.15781" lon="0.036627">
        <ele>260.700403</ele>
        <time>2024-05-25T13:06:26.000Z</time>
      </trkpt>
      <trkpt lat="40.158451" lon="0.034797">
        <ele>259.727222</ele>
        <time>2024-05-25T13:06:43.000Z</time>
      </trkpt>
      <trkpt lat="40.158823" lon="0.033801">
        <ele>259.304022</ele>
        <time>2024-05-25T13:06:52.000Z</time>
      </trkpt>
      <trkpt lat="40.16012" lon="0.030131">
        <ele>258.571671</ele>
        <time>2024-05-25T13:07:26.000Z</time>
      </trkpt>
      <trkpt lat="40.161413" lon="0.026471">
        <ele>258.125163</ele>
        <time>2024-05-25T13:08:00.000Z</time>
      </trkpt>
      <trkpt lat="40.16143" lon="0.026427">
        <ele>258.147067</ele>
        <time>2024-05-25T13:08:00.000Z</time>
      </trkpt>
      <trkpt lat="40.161482" lon="0.026259">
        <ele>258.226882</ele>
        <time>2024-05-25T13:08:02.000Z</time>
      </trkpt>
      <trkpt lat="40.161951" lon="0.024964">
        <ele>258.828488</ele>
        <time>2024-05-25T13:08:14.000Z</time>
      </trkpt>
      <trkpt lat="40.163393" lon="0.020907">
        <ele>263.834465</ele>
        <time>2024-05-25T13:08:52.000Z</time>
      </trkpt>
      <trkpt lat="40.163748" lon="0.01986">
        <ele>265.172311</ele>
        <time>2024-05-25T13:09:02.000Z</time>
      </trkpt>
      <trkpt lat="40.165253" lon="0.015635">
        <ele>269.875405</ele>
        <time>2024-05-25T13:09:42.000Z</time>
      </trkpt>
      <trkpt lat="40.165367" lon="0.015354">
        <ele>270.080946</ele>
        <time>2024-05-25T13:09:45.000Z</time>
      </trkpt>
      <trkpt lat="40.165451" lon="0.015221">
        <ele>270.191643</ele>
        <time>2024-05-25T13:09:46.000Z</time>
      </trkpt>
      <trkpt lat="40.165562" lon="0.015119">
        <ele>270.303088</ele>
        <time>2024-05-25T13:09:48.000Z</time>
      </trkpt>
      <trkpt lat="40.165651" lon="0.015048">
        <ele>270.399477</ele>
        <time>2024-05-25T13:09:49.000Z</time>
      </trkpt>
      <trkpt lat="40.165733" lon="0.014951">
        <ele>270.495146</ele>
        <time>2024-05-25T13:09:50.000Z</time>
      </trkpt>
      <trkpt lat="40.165758" lon="0.014856">
        <ele>270.558496</ele>
        <time>2024-05-25T13:09:51.000Z</time>
      </trkpt>
      <trkpt lat="40.16575" lon="0.014723">
        <ele>270.639457</ele>
        <time>2024-05-25T13:09:52.000Z</time>
      </trkpt>
      <trkpt lat="40.165688" lon="0.014621">
        <ele>270.721354</ele>
        <time>2024-05-25T13:09:53.000Z</time>
      </trkpt>
      <trkpt lat="40.165668" lon="0.014348">
        <ele>270.897088</ele>
        <time>2024-05-25T13:09:55.000Z</time>
      </trkpt>
      <trkpt lat="40.165814" lon="0.013131">
        <ele>271.344301</ele>
        <time>2024-05-25T13:10:05.000Z</time>
      </trkpt>
      <trkpt lat="40.165814" lon="0.012707">
        <ele>271.458469</ele>
        <time>2024-05-25T13:10:09.000Z</time>
      </trkpt>
      <trkpt lat="40.165762" lon="0.011872">
        <ele>271.68596</ele>
        <time>2024-05-25T13:10:16.000Z</time>
      </trkpt>
      <trkpt lat="40.165767" lon="0.011314">
        <ele>272.000342</ele>
        <time>2024-05-25T13:10:21.000Z</time>
      </trkpt>
      <trkpt lat="40.165778" lon="0.01077">
        <ele>272.359639</ele>
        <time>2024-05-25T13:10:26.000Z</time>
      </trkpt>
      <trkpt lat="40.165842" lon="0.010238">
        <ele>272.715766</ele>
        <time>2024-05-25T13:10:31.000Z</time>
      </trkpt>
      <trkpt lat="40.166021" lon="0.009343">
        <ele>273.337031</ele>
        <time>2024-05-25T13:10:39.000Z</time>
      </trkpt>
      <trkpt lat="40.166749" lon="0.006638">
        <ele>276.323432</ele>
        <time>2024-05-25T13:11:03.000Z</time>
      </trkpt>
      <trkpt lat="40.167407" lon="0.004648">
        <ele>278.381046</ele>
        <time>2024-05-25T13:11:21.000Z</time>
      </trkpt>
      <trkpt lat="40.167729" lon="0.003686">
        <ele>279.28759</ele>
        <time>2024-05-25T13:11:30.000Z</time>
      </trkpt>
      <trkpt lat="40.168474" lon="0.002081">
        <ele>280.653664</ele>
        <time>2024-05-25T13:11:46.000Z</time>
      </trkpt>
      <trkpt lat="40.169042" lon="0.001012">
        <ele>281.428533</ele>
        <time>2024-05-25T13:11:57.000Z</time>
      </trkpt>
      <trkpt lat="40.169565" lon="0.000134">
        <ele>281.369827</ele>
        <time>2024-05-25T13:12:06.000Z</time>
      </trkpt>
      <trkpt lat="40.16996" lon="-0.000539">
        <ele>281.277992</ele>
        <time>2024-05-25T13:12:13.000Z</time>
      </trkpt>
      <trkpt lat="40.170208" lon="-0.00104">
        <ele>281.0901</ele>
        <time>2024-05-25T13:12:18.000Z</time>
      </trkpt>
      <trkpt lat="40.170794" lon="-0.002308">
        <ele>279.267323</ele>
        <time>2024-05-25T13:12:31.000Z</time>
      </trkpt>
      <trkpt lat="40.170968" lon="-0.002735">
        <ele>278.683259</ele>
        <time>2024-05-25T13:12:35.000Z</time>
      </trkpt>
      <trkpt lat="40.171078" lon="-0.003087">
        <ele>278.323771</ele>
        <time>2024-05-25T13:12:38.000Z</time>
      </trkpt>
      <trkpt lat="40.17113" lon="-0.003467">
        <ele>278.274967</ele>
        <time>2024-05-25T13:12:41.000Z</time>
      </trkpt>
      <trkpt lat="40.171161" lon="-0.003803">
        <ele>278.232058</ele>
        <time>2024-05-25T13:12:44.000Z</time>
      </trkpt>
      <trkpt lat="40.171152" lon="-0.004814">
        <ele>278.106368</ele>
        <time>2024-05-25T13:12:53.000Z</time>
      </trkpt>
      <trkpt lat="40.171163" lon="-0.00526">
        <ele>278.050699</ele>
        <time>2024-05-25T13:12:57.000Z</time>
      </trkpt>
      <trkpt lat="40.171194" lon="-0.005576">
        <ele>278.538339</ele>
        <time>2024-05-25T13:13:00.000Z</time>
      </trkpt>
      <trkpt lat="40.171295" lon="-0.006055">
        <ele>279.509414</ele>
        <time>2024-05-25T13:13:04.000Z</time>
      </trkpt>
      <trkpt lat="40.172015" lon="-0.009415">
        <ele>286.785311</ele>
        <time>2024-05-25T13:13:34.000Z</time>
      </trkpt>
      <trkpt lat="40.172121" lon="-0.009768">
        <ele>287.596741</ele>
        <time>2024-05-25T13:13:37.000Z</time>
      </trkpt>
      <trkpt lat="40.172289" lon="-0.010159">
        <ele>288.239971</ele>
        <time>2024-05-25T13:13:41.000Z</time>
      </trkpt>
      <trkpt lat="40.172481" lon="-0.010472">
        <ele>288.741462</ele>
        <time>2024-05-25T13:13:44.000Z</time>
      </trkpt>
      <trkpt lat="40.172504" lon="-0.010542">
        <ele>288.847777</ele>
        <time>2024-05-25T13:13:45.000Z</time>
      </trkpt>
      <trkpt lat="40.172615" lon="-0.010731">
        <ele>289.120712</ele>
        <time>2024-05-25T13:13:47.000Z</time>
      </trkpt>
      <trkpt lat="40.173345" lon="-0.011982">
        <ele>291.083803</ele>
        <time>2024-05-25T13:14:00.000Z</time>
      </trkpt>
      <trkpt lat="40.173579" lon="-0.012198">
        <ele>291.546258</ele>
        <time>2024-05-25T13:14:03.000Z</time>
      </trkpt>
      <trkpt lat="40.173713" lon="-0.012205">
        <ele>291.75203</ele>
        <time>2024-05-25T13:14:04.000Z</time>
      </trkpt>
      <trkpt lat="40.173822" lon="-0.012339">
        <ele>291.976285</ele>
        <time>2024-05-25T13:14:06.000Z</time>
      </trkpt>
      <trkpt lat="40.173832" lon="-0.012458">
        <ele>292.131832</ele>
        <time>2024-05-25T13:14:07.000Z</time>
      </trkpt>
      <trkpt lat="40.1738" lon="-0.01257">
        <ele>292.287451</ele>
        <time>2024-05-25T13:14:08.000Z</time>
      </trkpt>
      <trkpt lat="40.173828" lon="-0.012786">
        <ele>292.542871</ele>
        <time>2024-05-25T13:14:10.000Z</time>
      </trkpt>
      <trkpt lat="40.1739" lon="-0.012985">
        <ele>292.820826</ele>
        <time>2024-05-25T13:14:12.000Z</time>
      </trkpt>
      <trkpt lat="40.174374" lon="-0.013795">
        <ele>294.290048</ele>
        <time>2024-05-25T13:14:21.000Z</time>
      </trkpt>
      <trkpt lat="40.174592" lon="-0.014079">
        <ele>295.043884</ele>
        <time>2024-05-25T13:14:24.000Z</time>
      </trkpt>
      <trkpt lat="40.174929" lon="-0.014482">
        <ele>296.17233</ele>
        <time>2024-05-25T13:14:29.000Z</time>
      </trkpt>
      <trkpt lat="40.175549" lon="-0.015177">
        <ele>298.201511</ele>
        <time>2024-05-25T13:14:38.000Z</time>
      </trkpt>
      <trkpt lat="40.176164" lon="-0.015952">
        <ele>300.597149</ele>
        <time>2024-05-25T13:14:47.000Z</time>
      </trkpt>
      <trkpt lat="40.176497" lon="-0.016439">
        <ele>301.991819</ele>
        <time>2024-05-25T13:14:53.000Z</time>
      </trkpt>
      <trkpt lat="40.177412" lon="-0.017697">
        <ele>305.218639</ele>
        <time>2024-05-25T13:15:08.000Z</time>
      </trkpt>
      <trkpt lat="40.178369" lon="-0.019014">
        <ele>307.402914</ele>
        <time>2024-05-25T13:15:23.000Z</time>
      </trkpt>
      <trkpt lat="40.179346" lon="-0.020347">
        <ele>307.716846</ele>
        <time>2024-05-25T13:15:39.000Z</time>
      </trkpt>
      <trkpt lat="40.179687" lon="-0.020857">
        <ele>306.881087</ele>
        <time>2024-05-25T13:15:45.000Z</time>
      </trkpt>
      <trkpt lat="40.180103" lon="-0.021628">
        <ele>305.719335</ele>
        <time>2024-05-25T13:15:53.000Z</time>
      </trkpt>
      <trkpt lat="40.180449" lon="-0.022478">
        <ele>304.413566</ele>
        <time>2024-05-25T13:16:01.000Z</time>
      </trkpt>
      <trkpt lat="40.18064" lon="-0.022894">
        <ele>303.647854</ele>
        <time>2024-05-25T13:16:05.000Z</time>
      </trkpt>
      <trkpt lat="40.181774" lon="-0.02478">
        <ele>300.938914</ele>
        <time>2024-05-25T13:16:25.000Z</time>
      </trkpt>
      <trkpt lat="40.181864" lon="-0.024952">
        <ele>300.839215</ele>
        <time>2024-05-25T13:16:27.000Z</time>
      </trkpt>
      <trkpt lat="40.182873" lon="-0.026721">
        <ele>301.294799</ele>
        <time>2024-05-25T13:16:46.000Z</time>
      </trkpt>
      <trkpt lat="40.183387" lon="-0.027635">
        <ele>302.484802</ele>
        <time>2024-05-25T13:16:56.000Z</time>
      </trkpt>
      <trkpt lat="40.183406" lon="-0.027686">
        <ele>302.549052</ele>
        <time>2024-05-25T13:16:56.000Z</time>
      </trkpt>
      <trkpt lat="40.183957" lon="-0.028643">
        <ele>304.714674</ele>
        <time>2024-05-25T13:17:06.000Z</time>
      </trkpt>
      <trkpt lat="40.184107" lon="-0.028358">
        <ele>305.370456</ele>
        <time>2024-05-25T13:17:09.000Z</time>
      </trkpt>
      <trkpt lat="40.184333" lon="-0.028039">
        <ele>306.21958</ele>
        <time>2024-05-25T13:17:13.000Z</time>
      </trkpt>
      <trkpt lat="40.184429" lon="-0.02789">
        <ele>306.564898</ele>
        <time>2024-05-25T13:17:15.000Z</time>
      </trkpt>
      <trkpt lat="40.184524" lon="-0.027757">
        <ele>306.913293</ele>
        <time>2024-05-25T13:17:17.000Z</time>
      </trkpt>
      <trkpt lat="40.184514" lon="-0.027761">
        <ele>306.916444</ele>
        <time>2024-05-25T13:17:17.000Z</time>
      </trkpt>
      <trkpt lat="40.184598" lon="-0.027635">
        <ele>307.210629</ele>
        <time>2024-05-25T13:17:18.000Z</time>
      </trkpt>
      <trkpt lat="40.184804" lon="-0.027344">
        <ele>307.737252</ele>
        <time>2024-05-25T13:17:21.000Z</time>
      </trkpt>
      <trkpt lat="40.185456" lon="-0.026359">
        <ele>309.533328</ele>
        <time>2024-05-25T13:17:32.000Z</time>
      </trkpt>
      <trkpt lat="40.186016" lon="-0.025409">
        <ele>310.670911</ele>
        <time>2024-05-25T13:17:42.000Z</time>
      </trkpt>
      <trkpt lat="40.186372" lon="-0.0247">
        <ele>311.064849</ele>
        <time>2024-05-25T13:17:49.000Z</time>
      </trkpt>
      <trkpt lat="40.186947" lon="-0.023376">
        <ele>311.815435</ele>
        <time>2024-05-25T13:18:02.000Z</time>
      </trkpt>
      <trkpt lat="40.187199" lon="-0.02275">
        <ele>312.208776</ele>
        <time>2024-05-25T13:18:08.000Z</time>
      </trkpt>
      <trkpt lat="40.187359" lon="-0.022453">
        <ele>312.411705</ele>
        <time>2024-05-25T13:18:11.000Z</time>
      </trkpt>
      <trkpt lat="40.187635" lon="-0.022027">
        <ele>312.710955</ele>
        <time>2024-05-25T13:18:16.000Z</time>
      </trkpt>
      <trkpt lat="40.187818" lon="-0.021801">
        <ele>312.993655</ele>
        <time>2024-05-25T13:18:19.000Z</time>
      </trkpt>
      <trkpt lat="40.188233" lon="-0.021349">
        <ele>313.843485</ele>
        <time>2024-05-25T13:18:25.000Z</time>
      </trkpt>
      <trkpt lat="40.188616" lon="-0.020972">
        <ele>314.577363</ele>
        <time>2024-05-25T13:18:30.000Z</time>
      </trkpt>
      <trkpt lat="40.189188" lon="-0.020397">
        <ele>315.681365</ele>
        <time>2024-05-25T13:18:38.000Z</time>
      </trkpt>
      <trkpt lat="40.1901" lon="-0.019475">
        <ele>317.861007</ele>
        <time>2024-05-25T13:18:51.000Z</time>
      </trkpt>
      <trkpt lat="40.190778" lon="-0.018785">
        <ele>319.573298</ele>
        <time>2024-05-25T13:19:01.000Z</time>
      </trkpt>
      <trkpt lat="40.191007" lon="-0.01856">
        <ele>320.205562</ele>
        <time>2024-05-25T13:19:04.000Z</time>
      </trkpt>
      <trkpt lat="40.192534" lon="-0.017078">
        <ele>324.920757</ele>
        <time>2024-05-25T13:19:25.000Z</time>
      </trkpt>
      <trkpt lat="40.194794" lon="-0.014977">
        <ele>333.599078</ele>
        <time>2024-05-25T13:19:56.000Z</time>
      </trkpt>
      <trkpt lat="40.199265" lon="-0.011096">
        <ele>357.080492</ele>
        <time>2024-05-25T13:20:56.000Z</time>
      </trkpt>
      <trkpt lat="40.199437" lon="-0.010884">
        <ele>357.959321</ele>
        <time>2024-05-25T13:20:59.000Z</time>
      </trkpt>
      <trkpt lat="40.199795" lon="-0.010275">
        <ele>359.018037</ele>
        <time>2024-05-25T13:21:06.000Z</time>
      </trkpt>
      <trkpt lat="40.199948" lon="-0.009869">
        <ele>359.633572</ele>
        <time>2024-05-25T13:21:10.000Z</time>
      </trkpt>
      <trkpt lat="40.200424" lon="-0.008387">
        <ele>361.063431</ele>
        <time>2024-05-25T13:21:24.000Z</time>
      </trkpt>
      <trkpt lat="40.200528" lon="-0.008089">
        <ele>361.043663</ele>
        <time>2024-05-25T13:21:27.000Z</time>
      </trkpt>
      <trkpt lat="40.202362" lon="-0.002302">
        <ele>360.210902</ele>
        <time>2024-05-25T13:22:20.000Z</time>
      </trkpt>
      <trkpt lat="40.203027" lon="-0.000219">
        <ele>358.061763</ele>
        <time>2024-05-25T13:22:39.000Z</time>
      </trkpt>
      <trkpt lat="40.203143" lon="0.00022">
        <ele>357.12525</ele>
        <time>2024-05-25T13:22:43.000Z</time>
      </trkpt>
      <trkpt lat="40.203183" lon="0.000598">
        <ele>356.3505</ele>
        <time>2024-05-25T13:22:46.000Z</time>
      </trkpt>
      <trkpt lat="40.203148" lon="0.001098">
        <ele>355.363903</ele>
        <time>2024-05-25T13:22:50.000Z</time>
      </trkpt>
      <trkpt lat="40.202701" lon="0.004054">
        <ele>348.529059</ele>
        <time>2024-05-25T13:23:16.000Z</time>
      </trkpt>
      <trkpt lat="40.20265" lon="0.00448">
        <ele>347.5529</ele>
        <time>2024-05-25T13:23:20.000Z</time>
      </trkpt>
      <trkpt lat="40.202659" lon="0.004887">
        <ele>346.8821</ele>
        <time>2024-05-25T13:23:23.000Z</time>
      </trkpt>
      <trkpt lat="40.202739" lon="0.005258">
        <ele>346.230896</ele>
        <time>2024-05-25T13:23:26.000Z</time>
      </trkpt>
      <trkpt lat="40.202874" lon="0.005577">
        <ele>345.630872</ele>
        <time>2024-05-25T13:23:29.000Z</time>
      </trkpt>
      <trkpt lat="40.204687" lon="0.008574">
        <ele>340.354746</ele>
        <time>2024-05-25T13:24:01.000Z</time>
      </trkpt>
      <trkpt lat="40.204874" lon="0.008853">
        <ele>339.956366</ele>
        <time>2024-05-25T13:24:04.000Z</time>
      </trkpt>
      <trkpt lat="40.205194" lon="0.009138">
        <ele>339.403019</ele>
        <time>2024-05-25T13:24:08.000Z</time>
      </trkpt>
      <trkpt lat="40.205449" lon="0.009363">
        <ele>338.953613</ele>
        <time>2024-05-25T13:24:11.000Z</time>
      </trkpt>
      <trkpt lat="40.205611" lon="0.009496">
        <ele>338.687608</ele>
        <time>2024-05-25T13:24:13.000Z</time>
      </trkpt>
      <trkpt lat="40.205624" lon="0.009507">
        <ele>338.650779</ele>
        <time>2024-05-25T13:24:13.000Z</time>
      </trkpt>
      <trkpt lat="40.205948" lon="0.009813">
        <ele>338.140763</ele>
        <time>2024-05-25T13:24:17.000Z</time>
      </trkpt>
      <trkpt lat="40.206056" lon="0.010021">
        <ele>338.169097</ele>
        <time>2024-05-25T13:24:19.000Z</time>
      </trkpt>
      <trkpt lat="40.206282" lon="0.01067">
        <ele>338.244917</ele>
        <time>2024-05-25T13:24:25.000Z</time>
      </trkpt>
      <trkpt lat="40.206072" lon="0.010033">
        <ele>338.320747</ele>
        <time>2024-05-25T13:24:31.000Z</time>
      </trkpt>
      <trkpt lat="40.205941" lon="0.00981">
        <ele>338.34907</ele>
        <time>2024-05-25T13:24:33.000Z</time>
      </trkpt>
      <trkpt lat="40.20564" lon="0.009499">
        <ele>338.566522</ele>
        <time>2024-05-25T13:24:37.000Z</time>
      </trkpt>
      <trkpt lat="40.205606" lon="0.009492">
        <ele>338.605499</ele>
        <time>2024-05-25T13:24:37.000Z</time>
      </trkpt>
      <trkpt lat="40.205444" lon="0.009363">
        <ele>338.887083</ele>
        <time>2024-05-25T13:24:39.000Z</time>
      </trkpt>
      <trkpt lat="40.205192" lon="0.009147">
        <ele>339.362735</ele>
        <time>2024-05-25T13:24:42.000Z</time>
      </trkpt>
      <trkpt lat="40.204872" lon="0.008842">
        <ele>339.948447</ele>
        <time>2024-05-25T13:24:46.000Z</time>
      </trkpt>
      <trkpt lat="40.204685" lon="0.008585">
        <ele>340.37012</ele>
        <time>2024-05-25T13:24:49.000Z</time>
      </trkpt>
      <trkpt lat="40.202884" lon="0.00558">
        <ele>345.621274</ele>
        <time>2024-05-25T13:25:21.000Z</time>
      </trkpt>
      <trkpt lat="40.202735" lon="0.005265">
        <ele>346.265156</ele>
        <time>2024-05-25T13:25:24.000Z</time>
      </trkpt>
      <trkpt lat="40.202653" lon="0.004879">
        <ele>346.963979</ele>
        <time>2024-05-25T13:25:27.000Z</time>
      </trkpt>
      <trkpt lat="40.202658" lon="0.004487">
        <ele>347.683818</ele>
        <time>2024-05-25T13:25:30.000Z</time>
      </trkpt>
      <trkpt lat="40.202696" lon="0.004061">
        <ele>348.480946</ele>
        <time>2024-05-25T13:25:34.000Z</time>
      </trkpt>
      <trkpt lat="40.203156" lon="0.001098">
        <ele>355.379066</ele>
        <time>2024-05-25T13:26:00.000Z</time>
      </trkpt>
      <trkpt lat="40.203167" lon="0.000597">
        <ele>356.297583</ele>
        <time>2024-05-25T13:26:04.000Z</time>
      </trkpt>
      <trkpt lat="40.203131" lon="0.00022">
        <ele>357.018862</ele>
        <time>2024-05-25T13:26:07.000Z</time>
      </trkpt>
      <trkpt lat="40.203025" lon="-0.000222">
        <ele>357.914015</ele>
        <time>2024-05-25T13:26:11.000Z</time>
      </trkpt>
      <trkpt lat="40.202374" lon="-0.002287">
        <ele>360.103448</ele>
        <time>2024-05-25T13:26:30.000Z</time>
      </trkpt>
      <trkpt lat="40.200535" lon="-0.008085">
        <ele>361.059411</ele>
        <time>2024-05-25T13:27:23.000Z</time>
      </trkpt>
      <trkpt lat="40.20044" lon="-0.008378">
        <ele>361.032974</ele>
        <time>2024-05-25T13:27:26.000Z</time>
      </trkpt>
      <trkpt lat="40.199965" lon="-0.009877">
        <ele>359.69797</ele>
        <time>2024-05-25T13:27:40.000Z</time>
      </trkpt>
      <trkpt lat="40.199804" lon="-0.010275">
        <ele>358.942546</ele>
        <time>2024-05-25T13:27:44.000Z</time>
      </trkpt>
      <trkpt lat="40.199442" lon="-0.010878">
        <ele>357.643276</ele>
        <time>2024-05-25T13:27:51.000Z</time>
      </trkpt>
      <trkpt lat="40.199274" lon="-0.011102">
        <ele>357.101253</ele>
        <time>2024-05-25T13:27:54.000Z</time>
      </trkpt>
      <trkpt lat="40.194786" lon="-0.01497">
        <ele>333.567667</ele>
        <time>2024-05-25T13:28:54.000Z</time>
      </trkpt>
      <trkpt lat="40.192538" lon="-0.017082">
        <ele>324.934726</ele>
        <time>2024-05-25T13:29:25.000Z</time>
      </trkpt>
      <trkpt lat="40.190999" lon="-0.018575">
        <ele>320.223445</ele>
        <time>2024-05-25T13:29:46.000Z</time>
      </trkpt>
      <trkpt lat="40.19077" lon="-0.018792">
        <ele>319.604251</ele>
        <time>2024-05-25T13:29:49.000Z</time>
      </trkpt>
      <trkpt lat="40.1901" lon="-0.019466">
        <ele>317.830521</ele>
        <time>2024-05-25T13:29:58.000Z</time>
      </trkpt>
      <trkpt lat="40.189188" lon="-0.020401">
        <ele>315.6967</ele>
        <time>2024-05-25T13:30:11.000Z</time>
      </trkpt>
      <trkpt lat="40.188631" lon="-0.020957">
        <ele>314.558112</ele>
        <time>2024-05-25T13:30:19.000Z</time>
      </trkpt>
      <trkpt lat="40.18824" lon="-0.02134">
        <ele>313.866348</ele>
        <time>2024-05-25T13:30:24.000Z</time>
      </trkpt>
      <trkpt lat="40.187804" lon="-0.021799">
        <ele>313.065266</ele>
        <time>2024-05-25T13:30:30.000Z</time>
      </trkpt>
      <trkpt lat="40.18764" lon="-0.022029">
        <ele>312.706901</ele>
        <time>2024-05-25T13:30:33.000Z</time>
      </trkpt>
      <trkpt lat="40.187371" lon="-0.02245">
        <ele>312.351244</ele>
        <time>2024-05-25T13:30:38.000Z</time>
      </trkpt>
      <trkpt lat="40.187209" lon="-0.022745">
        <ele>312.176359</ele>
        <time>2024-05-25T13:30:41.000Z</time>
      </trkpt>
      <trkpt lat="40.186934" lon="-0.023387">
        <ele>311.837324</ele>
        <time>2024-05-25T13:30:47.000Z</time>
      </trkpt>
      <trkpt lat="40.186379" lon="-0.024707">
        <ele>311.068732</ele>
        <time>2024-05-25T13:31:00.000Z</time>
      </trkpt>
      <trkpt lat="40.186016" lon="-0.025409">
        <ele>310.596508</ele>
        <time>2024-05-25T13:31:07.000Z</time>
      </trkpt>
      <trkpt lat="40.18546" lon="-0.026364">
        <ele>309.622557</ele>
        <time>2024-05-25T13:31:17.000Z</time>
      </trkpt>
      <trkpt lat="40.184792" lon="-0.027351">
        <ele>307.676683</ele>
        <time>2024-05-25T13:31:28.000Z</time>
      </trkpt>
      <trkpt lat="40.1846" lon="-0.027645">
        <ele>307.106142</ele>
        <time>2024-05-25T13:31:31.000Z</time>
      </trkpt>
      <trkpt lat="40.184515" lon="-0.027765">
        <ele>306.875533</ele>
        <time>2024-05-25T13:31:32.000Z</time>
      </trkpt>
      <trkpt lat="40.184515" lon="-0.027763">
        <ele>306.873093</ele>
        <time>2024-05-25T13:31:32.000Z</time>
      </trkpt>
      <trkpt lat="40.184435" lon="-0.027888">
        <ele>306.595638</ele>
        <time>2024-05-25T13:31:33.000Z</time>
      </trkpt>
      <trkpt lat="40.18433" lon="-0.028033">
        <ele>306.252238</ele>
        <time>2024-05-25T13:31:35.000Z</time>
      </trkpt>
      <trkpt lat="40.184112" lon="-0.028373">
        <ele>305.407804</ele>
        <time>2024-05-25T13:31:39.000Z</time>
      </trkpt>
      <trkpt lat="40.183961" lon="-0.028643">
        <ele>304.755654</ele>
        <time>2024-05-25T13:31:42.000Z</time>
      </trkpt>
      <trkpt lat="40.183415" lon="-0.02768">
        <ele>302.47616</ele>
        <time>2024-05-25T13:31:52.000Z</time>
      </trkpt>
      <trkpt lat="40.183387" lon="-0.02762">
        <ele>302.359929</ele>
        <time>2024-05-25T13:31:53.000Z</time>
      </trkpt>
      <trkpt lat="40.182867" lon="-0.026725">
        <ele>301.288586</ele>
        <time>2024-05-25T13:32:03.000Z</time>
      </trkpt>
      <trkpt lat="40.181863" lon="-0.024948">
        <ele>300.79689</ele>
        <time>2024-05-25T13:32:22.000Z</time>
      </trkpt>
      <trkpt lat="40.181784" lon="-0.024791">
        <ele>300.937681</ele>
        <time>2024-05-25T13:32:24.000Z</time>
      </trkpt>
      <trkpt lat="40.180643" lon="-0.022891">
        <ele>303.637404</ele>
        <time>2024-05-25T13:32:45.000Z</time>
      </trkpt>
      <trkpt lat="40.180444" lon="-0.022481">
        <ele>304.423496</ele>
        <time>2024-05-25T13:32:49.000Z</time>
      </trkpt>
      <trkpt lat="40.180116" lon="-0.021634">
        <ele>305.823172</ele>
        <time>2024-05-25T13:32:57.000Z</time>
      </trkpt>
      <trkpt lat="40.1797" lon="-0.020847">
        <ele>306.827314</ele>
        <time>2024-05-25T13:33:05.000Z</time>
      </trkpt>
      <trkpt lat="40.179347" lon="-0.020339">
        <ele>307.549706</ele>
        <time>2024-05-25T13:33:11.000Z</time>
      </trkpt>
      <trkpt lat="40.178372" lon="-0.019015">
        <ele>307.341996</ele>
        <time>2024-05-25T13:33:27.000Z</time>
      </trkpt>
      <trkpt lat="40.177413" lon="-0.017683">
        <ele>305.276811</ele>
        <time>2024-05-25T13:33:43.000Z</time>
      </trkpt>
      <trkpt lat="40.176512" lon="-0.01643">
        <ele>301.993724</ele>
        <time>2024-05-25T13:33:58.000Z</time>
      </trkpt>
      <trkpt lat="40.176166" lon="-0.015967">
        <ele>300.599787</ele>
        <time>2024-05-25T13:34:04.000Z</time>
      </trkpt>
      <trkpt lat="40.175552" lon="-0.015174">
        <ele>298.20541</ele>
        <time>2024-05-25T13:34:14.000Z</time>
      </trkpt>
      <trkpt lat="40.174929" lon="-0.014486">
        <ele>296.102773</ele>
        <time>2024-05-25T13:34:23.000Z</time>
      </trkpt>
      <trkpt lat="40.174582" lon="-0.014091">
        <ele>294.983797</ele>
        <time>2024-05-25T13:34:28.000Z</time>
      </trkpt>
      <trkpt lat="40.174378" lon="-0.013793">
        <ele>294.236291</ele>
        <time>2024-05-25T13:34:31.000Z</time>
      </trkpt>
      <trkpt lat="40.173903" lon="-0.01299">
        <ele>292.598092</ele>
        <time>2024-05-25T13:34:40.000Z</time>
      </trkpt>
      <trkpt lat="40.173665" lon="-0.012702">
        <ele>292.105406</ele>
        <time>2024-05-25T13:34:44.000Z</time>
      </trkpt>
      <trkpt lat="40.173563" lon="-0.012672">
        <ele>291.953705</ele>
        <time>2024-05-25T13:34:45.000Z</time>
      </trkpt>
      <trkpt lat="40.173487" lon="-0.01262">
        <ele>291.827181</ele>
        <time>2024-05-25T13:34:46.000Z</time>
      </trkpt>
      <trkpt lat="40.173444" lon="-0.012513">
        <ele>291.693394</ele>
        <time>2024-05-25T13:34:47.000Z</time>
      </trkpt>
      <trkpt lat="40.173456" lon="-0.012377">
        <ele>291.542146</ele>
        <time>2024-05-25T13:34:48.000Z</time>
      </trkpt>
      <trkpt lat="40.173353" lon="-0.011991">
        <ele>291.066124</ele>
        <time>2024-05-25T13:34:51.000Z</time>
      </trkpt>
      <trkpt lat="40.17261" lon="-0.010723">
        <ele>289.057552</ele>
        <time>2024-05-25T13:35:05.000Z</time>
      </trkpt>
      <trkpt lat="40.172512" lon="-0.010553">
        <ele>288.757185</ele>
        <time>2024-05-25T13:35:07.000Z</time>
      </trkpt>
      <trkpt lat="40.172475" lon="-0.010488">
        <ele>288.640184</ele>
        <time>2024-05-25T13:35:08.000Z</time>
      </trkpt>
      <trkpt lat="40.172292" lon="-0.010153">
        <ele>288.088282</ele>
        <time>2024-05-25T13:35:11.000Z</time>
      </trkpt>
      <trkpt lat="40.172125" lon="-0.00977">
        <ele>287.471972</ele>
        <time>2024-05-25T13:35:15.000Z</time>
      </trkpt>
      <trkpt lat="40.172024" lon="-0.009424">
        <ele>286.898425</ele>
        <time>2024-05-25T13:35:18.000Z</time>
      </trkpt>
      <trkpt lat="40.171298" lon="-0.006055">
        <ele>279.650691</ele>
        <time>2024-05-25T13:35:48.000Z</time>
      </trkpt>
      <trkpt lat="40.17119" lon="-0.00557">
        <ele>278.797782</ele>
        <time>2024-05-25T13:35:52.000Z</time>
      </trkpt>
      <trkpt lat="40.171169" lon="-0.005253">
        <ele>278.228865</ele>
        <time>2024-05-25T13:35:55.000Z</time>
      </trkpt>
      <trkpt lat="40.171145" lon="-0.004815">
        <ele>277.744655</ele>
        <time>2024-05-25T13:35:59.000Z</time>
      </trkpt>
      <trkpt lat="40.171158" lon="-0.003816">
        <ele>278.228683</ele>
        <time>2024-05-25T13:36:07.000Z</time>
      </trkpt>
      <trkpt lat="40.171148" lon="-0.003463">
        <ele>278.393859</ele>
        <time>2024-05-25T13:36:10.000Z</time>
      </trkpt>
      <trkpt lat="40.171072" lon="-0.003087">
        <ele>278.581873</ele>
        <time>2024-05-25T13:36:13.000Z</time>
      </trkpt>
      <trkpt lat="40.170974" lon="-0.002725">
        <ele>278.771497</ele>
        <time>2024-05-25T13:36:16.000Z</time>
      </trkpt>
      <trkpt lat="40.170804" lon="-0.002299">
        <ele>279.240415</ele>
        <time>2024-05-25T13:36:20.000Z</time>
      </trkpt>
      <trkpt lat="40.170209" lon="-0.001042">
        <ele>280.927884</ele>
        <time>2024-05-25T13:36:33.000Z</time>
      </trkpt>
      <trkpt lat="40.169948" lon="-0.000523">
        <ele>281.487536</ele>
        <time>2024-05-25T13:36:38.000Z</time>
      </trkpt>
      <trkpt lat="40.169566" lon="0.000135">
        <ele>281.421303</ele>
        <time>2024-05-25T13:36:45.000Z</time>
      </trkpt>
      <trkpt lat="40.169053" lon="0.001011">
        <ele>281.330957</ele>
        <time>2024-05-25T13:36:54.000Z</time>
      </trkpt>
      <trkpt lat="40.168475" lon="0.002089">
        <ele>280.656355</ele>
        <time>2024-05-25T13:37:05.000Z</time>
      </trkpt>
      <trkpt lat="40.167736" lon="0.003682">
        <ele>279.306878</ele>
        <time>2024-05-25T13:37:21.000Z</time>
      </trkpt>
      <trkpt lat="40.167398" lon="0.004651">
        <ele>278.374209</ele>
        <time>2024-05-25T13:37:30.000Z</time>
      </trkpt>
      <trkpt lat="40.16675" lon="0.006653">
        <ele>276.309683</ele>
        <time>2024-05-25T13:37:48.000Z</time>
      </trkpt>
      <trkpt lat="40.166012" lon="0.009358">
        <ele>273.379024</ele>
        <time>2024-05-25T13:38:12.000Z</time>
      </trkpt>
      <trkpt lat="40.165844" lon="0.01023">
        <ele>272.648154</ele>
        <time>2024-05-25T13:38:20.000Z</time>
      </trkpt>
      <trkpt lat="40.16578" lon="0.010767">
        <ele>272.334724</ele>
        <time>2024-05-25T13:38:25.000Z</time>
      </trkpt>
      <trkpt lat="40.165756" lon="0.011299">
        <ele>272.0185</ele>
        <time>2024-05-25T13:38:30.000Z</time>
      </trkpt>
      <trkpt lat="40.165771" lon="0.011879">
        <ele>271.687572</ele>
        <time>2024-05-25T13:38:35.000Z</time>
      </trkpt>
      <trkpt lat="40.165817" lon="0.012702">
        <ele>271.352755</ele>
        <time>2024-05-25T13:38:42.000Z</time>
      </trkpt>
      <trkpt lat="40.16581" lon="0.013136">
        <ele>271.214222</ele>
        <time>2024-05-25T13:38:46.000Z</time>
      </trkpt>
      <trkpt lat="40.165669" lon="0.014354">
        <ele>270.804848</ele>
        <time>2024-05-25T13:38:56.000Z</time>
      </trkpt>
      <trkpt lat="40.165621" lon="0.014468">
        <ele>270.742501</ele>
        <time>2024-05-25T13:38:57.000Z</time>
      </trkpt>
      <trkpt lat="40.165559" lon="0.014534">
        <ele>270.664258</ele>
        <time>2024-05-25T13:38:58.000Z</time>
      </trkpt>
      <trkpt lat="40.165453" lon="0.014558">
        <ele>270.551148</ele>
        <time>2024-05-25T13:38:59.000Z</time>
      </trkpt>
      <trkpt lat="40.165382" lon="0.014629">
        <ele>270.470756</ele>
        <time>2024-05-25T13:39:00.000Z</time>
      </trkpt>
      <trkpt lat="40.165352" lon="0.014722">
        <ele>270.395171</ele>
        <time>2024-05-25T13:39:01.000Z</time>
      </trkpt>
      <trkpt lat="40.165356" lon="0.014742">
        <ele>270.392165</ele>
        <time>2024-05-25T13:39:01.000Z</time>
      </trkpt>
      <trkpt lat="40.165376" lon="0.015006">
        <ele>270.189943</ele>
        <time>2024-05-25T13:39:03.000Z</time>
      </trkpt>
      <trkpt lat="40.165379" lon="0.015182">
        <ele>270.046638</ele>
        <time>2024-05-25T13:39:04.000Z</time>
      </trkpt>
      <trkpt lat="40.16535" lon="0.015343">
        <ele>269.92791</ele>
        <time>2024-05-25T13:39:05.000Z</time>
      </trkpt>
      <trkpt lat="40.165263" lon="0.015648">
        <ele>269.685883</ele>
        <time>2024-05-25T13:39:08.000Z</time>
      </trkpt>
      <trkpt lat="40.163764" lon="0.019872">
        <ele>265.126931</ele>
        <time>2024-05-25T13:39:48.000Z</time>
      </trkpt>
      <trkpt lat="40.163397" lon="0.020909">
        <ele>263.835523</ele>
        <time>2024-05-25T13:39:58.000Z</time>
      </trkpt>
      <trkpt lat="40.161948" lon="0.024967">
        <ele>258.665366</ele>
        <time>2024-05-25T13:40:36.000Z</time>
      </trkpt>
      <trkpt lat="40.161479" lon="0.026251">
        <ele>258.275987</ele>
        <time>2024-05-25T13:40:48.000Z</time>
      </trkpt>
      <trkpt lat="40.161429" lon="0.026424">
        <ele>258.229047</ele>
        <time>2024-05-25T13:40:50.000Z</time>
      </trkpt>
      <trkpt lat="40.161402" lon="0.026475">
        <ele>258.216169</ele>
        <time>2024-05-25T13:40:51.000Z</time>
      </trkpt>
      <trkpt lat="40.160106" lon="0.030144">
        <ele>258.571606</ele>
        <time>2024-05-25T13:41:25.000Z</time>
      </trkpt>
      <trkpt lat="40.158818" lon="0.033793">
        <ele>259.253926</ele>
        <time>2024-05-25T13:41:59.000Z</time>
      </trkpt>
      <trkpt lat="40.158447" lon="0.034798">
        <ele>259.724645</ele>
        <time>2024-05-25T13:42:08.000Z</time>
      </trkpt>
      <trkpt lat="40.157806" lon="0.036613">
        <ele>260.728019</ele>
        <time>2024-05-25T13:42:25.000Z</time>
      </trkpt>
      <trkpt lat="40.15764" lon="0.037122">
        <ele>261.043663</ele>
        <time>2024-05-25T13:42:30.000Z</time>
      </trkpt>
      <trkpt lat="40.156918" lon="0.039146">
        <ele>263.117065</ele>
        <time>2024-05-25T13:42:49.000Z</time>
      </trkpt>
      <trkpt lat="40.156878" lon="0.039216">
        <ele>263.214142</ele>
        <time>2024-05-25T13:42:50.000Z</time>
      </trkpt>
      <trkpt lat="40.156782" lon="0.039524">
        <ele>263.586818</ele>
        <time>2024-05-25T13:42:53.000Z</time>
      </trkpt>
      <trkpt lat="40.156573" lon="0.0401">
        <ele>264.176567</ele>
        <time>2024-05-25T13:42:58.000Z</time>
      </trkpt>
      <trkpt lat="40.15642" lon="0.040528">
        <ele>264.379369</ele>
        <time>2024-05-25T13:43:02.000Z</time>
      </trkpt>
      <trkpt lat="40.156315" lon="0.040667">
        <ele>264.456385</ele>
        <time>2024-05-25T13:43:04.000Z</time>
      </trkpt>
      <trkpt lat="40.156281" lon="0.040702">
        <ele>264.481854</ele>
        <time>2024-05-25T13:43:04.000Z</time>
      </trkpt>
      <trkpt lat="40.156168" lon="0.040685">
        <ele>264.540287</ele>
        <time>2024-05-25T13:43:05.000Z</time>
      </trkpt>
      <trkpt lat="40.156116" lon="0.04064">
        <ele>264.575551</ele>
        <time>2024-05-25T13:43:06.000Z</time>
      </trkpt>
      <trkpt lat="40.156108" lon="0.04064">
        <ele>264.582649</ele>
        <time>2024-05-25T13:43:06.000Z</time>
      </trkpt>
      <trkpt lat="40.15608" lon="0.04062">
        <ele>264.602384</ele>
        <time>2024-05-25T13:43:06.000Z</time>
      </trkpt>
      <trkpt lat="40.155972" lon="0.040571">
        <ele>264.667521</ele>
        <time>2024-05-25T13:43:07.000Z</time>
      </trkpt>
      <trkpt lat="40.155709" lon="0.040424">
        <ele>264.815035</ele>
        <time>2024-05-25T13:43:10.000Z</time>
      </trkpt>
      <trkpt lat="40.155185" lon="0.040146">
        <ele>265.03065</ele>
        <time>2024-05-25T13:43:16.000Z</time>
      </trkpt>
      <trkpt lat="40.154431" lon="0.039739">
        <ele>264.087478</ele>
        <time>2024-05-25T13:43:25.000Z</time>
      </trkpt>
      <trkpt lat="40.154183" lon="0.03961">
        <ele>263.791582</ele>
        <time>2024-05-25T13:43:28.000Z</time>
      </trkpt>
      <trkpt lat="40.15405" lon="0.039536">
        <ele>263.630957</ele>
        <time>2024-05-25T13:43:30.000Z</time>
      </trkpt>
      <trkpt lat="40.152522" lon="0.038712">
        <ele>261.446474</ele>
        <time>2024-05-25T13:43:48.000Z</time>
      </trkpt>
      <trkpt lat="40.15207" lon="0.038472">
        <ele>260.749053</ele>
        <time>2024-05-25T13:43:53.000Z</time>
      </trkpt>
      <trkpt lat="40.151532" lon="0.038166">
        <ele>259.770694</ele>
        <time>2024-05-25T13:44:00.000Z</time>
      </trkpt>
      <trkpt lat="40.150222" lon="0.037453">
        <ele>257.277091</ele>
        <time>2024-05-25T13:44:16.000Z</time>
      </trkpt>
      <trkpt lat="40.150029" lon="0.037366">
        <ele>257.102213</ele>
        <time>2024-05-25T13:44:18.000Z</time>
      </trkpt>
      <trkpt lat="40.148894" lon="0.036769">
        <ele>256.025779</ele>
        <time>2024-05-25T13:44:32.000Z</time>
      </trkpt>
      <trkpt lat="40.14868" lon="0.0367">
        <ele>255.817084</ele>
        <time>2024-05-25T13:44:34.000Z</time>
      </trkpt>
      <trkpt lat="40.147662" lon="0.036563">
        <ele>255.991836</ele>
        <time>2024-05-25T13:44:45.000Z</time>
      </trkpt>
      <trkpt lat="40.147507" lon="0.036619">
        <ele>256.039239</ele>
        <time>2024-05-25T13:44:47.000Z</time>
      </trkpt>
      <trkpt lat="40.147372" lon="0.036712">
        <ele>256.085428</ele>
        <time>2024-05-25T13:44:49.000Z</time>
      </trkpt>
      <trkpt lat="40.147237" lon="0.036922">
        <ele>256.146079</ele>
        <time>2024-05-25T13:44:51.000Z</time>
      </trkpt>
      <trkpt lat="40.147047" lon="0.037307">
        <ele>256.250942</ele>
        <time>2024-05-25T13:44:55.000Z</time>
      </trkpt>
      <trkpt lat="40.146939" lon="0.037484">
        <ele>256.334567</ele>
        <time>2024-05-25T13:44:57.000Z</time>
      </trkpt>
      <trkpt lat="40.146723" lon="0.037602">
        <ele>256.458044</ele>
        <time>2024-05-25T13:45:00.000Z</time>
      </trkpt>
      <trkpt lat="40.146612" lon="0.037602">
        <ele>256.52083</ele>
        <time>2024-05-25T13:45:01.000Z</time>
      </trkpt>
      <trkpt lat="40.146504" lon="0.037562">
        <ele>256.581531</ele>
        <time>2024-05-25T13:45:02.000Z</time>
      </trkpt>
      <trkpt lat="40.146431" lon="0.037451">
        <ele>256.643855</ele>
        <time>2024-05-25T13:45:03.000Z</time>
      </trkpt>
      <trkpt lat="40.146433" lon="0.037295">
        <ele>256.700751</ele>
        <time>2024-05-25T13:45:04.000Z</time>
      </trkpt>
      <trkpt lat="40.146395" lon="0.037128">
        <ele>256.775356</ele>
        <time>2024-05-25T13:45:05.000Z</time>
      </trkpt>
      <trkpt lat="40.146381" lon="0.037108">
        <ele>256.781389</ele>
        <time>2024-05-25T13:45:05.000Z</time>
      </trkpt>
      <trkpt lat="40.146392" lon="0.037106">
        <ele>256.786107</ele>
        <time>2024-05-25T13:45:05.000Z</time>
      </trkpt>
      <trkpt lat="40.146346" lon="0.037065">
        <ele>256.812635</ele>
        <time>2024-05-25T13:45:06.000Z</time>
      </trkpt>
      <trkpt lat="40.146303" lon="0.036993">
        <ele>256.843409</ele>
        <time>2024-05-25T13:45:07.000Z</time>
      </trkpt>
      <trkpt lat="40.146134" lon="0.036934">
        <ele>256.938152</ele>
        <time>2024-05-25T13:45:09.000Z</time>
      </trkpt>
      <trkpt lat="40.146001" lon="0.03697">
        <ele>257.012045</ele>
        <time>2024-05-25T13:45:11.000Z</time>
      </trkpt>
      <trkpt lat="40.14589" lon="0.037072">
        <ele>257.086596</ele>
        <time>2024-05-25T13:45:13.000Z</time>
      </trkpt>
      <trkpt lat="40.145834" lon="0.037223">
        <ele>257.154425</ele>
        <time>2024-05-25T13:45:14.000Z</time>
      </trkpt>
      <trkpt lat="40.145827" lon="0.037386">
        <ele>257.221533</ele>
        <time>2024-05-25T13:45:15.000Z</time>
      </trkpt>
      <trkpt lat="40.14575" lon="0.037487">
        <ele>257.315396</ele>
        <time>2024-05-25T13:45:16.000Z</time>
      </trkpt>
      <trkpt lat="40.145603" lon="0.037566">
        <ele>257.435888</ele>
        <time>2024-05-25T13:45:18.000Z</time>
      </trkpt>
      <trkpt lat="40.145498" lon="0.037556">
        <ele>257.526363</ele>
        <time>2024-05-25T13:45:19.000Z</time>
      </trkpt>
      <trkpt lat="40.145321" lon="0.037515">
        <ele>257.67365</ele>
        <time>2024-05-25T13:45:21.000Z</time>
      </trkpt>
      <trkpt lat="40.144955" lon="0.037542">
        <ele>257.96975</ele>
        <time>2024-05-25T13:45:25.000Z</time>
      </trkpt>
      <trkpt lat="40.144099" lon="0.03767">
        <ele>258.651686</ele>
        <time>2024-05-25T13:45:35.000Z</time>
      </trkpt>
      <trkpt lat="40.142787" lon="0.037838">
        <ele>259.219826</ele>
        <time>2024-05-25T13:45:50.000Z</time>
      </trkpt>
      <trkpt lat="40.142703" lon="0.037868">
        <ele>259.25162</ele>
        <time>2024-05-25T13:45:51.000Z</time>
      </trkpt>
      <trkpt lat="40.142556" lon="0.037881">
        <ele>259.322658</ele>
        <time>2024-05-25T13:45:53.000Z</time>
      </trkpt>
      <trkpt lat="40.141698" lon="0.038038">
        <ele>259.180892</ele>
        <time>2024-05-25T13:46:03.000Z</time>
      </trkpt>
      <trkpt lat="40.139612" lon="0.038457">
        <ele>257.980279</ele>
        <time>2024-05-25T13:46:26.000Z</time>
      </trkpt>
      <trkpt lat="40.138617" lon="0.038728">
        <ele>257.154629</ele>
        <time>2024-05-25T13:46:37.000Z</time>
      </trkpt>
      <trkpt lat="40.137496" lon="0.039096">
        <ele>256.162238</ele>
        <time>2024-05-25T13:46:50.000Z</time>
      </trkpt>
      <trkpt lat="40.135115" lon="0.039996">
        <ele>254.605201</ele>
        <time>2024-05-25T13:47:18.000Z</time>
      </trkpt>
      <trkpt lat="40.134629" lon="0.040229">
        <ele>254.339042</ele>
        <time>2024-05-25T13:47:24.000Z</time>
      </trkpt>
      <trkpt lat="40.13423" lon="0.040479">
        <ele>254.1101</ele>
        <time>2024-05-25T13:47:29.000Z</time>
      </trkpt>
      <trkpt lat="40.133888" lon="0.040756">
        <ele>253.900638</ele>
        <time>2024-05-25T13:47:33.000Z</time>
      </trkpt>
      <trkpt lat="40.133602" lon="0.041015">
        <ele>253.767076</ele>
        <time>2024-05-25T13:47:37.000Z</time>
      </trkpt>
      <trkpt lat="40.132785" lon="0.041793">
        <ele>253.700315</ele>
        <time>2024-05-25T13:47:48.000Z</time>
      </trkpt>
      <trkpt lat="40.132462" lon="0.042056">
        <ele>253.674902</ele>
        <time>2024-05-25T13:47:52.000Z</time>
      </trkpt>
      <trkpt lat="40.132333" lon="0.042137">
        <ele>253.665248</ele>
        <time>2024-05-25T13:47:54.000Z</time>
      </trkpt>
      <trkpt lat="40.132158" lon="0.042267">
        <ele>253.655139</ele>
        <time>2024-05-25T13:47:56.000Z</time>
      </trkpt>
      <trkpt lat="40.131326" lon="0.042769">
        <ele>253.660207</ele>
        <time>2024-05-25T13:48:06.000Z</time>
      </trkpt>
      <trkpt lat="40.131103" lon="0.042909">
        <ele>253.661548</ele>
        <time>2024-05-25T13:48:09.000Z</time>
      </trkpt>
      <trkpt lat="40.130705" lon="0.043139">
        <ele>253.663988</ele>
        <time>2024-05-25T13:48:14.000Z</time>
      </trkpt>
      <trkpt lat="40.130064" lon="0.04354">
        <ele>253.434699</ele>
        <time>2024-05-25T13:48:22.000Z</time>
      </trkpt>
      <trkpt lat="40.12928" lon="0.043993">
        <ele>253.086622</ele>
        <time>2024-05-25T13:48:32.000Z</time>
      </trkpt>
      <trkpt lat="40.12887" lon="0.04422">
        <ele>252.940307</ele>
        <time>2024-05-25T13:48:37.000Z</time>
      </trkpt>
      <trkpt lat="40.128466" lon="0.044393">
        <ele>253.052866</ele>
        <time>2024-05-25T13:48:42.000Z</time>
      </trkpt>
      <trkpt lat="40.127967" lon="0.044527">
        <ele>253.188175</ele>
        <time>2024-05-25T13:48:48.000Z</time>
      </trkpt>
      <trkpt lat="40.127254" lon="0.044623">
        <ele>253.380141</ele>
        <time>2024-05-25T13:48:56.000Z</time>
      </trkpt>
      <trkpt lat="40.126652" lon="0.044647">
        <ele>254.136215</ele>
        <time>2024-05-25T13:49:03.000Z</time>
      </trkpt>
      <trkpt lat="40.125064" lon="0.044563">
        <ele>256.468317</ele>
        <time>2024-05-25T13:49:21.000Z</time>
      </trkpt>
      <trkpt lat="40.124764" lon="0.0445">
        <ele>256.955236</ele>
        <time>2024-05-25T13:49:24.000Z</time>
      </trkpt>
      <trkpt lat="40.124507" lon="0.044392">
        <ele>257.371738</ele>
        <time>2024-05-25T13:49:27.000Z</time>
      </trkpt>
      <trkpt lat="40.124439" lon="0.044263">
        <ele>257.570228</ele>
        <time>2024-05-25T13:49:28.000Z</time>
      </trkpt>
      <trkpt lat="40.124278" lon="0.044195">
        <ele>257.809212</ele>
        <time>2024-05-25T13:49:30.000Z</time>
      </trkpt>
      <trkpt lat="40.124136" lon="0.044264">
        <ele>258.051176</ele>
        <time>2024-05-25T13:49:32.000Z</time>
      </trkpt>
      <trkpt lat="40.124046" lon="0.044416">
        <ele>258.294219</ele>
        <time>2024-05-25T13:49:34.000Z</time>
      </trkpt>
      <trkpt lat="40.123854" lon="0.044558">
        <ele>258.640489</ele>
        <time>2024-05-25T13:49:36.000Z</time>
      </trkpt>
      <trkpt lat="40.123638" lon="0.044634">
        <ele>258.423175</ele>
        <time>2024-05-25T13:49:38.000Z</time>
      </trkpt>
      <trkpt lat="40.123337" lon="0.044764">
        <ele>257.25479</ele>
        <time>2024-05-25T13:49:42.000Z</time>
      </trkpt>
      <trkpt lat="40.122909" lon="0.045">
        <ele>255.536842</ele>
        <time>2024-05-25T13:49:47.000Z</time>
      </trkpt>
      <trkpt lat="40.122704" lon="0.045075">
        <ele>254.745413</ele>
        <time>2024-05-25T13:49:49.000Z</time>
      </trkpt>
      <trkpt lat="40.122671" lon="0.045077">
        <ele>254.629906</ele>
        <time>2024-05-25T13:49:49.000Z</time>
      </trkpt>
      <trkpt lat="40.122239" lon="0.045132">
        <ele>252.967879</ele>
        <time>2024-05-25T13:49:54.000Z</time>
      </trkpt>
      <trkpt lat="40.121706" lon="0.045283">
        <ele>248.885503</ele>
        <time>2024-05-25T13:50:00.000Z</time>
      </trkpt>
      <trkpt lat="40.121537" lon="0.045389">
        <ele>247.012118</ele>
        <time>2024-05-25T13:50:02.000Z</time>
      </trkpt>
      <trkpt lat="40.121211" lon="0.04579">
        <ele>242.562838</ele>
        <time>2024-05-25T13:50:07.000Z</time>
      </trkpt>
      <trkpt lat="40.120818" lon="0.046114">
        <ele>237.767941</ele>
        <time>2024-05-25T13:50:12.000Z</time>
      </trkpt>
      <trkpt lat="40.120437" lon="0.046391">
        <ele>233.41781</ele>
        <time>2024-05-25T13:50:17.000Z</time>
      </trkpt>
      <trkpt lat="40.119798" lon="0.046822">
        <ele>226.84597</ele>
        <time>2024-05-25T13:50:25.000Z</time>
      </trkpt>
      <trkpt lat="40.118891" lon="0.047286">
        <ele>218.071822</ele>
        <time>2024-05-25T13:50:36.000Z</time>
      </trkpt>
      <trkpt lat="40.118492" lon="0.047432">
        <ele>215.316507</ele>
        <time>2024-05-25T13:50:41.000Z</time>
      </trkpt>
      <trkpt lat="40.117478" lon="0.0475">
        <ele>209.260844</ele>
        <time>2024-05-25T13:50:52.000Z</time>
      </trkpt>
      <trkpt lat="40.117091" lon="0.047593">
        <ele>206.916109</ele>
        <time>2024-05-25T13:50:56.000Z</time>
      </trkpt>
      <trkpt lat="40.116792" lon="0.047712">
        <ele>204.896901</ele>
        <time>2024-05-25T13:50:59.000Z</time>
      </trkpt>
      <trkpt lat="40.115543" lon="0.048245">
        <ele>196.866487</ele>
        <time>2024-05-25T13:51:14.000Z</time>
      </trkpt>
      <trkpt lat="40.114526" lon="0.048873">
        <ele>193.246428</ele>
        <time>2024-05-25T13:51:27.000Z</time>
      </trkpt>
      <trkpt lat="40.114422" lon="0.048969">
        <ele>192.97811</ele>
        <time>2024-05-25T13:51:28.000Z</time>
      </trkpt>
      <trkpt lat="40.114371" lon="0.049088">
        <ele>192.703236</ele>
        <time>2024-05-25T13:51:29.000Z</time>
      </trkpt>
      <trkpt lat="40.114307" lon="0.049615">
        <ele>191.689465</ele>
        <time>2024-05-25T13:51:34.000Z</time>
      </trkpt>
      <trkpt lat="40.114214" lon="0.049945">
        <ele>191.075005</ele>
        <time>2024-05-25T13:51:37.000Z</time>
      </trkpt>
      <trkpt lat="40.113618" lon="0.050744">
        <ele>190.618852</ele>
        <time>2024-05-25T13:51:46.000Z</time>
      </trkpt>
      <trkpt lat="40.113433" lon="0.051113">
        <ele>190.438844</ele>
        <time>2024-05-25T13:51:50.000Z</time>
      </trkpt>
      <trkpt lat="40.11336" lon="0.051345">
        <ele>190.334478</ele>
        <time>2024-05-25T13:51:52.000Z</time>
      </trkpt>
      <trkpt lat="40.113336" lon="0.051561">
        <ele>190.24371</ele>
        <time>2024-05-25T13:51:54.000Z</time>
      </trkpt>
      <trkpt lat="40.11331" lon="0.05205">
        <ele>189.191167</ele>
        <time>2024-05-25T13:51:58.000Z</time>
      </trkpt>
      <trkpt lat="40.1134" lon="0.052999">
        <ele>184.763694</ele>
        <time>2024-05-25T13:52:06.000Z</time>
      </trkpt>
      <trkpt lat="40.113459" lon="0.053249">
        <ele>183.608399</ele>
        <time>2024-05-25T13:52:08.000Z</time>
      </trkpt>
      <trkpt lat="40.113571" lon="0.053546">
        <ele>182.068207</ele>
        <time>2024-05-25T13:52:11.000Z</time>
      </trkpt>
      <trkpt lat="40.114056" lon="0.054487">
        <ele>177.036969</ele>
        <time>2024-05-25T13:52:21.000Z</time>
      </trkpt>
      <trkpt lat="40.11416" lon="0.054741">
        <ele>175.833115</ele>
        <time>2024-05-25T13:52:23.000Z</time>
      </trkpt>
      <trkpt lat="40.114252" lon="0.055085">
        <ele>174.330501</ele>
        <time>2024-05-25T13:52:26.000Z</time>
      </trkpt>
      <trkpt lat="40.11455" lon="0.056675">
        <ele>168.29409</ele>
        <time>2024-05-25T13:52:40.000Z</time>
      </trkpt>
      <trkpt lat="40.114691" lon="0.057245">
        <ele>166.869208</ele>
        <time>2024-05-25T13:52:45.000Z</time>
      </trkpt>
      <trkpt lat="40.114716" lon="0.057432">
        <ele>166.390622</ele>
        <time>2024-05-25T13:52:47.000Z</time>
      </trkpt>
      <trkpt lat="40.114668" lon="0.057914">
        <ele>165.227534</ele>
        <time>2024-05-25T13:52:51.000Z</time>
      </trkpt>
      <trkpt lat="40.114616" lon="0.058091">
        <ele>164.733852</ele>
        <time>2024-05-25T13:52:53.000Z</time>
      </trkpt>
      <trkpt lat="40.114456" lon="0.058332">
        <ele>163.963561</ele>
        <time>2024-05-25T13:52:56.000Z</time>
      </trkpt>
      <trkpt lat="40.114354" lon="0.058454">
        <ele>163.594564</ele>
        <time>2024-05-25T13:52:58.000Z</time>
      </trkpt>
      <trkpt lat="40.114221" lon="0.058522">
        <ele>163.265884</ele>
        <time>2024-05-25T13:53:00.000Z</time>
      </trkpt>
      <trkpt lat="40.113747" lon="0.058699">
        <ele>162.197015</ele>
        <time>2024-05-25T13:53:05.000Z</time>
      </trkpt>
      <trkpt lat="40.11317" lon="0.058781">
        <ele>160.884312</ele>
        <time>2024-05-25T13:53:11.000Z</time>
      </trkpt>
      <trkpt lat="40.113001" lon="0.058817">
        <ele>160.520288</ele>
        <time>2024-05-25T13:53:13.000Z</time>
      </trkpt>
      <trkpt lat="40.112365" lon="0.05914">
        <ele>159.086109</ele>
        <time>2024-05-25T13:53:21.000Z</time>
      </trkpt>
      <trkpt lat="40.112258" lon="0.059251">
        <ele>158.824665</ele>
        <time>2024-05-25T13:53:23.000Z</time>
      </trkpt>
      <trkpt lat="40.112164" lon="0.059395">
        <ele>158.541163</ele>
        <time>2024-05-25T13:53:25.000Z</time>
      </trkpt>
      <trkpt lat="40.111936" lon="0.060012">
        <ele>157.476564</ele>
        <time>2024-05-25T13:53:31.000Z</time>
      </trkpt>
      <trkpt lat="40.111605" lon="0.060469">
        <ele>156.518673</ele>
        <time>2024-05-25T13:53:36.000Z</time>
      </trkpt>
      <trkpt lat="40.111536" lon="0.060566">
        <ele>156.325257</ele>
        <time>2024-05-25T13:53:37.000Z</time>
      </trkpt>
      <trkpt lat="40.11127" lon="0.061096">
        <ele>154.096661</ele>
        <time>2024-05-25T13:53:42.000Z</time>
      </trkpt>
      <trkpt lat="40.111109" lon="0.061412">
        <ele>152.584268</ele>
        <time>2024-05-25T13:53:45.000Z</time>
      </trkpt>
      <trkpt lat="40.111059" lon="0.061518">
        <ele>152.102206</ele>
        <time>2024-05-25T13:53:46.000Z</time>
      </trkpt>
      <trkpt lat="40.11099" lon="0.061691">
        <ele>151.295393</ele>
        <time>2024-05-25T13:53:48.000Z</time>
      </trkpt>
      <trkpt lat="40.11095" lon="0.061925">
        <ele>150.362628</ele>
        <time>2024-05-25T13:53:50.000Z</time>
      </trkpt>
      <trkpt lat="40.110948" lon="0.061961">
        <ele>150.210457</ele>
        <time>2024-05-25T13:53:50.000Z</time>
      </trkpt>
      <trkpt lat="40.110873" lon="0.062923">
        <ele>146.457366</ele>
        <time>2024-05-25T13:53:58.000Z</time>
      </trkpt>
      <trkpt lat="40.110801" lon="0.063525">
        <ele>144.684317</ele>
        <time>2024-05-25T13:54:03.000Z</time>
      </trkpt>
      <trkpt lat="40.110753" lon="0.063706">
        <ele>144.102601</ele>
        <time>2024-05-25T13:54:05.000Z</time>
      </trkpt>
      <trkpt lat="40.110699" lon="0.063826">
        <ele>143.660075</ele>
        <time>2024-05-25T13:54:06.000Z</time>
      </trkpt>
      <trkpt lat="40.110389" lon="0.064296">
        <ele>141.888346</ele>
        <time>2024-05-25T13:54:11.000Z</time>
      </trkpt>
      <trkpt lat="40.110219" lon="0.064378">
        <ele>141.168317</ele>
        <time>2024-05-25T13:54:13.000Z</time>
      </trkpt>
      <trkpt lat="40.109791" lon="0.064444">
        <ele>139.699846</ele>
        <time>2024-05-25T13:54:18.000Z</time>
      </trkpt>
      <trkpt lat="40.109434" lon="0.064544">
        <ele>138.979251</ele>
        <time>2024-05-25T13:54:22.000Z</time>
      </trkpt>
      <trkpt lat="40.109291" lon="0.064635">
        <ele>138.663803</ele>
        <time>2024-05-25T13:54:24.000Z</time>
      </trkpt>
      <trkpt lat="40.109144" lon="0.064882">
        <ele>138.203245</ele>
        <time>2024-05-25T13:54:27.000Z</time>
      </trkpt>
      <trkpt lat="40.109083" lon="0.065061">
        <ele>137.90722</ele>
        <time>2024-05-25T13:54:29.000Z</time>
      </trkpt>
      <trkpt lat="40.109013" lon="0.065311">
        <ele>137.487345</ele>
        <time>2024-05-25T13:54:31.000Z</time>
      </trkpt>
      <trkpt lat="40.10896" lon="0.065707">
        <ele>136.894988</ele>
        <time>2024-05-25T13:54:34.000Z</time>
      </trkpt>
      <trkpt lat="40.108823" lon="0.066072">
        <ele>136.292397</ele>
        <time>2024-05-25T13:54:37.000Z</time>
      </trkpt>
      <trkpt lat="40.10873" lon="0.066266">
        <ele>135.928056</ele>
        <time>2024-05-25T13:54:39.000Z</time>
      </trkpt>
      <trkpt lat="40.108314" lon="0.066967">
        <ele>134.494755</ele>
        <time>2024-05-25T13:54:47.000Z</time>
      </trkpt>
      <trkpt lat="40.108213" lon="0.067165">
        <ele>134.113874</ele>
        <time>2024-05-25T13:54:49.000Z</time>
      </trkpt>
      <trkpt lat="40.10817" lon="0.06739">
        <ele>133.742286</ele>
        <time>2024-05-25T13:54:51.000Z</time>
      </trkpt>
      <trkpt lat="40.108052" lon="0.068069">
        <ele>132.620186</ele>
        <time>2024-05-25T13:54:57.000Z</time>
      </trkpt>
      <trkpt lat="40.107912" lon="0.069106">
        <ele>131.256121</ele>
        <time>2024-05-25T13:55:06.000Z</time>
      </trkpt>
      <trkpt lat="40.10783" lon="0.06953">
        <ele>130.666524</ele>
        <time>2024-05-25T13:55:10.000Z</time>
      </trkpt>
      <trkpt lat="40.107733" lon="0.069779">
        <ele>130.324764</ele>
        <time>2024-05-25T13:55:12.000Z</time>
      </trkpt>
      <trkpt lat="40.107561" lon="0.070178">
        <ele>129.738141</ele>
        <time>2024-05-25T13:55:16.000Z</time>
      </trkpt>
      <trkpt lat="40.107378" lon="0.070694">
        <ele>129.135879</ele>
        <time>2024-05-25T13:55:21.000Z</time>
      </trkpt>
      <trkpt lat="40.107087" lon="0.071476">
        <ele>128.326395</ele>
        <time>2024-05-25T13:55:28.000Z</time>
      </trkpt>
      <trkpt lat="40.107047" lon="0.071594">
        <ele>128.198985</ele>
        <time>2024-05-25T13:55:29.000Z</time>
      </trkpt>
      <trkpt lat="40.107048" lon="0.071722">
        <ele>128.079804</ele>
        <time>2024-05-25T13:55:30.000Z</time>
      </trkpt>
      <trkpt lat="40.107071" lon="0.071864">
        <ele>127.948422</ele>
        <time>2024-05-25T13:55:31.000Z</time>
      </trkpt>
      <trkpt lat="40.107235" lon="0.072362">
        <ele>127.432053</ele>
        <time>2024-05-25T13:55:36.000Z</time>
      </trkpt>
      <trkpt lat="40.107977" lon="0.073744">
        <ele>124.888577</ele>
        <time>2024-05-25T13:55:50.000Z</time>
      </trkpt>
      <trkpt lat="40.108071" lon="0.073971">
        <ele>124.492073</ele>
        <time>2024-05-25T13:55:52.000Z</time>
      </trkpt>
      <trkpt lat="40.108132" lon="0.074255">
        <ele>124.046713</ele>
        <time>2024-05-25T13:55:55.000Z</time>
      </trkpt>
      <trkpt lat="40.108033" lon="0.074797">
        <ele>123.984717</ele>
        <time>2024-05-25T13:56:00.000Z</time>
      </trkpt>
      <trkpt lat="40.107958" lon="0.074971">
        <ele>124.191084</ele>
        <time>2024-05-25T13:56:02.000Z</time>
      </trkpt>
      <trkpt lat="40.107899" lon="0.075083">
        <ele>124.357104</ele>
        <time>2024-05-25T13:56:03.000Z</time>
      </trkpt>
      <trkpt lat="40.106916" lon="0.075805">
        <ele>125.925914</ele>
        <time>2024-05-25T13:56:16.000Z</time>
      </trkpt>
      <trkpt lat="40.106671" lon="0.075998">
        <ele>126.812534</ele>
        <time>2024-05-25T13:56:19.000Z</time>
      </trkpt>
      <trkpt lat="40.106534" lon="0.076164">
        <ele>127.930096</ele>
        <time>2024-05-25T13:56:21.000Z</time>
      </trkpt>
      <trkpt lat="40.106326" lon="0.076528">
        <ele>130.029847</ele>
        <time>2024-05-25T13:56:25.000Z</time>
      </trkpt>
      <trkpt lat="40.106266" lon="0.076714">
        <ele>130.998176</ele>
        <time>2024-05-25T13:56:27.000Z</time>
      </trkpt>
      <trkpt lat="40.106195" lon="0.077092">
        <ele>132.694525</ele>
        <time>2024-05-25T13:56:30.000Z</time>
      </trkpt>
      <trkpt lat="40.106258" lon="0.077731">
        <ele>135.683562</ele>
        <time>2024-05-25T13:56:35.000Z</time>
      </trkpt>
      <trkpt lat="40.106298" lon="0.077878">
        <ele>136.393646</ele>
        <time>2024-05-25T13:56:36.000Z</time>
      </trkpt>
      <trkpt lat="40.106401" lon="0.078033">
        <ele>136.970642</ele>
        <time>2024-05-25T13:56:38.000Z</time>
      </trkpt>
      <trkpt lat="40.106491" lon="0.078161">
        <ele>137.048531</ele>
        <time>2024-05-25T13:56:39.000Z</time>
      </trkpt>
      <trkpt lat="40.106778" lon="0.078522">
        <ele>137.28028</ele>
        <time>2024-05-25T13:56:43.000Z</time>
      </trkpt>
      <trkpt lat="40.107158" lon="0.078923">
        <ele>137.567995</ele>
        <time>2024-05-25T13:56:48.000Z</time>
      </trkpt>
      <trkpt lat="40.107386" lon="0.079202">
        <ele>137.746441</ele>
        <time>2024-05-25T13:56:51.000Z</time>
      </trkpt>
      <trkpt lat="40.107742" lon="0.079749">
        <ele>136.957139</ele>
        <time>2024-05-25T13:56:57.000Z</time>
      </trkpt>
      <trkpt lat="40.107851" lon="0.080016">
        <ele>135.299063</ele>
        <time>2024-05-25T13:57:00.000Z</time>
      </trkpt>
      <trkpt lat="40.108107" lon="0.08072">
        <ele>131.233511</ele>
        <time>2024-05-25T13:57:07.000Z</time>
      </trkpt>
      <trkpt lat="40.10816" lon="0.08093">
        <ele>130.041395</ele>
        <time>2024-05-25T13:57:09.000Z</time>
      </trkpt>
      <trkpt lat="40.108236" lon="0.081651">
        <ele>126.207615</ele>
        <time>2024-05-25T13:57:15.000Z</time>
      </trkpt>
      <trkpt lat="40.108512" lon="0.083155">
        <ele>116.075906</ele>
        <time>2024-05-25T13:57:28.000Z</time>
      </trkpt>
      <trkpt lat="40.108626" lon="0.083762">
        <ele>111.794217</ele>
        <time>2024-05-25T13:57:33.000Z</time>
      </trkpt>
      <trkpt lat="40.108641" lon="0.083951">
        <ele>110.500653</ele>
        <time>2024-05-25T13:57:35.000Z</time>
      </trkpt>
      <trkpt lat="40.108593" lon="0.084294">
        <ele>109.329734</ele>
        <time>2024-05-25T13:57:38.000Z</time>
      </trkpt>
      <trkpt lat="40.108426" lon="0.084813">
        <ele>108.382786</ele>
        <time>2024-05-25T13:57:43.000Z</time>
      </trkpt>
      <trkpt lat="40.108201" lon="0.085259">
        <ele>107.444643</ele>
        <time>2024-05-25T13:57:48.000Z</time>
      </trkpt>
      <trkpt lat="40.107903" lon="0.085624">
        <ele>106.521728</ele>
        <time>2024-05-25T13:57:53.000Z</time>
      </trkpt>
      <trkpt lat="40.107769" lon="0.08572">
        <ele>106.168485</ele>
        <time>2024-05-25T13:57:55.000Z</time>
      </trkpt>
      <trkpt lat="40.107233" lon="0.085769">
        <ele>105.601427</ele>
        <time>2024-05-25T13:58:01.000Z</time>
      </trkpt>
      <trkpt lat="40.107063" lon="0.085871">
        <ele>105.556322</ele>
        <time>2024-05-25T13:58:03.000Z</time>
      </trkpt>
      <trkpt lat="40.106993" lon="0.08596">
        <ele>105.535361</ele>
        <time>2024-05-25T13:58:04.000Z</time>
      </trkpt>
      <trkpt lat="40.106885" lon="0.086292">
        <ele>105.467865</ele>
        <time>2024-05-25T13:58:07.000Z</time>
      </trkpt>
      <trkpt lat="40.106835" lon="0.086433">
        <ele>105.439532</ele>
        <time>2024-05-25T13:58:08.000Z</time>
      </trkpt>
      <trkpt lat="40.106836" lon="0.086548">
        <ele>105.417951</ele>
        <time>2024-05-25T13:58:09.000Z</time>
      </trkpt>
      <trkpt lat="40.106872" lon="0.086653">
        <ele>105.397361</ele>
        <time>2024-05-25T13:58:10.000Z</time>
      </trkpt>
      <trkpt lat="40.106973" lon="0.086775">
        <ele>105.367248</ele>
        <time>2024-05-25T13:58:12.000Z</time>
      </trkpt>
      <trkpt lat="40.108814" lon="0.088158">
        <ele>100.576059</ele>
        <time>2024-05-25T13:58:36.000Z</time>
      </trkpt>
      <trkpt lat="40.108935" lon="0.088302">
        <ele>100.117961</ele>
        <time>2024-05-25T13:58:38.000Z</time>
      </trkpt>
      <trkpt lat="40.108995" lon="0.088492">
        <ele>99.826003</ele>
        <time>2024-05-25T13:58:40.000Z</time>
      </trkpt>
      <trkpt lat="40.108913" lon="0.089884">
        <ele>97.982766</ele>
        <time>2024-05-25T13:58:52.000Z</time>
      </trkpt>
      <trkpt lat="40.108928" lon="0.09009">
        <ele>97.719929</ele>
        <time>2024-05-25T13:58:54.000Z</time>
      </trkpt>
      <trkpt lat="40.108955" lon="0.090297">
        <ele>97.444562</ele>
        <time>2024-05-25T13:58:56.000Z</time>
      </trkpt>
      <trkpt lat="40.10933" lon="0.091501">
        <ele>96.531288</ele>
        <time>2024-05-25T13:59:07.000Z</time>
      </trkpt>
      <trkpt lat="40.110034" lon="0.093095">
        <ele>95.532969</ele>
        <time>2024-05-25T13:59:23.000Z</time>
      </trkpt>
      <trkpt lat="40.110102" lon="0.093209">
        <ele>95.427762</ele>
        <time>2024-05-25T13:59:24.000Z</time>
      </trkpt>
      <trkpt lat="40.110237" lon="0.093407">
        <ele>95.219741</ele>
        <time>2024-05-25T13:59:26.000Z</time>
      </trkpt>
      <trkpt lat="40.110372" lon="0.093675">
        <ele>94.970784</ele>
        <time>2024-05-25T13:59:29.000Z</time>
      </trkpt>
      <trkpt lat="40.110388" lon="0.093827">
        <ele>94.841685</ele>
        <time>2024-05-25T13:59:30.000Z</time>
      </trkpt>
      <trkpt lat="40.110346" lon="0.093943">
        <ele>94.74328</ele>
        <time>2024-05-25T13:59:31.000Z</time>
      </trkpt>
      <trkpt lat="40.110355" lon="0.094079">
        <ele>94.643937</ele>
        <time>2024-05-25T13:59:32.000Z</time>
      </trkpt>
      <trkpt lat="40.110401" lon="0.094199">
        <ele>94.545093</ele>
        <time>2024-05-25T13:59:33.000Z</time>
      </trkpt>
      <trkpt lat="40.110466" lon="0.094275">
        <ele>94.446373</ele>
        <time>2024-05-25T13:59:34.000Z</time>
      </trkpt>
      <trkpt lat="40.110568" lon="0.094302">
        <ele>94.335842</ele>
        <time>2024-05-25T13:59:35.000Z</time>
      </trkpt>
      <trkpt lat="40.110629" lon="0.09429">
        <ele>94.278829</ele>
        <time>2024-05-25T13:59:36.000Z</time>
      </trkpt>
      <trkpt lat="40.110772" lon="0.094494">
        <ele>94.079101</ele>
        <time>2024-05-25T13:59:38.000Z</time>
      </trkpt>
      <trkpt lat="40.110964" lon="0.094966">
        <ele>93.232178</ele>
        <time>2024-05-25T13:59:43.000Z</time>
      </trkpt>
      <trkpt lat="40.111403" lon="0.095991">
        <ele>91.364264</ele>
        <time>2024-05-25T13:59:53.000Z</time>
      </trkpt>
      <trkpt lat="40.111628" lon="0.09644">
        <ele>90.512833</ele>
        <time>2024-05-25T13:59:58.000Z</time>
      </trkpt>
      <trkpt lat="40.111928" lon="0.09693">
        <ele>89.693159</ele>
        <time>2024-05-25T14:00:03.000Z</time>
      </trkpt>
      <trkpt lat="40.112219" lon="0.097294">
        <ele>89.033027</ele>
        <time>2024-05-25T14:00:07.000Z</time>
      </trkpt>
      <trkpt lat="40.112495" lon="0.097609">
        <ele>88.453985</ele>
        <time>2024-05-25T14:00:11.000Z</time>
      </trkpt>
      <trkpt lat="40.112841" lon="0.097889">
        <ele>87.788813</ele>
        <time>2024-05-25T14:00:16.000Z</time>
      </trkpt>
      <trkpt lat="40.11324" lon="0.098157">
        <ele>87.409768</ele>
        <time>2024-05-25T14:00:21.000Z</time>
      </trkpt>
      <trkpt lat="40.114594" lon="0.098883">
        <ele>87.429015</ele>
        <time>2024-05-25T14:00:37.000Z</time>
      </trkpt>
      <trkpt lat="40.114808" lon="0.098992">
        <ele>87.314433</ele>
        <time>2024-05-25T14:00:40.000Z</time>
      </trkpt>
      <trkpt lat="40.115361" lon="0.099419">
        <ele>86.580496</ele>
        <time>2024-05-25T14:00:47.000Z</time>
      </trkpt>
      <trkpt lat="40.115903" lon="0.099911">
        <ele>85.833207</ele>
        <time>2024-05-25T14:00:54.000Z</time>
      </trkpt>
      <trkpt lat="40.120585" lon="0.104916">
        <ele>73.051065</ele>
        <time>2024-05-25T14:02:01.000Z</time>
      </trkpt>
      <trkpt lat="40.120814" lon="0.105155">
        <ele>72.365706</ele>
        <time>2024-05-25T14:02:04.000Z</time>
      </trkpt>
      <trkpt lat="40.124711" lon="0.109294">
        <ele>60.806863</ele>
        <time>2024-05-25T14:03:00.000Z</time>
      </trkpt>
      <trkpt lat="40.125282" lon="0.109939">
        <ele>59.012608</ele>
        <time>2024-05-25T14:03:08.000Z</time>
      </trkpt>
      <trkpt lat="40.125643" lon="0.110388">
        <ele>57.857638</ele>
        <time>2024-05-25T14:03:14.000Z</time>
      </trkpt>
      <trkpt lat="40.125983" lon="0.1109">
        <ele>56.662646</ele>
        <time>2024-05-25T14:03:20.000Z</time>
      </trkpt>
      <trkpt lat="40.126257" lon="0.111369">
        <ele>55.716548</ele>
        <time>2024-05-25T14:03:25.000Z</time>
      </trkpt>
      <trkpt lat="40.126563" lon="0.111975">
        <ele>54.523388</ele>
        <time>2024-05-25T14:03:31.000Z</time>
      </trkpt>
      <trkpt lat="40.12677" lon="0.11247">
        <ele>53.600627</ele>
        <time>2024-05-25T14:03:36.000Z</time>
      </trkpt>
      <trkpt lat="40.127023" lon="0.113126">
        <ele>52.767558</ele>
        <time>2024-05-25T14:03:42.000Z</time>
      </trkpt>
      <trkpt lat="40.127164" lon="0.11363">
        <ele>52.29289</ele>
        <time>2024-05-25T14:03:47.000Z</time>
      </trkpt>
      <trkpt lat="40.127391" lon="0.114575">
        <ele>51.43036</ele>
        <time>2024-05-25T14:03:55.000Z</time>
      </trkpt>
      <trkpt lat="40.127531" lon="0.115592">
        <ele>50.435225</ele>
        <time>2024-05-25T14:04:04.000Z</time>
      </trkpt>
      <trkpt lat="40.127516" lon="0.116953">
        <ele>49.046535</ele>
        <time>2024-05-25T14:04:16.000Z</time>
      </trkpt>
      <trkpt lat="40.127429" lon="0.117629">
        <ele>48.26134</ele>
        <time>2024-05-25T14:04:22.000Z</time>
      </trkpt>
      <trkpt lat="40.127367" lon="0.117955">
        <ele>47.835857</ele>
        <time>2024-05-25T14:04:25.000Z</time>
      </trkpt>
      <trkpt lat="40.127186" lon="0.118525">
        <ele>47.054333</ele>
        <time>2024-05-25T14:04:30.000Z</time>
      </trkpt>
      <trkpt lat="40.12712" lon="0.118584">
        <ele>46.919808</ele>
        <time>2024-05-25T14:04:31.000Z</time>
      </trkpt>
      <trkpt lat="40.127019" lon="0.118799">
        <ele>46.625133</ele>
        <time>2024-05-25T14:04:33.000Z</time>
      </trkpt>
      <trkpt lat="40.126989" lon="0.119007">
        <ele>46.350691</ele>
        <time>2024-05-25T14:04:35.000Z</time>
      </trkpt>
      <trkpt lat="40.126998" lon="0.119113">
        <ele>46.222043</ele>
        <time>2024-05-25T14:04:36.000Z</time>
      </trkpt>
      <trkpt lat="40.127048" lon="0.119368">
        <ele>45.877747</ele>
        <time>2024-05-25T14:04:38.000Z</time>
      </trkpt>
      <trkpt lat="40.127131" lon="0.120456">
        <ele>44.528627</ele>
        <time>2024-05-25T14:04:47.000Z</time>
      </trkpt>
      <trkpt lat="40.127109" lon="0.121446">
        <ele>43.290168</ele>
        <time>2024-05-25T14:04:55.000Z</time>
      </trkpt>
      <trkpt lat="40.127064" lon="0.122356">
        <ele>42.01638</ele>
        <time>2024-05-25T14:05:03.000Z</time>
      </trkpt>
      <trkpt lat="40.126966" lon="0.123245">
        <ele>40.661983</ele>
        <time>2024-05-25T14:05:11.000Z</time>
      </trkpt>
      <trkpt lat="40.126915" lon="0.124186">
        <ele>39.243021</ele>
        <time>2024-05-25T14:05:19.000Z</time>
      </trkpt>
      <trkpt lat="40.126839" lon="0.124982">
        <ele>38.270111</ele>
        <time>2024-05-25T14:05:26.000Z</time>
      </trkpt>
      <trkpt lat="40.126255" lon="0.130894">
        <ele>31.050931</ele>
        <time>2024-05-25T14:06:17.000Z</time>
      </trkpt>
      <trkpt lat="40.126159" lon="0.131604">
        <ele>30.034401</ele>
        <time>2024-05-25T14:06:23.000Z</time>
      </trkpt>
      <trkpt lat="40.126056" lon="0.132179">
        <ele>29.155097</ele>
        <time>2024-05-25T14:06:28.000Z</time>
      </trkpt>
      <trkpt lat="40.125871" lon="0.132803">
        <ele>28.167141</ele>
        <time>2024-05-25T14:06:34.000Z</time>
      </trkpt>
      <trkpt lat="40.125265" lon="0.134827">
        <ele>24.933168</ele>
        <time>2024-05-25T14:06:52.000Z</time>
      </trkpt>
      <trkpt lat="40.125003" lon="0.135725">
        <ele>23.566644</ele>
        <time>2024-05-25T14:07:00.000Z</time>
      </trkpt>
      <trkpt lat="40.124623" lon="0.136954">
        <ele>22.030782</ele>
        <time>2024-05-25T14:07:11.000Z</time>
      </trkpt>
      <trkpt lat="40.124627" lon="0.137">
        <ele>21.994603</ele>
        <time>2024-05-25T14:07:11.000Z</time>
      </trkpt>
      <trkpt lat="40.124576" lon="0.137134">
        <ele>21.813762</ele>
        <time>2024-05-25T14:07:12.000Z</time>
      </trkpt>
      <trkpt lat="40.124507" lon="0.137379">
        <ele>21.519</ele>
        <time>2024-05-25T14:07:14.000Z</time>
      </trkpt>
      <trkpt lat="40.124477" lon="0.137497">
        <ele>21.358654</ele>
        <time>2024-05-25T14:07:15.000Z</time>
      </trkpt>
      <trkpt lat="40.124308" lon="0.13804">
        <ele>20.75152</ele>
        <time>2024-05-25T14:07:20.000Z</time>
      </trkpt>
      <trkpt lat="40.124228" lon="0.138326">
        <ele>20.460427</ele>
        <time>2024-05-25T14:07:23.000Z</time>
      </trkpt>
      <trkpt lat="40.122735" lon="0.143258">
        <ele>15.365051</ele>
        <time>2024-05-25T14:08:08.000Z</time>
      </trkpt>
      <trkpt lat="40.122505" lon="0.144029">
        <ele>14.441357</ele>
        <time>2024-05-25T14:08:15.000Z</time>
      </trkpt>
      <trkpt lat="40.122297" lon="0.144788">
        <ele>13.704042</ele>
        <time>2024-05-25T14:08:22.000Z</time>
      </trkpt>
      <trkpt lat="40.122275" lon="0.14508">
        <ele>13.476989</ele>
        <time>2024-05-25T14:08:24.000Z</time>
      </trkpt>
      <trkpt lat="40.122291" lon="0.145336">
        <ele>13.281323</ele>
        <time>2024-05-25T14:08:26.000Z</time>
      </trkpt>
      <trkpt lat="40.122408" lon="0.145605">
        <ele>13.061552</ele>
        <time>2024-05-25T14:08:29.000Z</time>
      </trkpt>
      <trkpt lat="40.122558" lon="0.14582">
        <ele>12.836867</ele>
        <time>2024-05-25T14:08:31.000Z</time>
      </trkpt>
      <trkpt lat="40.122731" lon="0.145949">
        <ele>12.638585</ele>
        <time>2024-05-25T14:08:33.000Z</time>
      </trkpt>
      <trkpt lat="40.122963" lon="0.145992">
        <ele>12.413067</ele>
        <time>2024-05-25T14:08:36.000Z</time>
      </trkpt>
      <trkpt lat="40.123126" lon="0.145978">
        <ele>12.282784</ele>
        <time>2024-05-25T14:08:38.000Z</time>
      </trkpt>
      <trkpt lat="40.123268" lon="0.145914">
        <ele>12.326643</ele>
        <time>2024-05-25T14:08:40.000Z</time>
      </trkpt>
      <trkpt lat="40.123438" lon="0.145799">
        <ele>12.38681</ele>
        <time>2024-05-25T14:08:42.000Z</time>
      </trkpt>
      <trkpt lat="40.123973" lon="0.145124">
        <ele>12.609108</ele>
        <time>2024-05-25T14:08:50.000Z</time>
      </trkpt>
      <trkpt lat="40.12417" lon="0.144975">
        <ele>12.675061</ele>
        <time>2024-05-25T14:08:53.000Z</time>
      </trkpt>
      <trkpt lat="40.124403" lon="0.1449">
        <ele>12.75279</ele>
        <time>2024-05-25T14:08:56.000Z</time>
      </trkpt>
      <trkpt lat="40.124658" lon="0.144925">
        <ele>12.821376</ele>
        <time>2024-05-25T14:08:59.000Z</time>
      </trkpt>
      <trkpt lat="40.12518" lon="0.145071">
        <ele>12.919065</ele>
        <time>2024-05-25T14:09:05.000Z</time>
      </trkpt>
      <trkpt lat="40.126653" lon="0.145743">
        <ele>12.900867</ele>
        <time>2024-05-25T14:09:22.000Z</time>
      </trkpt>
      <trkpt lat="40.127044" lon="0.145984">
        <ele>12.582736</ele>
        <time>2024-05-25T14:09:27.000Z</time>
      </trkpt>
      <trkpt lat="40.127143" lon="0.146066">
        <ele>12.504648</ele>
        <time>2024-05-25T14:09:28.000Z</time>
      </trkpt>
      <trkpt lat="40.127283" lon="0.146246">
        <ele>12.356529</ele>
        <time>2024-05-25T14:09:30.000Z</time>
      </trkpt>
      <trkpt lat="40.127372" lon="0.14648">
        <ele>12.216659</ele>
        <time>2024-05-25T14:09:32.000Z</time>
      </trkpt>
      <trkpt lat="40.127398" lon="0.146733">
        <ele>12.070965</ele>
        <time>2024-05-25T14:09:34.000Z</time>
      </trkpt>
      <trkpt lat="40.127323" lon="0.147331">
        <ele>11.694066</ele>
        <time>2024-05-25T14:09:39.000Z</time>
      </trkpt>
      <trkpt lat="40.12724" lon="0.147804">
        <ele>11.291032</ele>
        <time>2024-05-25T14:09:43.000Z</time>
      </trkpt>
      <trkpt lat="40.127151" lon="0.148045">
        <ele>11.083169</ele>
        <time>2024-05-25T14:09:45.000Z</time>
      </trkpt>
      <trkpt lat="40.126993" lon="0.14819">
        <ele>10.855279</ele>
        <time>2024-05-25T14:09:47.000Z</time>
      </trkpt>
      <trkpt lat="40.126878" lon="0.148218">
        <ele>10.730272</ele>
        <time>2024-05-25T14:09:48.000Z</time>
      </trkpt>
      <trkpt lat="40.126764" lon="0.148173">
        <ele>10.611237</ele>
        <time>2024-05-25T14:09:49.000Z</time>
      </trkpt>
      <trkpt lat="40.126689" lon="0.148124">
        <ele>10.509818</ele>
        <time>2024-05-25T14:09:50.000Z</time>
      </trkpt>
      <trkpt lat="40.126545" lon="0.148131">
        <ele>10.356294</ele>
        <time>2024-05-25T14:09:52.000Z</time>
      </trkpt>
      <trkpt lat="40.126467" lon="0.148166">
        <ele>10.278093</ele>
        <time>2024-05-25T14:09:53.000Z</time>
      </trkpt>
      <trkpt lat="40.126411" lon="0.14828">
        <ele>10.163123</ele>
        <time>2024-05-25T14:09:54.000Z</time>
      </trkpt>
      <trkpt lat="40.126372" lon="0.148451">
        <ele>10.011129</ele>
        <time>2024-05-25T14:09:56.000Z</time>
      </trkpt>
      <trkpt lat="40.126431" lon="0.148617">
        <ele>9.864151</ele>
        <time>2024-05-25T14:09:58.000Z</time>
      </trkpt>
      <trkpt lat="40.126478" lon="0.148874">
        <ele>9.677312</ele>
        <time>2024-05-25T14:10:00.000Z</time>
      </trkpt>
      <trkpt lat="40.126477" lon="0.149064">
        <ele>9.531221</ele>
        <time>2024-05-25T14:10:02.000Z</time>
      </trkpt>
      <trkpt lat="40.12624" lon="0.150467">
        <ele>8.484841</ele>
        <time>2024-05-25T14:10:14.000Z</time>
      </trkpt>
      <trkpt lat="40.126064" lon="0.151729">
        <ele>7.288344</ele>
        <time>2024-05-25T14:10:25.000Z</time>
      </trkpt>
      <trkpt lat="40.125975" lon="0.152136">
        <ele>6.864326</ele>
        <time>2024-05-25T14:10:29.000Z</time>
      </trkpt>
      <trkpt lat="40.125692" lon="0.153518">
        <ele>5.446184</ele>
        <time>2024-05-25T14:10:41.000Z</time>
      </trkpt>
      <trkpt lat="40.125612" lon="0.153671">
        <ele>5.272926</ele>
        <time>2024-05-25T14:10:43.000Z</time>
      </trkpt>
      <trkpt lat="40.125519" lon="0.153697">
        <ele>5.160692</ele>
        <time>2024-05-25T14:10:44.000Z</time>
      </trkpt>
      <trkpt lat="40.125448" lon="0.15379">
        <ele>5.047636</ele>
        <time>2024-05-25T14:10:45.000Z</time>
      </trkpt>
      <trkpt lat="40.125421" lon="0.153884">
        <ele>4.952937</ele>
        <time>2024-05-25T14:10:46.000Z</time>
      </trkpt>
      <trkpt lat="40.125429" lon="0.153986">
        <ele>4.85294</ele>
        <time>2024-05-25T14:10:47.000Z</time>
      </trkpt>
      <trkpt lat="40.125482" lon="0.154084">
        <ele>4.753033</ele>
        <time>2024-05-25T14:10:48.000Z</time>
      </trkpt>
      <trkpt lat="40.125457" lon="0.154248">
        <ele>4.610543</ele>
        <time>2024-05-25T14:10:49.000Z</time>
      </trkpt>
      <trkpt lat="40.125343" lon="0.154808">
        <ele>4.086056</ele>
        <time>2024-05-25T14:10:54.000Z</time>
      </trkpt>
      <trkpt lat="40.125274" lon="0.155132">
        <ele>3.775002</ele>
        <time>2024-05-25T14:10:57.000Z</time>
      </trkpt>
      <trkpt lat="40.125014" lon="0.156307">
        <ele>3.392913</ele>
        <time>2024-05-25T14:11:07.000Z</time>
      </trkpt>
      <trkpt lat="40.124994" lon="0.156377">
        <ele>3.378183</ele>
        <time>2024-05-25T14:11:08.000Z</time>
      </trkpt>
      <trkpt lat="40.124858" lon="0.156978">
        <ele>3.225121</ele>
        <time>2024-05-25T14:11:13.000Z</time>
      </trkpt>
      <trkpt lat="40.124748" lon="0.157143">
        <ele>3.175119</ele>
        <time>2024-05-25T14:11:15.000Z</time>
      </trkpt>
      <trkpt lat="40.12467" lon="0.157134">
        <ele>3.148241</ele>
        <time>2024-05-25T14:11:16.000Z</time>
      </trkpt>
      <trkpt lat="40.12458" lon="0.157161">
        <ele>3.12133</ele>
        <time>2024-05-25T14:11:17.000Z</time>
      </trkpt>
      <trkpt lat="40.124518" lon="0.157234">
        <ele>3.094075</ele>
        <time>2024-05-25T14:11:18.000Z</time>
      </trkpt>
      <trkpt lat="40.124333" lon="0.157305">
        <ele>3.071674</ele>
        <time>2024-05-25T14:11:20.000Z</time>
      </trkpt>
      <trkpt lat="40.124022" lon="0.157244">
        <ele>3.036185</ele>
        <time>2024-05-25T14:11:23.000Z</time>
      </trkpt>
      <trkpt lat="40.123947" lon="0.157221">
        <ele>3.02748</ele>
        <time>2024-05-25T14:11:24.000Z</time>
      </trkpt>
      <trkpt lat="40.123162" lon="0.156913">
        <ele>2.935561</ele>
        <time>2024-05-25T14:11:33.000Z</time>
      </trkpt>
      <trkpt lat="40.122928" lon="0.156818">
        <ele>2.908253</ele>
        <time>2024-05-25T14:11:36.000Z</time>
      </trkpt>
      <trkpt lat="40.122883" lon="0.156791">
        <ele>2.901985</ele>
        <time>2024-05-25T14:11:37.000Z</time>
      </trkpt>
      <trkpt lat="40.122028" lon="0.156436">
        <ele>2.749012</ele>
        <time>2024-05-25T14:11:47.000Z</time>
      </trkpt>
      <trkpt lat="40.12186" lon="0.156298">
        <ele>2.714485</ele>
        <time>2024-05-25T14:11:49.000Z</time>
      </trkpt>
      <trkpt lat="40.121808" lon="0.156179">
        <ele>2.695518</ele>
        <time>2024-05-25T14:11:50.000Z</time>
      </trkpt>
      <trkpt lat="40.121769" lon="0.156118">
        <ele>2.685955</ele>
        <time>2024-05-25T14:11:51.000Z</time>
      </trkpt>
      <trkpt lat="40.121633" lon="0.156071">
        <ele>2.660293</ele>
        <time>2024-05-25T14:11:53.000Z</time>
      </trkpt>
      <trkpt lat="40.121578" lon="0.156092">
        <ele>2.648695</ele>
        <time>2024-05-25T14:11:54.000Z</time>
      </trkpt>
      <trkpt lat="40.121514" lon="0.15614">
        <ele>2.637251</ele>
        <time>2024-05-25T14:11:55.000Z</time>
      </trkpt>
      <trkpt lat="40.121388" lon="0.156131">
        <ele>2.611897</ele>
        <time>2024-05-25T14:11:56.000Z</time>
      </trkpt>
      <trkpt lat="40.120778" lon="0.155806">
        <ele>2.476436</ele>
        <time>2024-05-25T14:12:03.000Z</time>
      </trkpt>
      <trkpt lat="40.120691" lon="0.155773">
        <ele>2.455303</ele>
        <time>2024-05-25T14:12:04.000Z</time>
      </trkpt>
      <trkpt lat="40.120554" lon="0.155694">
        <ele>2.42367</ele>
        <time>2024-05-25T14:12:06.000Z</time>
      </trkpt>
      <trkpt lat="40.11982" lon="0.155307">
        <ele>2.241394</ele>
        <time>2024-05-25T14:12:15.000Z</time>
      </trkpt>
      <trkpt lat="40.119696" lon="0.155242">
        <ele>2.211907</ele>
        <time>2024-05-25T14:12:16.000Z</time>
      </trkpt>
      <trkpt lat="40.119293" lon="0.155036">
        <ele>2.120239</ele>
        <time>2024-05-25T14:12:21.000Z</time>
      </trkpt>
      <trkpt lat="40.118154" lon="0.154413">
        <ele>1.862603</ele>
        <time>2024-05-25T14:12:35.000Z</time>
      </trkpt>
      <trkpt lat="40.117785" lon="0.15423">
        <ele>1.802315</ele>
        <time>2024-05-25T14:12:39.000Z</time>
      </trkpt>
      <trkpt lat="40.11759" lon="0.154126">
        <ele>1.852463</ele>
        <time>2024-05-25T14:12:41.000Z</time>
      </trkpt>
      <trkpt lat="40.116862" lon="0.153727">
        <ele>2.043804</ele>
        <time>2024-05-25T14:12:50.000Z</time>
      </trkpt>
      <trkpt lat="40.116466" lon="0.153468">
        <ele>2.151785</ele>
        <time>2024-05-25T14:12:55.000Z</time>
      </trkpt>
      <trkpt lat="40.116268" lon="0.153306">
        <ele>2.207307</ele>
        <time>2024-05-25T14:12:58.000Z</time>
      </trkpt>
      <trkpt lat="40.116252" lon="0.15318">
        <ele>2.250932</ele>
        <time>2024-05-25T14:12:59.000Z</time>
      </trkpt>
      <trkpt lat="40.1162" lon="0.153063">
        <ele>2.330641</ele>
        <time>2024-05-25T14:13:00.000Z</time>
      </trkpt>
      <trkpt lat="40.116123" lon="0.153019">
        <ele>2.395754</ele>
        <time>2024-05-25T14:13:01.000Z</time>
      </trkpt>
      <trkpt lat="40.116046" lon="0.153004">
        <ele>2.461402</ele>
        <time>2024-05-25T14:13:02.000Z</time>
      </trkpt>
      <trkpt lat="40.115985" lon="0.153034">
        <ele>2.521518</ele>
        <time>2024-05-25T14:13:03.000Z</time>
      </trkpt>
      <trkpt lat="40.115933" lon="0.153095">
        <ele>2.575773</ele>
        <time>2024-05-25T14:13:04.000Z</time>
      </trkpt>
      <trkpt lat="40.115799" lon="0.153079">
        <ele>2.678803</ele>
        <time>2024-05-25T14:13:05.000Z</time>
      </trkpt>
      <trkpt lat="40.115536" lon="0.15295">
        <ele>2.894756</ele>
        <time>2024-05-25T14:13:08.000Z</time>
      </trkpt>
      <trkpt lat="40.115181" lon="0.152799">
        <ele>3.189195</ele>
        <time>2024-05-25T14:13:12.000Z</time>
      </trkpt>
      <trkpt lat="40.113683" lon="0.152123">
        <ele>4.172686</ele>
        <time>2024-05-25T14:13:30.000Z</time>
      </trkpt>
      <trkpt lat="40.113588" lon="0.152072">
        <ele>4.226457</ele>
        <time>2024-05-25T14:13:31.000Z</time>
      </trkpt>
      <trkpt lat="40.112257" lon="0.15146">
        <ele>4.323637</ele>
        <time>2024-05-25T14:13:47.000Z</time>
      </trkpt>
      <trkpt lat="40.111122" lon="0.150954">
        <ele>3.9275</ele>
        <time>2024-05-25T14:14:00.000Z</time>
      </trkpt>
      <trkpt lat="40.11096" lon="0.150847">
        <ele>3.918864</ele>
        <time>2024-05-25T14:14:02.000Z</time>
      </trkpt>
      <trkpt lat="40.110896" lon="0.150693">
        <ele>3.912334</ele>
        <time>2024-05-25T14:14:03.000Z</time>
      </trkpt>
      <trkpt lat="40.110826" lon="0.15065">
        <ele>3.907972</ele>
        <time>2024-05-25T14:14:04.000Z</time>
      </trkpt>
      <trkpt lat="40.110725" lon="0.150645">
        <ele>3.903647</ele>
        <time>2024-05-25T14:14:05.000Z</time>
      </trkpt>
      <trkpt lat="40.110676" lon="0.150669">
        <ele>3.900602</ele>
        <time>2024-05-25T14:14:06.000Z</time>
      </trkpt>
      <trkpt lat="40.110632" lon="0.150738">
        <ele>3.897473</ele>
        <time>2024-05-25T14:14:07.000Z</time>
      </trkpt>
      <trkpt lat="40.110626" lon="0.150759">
        <ele>3.896818</ele>
        <time>2024-05-25T14:14:07.000Z</time>
      </trkpt>
      <trkpt lat="40.110625" lon="0.150764">
        <ele>3.896671</ele>
        <time>2024-05-25T14:14:07.000Z</time>
      </trkpt>
      <trkpt lat="40.110608" lon="0.150774">
        <ele>3.896059</ele>
        <time>2024-05-25T14:14:07.000Z</time>
      </trkpt>
      <trkpt lat="40.110583" lon="0.15089">
        <ele>3.891576</ele>
        <time>2024-05-25T14:14:08.000Z</time>
      </trkpt>
      <trkpt lat="40.110608" lon="0.150982">
        <ele>3.887973</ele>
        <time>2024-05-25T14:14:09.000Z</time>
      </trkpt>
      <trkpt lat="40.110647" lon="0.151068">
        <ele>3.884346</ele>
        <time>2024-05-25T14:14:10.000Z</time>
      </trkpt>
      <trkpt lat="40.110745" lon="0.151119">
        <ele>3.879244</ele>
        <time>2024-05-25T14:14:11.000Z</time>
      </trkpt>
      <trkpt lat="40.110857" lon="0.151106">
        <ele>3.873928</ele>
        <time>2024-05-25T14:14:12.000Z</time>
      </trkpt>
      <trkpt lat="40.110941" lon="0.151023">
        <ele>3.868617</ele>
        <time>2024-05-25T14:14:13.000Z</time>
      </trkpt>
      <trkpt lat="40.1111" lon="0.151023">
        <ele>3.860587</ele>
        <time>2024-05-25T14:14:15.000Z</time>
      </trkpt>
      <trkpt lat="40.111409" lon="0.151158">
        <ele>3.84581035619</ele>
        <time>2024-05-25T14:14:19.000Z</time>
      </trkpt>
      <trkpt lat="40.11222" lon="0.151547">
        <ele>3.80662983282</ele>
        <time>2024-05-25T14:14:29.000Z</time>
      </trkpt>
      <trkpt lat="40.111999" lon="0.152253">
        <ele>3.7801684408</ele>
        <time>2024-05-25T14:14:35.000Z</time>
      </trkpt>
      <trkpt lat="40.111935" lon="0.152412">
        <ele>3.7739358625</ele>
        <time>2024-05-25T14:14:37.000Z</time>
      </trkpt>
      <trkpt lat="40.111891" lon="0.152549">
        <ele>3.76878162591</ele>
        <time>2024-05-25T14:14:38.000Z</time>
      </trkpt>
      <trkpt lat="40.111522" lon="0.153671">
        <ele>3.72641600533</ele>
        <time>2024-05-25T14:14:48.000Z</time>
      </trkpt>
      <trkpt lat="40.111529" lon="0.153661">
        <ele>3.72594576535</ele>
        <time>2024-05-25T14:14:48.000Z</time>
      </trkpt>
    </trkseg>
  </trk>
</gpx>

<!--
Performance optimized by W3 Total Cache. Learn more: https://www.boldgrid.com/w3-total-cache/?utm_source=w3tc&utm_medium=footer_comment&utm_campaign=free_plugin

Page Caching using Disk: Enhanced{w3tc_pagecache_reject_reason} 

Served from: www.aquabike.world @ 2026-05-06 21:29:02 by W3 Total Cache
-->